<?xml version="1.0" encoding="UTF-8" standalone="no" ?>
<gpx xmlns="http://www.topografix.com/GPX/1/1" xmlns:xsi="http://www.w3.org/2001/XMLSchema-instance" xsi:schemaLocation="http://www.topografix.com/GPX/1/1 http://www.topografix.com/GPX/1/1/gpx.xsd" version="1.1" creator="VisuGPX - https://www.visugpx.com">
  <metadata>
    <name>Lyon Communay</name>
    <desc><![CDATA[Sortie de Lyon OK. Petites routes ensuite pas mal]]></desc>
  </metadata>
  <trk>
    <name><![CDATA[Town to couscous]]></name>
    <trkseg>
      <trkpt lat="45.74118" lon="4.85467">
        <ele>172</ele>
        <time>2016-04-17T10:17:37Z</time>
      </trkpt>
      <trkpt lat="45.7411" lon="4.85476">
        <ele>172</ele>
        <time>2016-04-17T10:18:09Z</time>
      </trkpt>
      <trkpt lat="45.74103" lon="4.85493">
        <ele>172</ele>
        <time>2016-04-17T10:18:13Z</time>
      </trkpt>
      <trkpt lat="45.74096" lon="4.85511">
        <ele>172</ele>
        <time>2016-04-17T10:18:16Z</time>
      </trkpt>
      <trkpt lat="45.74091" lon="4.85528">
        <ele>172</ele>
        <time>2016-04-17T10:18:19Z</time>
      </trkpt>
      <trkpt lat="45.74086" lon="4.85544">
        <ele>172</ele>
        <time>2016-04-17T10:18:22Z</time>
      </trkpt>
      <trkpt lat="45.7408" lon="4.85557">
        <ele>172</ele>
        <time>2016-04-17T10:18:27Z</time>
      </trkpt>
      <trkpt lat="45.74074" lon="4.85577">
        <ele>173.6</ele>
        <time>2016-04-17T10:18:30Z</time>
      </trkpt>
      <trkpt lat="45.74072" lon="4.85585">
        <ele>174</ele>
        <time>2016-04-17T10:18:31Z</time>
      </trkpt>
      <trkpt lat="45.74069" lon="4.85594">
        <ele>174</ele>
        <time>2016-04-17T10:18:32Z</time>
      </trkpt>
      <trkpt lat="45.74063" lon="4.85613">
        <ele>174</ele>
        <time>2016-04-17T10:18:34Z</time>
      </trkpt>
      <trkpt lat="45.7406" lon="4.85623">
        <ele>174</ele>
        <time>2016-04-17T10:18:35Z</time>
      </trkpt>
      <trkpt lat="45.74052" lon="4.85642">
        <ele>174</ele>
        <time>2016-04-17T10:18:37Z</time>
      </trkpt>
      <trkpt lat="45.74049" lon="4.85652">
        <ele>174</ele>
        <time>2016-04-17T10:18:38Z</time>
      </trkpt>
      <trkpt lat="45.74045" lon="4.85662">
        <ele>174</ele>
        <time>2016-04-17T10:18:39Z</time>
      </trkpt>
      <trkpt lat="45.7404" lon="4.85672">
        <ele>174.8</ele>
        <time>2016-04-17T10:18:40Z</time>
      </trkpt>
      <trkpt lat="45.74037" lon="4.85683">
        <ele>175</ele>
        <time>2016-04-17T10:18:41Z</time>
      </trkpt>
      <trkpt lat="45.74033" lon="4.85694">
        <ele>175</ele>
        <time>2016-04-17T10:18:42Z</time>
      </trkpt>
      <trkpt lat="45.74029" lon="4.85705">
        <ele>175</ele>
        <time>2016-04-17T10:18:43Z</time>
      </trkpt>
      <trkpt lat="45.74025" lon="4.85716">
        <ele>175</ele>
        <time>2016-04-17T10:18:44Z</time>
      </trkpt>
      <trkpt lat="45.74022" lon="4.85727">
        <ele>175</ele>
        <time>2016-04-17T10:18:45Z</time>
      </trkpt>
      <trkpt lat="45.74018" lon="4.85738">
        <ele>175</ele>
        <time>2016-04-17T10:18:46Z</time>
      </trkpt>
      <trkpt lat="45.74015" lon="4.85749">
        <ele>175</ele>
        <time>2016-04-17T10:18:47Z</time>
      </trkpt>
      <trkpt lat="45.74011" lon="4.8576">
        <ele>175</ele>
        <time>2016-04-17T10:18:48Z</time>
      </trkpt>
      <trkpt lat="45.74007" lon="4.85771">
        <ele>175</ele>
        <time>2016-04-17T10:18:49Z</time>
      </trkpt>
      <trkpt lat="45.74004" lon="4.85782">
        <ele>175</ele>
        <time>2016-04-17T10:18:50Z</time>
      </trkpt>
      <trkpt lat="45.74001" lon="4.85792">
        <ele>175</ele>
        <time>2016-04-17T10:18:51Z</time>
      </trkpt>
      <trkpt lat="45.73997" lon="4.85803">
        <ele>175</ele>
        <time>2016-04-17T10:18:52Z</time>
      </trkpt>
      <trkpt lat="45.73994" lon="4.85814">
        <ele>175</ele>
        <time>2016-04-17T10:18:53Z</time>
      </trkpt>
      <trkpt lat="45.7399" lon="4.85825">
        <ele>175</ele>
        <time>2016-04-17T10:18:54Z</time>
      </trkpt>
      <trkpt lat="45.73987" lon="4.85835">
        <ele>175</ele>
        <time>2016-04-17T10:18:55Z</time>
      </trkpt>
      <trkpt lat="45.73983" lon="4.85846">
        <ele>175</ele>
        <time>2016-04-17T10:18:56Z</time>
      </trkpt>
      <trkpt lat="45.7398" lon="4.85856">
        <ele>175</ele>
        <time>2016-04-17T10:18:57Z</time>
      </trkpt>
      <trkpt lat="45.73977" lon="4.85867">
        <ele>175</ele>
        <time>2016-04-17T10:18:58Z</time>
      </trkpt>
      <trkpt lat="45.73973" lon="4.85878">
        <ele>175</ele>
        <time>2016-04-17T10:18:59Z</time>
      </trkpt>
      <trkpt lat="45.7397" lon="4.85889">
        <ele>175</ele>
        <time>2016-04-17T10:19:00Z</time>
      </trkpt>
      <trkpt lat="45.73968" lon="4.859">
        <ele>175</ele>
        <time>2016-04-17T10:19:01Z</time>
      </trkpt>
      <trkpt lat="45.73961" lon="4.85921">
        <ele>175</ele>
        <time>2016-04-17T10:19:03Z</time>
      </trkpt>
      <trkpt lat="45.73959" lon="4.85929">
        <ele>175</ele>
        <time>2016-04-17T10:19:04Z</time>
      </trkpt>
      <trkpt lat="45.73957" lon="4.85935">
        <ele>175</ele>
        <time>2016-04-17T10:19:05Z</time>
      </trkpt>
      <trkpt lat="45.73956" lon="4.8594">
        <ele>175</ele>
        <time>2016-04-17T10:19:07Z</time>
      </trkpt>
      <trkpt lat="45.73955" lon="4.85946">
        <ele>176</ele>
        <time>2016-04-17T10:19:38Z</time>
      </trkpt>
      <trkpt lat="45.73953" lon="4.85952">
        <ele>175.2</ele>
        <time>2016-04-17T10:19:40Z</time>
      </trkpt>
      <trkpt lat="45.73949" lon="4.85962">
        <ele>175</ele>
        <time>2016-04-17T10:19:42Z</time>
      </trkpt>
      <trkpt lat="45.73948" lon="4.85968">
        <ele>175</ele>
        <time>2016-04-17T10:19:43Z</time>
      </trkpt>
      <trkpt lat="45.73946" lon="4.85974">
        <ele>175</ele>
        <time>2016-04-17T10:19:44Z</time>
      </trkpt>
      <trkpt lat="45.73944" lon="4.8598">
        <ele>175</ele>
        <time>2016-04-17T10:19:45Z</time>
      </trkpt>
      <trkpt lat="45.73942" lon="4.85987">
        <ele>175</ele>
        <time>2016-04-17T10:19:46Z</time>
      </trkpt>
      <trkpt lat="45.73939" lon="4.85994">
        <ele>175</ele>
        <time>2016-04-17T10:19:47Z</time>
      </trkpt>
      <trkpt lat="45.73937" lon="4.86002">
        <ele>175</ele>
        <time>2016-04-17T10:19:48Z</time>
      </trkpt>
      <trkpt lat="45.73934" lon="4.86009">
        <ele>175</ele>
        <time>2016-04-17T10:19:49Z</time>
      </trkpt>
      <trkpt lat="45.73932" lon="4.86018">
        <ele>175.8</ele>
        <time>2016-04-17T10:19:50Z</time>
      </trkpt>
      <trkpt lat="45.73929" lon="4.86026">
        <ele>176</ele>
        <time>2016-04-17T10:19:51Z</time>
      </trkpt>
      <trkpt lat="45.73926" lon="4.86036">
        <ele>176</ele>
        <time>2016-04-17T10:19:52Z</time>
      </trkpt>
      <trkpt lat="45.73923" lon="4.86046">
        <ele>176</ele>
        <time>2016-04-17T10:19:53Z</time>
      </trkpt>
      <trkpt lat="45.7392" lon="4.86056">
        <ele>176</ele>
        <time>2016-04-17T10:19:54Z</time>
      </trkpt>
      <trkpt lat="45.73916" lon="4.86066">
        <ele>176</ele>
        <time>2016-04-17T10:19:55Z</time>
      </trkpt>
      <trkpt lat="45.73913" lon="4.86077">
        <ele>176</ele>
        <time>2016-04-17T10:19:56Z</time>
      </trkpt>
      <trkpt lat="45.7391" lon="4.86087">
        <ele>176</ele>
        <time>2016-04-17T10:19:57Z</time>
      </trkpt>
      <trkpt lat="45.73906" lon="4.86098">
        <ele>176</ele>
        <time>2016-04-17T10:19:58Z</time>
      </trkpt>
      <trkpt lat="45.73903" lon="4.86109">
        <ele>176</ele>
        <time>2016-04-17T10:19:59Z</time>
      </trkpt>
      <trkpt lat="45.73899" lon="4.86119">
        <ele>176</ele>
        <time>2016-04-17T10:20:00Z</time>
      </trkpt>
      <trkpt lat="45.73896" lon="4.8613">
        <ele>176</ele>
        <time>2016-04-17T10:20:01Z</time>
      </trkpt>
      <trkpt lat="45.73892" lon="4.86141">
        <ele>176</ele>
        <time>2016-04-17T10:20:02Z</time>
      </trkpt>
      <trkpt lat="45.73889" lon="4.86152">
        <ele>176</ele>
        <time>2016-04-17T10:20:03Z</time>
      </trkpt>
      <trkpt lat="45.73885" lon="4.86163">
        <ele>176</ele>
        <time>2016-04-17T10:20:04Z</time>
      </trkpt>
      <trkpt lat="45.73882" lon="4.86174">
        <ele>176</ele>
        <time>2016-04-17T10:20:05Z</time>
      </trkpt>
      <trkpt lat="45.73878" lon="4.86185">
        <ele>176</ele>
        <time>2016-04-17T10:20:06Z</time>
      </trkpt>
      <trkpt lat="45.73875" lon="4.86197">
        <ele>176</ele>
        <time>2016-04-17T10:20:07Z</time>
      </trkpt>
      <trkpt lat="45.73872" lon="4.86207">
        <ele>176</ele>
        <time>2016-04-17T10:20:08Z</time>
      </trkpt>
      <trkpt lat="45.73868" lon="4.86218">
        <ele>176</ele>
        <time>2016-04-17T10:20:09Z</time>
      </trkpt>
      <trkpt lat="45.73865" lon="4.86229">
        <ele>175.2</ele>
        <time>2016-04-17T10:20:10Z</time>
      </trkpt>
      <trkpt lat="45.73861" lon="4.86239">
        <ele>175</ele>
        <time>2016-04-17T10:20:11Z</time>
      </trkpt>
      <trkpt lat="45.73858" lon="4.8625">
        <ele>175</ele>
        <time>2016-04-17T10:20:12Z</time>
      </trkpt>
      <trkpt lat="45.73855" lon="4.86261">
        <ele>175</ele>
        <time>2016-04-17T10:20:13Z</time>
      </trkpt>
      <trkpt lat="45.73851" lon="4.86272">
        <ele>175</ele>
        <time>2016-04-17T10:20:14Z</time>
      </trkpt>
      <trkpt lat="45.73848" lon="4.86283">
        <ele>175</ele>
        <time>2016-04-17T10:20:15Z</time>
      </trkpt>
      <trkpt lat="45.73844" lon="4.86294">
        <ele>175</ele>
        <time>2016-04-17T10:20:16Z</time>
      </trkpt>
      <trkpt lat="45.73841" lon="4.86305">
        <ele>175</ele>
        <time>2016-04-17T10:20:17Z</time>
      </trkpt>
      <trkpt lat="45.73837" lon="4.86316">
        <ele>175</ele>
        <time>2016-04-17T10:20:18Z</time>
      </trkpt>
      <trkpt lat="45.73834" lon="4.86327">
        <ele>175</ele>
        <time>2016-04-17T10:20:19Z</time>
      </trkpt>
      <trkpt lat="45.73827" lon="4.86349">
        <ele>174</ele>
        <time>2016-04-17T10:20:21Z</time>
      </trkpt>
      <trkpt lat="45.73823" lon="4.8636">
        <ele>174</ele>
        <time>2016-04-17T10:20:22Z</time>
      </trkpt>
      <trkpt lat="45.7382" lon="4.86371">
        <ele>174</ele>
        <time>2016-04-17T10:20:23Z</time>
      </trkpt>
      <trkpt lat="45.73816" lon="4.86382">
        <ele>174</ele>
        <time>2016-04-17T10:20:24Z</time>
      </trkpt>
      <trkpt lat="45.73812" lon="4.86393">
        <ele>174</ele>
        <time>2016-04-17T10:20:25Z</time>
      </trkpt>
      <trkpt lat="45.73809" lon="4.86404">
        <ele>174</ele>
        <time>2016-04-17T10:20:26Z</time>
      </trkpt>
      <trkpt lat="45.73806" lon="4.86414">
        <ele>174</ele>
        <time>2016-04-17T10:20:27Z</time>
      </trkpt>
      <trkpt lat="45.73802" lon="4.86424">
        <ele>174</ele>
        <time>2016-04-17T10:20:28Z</time>
      </trkpt>
      <trkpt lat="45.73799" lon="4.86434">
        <ele>174</ele>
        <time>2016-04-17T10:20:29Z</time>
      </trkpt>
      <trkpt lat="45.73797" lon="4.86443">
        <ele>174</ele>
        <time>2016-04-17T10:20:30Z</time>
      </trkpt>
      <trkpt lat="45.73794" lon="4.86453">
        <ele>174</ele>
        <time>2016-04-17T10:20:31Z</time>
      </trkpt>
      <trkpt lat="45.73792" lon="4.86462">
        <ele>174</ele>
        <time>2016-04-17T10:20:32Z</time>
      </trkpt>
      <trkpt lat="45.73789" lon="4.86472">
        <ele>174</ele>
        <time>2016-04-17T10:20:33Z</time>
      </trkpt>
      <trkpt lat="45.73786" lon="4.86482">
        <ele>174</ele>
        <time>2016-04-17T10:20:34Z</time>
      </trkpt>
      <trkpt lat="45.73783" lon="4.86491">
        <ele>174</ele>
        <time>2016-04-17T10:20:35Z</time>
      </trkpt>
      <trkpt lat="45.73781" lon="4.865">
        <ele>174</ele>
        <time>2016-04-17T10:20:36Z</time>
      </trkpt>
      <trkpt lat="45.73778" lon="4.86508">
        <ele>174</ele>
        <time>2016-04-17T10:20:37Z</time>
      </trkpt>
      <trkpt lat="45.73776" lon="4.86514">
        <ele>174</ele>
        <time>2016-04-17T10:20:38Z</time>
      </trkpt>
      <trkpt lat="45.73772" lon="4.86526">
        <ele>174</ele>
        <time>2016-04-17T10:20:40Z</time>
      </trkpt>
      <trkpt lat="45.73769" lon="4.86535">
        <ele>174</ele>
        <time>2016-04-17T10:20:42Z</time>
      </trkpt>
      <trkpt lat="45.73766" lon="4.86542">
        <ele>174</ele>
        <time>2016-04-17T10:20:44Z</time>
      </trkpt>
      <trkpt lat="45.73766" lon="4.86548">
        <ele>175</ele>
        <time>2016-04-17T10:21:03Z</time>
      </trkpt>
      <trkpt lat="45.73763" lon="4.86555">
        <ele>175</ele>
        <time>2016-04-17T10:21:06Z</time>
      </trkpt>
      <trkpt lat="45.73759" lon="4.86564">
        <ele>175</ele>
        <time>2016-04-17T10:21:08Z</time>
      </trkpt>
      <trkpt lat="45.73757" lon="4.8657">
        <ele>175</ele>
        <time>2016-04-17T10:21:09Z</time>
      </trkpt>
      <trkpt lat="45.73755" lon="4.86576">
        <ele>175</ele>
        <time>2016-04-17T10:21:10Z</time>
      </trkpt>
      <trkpt lat="45.73753" lon="4.86582">
        <ele>175</ele>
        <time>2016-04-17T10:21:11Z</time>
      </trkpt>
      <trkpt lat="45.73751" lon="4.86588">
        <ele>175</ele>
        <time>2016-04-17T10:21:12Z</time>
      </trkpt>
      <trkpt lat="45.73749" lon="4.86594">
        <ele>175</ele>
        <time>2016-04-17T10:21:13Z</time>
      </trkpt>
      <trkpt lat="45.73748" lon="4.86601">
        <ele>175</ele>
        <time>2016-04-17T10:21:14Z</time>
      </trkpt>
      <trkpt lat="45.73746" lon="4.86607">
        <ele>175</ele>
        <time>2016-04-17T10:21:15Z</time>
      </trkpt>
      <trkpt lat="45.73743" lon="4.86614">
        <ele>175</ele>
        <time>2016-04-17T10:21:16Z</time>
      </trkpt>
      <trkpt lat="45.73741" lon="4.86621">
        <ele>175</ele>
        <time>2016-04-17T10:21:17Z</time>
      </trkpt>
      <trkpt lat="45.73739" lon="4.86629">
        <ele>175</ele>
        <time>2016-04-17T10:21:18Z</time>
      </trkpt>
      <trkpt lat="45.73736" lon="4.86637">
        <ele>175</ele>
        <time>2016-04-17T10:21:19Z</time>
      </trkpt>
      <trkpt lat="45.73733" lon="4.86645">
        <ele>175</ele>
        <time>2016-04-17T10:21:20Z</time>
      </trkpt>
      <trkpt lat="45.73731" lon="4.86653">
        <ele>175.7</ele>
        <time>2016-04-17T10:21:21Z</time>
      </trkpt>
      <trkpt lat="45.73728" lon="4.86662">
        <ele>176</ele>
        <time>2016-04-17T10:21:22Z</time>
      </trkpt>
      <trkpt lat="45.73722" lon="4.86678">
        <ele>176</ele>
        <time>2016-04-17T10:21:24Z</time>
      </trkpt>
      <trkpt lat="45.73719" lon="4.86685">
        <ele>176</ele>
        <time>2016-04-17T10:21:25Z</time>
      </trkpt>
      <trkpt lat="45.73717" lon="4.86692">
        <ele>176</ele>
        <time>2016-04-17T10:21:26Z</time>
      </trkpt>
      <trkpt lat="45.73712" lon="4.86705">
        <ele>176</ele>
        <time>2016-04-17T10:21:28Z</time>
      </trkpt>
      <trkpt lat="45.73707" lon="4.86719">
        <ele>176</ele>
        <time>2016-04-17T10:21:30Z</time>
      </trkpt>
      <trkpt lat="45.73704" lon="4.86728">
        <ele>176</ele>
        <time>2016-04-17T10:21:31Z</time>
      </trkpt>
      <trkpt lat="45.73702" lon="4.86736">
        <ele>176</ele>
        <time>2016-04-17T10:21:32Z</time>
      </trkpt>
      <trkpt lat="45.73699" lon="4.86746">
        <ele>176</ele>
        <time>2016-04-17T10:21:33Z</time>
      </trkpt>
      <trkpt lat="45.73697" lon="4.86754">
        <ele>176</ele>
        <time>2016-04-17T10:21:34Z</time>
      </trkpt>
      <trkpt lat="45.73694" lon="4.86763">
        <ele>176</ele>
        <time>2016-04-17T10:21:35Z</time>
      </trkpt>
      <trkpt lat="45.73689" lon="4.8678">
        <ele>176</ele>
        <time>2016-04-17T10:21:37Z</time>
      </trkpt>
      <trkpt lat="45.73686" lon="4.86789">
        <ele>176</ele>
        <time>2016-04-17T10:21:38Z</time>
      </trkpt>
      <trkpt lat="45.73683" lon="4.86799">
        <ele>176</ele>
        <time>2016-04-17T10:21:39Z</time>
      </trkpt>
      <trkpt lat="45.7368" lon="4.86808">
        <ele>176</ele>
        <time>2016-04-17T10:21:40Z</time>
      </trkpt>
      <trkpt lat="45.73677" lon="4.86818">
        <ele>176</ele>
        <time>2016-04-17T10:21:41Z</time>
      </trkpt>
      <trkpt lat="45.73674" lon="4.86828">
        <ele>176</ele>
        <time>2016-04-17T10:21:42Z</time>
      </trkpt>
      <trkpt lat="45.7367" lon="4.86839">
        <ele>176</ele>
        <time>2016-04-17T10:21:43Z</time>
      </trkpt>
      <trkpt lat="45.73667" lon="4.86849">
        <ele>176</ele>
        <time>2016-04-17T10:21:44Z</time>
      </trkpt>
      <trkpt lat="45.73663" lon="4.8686">
        <ele>176</ele>
        <time>2016-04-17T10:21:45Z</time>
      </trkpt>
      <trkpt lat="45.73659" lon="4.8687">
        <ele>176</ele>
        <time>2016-04-17T10:21:46Z</time>
      </trkpt>
      <trkpt lat="45.73655" lon="4.86881">
        <ele>176</ele>
        <time>2016-04-17T10:21:47Z</time>
      </trkpt>
      <trkpt lat="45.73652" lon="4.86892">
        <ele>176</ele>
        <time>2016-04-17T10:21:48Z</time>
      </trkpt>
      <trkpt lat="45.73648" lon="4.86902">
        <ele>176</ele>
        <time>2016-04-17T10:21:49Z</time>
      </trkpt>
      <trkpt lat="45.73645" lon="4.86913">
        <ele>176</ele>
        <time>2016-04-17T10:21:50Z</time>
      </trkpt>
      <trkpt lat="45.73641" lon="4.86924">
        <ele>176</ele>
        <time>2016-04-17T10:21:51Z</time>
      </trkpt>
      <trkpt lat="45.73637" lon="4.86934">
        <ele>176</ele>
        <time>2016-04-17T10:21:52Z</time>
      </trkpt>
      <trkpt lat="45.73627" lon="4.8695">
        <ele>176</ele>
        <time>2016-04-17T10:21:54Z</time>
      </trkpt>
      <trkpt lat="45.73621" lon="4.86956">
        <ele>176</ele>
        <time>2016-04-17T10:21:55Z</time>
      </trkpt>
      <trkpt lat="45.73615" lon="4.86961">
        <ele>176</ele>
        <time>2016-04-17T10:21:56Z</time>
      </trkpt>
      <trkpt lat="45.73604" lon="4.86971">
        <ele>176</ele>
        <time>2016-04-17T10:21:58Z</time>
      </trkpt>
      <trkpt lat="45.73598" lon="4.86976">
        <ele>176</ele>
        <time>2016-04-17T10:21:59Z</time>
      </trkpt>
      <trkpt lat="45.73592" lon="4.86981">
        <ele>176</ele>
        <time>2016-04-17T10:22:00Z</time>
      </trkpt>
      <trkpt lat="45.73586" lon="4.86987">
        <ele>176</ele>
        <time>2016-04-17T10:22:01Z</time>
      </trkpt>
      <trkpt lat="45.7358" lon="4.86992">
        <ele>176</ele>
        <time>2016-04-17T10:22:02Z</time>
      </trkpt>
      <trkpt lat="45.73574" lon="4.86996">
        <ele>176</ele>
        <time>2016-04-17T10:22:03Z</time>
      </trkpt>
      <trkpt lat="45.73569" lon="4.87">
        <ele>176</ele>
        <time>2016-04-17T10:22:04Z</time>
      </trkpt>
      <trkpt lat="45.73565" lon="4.87004">
        <ele>176</ele>
        <time>2016-04-17T10:22:05Z</time>
      </trkpt>
      <trkpt lat="45.73556" lon="4.87006">
        <ele>176</ele>
        <time>2016-04-17T10:22:07Z</time>
      </trkpt>
      <trkpt lat="45.73551" lon="4.87015">
        <ele>176</ele>
        <time>2016-04-17T10:22:11Z</time>
      </trkpt>
      <trkpt lat="45.73543" lon="4.87023">
        <ele>176</ele>
        <time>2016-04-17T10:22:13Z</time>
      </trkpt>
      <trkpt lat="45.73532" lon="4.87033">
        <ele>176</ele>
        <time>2016-04-17T10:22:15Z</time>
      </trkpt>
      <trkpt lat="45.73526" lon="4.87038">
        <ele>176</ele>
        <time>2016-04-17T10:22:16Z</time>
      </trkpt>
      <trkpt lat="45.7352" lon="4.87042">
        <ele>176</ele>
        <time>2016-04-17T10:22:17Z</time>
      </trkpt>
      <trkpt lat="45.73514" lon="4.87047">
        <ele>176</ele>
        <time>2016-04-17T10:22:18Z</time>
      </trkpt>
      <trkpt lat="45.73507" lon="4.87052">
        <ele>176</ele>
        <time>2016-04-17T10:22:19Z</time>
      </trkpt>
      <trkpt lat="45.735" lon="4.87057">
        <ele>176</ele>
        <time>2016-04-17T10:22:20Z</time>
      </trkpt>
      <trkpt lat="45.73494" lon="4.87062">
        <ele>176.7</ele>
        <time>2016-04-17T10:22:21Z</time>
      </trkpt>
      <trkpt lat="45.73487" lon="4.87068">
        <ele>177</ele>
        <time>2016-04-17T10:22:22Z</time>
      </trkpt>
      <trkpt lat="45.73481" lon="4.87073">
        <ele>177</ele>
        <time>2016-04-17T10:22:23Z</time>
      </trkpt>
      <trkpt lat="45.73475" lon="4.87078">
        <ele>177</ele>
        <time>2016-04-17T10:22:24Z</time>
      </trkpt>
      <trkpt lat="45.7347" lon="4.87082">
        <ele>177</ele>
        <time>2016-04-17T10:22:25Z</time>
      </trkpt>
      <trkpt lat="45.73465" lon="4.87085">
        <ele>177</ele>
        <time>2016-04-17T10:22:28Z</time>
      </trkpt>
      <trkpt lat="45.73461" lon="4.87088">
        <ele>177</ele>
        <time>2016-04-17T10:22:34Z</time>
      </trkpt>
      <trkpt lat="45.73456" lon="4.87093">
        <ele>177</ele>
        <time>2016-04-17T10:22:36Z</time>
      </trkpt>
      <trkpt lat="45.73446" lon="4.87101">
        <ele>177</ele>
        <time>2016-04-17T10:22:39Z</time>
      </trkpt>
      <trkpt lat="45.73442" lon="4.87105">
        <ele>177</ele>
        <time>2016-04-17T10:22:40Z</time>
      </trkpt>
      <trkpt lat="45.73438" lon="4.87109">
        <ele>177</ele>
        <time>2016-04-17T10:22:41Z</time>
      </trkpt>
      <trkpt lat="45.73434" lon="4.87113">
        <ele>177.6</ele>
        <time>2016-04-17T10:22:42Z</time>
      </trkpt>
      <trkpt lat="45.73429" lon="4.87117">
        <ele>178</ele>
        <time>2016-04-17T10:22:43Z</time>
      </trkpt>
      <trkpt lat="45.73423" lon="4.87122">
        <ele>178</ele>
        <time>2016-04-17T10:22:44Z</time>
      </trkpt>
      <trkpt lat="45.73418" lon="4.87126">
        <ele>178</ele>
        <time>2016-04-17T10:22:45Z</time>
      </trkpt>
      <trkpt lat="45.73412" lon="4.87132">
        <ele>178</ele>
        <time>2016-04-17T10:22:46Z</time>
      </trkpt>
      <trkpt lat="45.73406" lon="4.87137">
        <ele>178</ele>
        <time>2016-04-17T10:22:47Z</time>
      </trkpt>
      <trkpt lat="45.734" lon="4.87142">
        <ele>178</ele>
        <time>2016-04-17T10:22:48Z</time>
      </trkpt>
      <trkpt lat="45.73394" lon="4.87147">
        <ele>178</ele>
        <time>2016-04-17T10:22:49Z</time>
      </trkpt>
      <trkpt lat="45.73388" lon="4.87153">
        <ele>178</ele>
        <time>2016-04-17T10:22:50Z</time>
      </trkpt>
      <trkpt lat="45.73381" lon="4.87158">
        <ele>178</ele>
        <time>2016-04-17T10:22:51Z</time>
      </trkpt>
      <trkpt lat="45.73375" lon="4.87164">
        <ele>178</ele>
        <time>2016-04-17T10:22:52Z</time>
      </trkpt>
      <trkpt lat="45.73368" lon="4.8717">
        <ele>178</ele>
        <time>2016-04-17T10:22:53Z</time>
      </trkpt>
      <trkpt lat="45.73356" lon="4.87182">
        <ele>178</ele>
        <time>2016-04-17T10:22:55Z</time>
      </trkpt>
      <trkpt lat="45.73349" lon="4.87188">
        <ele>178</ele>
        <time>2016-04-17T10:22:56Z</time>
      </trkpt>
      <trkpt lat="45.73343" lon="4.87193">
        <ele>178</ele>
        <time>2016-04-17T10:22:57Z</time>
      </trkpt>
      <trkpt lat="45.73337" lon="4.87199">
        <ele>178</ele>
        <time>2016-04-17T10:22:58Z</time>
      </trkpt>
      <trkpt lat="45.7333" lon="4.87206">
        <ele>178</ele>
        <time>2016-04-17T10:22:59Z</time>
      </trkpt>
      <trkpt lat="45.73324" lon="4.87212">
        <ele>178</ele>
        <time>2016-04-17T10:23:00Z</time>
      </trkpt>
      <trkpt lat="45.73318" lon="4.87218">
        <ele>178</ele>
        <time>2016-04-17T10:23:01Z</time>
      </trkpt>
      <trkpt lat="45.73311" lon="4.87225">
        <ele>178</ele>
        <time>2016-04-17T10:23:02Z</time>
      </trkpt>
      <trkpt lat="45.73298" lon="4.87237">
        <ele>178</ele>
        <time>2016-04-17T10:23:04Z</time>
      </trkpt>
      <trkpt lat="45.73292" lon="4.87244">
        <ele>178</ele>
        <time>2016-04-17T10:23:05Z</time>
      </trkpt>
      <trkpt lat="45.73286" lon="4.8725">
        <ele>178</ele>
        <time>2016-04-17T10:23:06Z</time>
      </trkpt>
      <trkpt lat="45.73279" lon="4.87257">
        <ele>178</ele>
        <time>2016-04-17T10:23:07Z</time>
      </trkpt>
      <trkpt lat="45.73273" lon="4.87263">
        <ele>178</ele>
        <time>2016-04-17T10:23:08Z</time>
      </trkpt>
      <trkpt lat="45.73266" lon="4.8727">
        <ele>178</ele>
        <time>2016-04-17T10:23:09Z</time>
      </trkpt>
      <trkpt lat="45.7326" lon="4.87276">
        <ele>178</ele>
        <time>2016-04-17T10:23:10Z</time>
      </trkpt>
      <trkpt lat="45.73254" lon="4.87282">
        <ele>178</ele>
        <time>2016-04-17T10:23:11Z</time>
      </trkpt>
      <trkpt lat="45.73241" lon="4.87296">
        <ele>178</ele>
        <time>2016-04-17T10:23:13Z</time>
      </trkpt>
      <trkpt lat="45.73235" lon="4.87302">
        <ele>178</ele>
        <time>2016-04-17T10:23:14Z</time>
      </trkpt>
      <trkpt lat="45.73229" lon="4.87308">
        <ele>178</ele>
        <time>2016-04-17T10:23:15Z</time>
      </trkpt>
      <trkpt lat="45.73223" lon="4.87315">
        <ele>178</ele>
        <time>2016-04-17T10:23:16Z</time>
      </trkpt>
      <trkpt lat="45.73217" lon="4.87321">
        <ele>178</ele>
        <time>2016-04-17T10:23:17Z</time>
      </trkpt>
      <trkpt lat="45.73211" lon="4.87329">
        <ele>178</ele>
        <time>2016-04-17T10:23:18Z</time>
      </trkpt>
      <trkpt lat="45.73204" lon="4.87336">
        <ele>178</ele>
        <time>2016-04-17T10:23:19Z</time>
      </trkpt>
      <trkpt lat="45.73198" lon="4.87343">
        <ele>178</ele>
        <time>2016-04-17T10:23:20Z</time>
      </trkpt>
      <trkpt lat="45.73185" lon="4.87357">
        <ele>179.4</ele>
        <time>2016-04-17T10:23:22Z</time>
      </trkpt>
      <trkpt lat="45.73179" lon="4.87364">
        <ele>180</ele>
        <time>2016-04-17T10:23:23Z</time>
      </trkpt>
      <trkpt lat="45.73172" lon="4.87371">
        <ele>180</ele>
        <time>2016-04-17T10:23:24Z</time>
      </trkpt>
      <trkpt lat="45.73166" lon="4.87378">
        <ele>180</ele>
        <time>2016-04-17T10:23:25Z</time>
      </trkpt>
      <trkpt lat="45.73159" lon="4.87385">
        <ele>180</ele>
        <time>2016-04-17T10:23:26Z</time>
      </trkpt>
      <trkpt lat="45.73153" lon="4.87391">
        <ele>180</ele>
        <time>2016-04-17T10:23:27Z</time>
      </trkpt>
      <trkpt lat="45.73146" lon="4.87397">
        <ele>180</ele>
        <time>2016-04-17T10:23:28Z</time>
      </trkpt>
      <trkpt lat="45.7314" lon="4.87404">
        <ele>180</ele>
        <time>2016-04-17T10:23:29Z</time>
      </trkpt>
      <trkpt lat="45.73127" lon="4.87416">
        <ele>180</ele>
        <time>2016-04-17T10:23:31Z</time>
      </trkpt>
      <trkpt lat="45.73121" lon="4.87423">
        <ele>180</ele>
        <time>2016-04-17T10:23:32Z</time>
      </trkpt>
      <trkpt lat="45.73114" lon="4.87429">
        <ele>180</ele>
        <time>2016-04-17T10:23:33Z</time>
      </trkpt>
      <trkpt lat="45.73101" lon="4.87441">
        <ele>180</ele>
        <time>2016-04-17T10:23:35Z</time>
      </trkpt>
      <trkpt lat="45.73094" lon="4.87448">
        <ele>180</ele>
        <time>2016-04-17T10:23:36Z</time>
      </trkpt>
      <trkpt lat="45.73087" lon="4.87455">
        <ele>180</ele>
        <time>2016-04-17T10:23:37Z</time>
      </trkpt>
      <trkpt lat="45.7308" lon="4.87462">
        <ele>180</ele>
        <time>2016-04-17T10:23:38Z</time>
      </trkpt>
      <trkpt lat="45.73067" lon="4.87475">
        <ele>180</ele>
        <time>2016-04-17T10:23:40Z</time>
      </trkpt>
      <trkpt lat="45.73054" lon="4.87488">
        <ele>179</ele>
        <time>2016-04-17T10:23:42Z</time>
      </trkpt>
      <trkpt lat="45.73047" lon="4.87495">
        <ele>179</ele>
        <time>2016-04-17T10:23:43Z</time>
      </trkpt>
      <trkpt lat="45.7304" lon="4.87502">
        <ele>179</ele>
        <time>2016-04-17T10:23:44Z</time>
      </trkpt>
      <trkpt lat="45.73033" lon="4.87509">
        <ele>179</ele>
        <time>2016-04-17T10:23:45Z</time>
      </trkpt>
      <trkpt lat="45.73027" lon="4.87516">
        <ele>179</ele>
        <time>2016-04-17T10:23:46Z</time>
      </trkpt>
      <trkpt lat="45.7302" lon="4.87523">
        <ele>179</ele>
        <time>2016-04-17T10:23:47Z</time>
      </trkpt>
      <trkpt lat="45.73013" lon="4.8753">
        <ele>179</ele>
        <time>2016-04-17T10:23:48Z</time>
      </trkpt>
      <trkpt lat="45.73006" lon="4.87537">
        <ele>179</ele>
        <time>2016-04-17T10:23:49Z</time>
      </trkpt>
      <trkpt lat="45.72993" lon="4.8755">
        <ele>179</ele>
        <time>2016-04-17T10:23:51Z</time>
      </trkpt>
      <trkpt lat="45.72986" lon="4.87557">
        <ele>179.8</ele>
        <time>2016-04-17T10:23:52Z</time>
      </trkpt>
      <trkpt lat="45.72979" lon="4.87564">
        <ele>180</ele>
        <time>2016-04-17T10:23:53Z</time>
      </trkpt>
      <trkpt lat="45.72973" lon="4.87571">
        <ele>180</ele>
        <time>2016-04-17T10:23:54Z</time>
      </trkpt>
      <trkpt lat="45.72966" lon="4.87579">
        <ele>180</ele>
        <time>2016-04-17T10:23:55Z</time>
      </trkpt>
      <trkpt lat="45.7296" lon="4.87586">
        <ele>180</ele>
        <time>2016-04-17T10:23:56Z</time>
      </trkpt>
      <trkpt lat="45.72947" lon="4.87601">
        <ele>180</ele>
        <time>2016-04-17T10:23:58Z</time>
      </trkpt>
      <trkpt lat="45.7294" lon="4.87608">
        <ele>180</ele>
        <time>2016-04-17T10:23:59Z</time>
      </trkpt>
      <trkpt lat="45.72934" lon="4.87616">
        <ele>180</ele>
        <time>2016-04-17T10:24:00Z</time>
      </trkpt>
      <trkpt lat="45.72927" lon="4.87623">
        <ele>180</ele>
        <time>2016-04-17T10:24:01Z</time>
      </trkpt>
      <trkpt lat="45.72921" lon="4.8763">
        <ele>180</ele>
        <time>2016-04-17T10:24:02Z</time>
      </trkpt>
      <trkpt lat="45.72914" lon="4.87637">
        <ele>180</ele>
        <time>2016-04-17T10:24:03Z</time>
      </trkpt>
      <trkpt lat="45.72908" lon="4.87644">
        <ele>180</ele>
        <time>2016-04-17T10:24:04Z</time>
      </trkpt>
      <trkpt lat="45.72901" lon="4.87652">
        <ele>180</ele>
        <time>2016-04-17T10:24:05Z</time>
      </trkpt>
      <trkpt lat="45.72888" lon="4.87666">
        <ele>180</ele>
        <time>2016-04-17T10:24:07Z</time>
      </trkpt>
      <trkpt lat="45.72882" lon="4.87673">
        <ele>180</ele>
        <time>2016-04-17T10:24:08Z</time>
      </trkpt>
      <trkpt lat="45.72875" lon="4.8768">
        <ele>180</ele>
        <time>2016-04-17T10:24:09Z</time>
      </trkpt>
      <trkpt lat="45.72869" lon="4.87688">
        <ele>180</ele>
        <time>2016-04-17T10:24:10Z</time>
      </trkpt>
      <trkpt lat="45.72863" lon="4.87695">
        <ele>180</ele>
        <time>2016-04-17T10:24:11Z</time>
      </trkpt>
      <trkpt lat="45.72856" lon="4.87703">
        <ele>180</ele>
        <time>2016-04-17T10:24:12Z</time>
      </trkpt>
      <trkpt lat="45.7285" lon="4.8771">
        <ele>180</ele>
        <time>2016-04-17T10:24:13Z</time>
      </trkpt>
      <trkpt lat="45.72838" lon="4.87725">
        <ele>180</ele>
        <time>2016-04-17T10:24:15Z</time>
      </trkpt>
      <trkpt lat="45.72831" lon="4.87733">
        <ele>180</ele>
        <time>2016-04-17T10:24:16Z</time>
      </trkpt>
      <trkpt lat="45.72825" lon="4.8774">
        <ele>180</ele>
        <time>2016-04-17T10:24:17Z</time>
      </trkpt>
      <trkpt lat="45.72818" lon="4.87748">
        <ele>180</ele>
        <time>2016-04-17T10:24:18Z</time>
      </trkpt>
      <trkpt lat="45.72812" lon="4.87755">
        <ele>180</ele>
        <time>2016-04-17T10:24:19Z</time>
      </trkpt>
      <trkpt lat="45.72805" lon="4.87763">
        <ele>180</ele>
        <time>2016-04-17T10:24:20Z</time>
      </trkpt>
      <trkpt lat="45.72799" lon="4.87771">
        <ele>180</ele>
        <time>2016-04-17T10:24:21Z</time>
      </trkpt>
      <trkpt lat="45.72793" lon="4.87778">
        <ele>180</ele>
        <time>2016-04-17T10:24:22Z</time>
      </trkpt>
      <trkpt lat="45.7278" lon="4.87793">
        <ele>180</ele>
        <time>2016-04-17T10:24:24Z</time>
      </trkpt>
      <trkpt lat="45.72774" lon="4.878">
        <ele>180</ele>
        <time>2016-04-17T10:24:25Z</time>
      </trkpt>
      <trkpt lat="45.72767" lon="4.87807">
        <ele>180</ele>
        <time>2016-04-17T10:24:26Z</time>
      </trkpt>
      <trkpt lat="45.72762" lon="4.87813">
        <ele>180</ele>
        <time>2016-04-17T10:24:27Z</time>
      </trkpt>
      <trkpt lat="45.72757" lon="4.87818">
        <ele>180</ele>
        <time>2016-04-17T10:24:28Z</time>
      </trkpt>
      <trkpt lat="45.72753" lon="4.87822">
        <ele>180</ele>
        <time>2016-04-17T10:24:29Z</time>
      </trkpt>
      <trkpt lat="45.72749" lon="4.87827">
        <ele>180</ele>
        <time>2016-04-17T10:24:31Z</time>
      </trkpt>
      <trkpt lat="45.72746" lon="4.87831">
        <ele>180</ele>
        <time>2016-04-17T10:24:34Z</time>
      </trkpt>
      <trkpt lat="45.7274" lon="4.87836">
        <ele>180</ele>
        <time>2016-04-17T10:24:36Z</time>
      </trkpt>
      <trkpt lat="45.72736" lon="4.8784">
        <ele>180</ele>
        <time>2016-04-17T10:24:37Z</time>
      </trkpt>
      <trkpt lat="45.72733" lon="4.87845">
        <ele>180</ele>
        <time>2016-04-17T10:24:38Z</time>
      </trkpt>
      <trkpt lat="45.72729" lon="4.8785">
        <ele>180</ele>
        <time>2016-04-17T10:24:39Z</time>
      </trkpt>
      <trkpt lat="45.72726" lon="4.87856">
        <ele>180</ele>
        <time>2016-04-17T10:24:40Z</time>
      </trkpt>
      <trkpt lat="45.72722" lon="4.87862">
        <ele>180</ele>
        <time>2016-04-17T10:24:41Z</time>
      </trkpt>
      <trkpt lat="45.72718" lon="4.87868">
        <ele>180</ele>
        <time>2016-04-17T10:24:42Z</time>
      </trkpt>
      <trkpt lat="45.72714" lon="4.87875">
        <ele>180</ele>
        <time>2016-04-17T10:24:43Z</time>
      </trkpt>
      <trkpt lat="45.72709" lon="4.87882">
        <ele>180</ele>
        <time>2016-04-17T10:24:44Z</time>
      </trkpt>
      <trkpt lat="45.72705" lon="4.87888">
        <ele>180</ele>
        <time>2016-04-17T10:24:45Z</time>
      </trkpt>
      <trkpt lat="45.727" lon="4.87895">
        <ele>180</ele>
        <time>2016-04-17T10:24:46Z</time>
      </trkpt>
      <trkpt lat="45.72689" lon="4.87908">
        <ele>180</ele>
        <time>2016-04-17T10:24:48Z</time>
      </trkpt>
      <trkpt lat="45.72684" lon="4.87916">
        <ele>180</ele>
        <time>2016-04-17T10:24:49Z</time>
      </trkpt>
      <trkpt lat="45.72679" lon="4.87923">
        <ele>180</ele>
        <time>2016-04-17T10:24:50Z</time>
      </trkpt>
      <trkpt lat="45.72674" lon="4.87931">
        <ele>180</ele>
        <time>2016-04-17T10:24:51Z</time>
      </trkpt>
      <trkpt lat="45.72669" lon="4.87939">
        <ele>180</ele>
        <time>2016-04-17T10:24:52Z</time>
      </trkpt>
      <trkpt lat="45.72664" lon="4.87946">
        <ele>180</ele>
        <time>2016-04-17T10:24:53Z</time>
      </trkpt>
      <trkpt lat="45.72659" lon="4.87954">
        <ele>180</ele>
        <time>2016-04-17T10:24:54Z</time>
      </trkpt>
      <trkpt lat="45.72654" lon="4.87962">
        <ele>180</ele>
        <time>2016-04-17T10:24:55Z</time>
      </trkpt>
      <trkpt lat="45.72644" lon="4.87978">
        <ele>180</ele>
        <time>2016-04-17T10:24:57Z</time>
      </trkpt>
      <trkpt lat="45.72639" lon="4.87986">
        <ele>180</ele>
        <time>2016-04-17T10:24:58Z</time>
      </trkpt>
      <trkpt lat="45.72634" lon="4.87994">
        <ele>180</ele>
        <time>2016-04-17T10:24:59Z</time>
      </trkpt>
      <trkpt lat="45.72628" lon="4.88001">
        <ele>180</ele>
        <time>2016-04-17T10:25:00Z</time>
      </trkpt>
      <trkpt lat="45.72623" lon="4.88009">
        <ele>180</ele>
        <time>2016-04-17T10:25:01Z</time>
      </trkpt>
      <trkpt lat="45.72618" lon="4.88017">
        <ele>180</ele>
        <time>2016-04-17T10:25:02Z</time>
      </trkpt>
      <trkpt lat="45.72613" lon="4.88026">
        <ele>180</ele>
        <time>2016-04-17T10:25:03Z</time>
      </trkpt>
      <trkpt lat="45.72608" lon="4.88034">
        <ele>180</ele>
        <time>2016-04-17T10:25:04Z</time>
      </trkpt>
      <trkpt lat="45.72603" lon="4.88042">
        <ele>180</ele>
        <time>2016-04-17T10:25:05Z</time>
      </trkpt>
      <trkpt lat="45.72597" lon="4.8805">
        <ele>180</ele>
        <time>2016-04-17T10:25:06Z</time>
      </trkpt>
      <trkpt lat="45.72592" lon="4.88058">
        <ele>180</ele>
        <time>2016-04-17T10:25:07Z</time>
      </trkpt>
      <trkpt lat="45.72587" lon="4.88066">
        <ele>180</ele>
        <time>2016-04-17T10:25:08Z</time>
      </trkpt>
      <trkpt lat="45.72581" lon="4.88074">
        <ele>180</ele>
        <time>2016-04-17T10:25:09Z</time>
      </trkpt>
      <trkpt lat="45.72576" lon="4.88083">
        <ele>180</ele>
        <time>2016-04-17T10:25:10Z</time>
      </trkpt>
      <trkpt lat="45.72571" lon="4.88091">
        <ele>180</ele>
        <time>2016-04-17T10:25:11Z</time>
      </trkpt>
      <trkpt lat="45.72565" lon="4.88099">
        <ele>180.6</ele>
        <time>2016-04-17T10:25:12Z</time>
      </trkpt>
      <trkpt lat="45.7256" lon="4.88108">
        <ele>181</ele>
        <time>2016-04-17T10:25:13Z</time>
      </trkpt>
      <trkpt lat="45.72554" lon="4.88116">
        <ele>181</ele>
        <time>2016-04-17T10:25:14Z</time>
      </trkpt>
      <trkpt lat="45.72549" lon="4.88124">
        <ele>181</ele>
        <time>2016-04-17T10:25:15Z</time>
      </trkpt>
      <trkpt lat="45.72544" lon="4.88133">
        <ele>181</ele>
        <time>2016-04-17T10:25:16Z</time>
      </trkpt>
      <trkpt lat="45.72538" lon="4.88141">
        <ele>181</ele>
        <time>2016-04-17T10:25:17Z</time>
      </trkpt>
      <trkpt lat="45.72533" lon="4.8815">
        <ele>181</ele>
        <time>2016-04-17T10:25:18Z</time>
      </trkpt>
      <trkpt lat="45.72528" lon="4.88158">
        <ele>181</ele>
        <time>2016-04-17T10:25:19Z</time>
      </trkpt>
      <trkpt lat="45.72523" lon="4.88166">
        <ele>181</ele>
        <time>2016-04-17T10:25:20Z</time>
      </trkpt>
      <trkpt lat="45.72517" lon="4.88175">
        <ele>181</ele>
        <time>2016-04-17T10:25:21Z</time>
      </trkpt>
      <trkpt lat="45.72512" lon="4.88183">
        <ele>181</ele>
        <time>2016-04-17T10:25:22Z</time>
      </trkpt>
      <trkpt lat="45.72506" lon="4.88191">
        <ele>181</ele>
        <time>2016-04-17T10:25:23Z</time>
      </trkpt>
      <trkpt lat="45.72501" lon="4.882">
        <ele>181</ele>
        <time>2016-04-17T10:25:24Z</time>
      </trkpt>
      <trkpt lat="45.72496" lon="4.88208">
        <ele>181</ele>
        <time>2016-04-17T10:25:25Z</time>
      </trkpt>
      <trkpt lat="45.7249" lon="4.88216">
        <ele>181</ele>
        <time>2016-04-17T10:25:26Z</time>
      </trkpt>
      <trkpt lat="45.72485" lon="4.88225">
        <ele>181</ele>
        <time>2016-04-17T10:25:27Z</time>
      </trkpt>
      <trkpt lat="45.7248" lon="4.88233">
        <ele>181</ele>
        <time>2016-04-17T10:25:28Z</time>
      </trkpt>
      <trkpt lat="45.72474" lon="4.88241">
        <ele>181</ele>
        <time>2016-04-17T10:25:29Z</time>
      </trkpt>
      <trkpt lat="45.72469" lon="4.8825">
        <ele>181</ele>
        <time>2016-04-17T10:25:30Z</time>
      </trkpt>
      <trkpt lat="45.72463" lon="4.88258">
        <ele>181</ele>
        <time>2016-04-17T10:25:31Z</time>
      </trkpt>
      <trkpt lat="45.72457" lon="4.88265">
        <ele>181.7</ele>
        <time>2016-04-17T10:25:32Z</time>
      </trkpt>
      <trkpt lat="45.72451" lon="4.88273">
        <ele>182</ele>
        <time>2016-04-17T10:25:33Z</time>
      </trkpt>
      <trkpt lat="45.72446" lon="4.88281">
        <ele>182</ele>
        <time>2016-04-17T10:25:34Z</time>
      </trkpt>
      <trkpt lat="45.7244" lon="4.88288">
        <ele>182</ele>
        <time>2016-04-17T10:25:35Z</time>
      </trkpt>
      <trkpt lat="45.72434" lon="4.88296">
        <ele>182</ele>
        <time>2016-04-17T10:25:36Z</time>
      </trkpt>
      <trkpt lat="45.72428" lon="4.88304">
        <ele>182</ele>
        <time>2016-04-17T10:25:37Z</time>
      </trkpt>
      <trkpt lat="45.72422" lon="4.88312">
        <ele>182</ele>
        <time>2016-04-17T10:25:38Z</time>
      </trkpt>
      <trkpt lat="45.72416" lon="4.8832">
        <ele>182</ele>
        <time>2016-04-17T10:25:39Z</time>
      </trkpt>
      <trkpt lat="45.72404" lon="4.88336">
        <ele>182</ele>
        <time>2016-04-17T10:25:41Z</time>
      </trkpt>
      <trkpt lat="45.72398" lon="4.88344">
        <ele>182</ele>
        <time>2016-04-17T10:25:42Z</time>
      </trkpt>
      <trkpt lat="45.72393" lon="4.88352">
        <ele>182</ele>
        <time>2016-04-17T10:25:43Z</time>
      </trkpt>
      <trkpt lat="45.72387" lon="4.88359">
        <ele>182</ele>
        <time>2016-04-17T10:25:44Z</time>
      </trkpt>
      <trkpt lat="45.72381" lon="4.88367">
        <ele>182</ele>
        <time>2016-04-17T10:25:45Z</time>
      </trkpt>
      <trkpt lat="45.72375" lon="4.88375">
        <ele>182</ele>
        <time>2016-04-17T10:25:46Z</time>
      </trkpt>
      <trkpt lat="45.7237" lon="4.88383">
        <ele>182</ele>
        <time>2016-04-17T10:25:47Z</time>
      </trkpt>
      <trkpt lat="45.72365" lon="4.88391">
        <ele>182</ele>
        <time>2016-04-17T10:25:48Z</time>
      </trkpt>
      <trkpt lat="45.72359" lon="4.88398">
        <ele>182</ele>
        <time>2016-04-17T10:25:49Z</time>
      </trkpt>
      <trkpt lat="45.72352" lon="4.88404">
        <ele>182</ele>
        <time>2016-04-17T10:25:50Z</time>
      </trkpt>
      <trkpt lat="45.72345" lon="4.8841">
        <ele>182</ele>
        <time>2016-04-17T10:25:51Z</time>
      </trkpt>
      <trkpt lat="45.72332" lon="4.88422">
        <ele>182</ele>
        <time>2016-04-17T10:25:53Z</time>
      </trkpt>
      <trkpt lat="45.72325" lon="4.88427">
        <ele>182</ele>
        <time>2016-04-17T10:25:54Z</time>
      </trkpt>
      <trkpt lat="45.72318" lon="4.88433">
        <ele>182</ele>
        <time>2016-04-17T10:25:55Z</time>
      </trkpt>
      <trkpt lat="45.72311" lon="4.88438">
        <ele>182</ele>
        <time>2016-04-17T10:25:56Z</time>
      </trkpt>
      <trkpt lat="45.72304" lon="4.88443">
        <ele>182</ele>
        <time>2016-04-17T10:25:57Z</time>
      </trkpt>
      <trkpt lat="45.72297" lon="4.88448">
        <ele>182</ele>
        <time>2016-04-17T10:25:58Z</time>
      </trkpt>
      <trkpt lat="45.7229" lon="4.88453">
        <ele>182</ele>
        <time>2016-04-17T10:25:59Z</time>
      </trkpt>
      <trkpt lat="45.72284" lon="4.88458">
        <ele>182</ele>
        <time>2016-04-17T10:26:00Z</time>
      </trkpt>
      <trkpt lat="45.72277" lon="4.88463">
        <ele>182</ele>
        <time>2016-04-17T10:26:01Z</time>
      </trkpt>
      <trkpt lat="45.7227" lon="4.88468">
        <ele>182</ele>
        <time>2016-04-17T10:26:02Z</time>
      </trkpt>
      <trkpt lat="45.72264" lon="4.88472">
        <ele>182</ele>
        <time>2016-04-17T10:26:03Z</time>
      </trkpt>
      <trkpt lat="45.72259" lon="4.88476">
        <ele>182</ele>
        <time>2016-04-17T10:26:04Z</time>
      </trkpt>
      <trkpt lat="45.72254" lon="4.88479">
        <ele>182</ele>
        <time>2016-04-17T10:26:05Z</time>
      </trkpt>
      <trkpt lat="45.72248" lon="4.88481">
        <ele>182</ele>
        <time>2016-04-17T10:26:07Z</time>
      </trkpt>
      <trkpt lat="45.72244" lon="4.88483">
        <ele>183</ele>
        <time>2016-04-17T10:26:34Z</time>
      </trkpt>
      <trkpt lat="45.72238" lon="4.88482">
        <ele>183</ele>
        <time>2016-04-17T10:26:36Z</time>
      </trkpt>
      <trkpt lat="45.72234" lon="4.8848">
        <ele>183</ele>
        <time>2016-04-17T10:26:37Z</time>
      </trkpt>
      <trkpt lat="45.7223" lon="4.88476">
        <ele>183</ele>
        <time>2016-04-17T10:26:38Z</time>
      </trkpt>
      <trkpt lat="45.72227" lon="4.8847">
        <ele>183</ele>
        <time>2016-04-17T10:26:39Z</time>
      </trkpt>
      <trkpt lat="45.7222" lon="4.88459">
        <ele>183</ele>
        <time>2016-04-17T10:26:41Z</time>
      </trkpt>
      <trkpt lat="45.72217" lon="4.88452">
        <ele>183</ele>
        <time>2016-04-17T10:26:42Z</time>
      </trkpt>
      <trkpt lat="45.72208" lon="4.88438">
        <ele>183</ele>
        <time>2016-04-17T10:26:44Z</time>
      </trkpt>
      <trkpt lat="45.72203" lon="4.88431">
        <ele>183</ele>
        <time>2016-04-17T10:26:45Z</time>
      </trkpt>
      <trkpt lat="45.72198" lon="4.88424">
        <ele>183</ele>
        <time>2016-04-17T10:26:46Z</time>
      </trkpt>
      <trkpt lat="45.72192" lon="4.88416">
        <ele>183</ele>
        <time>2016-04-17T10:26:47Z</time>
      </trkpt>
      <trkpt lat="45.72186" lon="4.88408">
        <ele>183</ele>
        <time>2016-04-17T10:26:48Z</time>
      </trkpt>
      <trkpt lat="45.72179" lon="4.88401">
        <ele>183</ele>
        <time>2016-04-17T10:26:49Z</time>
      </trkpt>
      <trkpt lat="45.72172" lon="4.88393">
        <ele>183</ele>
        <time>2016-04-17T10:26:50Z</time>
      </trkpt>
      <trkpt lat="45.72165" lon="4.88386">
        <ele>183</ele>
        <time>2016-04-17T10:26:51Z</time>
      </trkpt>
      <trkpt lat="45.72157" lon="4.88378">
        <ele>183</ele>
        <time>2016-04-17T10:26:52Z</time>
      </trkpt>
      <trkpt lat="45.72148" lon="4.88372">
        <ele>181.1</ele>
        <time>2016-04-17T10:26:53Z</time>
      </trkpt>
      <trkpt lat="45.72139" lon="4.88366">
        <ele>180</ele>
        <time>2016-04-17T10:26:54Z</time>
      </trkpt>
      <trkpt lat="45.7213" lon="4.88362">
        <ele>180</ele>
        <time>2016-04-17T10:26:55Z</time>
      </trkpt>
      <trkpt lat="45.72121" lon="4.88361">
        <ele>180</ele>
        <time>2016-04-17T10:26:56Z</time>
      </trkpt>
      <trkpt lat="45.72104" lon="4.88366">
        <ele>178.1</ele>
        <time>2016-04-17T10:26:58Z</time>
      </trkpt>
      <trkpt lat="45.72092" lon="4.88379">
        <ele>177</ele>
        <time>2016-04-17T10:27:00Z</time>
      </trkpt>
      <trkpt lat="45.72078" lon="4.88397">
        <ele>177.6</ele>
        <time>2016-04-17T10:27:02Z</time>
      </trkpt>
      <trkpt lat="45.72069" lon="4.88409">
        <ele>178</ele>
        <time>2016-04-17T10:27:03Z</time>
      </trkpt>
      <trkpt lat="45.72062" lon="4.8842">
        <ele>178</ele>
        <time>2016-04-17T10:27:04Z</time>
      </trkpt>
      <trkpt lat="45.72052" lon="4.88441">
        <ele>178</ele>
        <time>2016-04-17T10:27:06Z</time>
      </trkpt>
      <trkpt lat="45.72044" lon="4.88462">
        <ele>178.6</ele>
        <time>2016-04-17T10:27:08Z</time>
      </trkpt>
      <trkpt lat="45.72039" lon="4.88485">
        <ele>179</ele>
        <time>2016-04-17T10:27:10Z</time>
      </trkpt>
      <trkpt lat="45.72038" lon="4.88497">
        <ele>179</ele>
        <time>2016-04-17T10:27:11Z</time>
      </trkpt>
      <trkpt lat="45.72039" lon="4.88508">
        <ele>179</ele>
        <time>2016-04-17T10:27:12Z</time>
      </trkpt>
      <trkpt lat="45.7204" lon="4.88519">
        <ele>179</ele>
        <time>2016-04-17T10:27:13Z</time>
      </trkpt>
      <trkpt lat="45.72049" lon="4.8854">
        <ele>179</ele>
        <time>2016-04-17T10:27:15Z</time>
      </trkpt>
      <trkpt lat="45.72055" lon="4.8855">
        <ele>179</ele>
        <time>2016-04-17T10:27:16Z</time>
      </trkpt>
      <trkpt lat="45.72062" lon="4.88559">
        <ele>179</ele>
        <time>2016-04-17T10:27:17Z</time>
      </trkpt>
      <trkpt lat="45.72068" lon="4.88567">
        <ele>179.6</ele>
        <time>2016-04-17T10:27:18Z</time>
      </trkpt>
      <trkpt lat="45.72073" lon="4.88575">
        <ele>180</ele>
        <time>2016-04-17T10:27:19Z</time>
      </trkpt>
      <trkpt lat="45.72078" lon="4.88582">
        <ele>180</ele>
        <time>2016-04-17T10:27:20Z</time>
      </trkpt>
      <trkpt lat="45.72083" lon="4.88589">
        <ele>180</ele>
        <time>2016-04-17T10:27:21Z</time>
      </trkpt>
      <trkpt lat="45.72092" lon="4.88603">
        <ele>180</ele>
        <time>2016-04-17T10:27:23Z</time>
      </trkpt>
      <trkpt lat="45.721" lon="4.88617">
        <ele>180</ele>
        <time>2016-04-17T10:27:25Z</time>
      </trkpt>
      <trkpt lat="45.72109" lon="4.88632">
        <ele>180</ele>
        <time>2016-04-17T10:27:27Z</time>
      </trkpt>
      <trkpt lat="45.72115" lon="4.8865">
        <ele>183</ele>
        <time>2016-04-17T10:27:29Z</time>
      </trkpt>
      <trkpt lat="45.72119" lon="4.88671">
        <ele>183</ele>
        <time>2016-04-17T10:27:31Z</time>
      </trkpt>
      <trkpt lat="45.72118" lon="4.88682">
        <ele>183</ele>
        <time>2016-04-17T10:27:32Z</time>
      </trkpt>
      <trkpt lat="45.72116" lon="4.88693">
        <ele>182.4</ele>
        <time>2016-04-17T10:27:33Z</time>
      </trkpt>
      <trkpt lat="45.72112" lon="4.88703">
        <ele>182</ele>
        <time>2016-04-17T10:27:34Z</time>
      </trkpt>
      <trkpt lat="45.72107" lon="4.88712">
        <ele>182</ele>
        <time>2016-04-17T10:27:35Z</time>
      </trkpt>
      <trkpt lat="45.72101" lon="4.8872">
        <ele>182</ele>
        <time>2016-04-17T10:27:36Z</time>
      </trkpt>
      <trkpt lat="45.72093" lon="4.88726">
        <ele>182</ele>
        <time>2016-04-17T10:27:37Z</time>
      </trkpt>
      <trkpt lat="45.72085" lon="4.88731">
        <ele>181.3</ele>
        <time>2016-04-17T10:27:38Z</time>
      </trkpt>
      <trkpt lat="45.72076" lon="4.88735">
        <ele>181</ele>
        <time>2016-04-17T10:27:39Z</time>
      </trkpt>
      <trkpt lat="45.72068" lon="4.88738">
        <ele>181</ele>
        <time>2016-04-17T10:27:40Z</time>
      </trkpt>
      <trkpt lat="45.72058" lon="4.88742">
        <ele>181</ele>
        <time>2016-04-17T10:27:41Z</time>
      </trkpt>
      <trkpt lat="45.72049" lon="4.88746">
        <ele>181</ele>
        <time>2016-04-17T10:27:42Z</time>
      </trkpt>
      <trkpt lat="45.72039" lon="4.88751">
        <ele>181</ele>
        <time>2016-04-17T10:27:43Z</time>
      </trkpt>
      <trkpt lat="45.7203" lon="4.88755">
        <ele>181</ele>
        <time>2016-04-17T10:27:44Z</time>
      </trkpt>
      <trkpt lat="45.72021" lon="4.88761">
        <ele>181</ele>
        <time>2016-04-17T10:27:45Z</time>
      </trkpt>
      <trkpt lat="45.72012" lon="4.88766">
        <ele>181</ele>
        <time>2016-04-17T10:27:46Z</time>
      </trkpt>
      <trkpt lat="45.71895" lon="4.88901">
        <ele>178</ele>
        <time>2016-04-17T10:28:02Z</time>
      </trkpt>
      <trkpt lat="45.71885" lon="4.88916">
        <ele>182</ele>
        <time>2016-04-17T10:28:04Z</time>
      </trkpt>
      <trkpt lat="45.71875" lon="4.88932">
        <ele>182</ele>
        <time>2016-04-17T10:28:06Z</time>
      </trkpt>
      <trkpt lat="45.71871" lon="4.8894">
        <ele>182</ele>
        <time>2016-04-17T10:28:07Z</time>
      </trkpt>
      <trkpt lat="45.71861" lon="4.88956">
        <ele>182</ele>
        <time>2016-04-17T10:28:09Z</time>
      </trkpt>
      <trkpt lat="45.71856" lon="4.88964">
        <ele>182</ele>
        <time>2016-04-17T10:28:10Z</time>
      </trkpt>
      <trkpt lat="45.71851" lon="4.88971">
        <ele>182</ele>
        <time>2016-04-17T10:28:11Z</time>
      </trkpt>
      <trkpt lat="45.71835" lon="4.88993">
        <ele>183.2</ele>
        <time>2016-04-17T10:28:14Z</time>
      </trkpt>
      <trkpt lat="45.7183" lon="4.89">
        <ele>184</ele>
        <time>2016-04-17T10:28:15Z</time>
      </trkpt>
      <trkpt lat="45.71825" lon="4.89007">
        <ele>184.6</ele>
        <time>2016-04-17T10:28:16Z</time>
      </trkpt>
      <trkpt lat="45.71819" lon="4.89015">
        <ele>185</ele>
        <time>2016-04-17T10:28:17Z</time>
      </trkpt>
      <trkpt lat="45.71814" lon="4.89023">
        <ele>185</ele>
        <time>2016-04-17T10:28:18Z</time>
      </trkpt>
      <trkpt lat="45.71809" lon="4.89031">
        <ele>185</ele>
        <time>2016-04-17T10:28:19Z</time>
      </trkpt>
      <trkpt lat="45.71804" lon="4.89039">
        <ele>185.6</ele>
        <time>2016-04-17T10:28:20Z</time>
      </trkpt>
      <trkpt lat="45.71799" lon="4.89047">
        <ele>186</ele>
        <time>2016-04-17T10:28:21Z</time>
      </trkpt>
      <trkpt lat="45.71794" lon="4.89055">
        <ele>186</ele>
        <time>2016-04-17T10:28:22Z</time>
      </trkpt>
      <trkpt lat="45.71789" lon="4.89063">
        <ele>186</ele>
        <time>2016-04-17T10:28:23Z</time>
      </trkpt>
      <trkpt lat="45.71784" lon="4.89071">
        <ele>186</ele>
        <time>2016-04-17T10:28:24Z</time>
      </trkpt>
      <trkpt lat="45.71779" lon="4.89079">
        <ele>186</ele>
        <time>2016-04-17T10:28:25Z</time>
      </trkpt>
      <trkpt lat="45.71774" lon="4.89088">
        <ele>186</ele>
        <time>2016-04-17T10:28:26Z</time>
      </trkpt>
      <trkpt lat="45.71769" lon="4.89096">
        <ele>186</ele>
        <time>2016-04-17T10:28:27Z</time>
      </trkpt>
      <trkpt lat="45.71764" lon="4.89104">
        <ele>186</ele>
        <time>2016-04-17T10:28:28Z</time>
      </trkpt>
      <trkpt lat="45.71759" lon="4.89112">
        <ele>186</ele>
        <time>2016-04-17T10:28:29Z</time>
      </trkpt>
      <trkpt lat="45.71754" lon="4.89121">
        <ele>186</ele>
        <time>2016-04-17T10:28:30Z</time>
      </trkpt>
      <trkpt lat="45.71749" lon="4.89129">
        <ele>186</ele>
        <time>2016-04-17T10:28:31Z</time>
      </trkpt>
      <trkpt lat="45.71744" lon="4.89138">
        <ele>186</ele>
        <time>2016-04-17T10:28:32Z</time>
      </trkpt>
      <trkpt lat="45.71739" lon="4.89146">
        <ele>186</ele>
        <time>2016-04-17T10:28:33Z</time>
      </trkpt>
      <trkpt lat="45.71734" lon="4.89154">
        <ele>186</ele>
        <time>2016-04-17T10:28:34Z</time>
      </trkpt>
      <trkpt lat="45.71729" lon="4.89162">
        <ele>185.3</ele>
        <time>2016-04-17T10:28:35Z</time>
      </trkpt>
      <trkpt lat="45.71724" lon="4.8917">
        <ele>185</ele>
        <time>2016-04-17T10:28:36Z</time>
      </trkpt>
      <trkpt lat="45.71719" lon="4.89179">
        <ele>185</ele>
        <time>2016-04-17T10:28:37Z</time>
      </trkpt>
      <trkpt lat="45.71709" lon="4.89196">
        <ele>185</ele>
        <time>2016-04-17T10:28:39Z</time>
      </trkpt>
      <trkpt lat="45.71704" lon="4.89205">
        <ele>185</ele>
        <time>2016-04-17T10:28:40Z</time>
      </trkpt>
      <trkpt lat="45.71698" lon="4.89213">
        <ele>185</ele>
        <time>2016-04-17T10:28:41Z</time>
      </trkpt>
      <trkpt lat="45.71693" lon="4.89221">
        <ele>185</ele>
        <time>2016-04-17T10:28:42Z</time>
      </trkpt>
      <trkpt lat="45.71688" lon="4.8923">
        <ele>185</ele>
        <time>2016-04-17T10:28:43Z</time>
      </trkpt>
      <trkpt lat="45.71683" lon="4.89238">
        <ele>186.5</ele>
        <time>2016-04-17T10:28:44Z</time>
      </trkpt>
      <trkpt lat="45.71678" lon="4.89247">
        <ele>187</ele>
        <time>2016-04-17T10:28:45Z</time>
      </trkpt>
      <trkpt lat="45.71673" lon="4.89255">
        <ele>187</ele>
        <time>2016-04-17T10:28:46Z</time>
      </trkpt>
      <trkpt lat="45.71668" lon="4.89263">
        <ele>187</ele>
        <time>2016-04-17T10:28:47Z</time>
      </trkpt>
      <trkpt lat="45.71663" lon="4.89272">
        <ele>187</ele>
        <time>2016-04-17T10:28:48Z</time>
      </trkpt>
      <trkpt lat="45.71657" lon="4.8928">
        <ele>187</ele>
        <time>2016-04-17T10:28:49Z</time>
      </trkpt>
      <trkpt lat="45.71652" lon="4.89289">
        <ele>187</ele>
        <time>2016-04-17T10:28:50Z</time>
      </trkpt>
      <trkpt lat="45.71647" lon="4.89298">
        <ele>187</ele>
        <time>2016-04-17T10:28:51Z</time>
      </trkpt>
      <trkpt lat="45.71642" lon="4.89306">
        <ele>187</ele>
        <time>2016-04-17T10:28:52Z</time>
      </trkpt>
      <trkpt lat="45.71637" lon="4.89315">
        <ele>187</ele>
        <time>2016-04-17T10:28:53Z</time>
      </trkpt>
      <trkpt lat="45.71631" lon="4.89324">
        <ele>187</ele>
        <time>2016-04-17T10:28:54Z</time>
      </trkpt>
      <trkpt lat="45.71626" lon="4.89332">
        <ele>187</ele>
        <time>2016-04-17T10:28:55Z</time>
      </trkpt>
      <trkpt lat="45.71621" lon="4.89341">
        <ele>187</ele>
        <time>2016-04-17T10:28:56Z</time>
      </trkpt>
      <trkpt lat="45.71611" lon="4.89358">
        <ele>187</ele>
        <time>2016-04-17T10:28:58Z</time>
      </trkpt>
      <trkpt lat="45.71606" lon="4.89367">
        <ele>187</ele>
        <time>2016-04-17T10:28:59Z</time>
      </trkpt>
      <trkpt lat="45.71601" lon="4.89376">
        <ele>187</ele>
        <time>2016-04-17T10:29:00Z</time>
      </trkpt>
      <trkpt lat="45.71595" lon="4.89385">
        <ele>187.8</ele>
        <time>2016-04-17T10:29:01Z</time>
      </trkpt>
      <trkpt lat="45.7159" lon="4.89393">
        <ele>188</ele>
        <time>2016-04-17T10:29:02Z</time>
      </trkpt>
      <trkpt lat="45.71585" lon="4.89402">
        <ele>188</ele>
        <time>2016-04-17T10:29:03Z</time>
      </trkpt>
      <trkpt lat="45.71579" lon="4.8941">
        <ele>188</ele>
        <time>2016-04-17T10:29:04Z</time>
      </trkpt>
      <trkpt lat="45.71569" lon="4.89428">
        <ele>188</ele>
        <time>2016-04-17T10:29:06Z</time>
      </trkpt>
      <trkpt lat="45.71564" lon="4.89436">
        <ele>188</ele>
        <time>2016-04-17T10:29:07Z</time>
      </trkpt>
      <trkpt lat="45.71559" lon="4.89445">
        <ele>188</ele>
        <time>2016-04-17T10:29:08Z</time>
      </trkpt>
      <trkpt lat="45.71554" lon="4.89453">
        <ele>188</ele>
        <time>2016-04-17T10:29:09Z</time>
      </trkpt>
      <trkpt lat="45.71549" lon="4.89461">
        <ele>188</ele>
        <time>2016-04-17T10:29:10Z</time>
      </trkpt>
      <trkpt lat="45.71539" lon="4.89478">
        <ele>188</ele>
        <time>2016-04-17T10:29:12Z</time>
      </trkpt>
      <trkpt lat="45.71534" lon="4.89486">
        <ele>188</ele>
        <time>2016-04-17T10:29:13Z</time>
      </trkpt>
      <trkpt lat="45.71529" lon="4.89494">
        <ele>188</ele>
        <time>2016-04-17T10:29:14Z</time>
      </trkpt>
      <trkpt lat="45.71524" lon="4.89502">
        <ele>188</ele>
        <time>2016-04-17T10:29:15Z</time>
      </trkpt>
      <trkpt lat="45.7152" lon="4.89511">
        <ele>188</ele>
        <time>2016-04-17T10:29:16Z</time>
      </trkpt>
      <trkpt lat="45.71516" lon="4.89519">
        <ele>188</ele>
        <time>2016-04-17T10:29:17Z</time>
      </trkpt>
      <trkpt lat="45.71511" lon="4.89527">
        <ele>188</ele>
        <time>2016-04-17T10:29:18Z</time>
      </trkpt>
      <trkpt lat="45.71501" lon="4.89544">
        <ele>188</ele>
        <time>2016-04-17T10:29:20Z</time>
      </trkpt>
      <trkpt lat="45.71496" lon="4.89553">
        <ele>188</ele>
        <time>2016-04-17T10:29:21Z</time>
      </trkpt>
      <trkpt lat="45.7149" lon="4.89562">
        <ele>188.7</ele>
        <time>2016-04-17T10:29:22Z</time>
      </trkpt>
      <trkpt lat="45.71485" lon="4.89571">
        <ele>189</ele>
        <time>2016-04-17T10:29:23Z</time>
      </trkpt>
      <trkpt lat="45.7148" lon="4.8958">
        <ele>189</ele>
        <time>2016-04-17T10:29:24Z</time>
      </trkpt>
      <trkpt lat="45.71474" lon="4.89589">
        <ele>189</ele>
        <time>2016-04-17T10:29:25Z</time>
      </trkpt>
      <trkpt lat="45.71464" lon="4.89606">
        <ele>189</ele>
        <time>2016-04-17T10:29:27Z</time>
      </trkpt>
      <trkpt lat="45.71458" lon="4.89614">
        <ele>189</ele>
        <time>2016-04-17T10:29:28Z</time>
      </trkpt>
      <trkpt lat="45.71451" lon="4.89622">
        <ele>189</ele>
        <time>2016-04-17T10:29:29Z</time>
      </trkpt>
      <trkpt lat="45.71445" lon="4.8963">
        <ele>189</ele>
        <time>2016-04-17T10:29:30Z</time>
      </trkpt>
      <trkpt lat="45.71439" lon="4.89638">
        <ele>188.3</ele>
        <time>2016-04-17T10:29:31Z</time>
      </trkpt>
      <trkpt lat="45.71433" lon="4.89648">
        <ele>188</ele>
        <time>2016-04-17T10:29:32Z</time>
      </trkpt>
      <trkpt lat="45.71428" lon="4.89657">
        <ele>188</ele>
        <time>2016-04-17T10:29:33Z</time>
      </trkpt>
      <trkpt lat="45.71422" lon="4.89667">
        <ele>188</ele>
        <time>2016-04-17T10:29:34Z</time>
      </trkpt>
      <trkpt lat="45.71416" lon="4.89676">
        <ele>188</ele>
        <time>2016-04-17T10:29:35Z</time>
      </trkpt>
      <trkpt lat="45.7141" lon="4.89686">
        <ele>188</ele>
        <time>2016-04-17T10:29:36Z</time>
      </trkpt>
      <trkpt lat="45.71399" lon="4.89705">
        <ele>188</ele>
        <time>2016-04-17T10:29:38Z</time>
      </trkpt>
      <trkpt lat="45.71393" lon="4.89714">
        <ele>188</ele>
        <time>2016-04-17T10:29:39Z</time>
      </trkpt>
      <trkpt lat="45.71388" lon="4.89724">
        <ele>188</ele>
        <time>2016-04-17T10:29:40Z</time>
      </trkpt>
      <trkpt lat="45.71382" lon="4.89733">
        <ele>188</ele>
        <time>2016-04-17T10:29:41Z</time>
      </trkpt>
      <trkpt lat="45.71376" lon="4.89742">
        <ele>188</ele>
        <time>2016-04-17T10:29:42Z</time>
      </trkpt>
      <trkpt lat="45.71371" lon="4.89752">
        <ele>188</ele>
        <time>2016-04-17T10:29:43Z</time>
      </trkpt>
      <trkpt lat="45.71365" lon="4.89761">
        <ele>188</ele>
        <time>2016-04-17T10:29:44Z</time>
      </trkpt>
      <trkpt lat="45.7136" lon="4.8977">
        <ele>188</ele>
        <time>2016-04-17T10:29:45Z</time>
      </trkpt>
      <trkpt lat="45.71354" lon="4.89779">
        <ele>188</ele>
        <time>2016-04-17T10:29:46Z</time>
      </trkpt>
      <trkpt lat="45.71349" lon="4.89788">
        <ele>188</ele>
        <time>2016-04-17T10:29:47Z</time>
      </trkpt>
      <trkpt lat="45.71344" lon="4.89797">
        <ele>188</ele>
        <time>2016-04-17T10:29:48Z</time>
      </trkpt>
      <trkpt lat="45.71338" lon="4.89806">
        <ele>188</ele>
        <time>2016-04-17T10:29:49Z</time>
      </trkpt>
      <trkpt lat="45.71333" lon="4.89815">
        <ele>188</ele>
        <time>2016-04-17T10:29:50Z</time>
      </trkpt>
      <trkpt lat="45.71328" lon="4.89824">
        <ele>188</ele>
        <time>2016-04-17T10:29:51Z</time>
      </trkpt>
      <trkpt lat="45.71323" lon="4.89832">
        <ele>188.8</ele>
        <time>2016-04-17T10:29:52Z</time>
      </trkpt>
      <trkpt lat="45.71314" lon="4.8985">
        <ele>189</ele>
        <time>2016-04-17T10:29:54Z</time>
      </trkpt>
      <trkpt lat="45.71309" lon="4.89859">
        <ele>189</ele>
        <time>2016-04-17T10:29:55Z</time>
      </trkpt>
      <trkpt lat="45.71304" lon="4.89867">
        <ele>189</ele>
        <time>2016-04-17T10:29:56Z</time>
      </trkpt>
      <trkpt lat="45.71299" lon="4.89874">
        <ele>189</ele>
        <time>2016-04-17T10:29:57Z</time>
      </trkpt>
      <trkpt lat="45.71293" lon="4.89882">
        <ele>189</ele>
        <time>2016-04-17T10:29:58Z</time>
      </trkpt>
      <trkpt lat="45.71288" lon="4.8989">
        <ele>189</ele>
        <time>2016-04-17T10:29:59Z</time>
      </trkpt>
      <trkpt lat="45.71283" lon="4.89898">
        <ele>189</ele>
        <time>2016-04-17T10:30:00Z</time>
      </trkpt>
      <trkpt lat="45.71278" lon="4.89906">
        <ele>189</ele>
        <time>2016-04-17T10:30:01Z</time>
      </trkpt>
      <trkpt lat="45.71268" lon="4.89922">
        <ele>189</ele>
        <time>2016-04-17T10:30:03Z</time>
      </trkpt>
      <trkpt lat="45.71257" lon="4.89939">
        <ele>189</ele>
        <time>2016-04-17T10:30:05Z</time>
      </trkpt>
      <trkpt lat="45.71252" lon="4.89947">
        <ele>189</ele>
        <time>2016-04-17T10:30:06Z</time>
      </trkpt>
      <trkpt lat="45.71247" lon="4.89956">
        <ele>189</ele>
        <time>2016-04-17T10:30:07Z</time>
      </trkpt>
      <trkpt lat="45.71242" lon="4.89964">
        <ele>189</ele>
        <time>2016-04-17T10:30:08Z</time>
      </trkpt>
      <trkpt lat="45.71237" lon="4.89973">
        <ele>189</ele>
        <time>2016-04-17T10:30:09Z</time>
      </trkpt>
      <trkpt lat="45.71232" lon="4.89981">
        <ele>189</ele>
        <time>2016-04-17T10:30:10Z</time>
      </trkpt>
      <trkpt lat="45.71227" lon="4.8999">
        <ele>189</ele>
        <time>2016-04-17T10:30:11Z</time>
      </trkpt>
      <trkpt lat="45.71222" lon="4.89998">
        <ele>189</ele>
        <time>2016-04-17T10:30:12Z</time>
      </trkpt>
      <trkpt lat="45.71211" lon="4.90014">
        <ele>189</ele>
        <time>2016-04-17T10:30:14Z</time>
      </trkpt>
      <trkpt lat="45.71206" lon="4.90022">
        <ele>189</ele>
        <time>2016-04-17T10:30:15Z</time>
      </trkpt>
      <trkpt lat="45.712" lon="4.9003">
        <ele>189</ele>
        <time>2016-04-17T10:30:16Z</time>
      </trkpt>
      <trkpt lat="45.71195" lon="4.90038">
        <ele>189</ele>
        <time>2016-04-17T10:30:17Z</time>
      </trkpt>
      <trkpt lat="45.7119" lon="4.90046">
        <ele>189</ele>
        <time>2016-04-17T10:30:18Z</time>
      </trkpt>
      <trkpt lat="45.71184" lon="4.90054">
        <ele>189</ele>
        <time>2016-04-17T10:30:19Z</time>
      </trkpt>
      <trkpt lat="45.71179" lon="4.90062">
        <ele>189</ele>
        <time>2016-04-17T10:30:20Z</time>
      </trkpt>
      <trkpt lat="45.71174" lon="4.90071">
        <ele>189</ele>
        <time>2016-04-17T10:30:21Z</time>
      </trkpt>
      <trkpt lat="45.71164" lon="4.90087">
        <ele>190.4</ele>
        <time>2016-04-17T10:30:23Z</time>
      </trkpt>
      <trkpt lat="45.71159" lon="4.90096">
        <ele>191</ele>
        <time>2016-04-17T10:30:24Z</time>
      </trkpt>
      <trkpt lat="45.71154" lon="4.90104">
        <ele>191</ele>
        <time>2016-04-17T10:30:25Z</time>
      </trkpt>
      <trkpt lat="45.71149" lon="4.90112">
        <ele>191</ele>
        <time>2016-04-17T10:30:26Z</time>
      </trkpt>
      <trkpt lat="45.71144" lon="4.9012">
        <ele>191</ele>
        <time>2016-04-17T10:30:27Z</time>
      </trkpt>
      <trkpt lat="45.71139" lon="4.90129">
        <ele>191</ele>
        <time>2016-04-17T10:30:28Z</time>
      </trkpt>
      <trkpt lat="45.71134" lon="4.90137">
        <ele>191</ele>
        <time>2016-04-17T10:30:29Z</time>
      </trkpt>
      <trkpt lat="45.71129" lon="4.90145">
        <ele>191</ele>
        <time>2016-04-17T10:30:30Z</time>
      </trkpt>
      <trkpt lat="45.71119" lon="4.90161">
        <ele>191</ele>
        <time>2016-04-17T10:30:32Z</time>
      </trkpt>
      <trkpt lat="45.71113" lon="4.90166">
        <ele>190.2</ele>
        <time>2016-04-17T10:30:33Z</time>
      </trkpt>
      <trkpt lat="45.71106" lon="4.90168">
        <ele>190</ele>
        <time>2016-04-17T10:30:34Z</time>
      </trkpt>
      <trkpt lat="45.71098" lon="4.90167">
        <ele>190</ele>
        <time>2016-04-17T10:30:35Z</time>
      </trkpt>
      <trkpt lat="45.71091" lon="4.90164">
        <ele>190</ele>
        <time>2016-04-17T10:30:36Z</time>
      </trkpt>
      <trkpt lat="45.71085" lon="4.90158">
        <ele>190</ele>
        <time>2016-04-17T10:30:37Z</time>
      </trkpt>
      <trkpt lat="45.71079" lon="4.90151">
        <ele>190</ele>
        <time>2016-04-17T10:30:38Z</time>
      </trkpt>
      <trkpt lat="45.71072" lon="4.90145">
        <ele>190</ele>
        <time>2016-04-17T10:30:39Z</time>
      </trkpt>
      <trkpt lat="45.71058" lon="4.90132">
        <ele>190</ele>
        <time>2016-04-17T10:30:41Z</time>
      </trkpt>
      <trkpt lat="45.71051" lon="4.90126">
        <ele>190</ele>
        <time>2016-04-17T10:30:42Z</time>
      </trkpt>
      <trkpt lat="45.71045" lon="4.90119">
        <ele>189.3</ele>
        <time>2016-04-17T10:30:43Z</time>
      </trkpt>
      <trkpt lat="45.71038" lon="4.90113">
        <ele>189</ele>
        <time>2016-04-17T10:30:44Z</time>
      </trkpt>
      <trkpt lat="45.71031" lon="4.90106">
        <ele>189</ele>
        <time>2016-04-17T10:30:45Z</time>
      </trkpt>
      <trkpt lat="45.71023" lon="4.901">
        <ele>189</ele>
        <time>2016-04-17T10:30:46Z</time>
      </trkpt>
      <trkpt lat="45.71016" lon="4.90094">
        <ele>189</ele>
        <time>2016-04-17T10:30:47Z</time>
      </trkpt>
      <trkpt lat="45.71009" lon="4.90088">
        <ele>189</ele>
        <time>2016-04-17T10:30:48Z</time>
      </trkpt>
      <trkpt lat="45.71002" lon="4.90082">
        <ele>189</ele>
        <time>2016-04-17T10:30:49Z</time>
      </trkpt>
      <trkpt lat="45.70996" lon="4.90074">
        <ele>189</ele>
        <time>2016-04-17T10:30:50Z</time>
      </trkpt>
      <trkpt lat="45.70989" lon="4.90068">
        <ele>189</ele>
        <time>2016-04-17T10:30:51Z</time>
      </trkpt>
      <trkpt lat="45.70982" lon="4.90061">
        <ele>189</ele>
        <time>2016-04-17T10:30:52Z</time>
      </trkpt>
      <trkpt lat="45.70975" lon="4.90055">
        <ele>189</ele>
        <time>2016-04-17T10:30:53Z</time>
      </trkpt>
      <trkpt lat="45.70969" lon="4.90048">
        <ele>189</ele>
        <time>2016-04-17T10:30:54Z</time>
      </trkpt>
      <trkpt lat="45.70962" lon="4.90042">
        <ele>189</ele>
        <time>2016-04-17T10:30:55Z</time>
      </trkpt>
      <trkpt lat="45.70947" lon="4.9003">
        <ele>189</ele>
        <time>2016-04-17T10:30:57Z</time>
      </trkpt>
      <trkpt lat="45.7094" lon="4.90025">
        <ele>189</ele>
        <time>2016-04-17T10:30:58Z</time>
      </trkpt>
      <trkpt lat="45.70933" lon="4.9002">
        <ele>189</ele>
        <time>2016-04-17T10:30:59Z</time>
      </trkpt>
      <trkpt lat="45.70926" lon="4.90014">
        <ele>189</ele>
        <time>2016-04-17T10:31:00Z</time>
      </trkpt>
      <trkpt lat="45.70919" lon="4.90009">
        <ele>189</ele>
        <time>2016-04-17T10:31:01Z</time>
      </trkpt>
      <trkpt lat="45.70913" lon="4.90003">
        <ele>189</ele>
        <time>2016-04-17T10:31:02Z</time>
      </trkpt>
      <trkpt lat="45.70906" lon="4.89997">
        <ele>189</ele>
        <time>2016-04-17T10:31:03Z</time>
      </trkpt>
      <trkpt lat="45.70899" lon="4.89991">
        <ele>189</ele>
        <time>2016-04-17T10:31:04Z</time>
      </trkpt>
      <trkpt lat="45.70887" lon="4.89978">
        <ele>189</ele>
        <time>2016-04-17T10:31:06Z</time>
      </trkpt>
      <trkpt lat="45.70881" lon="4.8997">
        <ele>189</ele>
        <time>2016-04-17T10:31:07Z</time>
      </trkpt>
      <trkpt lat="45.70874" lon="4.89964">
        <ele>189</ele>
        <time>2016-04-17T10:31:08Z</time>
      </trkpt>
      <trkpt lat="45.70868" lon="4.89958">
        <ele>189</ele>
        <time>2016-04-17T10:31:09Z</time>
      </trkpt>
      <trkpt lat="45.70861" lon="4.89952">
        <ele>189</ele>
        <time>2016-04-17T10:31:10Z</time>
      </trkpt>
      <trkpt lat="45.70854" lon="4.89946">
        <ele>189</ele>
        <time>2016-04-17T10:31:11Z</time>
      </trkpt>
      <trkpt lat="45.70847" lon="4.8994">
        <ele>189</ele>
        <time>2016-04-17T10:31:12Z</time>
      </trkpt>
      <trkpt lat="45.7084" lon="4.89934">
        <ele>189</ele>
        <time>2016-04-17T10:31:13Z</time>
      </trkpt>
      <trkpt lat="45.70827" lon="4.89921">
        <ele>189</ele>
        <time>2016-04-17T10:31:15Z</time>
      </trkpt>
      <trkpt lat="45.7082" lon="4.89916">
        <ele>189</ele>
        <time>2016-04-17T10:31:16Z</time>
      </trkpt>
      <trkpt lat="45.70813" lon="4.8991">
        <ele>189</ele>
        <time>2016-04-17T10:31:17Z</time>
      </trkpt>
      <trkpt lat="45.70806" lon="4.89904">
        <ele>189</ele>
        <time>2016-04-17T10:31:18Z</time>
      </trkpt>
      <trkpt lat="45.70799" lon="4.89898">
        <ele>189</ele>
        <time>2016-04-17T10:31:19Z</time>
      </trkpt>
      <trkpt lat="45.70792" lon="4.89892">
        <ele>189</ele>
        <time>2016-04-17T10:31:20Z</time>
      </trkpt>
      <trkpt lat="45.70778" lon="4.8988">
        <ele>189</ele>
        <time>2016-04-17T10:31:22Z</time>
      </trkpt>
      <trkpt lat="45.70772" lon="4.89874">
        <ele>189.8</ele>
        <time>2016-04-17T10:31:23Z</time>
      </trkpt>
      <trkpt lat="45.70759" lon="4.89862">
        <ele>190</ele>
        <time>2016-04-17T10:31:25Z</time>
      </trkpt>
      <trkpt lat="45.70745" lon="4.8985">
        <ele>190</ele>
        <time>2016-04-17T10:31:27Z</time>
      </trkpt>
      <trkpt lat="45.70738" lon="4.89844">
        <ele>190</ele>
        <time>2016-04-17T10:31:28Z</time>
      </trkpt>
      <trkpt lat="45.70731" lon="4.89838">
        <ele>190</ele>
        <time>2016-04-17T10:31:29Z</time>
      </trkpt>
      <trkpt lat="45.70723" lon="4.89834">
        <ele>190</ele>
        <time>2016-04-17T10:31:30Z</time>
      </trkpt>
      <trkpt lat="45.70718" lon="4.89826">
        <ele>190</ele>
        <time>2016-04-17T10:31:31Z</time>
      </trkpt>
      <trkpt lat="45.70712" lon="4.8982">
        <ele>190</ele>
        <time>2016-04-17T10:31:32Z</time>
      </trkpt>
      <trkpt lat="45.70706" lon="4.89815">
        <ele>190.7</ele>
        <time>2016-04-17T10:31:33Z</time>
      </trkpt>
      <trkpt lat="45.70699" lon="4.8981">
        <ele>191</ele>
        <time>2016-04-17T10:31:34Z</time>
      </trkpt>
      <trkpt lat="45.70692" lon="4.89804">
        <ele>191</ele>
        <time>2016-04-17T10:31:35Z</time>
      </trkpt>
      <trkpt lat="45.70686" lon="4.89798">
        <ele>191</ele>
        <time>2016-04-17T10:31:36Z</time>
      </trkpt>
      <trkpt lat="45.70679" lon="4.89792">
        <ele>191</ele>
        <time>2016-04-17T10:31:37Z</time>
      </trkpt>
      <trkpt lat="45.70672" lon="4.89786">
        <ele>191</ele>
        <time>2016-04-17T10:31:38Z</time>
      </trkpt>
      <trkpt lat="45.70665" lon="4.8978">
        <ele>191</ele>
        <time>2016-04-17T10:31:39Z</time>
      </trkpt>
      <trkpt lat="45.70658" lon="4.89774">
        <ele>191</ele>
        <time>2016-04-17T10:31:40Z</time>
      </trkpt>
      <trkpt lat="45.70652" lon="4.89768">
        <ele>191</ele>
        <time>2016-04-17T10:31:41Z</time>
      </trkpt>
      <trkpt lat="45.70645" lon="4.89762">
        <ele>191</ele>
        <time>2016-04-17T10:31:42Z</time>
      </trkpt>
      <trkpt lat="45.70638" lon="4.89756">
        <ele>191</ele>
        <time>2016-04-17T10:31:43Z</time>
      </trkpt>
      <trkpt lat="45.70631" lon="4.8975">
        <ele>191</ele>
        <time>2016-04-17T10:31:44Z</time>
      </trkpt>
      <trkpt lat="45.70624" lon="4.89744">
        <ele>191</ele>
        <time>2016-04-17T10:31:45Z</time>
      </trkpt>
      <trkpt lat="45.70617" lon="4.89738">
        <ele>191</ele>
        <time>2016-04-17T10:31:46Z</time>
      </trkpt>
      <trkpt lat="45.70611" lon="4.89732">
        <ele>191</ele>
        <time>2016-04-17T10:31:47Z</time>
      </trkpt>
      <trkpt lat="45.70604" lon="4.89725">
        <ele>191</ele>
        <time>2016-04-17T10:31:48Z</time>
      </trkpt>
      <trkpt lat="45.70597" lon="4.89719">
        <ele>191</ele>
        <time>2016-04-17T10:31:49Z</time>
      </trkpt>
      <trkpt lat="45.7059" lon="4.89713">
        <ele>191</ele>
        <time>2016-04-17T10:31:50Z</time>
      </trkpt>
      <trkpt lat="45.70584" lon="4.89707">
        <ele>191</ele>
        <time>2016-04-17T10:31:51Z</time>
      </trkpt>
      <trkpt lat="45.70577" lon="4.89701">
        <ele>191</ele>
        <time>2016-04-17T10:31:52Z</time>
      </trkpt>
      <trkpt lat="45.7057" lon="4.89695">
        <ele>191</ele>
        <time>2016-04-17T10:31:53Z</time>
      </trkpt>
      <trkpt lat="45.70564" lon="4.89689">
        <ele>191</ele>
        <time>2016-04-17T10:31:54Z</time>
      </trkpt>
      <trkpt lat="45.70557" lon="4.89683">
        <ele>191</ele>
        <time>2016-04-17T10:31:55Z</time>
      </trkpt>
      <trkpt lat="45.7055" lon="4.89677">
        <ele>191</ele>
        <time>2016-04-17T10:31:56Z</time>
      </trkpt>
      <trkpt lat="45.70543" lon="4.89671">
        <ele>191</ele>
        <time>2016-04-17T10:31:57Z</time>
      </trkpt>
      <trkpt lat="45.70536" lon="4.89665">
        <ele>191</ele>
        <time>2016-04-17T10:31:58Z</time>
      </trkpt>
      <trkpt lat="45.70523" lon="4.89653">
        <ele>191</ele>
        <time>2016-04-17T10:32:00Z</time>
      </trkpt>
      <trkpt lat="45.70516" lon="4.89647">
        <ele>191</ele>
        <time>2016-04-17T10:32:01Z</time>
      </trkpt>
      <trkpt lat="45.70509" lon="4.89641">
        <ele>191</ele>
        <time>2016-04-17T10:32:02Z</time>
      </trkpt>
      <trkpt lat="45.70502" lon="4.89636">
        <ele>191</ele>
        <time>2016-04-17T10:32:03Z</time>
      </trkpt>
      <trkpt lat="45.70495" lon="4.8963">
        <ele>191</ele>
        <time>2016-04-17T10:32:04Z</time>
      </trkpt>
      <trkpt lat="45.70488" lon="4.89624">
        <ele>191</ele>
        <time>2016-04-17T10:32:05Z</time>
      </trkpt>
      <trkpt lat="45.70481" lon="4.89619">
        <ele>191</ele>
        <time>2016-04-17T10:32:06Z</time>
      </trkpt>
      <trkpt lat="45.70474" lon="4.89614">
        <ele>191</ele>
        <time>2016-04-17T10:32:07Z</time>
      </trkpt>
      <trkpt lat="45.70467" lon="4.8961">
        <ele>191</ele>
        <time>2016-04-17T10:32:08Z</time>
      </trkpt>
      <trkpt lat="45.70459" lon="4.89607">
        <ele>191</ele>
        <time>2016-04-17T10:32:09Z</time>
      </trkpt>
      <trkpt lat="45.70452" lon="4.89605">
        <ele>191</ele>
        <time>2016-04-17T10:32:10Z</time>
      </trkpt>
      <trkpt lat="45.70445" lon="4.89601">
        <ele>191</ele>
        <time>2016-04-17T10:32:11Z</time>
      </trkpt>
      <trkpt lat="45.70438" lon="4.89598">
        <ele>191</ele>
        <time>2016-04-17T10:32:12Z</time>
      </trkpt>
      <trkpt lat="45.70432" lon="4.89594">
        <ele>191.7</ele>
        <time>2016-04-17T10:32:13Z</time>
      </trkpt>
      <trkpt lat="45.70425" lon="4.8959">
        <ele>192</ele>
        <time>2016-04-17T10:32:14Z</time>
      </trkpt>
      <trkpt lat="45.70412" lon="4.89582">
        <ele>192</ele>
        <time>2016-04-17T10:32:16Z</time>
      </trkpt>
      <trkpt lat="45.70406" lon="4.89578">
        <ele>192</ele>
        <time>2016-04-17T10:32:17Z</time>
      </trkpt>
      <trkpt lat="45.704" lon="4.89575">
        <ele>192</ele>
        <time>2016-04-17T10:32:18Z</time>
      </trkpt>
      <trkpt lat="45.70393" lon="4.89571">
        <ele>192</ele>
        <time>2016-04-17T10:32:19Z</time>
      </trkpt>
      <trkpt lat="45.70387" lon="4.89568">
        <ele>192</ele>
        <time>2016-04-17T10:32:20Z</time>
      </trkpt>
      <trkpt lat="45.70381" lon="4.89565">
        <ele>192</ele>
        <time>2016-04-17T10:32:21Z</time>
      </trkpt>
      <trkpt lat="45.70375" lon="4.89561">
        <ele>192</ele>
        <time>2016-04-17T10:32:22Z</time>
      </trkpt>
      <trkpt lat="45.70368" lon="4.89558">
        <ele>194.2</ele>
        <time>2016-04-17T10:32:23Z</time>
      </trkpt>
      <trkpt lat="45.70362" lon="4.89554">
        <ele>195</ele>
        <time>2016-04-17T10:32:24Z</time>
      </trkpt>
      <trkpt lat="45.70356" lon="4.89551">
        <ele>195</ele>
        <time>2016-04-17T10:32:25Z</time>
      </trkpt>
      <trkpt lat="45.7035" lon="4.89548">
        <ele>195</ele>
        <time>2016-04-17T10:32:26Z</time>
      </trkpt>
      <trkpt lat="45.70344" lon="4.89544">
        <ele>195</ele>
        <time>2016-04-17T10:32:27Z</time>
      </trkpt>
      <trkpt lat="45.70338" lon="4.8954">
        <ele>195.7</ele>
        <time>2016-04-17T10:32:28Z</time>
      </trkpt>
      <trkpt lat="45.70332" lon="4.89536">
        <ele>196</ele>
        <time>2016-04-17T10:32:29Z</time>
      </trkpt>
      <trkpt lat="45.70326" lon="4.89531">
        <ele>196</ele>
        <time>2016-04-17T10:32:30Z</time>
      </trkpt>
      <trkpt lat="45.70321" lon="4.89524">
        <ele>196</ele>
        <time>2016-04-17T10:32:31Z</time>
      </trkpt>
      <trkpt lat="45.70317" lon="4.89517">
        <ele>196</ele>
        <time>2016-04-17T10:32:32Z</time>
      </trkpt>
      <trkpt lat="45.70314" lon="4.89509">
        <ele>197.4</ele>
        <time>2016-04-17T10:32:33Z</time>
      </trkpt>
      <trkpt lat="45.70311" lon="4.895">
        <ele>198</ele>
        <time>2016-04-17T10:32:34Z</time>
      </trkpt>
      <trkpt lat="45.70308" lon="4.89492">
        <ele>198</ele>
        <time>2016-04-17T10:32:35Z</time>
      </trkpt>
      <trkpt lat="45.70305" lon="4.89483">
        <ele>198</ele>
        <time>2016-04-17T10:32:36Z</time>
      </trkpt>
      <trkpt lat="45.70302" lon="4.89474">
        <ele>198</ele>
        <time>2016-04-17T10:32:37Z</time>
      </trkpt>
      <trkpt lat="45.70299" lon="4.89466">
        <ele>198</ele>
        <time>2016-04-17T10:32:38Z</time>
      </trkpt>
      <trkpt lat="45.70293" lon="4.89448">
        <ele>198</ele>
        <time>2016-04-17T10:32:40Z</time>
      </trkpt>
      <trkpt lat="45.7029" lon="4.89439">
        <ele>198</ele>
        <time>2016-04-17T10:32:41Z</time>
      </trkpt>
      <trkpt lat="45.70287" lon="4.8943">
        <ele>198</ele>
        <time>2016-04-17T10:32:42Z</time>
      </trkpt>
      <trkpt lat="45.70284" lon="4.89421">
        <ele>198</ele>
        <time>2016-04-17T10:32:43Z</time>
      </trkpt>
      <trkpt lat="45.70281" lon="4.89412">
        <ele>198</ele>
        <time>2016-04-17T10:32:44Z</time>
      </trkpt>
      <trkpt lat="45.70278" lon="4.89403">
        <ele>198</ele>
        <time>2016-04-17T10:32:45Z</time>
      </trkpt>
      <trkpt lat="45.70275" lon="4.89393">
        <ele>198</ele>
        <time>2016-04-17T10:32:46Z</time>
      </trkpt>
      <trkpt lat="45.70271" lon="4.89384">
        <ele>198</ele>
        <time>2016-04-17T10:32:47Z</time>
      </trkpt>
      <trkpt lat="45.70268" lon="4.89375">
        <ele>198</ele>
        <time>2016-04-17T10:32:48Z</time>
      </trkpt>
      <trkpt lat="45.70265" lon="4.89365">
        <ele>198</ele>
        <time>2016-04-17T10:32:49Z</time>
      </trkpt>
      <trkpt lat="45.70262" lon="4.89355">
        <ele>198</ele>
        <time>2016-04-17T10:32:50Z</time>
      </trkpt>
      <trkpt lat="45.70259" lon="4.89345">
        <ele>198</ele>
        <time>2016-04-17T10:32:51Z</time>
      </trkpt>
      <trkpt lat="45.70256" lon="4.89335">
        <ele>196.5</ele>
        <time>2016-04-17T10:32:52Z</time>
      </trkpt>
      <trkpt lat="45.70252" lon="4.89324">
        <ele>196</ele>
        <time>2016-04-17T10:32:53Z</time>
      </trkpt>
      <trkpt lat="45.70248" lon="4.89314">
        <ele>196</ele>
        <time>2016-04-17T10:32:54Z</time>
      </trkpt>
      <trkpt lat="45.70244" lon="4.89303">
        <ele>196</ele>
        <time>2016-04-17T10:32:55Z</time>
      </trkpt>
      <trkpt lat="45.70241" lon="4.89292">
        <ele>196</ele>
        <time>2016-04-17T10:32:56Z</time>
      </trkpt>
      <trkpt lat="45.70233" lon="4.8927">
        <ele>196</ele>
        <time>2016-04-17T10:32:58Z</time>
      </trkpt>
      <trkpt lat="45.70229" lon="4.89258">
        <ele>196</ele>
        <time>2016-04-17T10:32:59Z</time>
      </trkpt>
      <trkpt lat="45.70224" lon="4.89246">
        <ele>196</ele>
        <time>2016-04-17T10:33:00Z</time>
      </trkpt>
      <trkpt lat="45.7022" lon="4.89235">
        <ele>196</ele>
        <time>2016-04-17T10:33:01Z</time>
      </trkpt>
      <trkpt lat="45.70216" lon="4.89223">
        <ele>195.2</ele>
        <time>2016-04-17T10:33:02Z</time>
      </trkpt>
      <trkpt lat="45.70212" lon="4.89211">
        <ele>195</ele>
        <time>2016-04-17T10:33:03Z</time>
      </trkpt>
      <trkpt lat="45.70208" lon="4.89199">
        <ele>195</ele>
        <time>2016-04-17T10:33:04Z</time>
      </trkpt>
      <trkpt lat="45.70203" lon="4.89187">
        <ele>195</ele>
        <time>2016-04-17T10:33:05Z</time>
      </trkpt>
      <trkpt lat="45.70199" lon="4.89174">
        <ele>195</ele>
        <time>2016-04-17T10:33:06Z</time>
      </trkpt>
      <trkpt lat="45.70194" lon="4.89162">
        <ele>195</ele>
        <time>2016-04-17T10:33:07Z</time>
      </trkpt>
      <trkpt lat="45.7019" lon="4.8915">
        <ele>192.6</ele>
        <time>2016-04-17T10:33:08Z</time>
      </trkpt>
      <trkpt lat="45.70186" lon="4.89138">
        <ele>192</ele>
        <time>2016-04-17T10:33:09Z</time>
      </trkpt>
      <trkpt lat="45.70182" lon="4.89126">
        <ele>192</ele>
        <time>2016-04-17T10:33:10Z</time>
      </trkpt>
      <trkpt lat="45.70179" lon="4.89114">
        <ele>192</ele>
        <time>2016-04-17T10:33:11Z</time>
      </trkpt>
      <trkpt lat="45.70176" lon="4.89102">
        <ele>192</ele>
        <time>2016-04-17T10:33:12Z</time>
      </trkpt>
      <trkpt lat="45.70172" lon="4.8909">
        <ele>192</ele>
        <time>2016-04-17T10:33:13Z</time>
      </trkpt>
      <trkpt lat="45.7017" lon="4.89079">
        <ele>192</ele>
        <time>2016-04-17T10:33:14Z</time>
      </trkpt>
      <trkpt lat="45.70167" lon="4.89069">
        <ele>192</ele>
        <time>2016-04-17T10:33:15Z</time>
      </trkpt>
      <trkpt lat="45.70163" lon="4.89061">
        <ele>192</ele>
        <time>2016-04-17T10:33:16Z</time>
      </trkpt>
      <trkpt lat="45.70158" lon="4.89056">
        <ele>192</ele>
        <time>2016-04-17T10:33:17Z</time>
      </trkpt>
      <trkpt lat="45.70148" lon="4.89061">
        <ele>192</ele>
        <time>2016-04-17T10:33:19Z</time>
      </trkpt>
      <trkpt lat="45.70145" lon="4.89078">
        <ele>192</ele>
        <time>2016-04-17T10:33:21Z</time>
      </trkpt>
      <trkpt lat="45.70146" lon="4.89093">
        <ele>191.3</ele>
        <time>2016-04-17T10:33:23Z</time>
      </trkpt>
      <trkpt lat="45.70142" lon="4.89107">
        <ele>191</ele>
        <time>2016-04-17T10:33:25Z</time>
      </trkpt>
      <trkpt lat="45.70138" lon="4.89112">
        <ele>191</ele>
        <time>2016-04-17T10:33:26Z</time>
      </trkpt>
      <trkpt lat="45.70131" lon="4.89122">
        <ele>191</ele>
        <time>2016-04-17T10:33:28Z</time>
      </trkpt>
      <trkpt lat="45.70126" lon="4.89124">
        <ele>191</ele>
        <time>2016-04-17T10:33:30Z</time>
      </trkpt>
      <trkpt lat="45.70124" lon="4.89116">
        <ele>190</ele>
        <time>2016-04-17T10:33:34Z</time>
      </trkpt>
      <trkpt lat="45.70125" lon="4.89108">
        <ele>190</ele>
        <time>2016-04-17T10:33:38Z</time>
      </trkpt>
      <trkpt lat="45.70124" lon="4.89101">
        <ele>190</ele>
        <time>2016-04-17T10:33:40Z</time>
      </trkpt>
      <trkpt lat="45.70122" lon="4.89089">
        <ele>190</ele>
        <time>2016-04-17T10:33:43Z</time>
      </trkpt>
      <trkpt lat="45.70118" lon="4.89085">
        <ele>190</ele>
        <time>2016-04-17T10:33:45Z</time>
      </trkpt>
      <trkpt lat="45.7011" lon="4.89085">
        <ele>190</ele>
        <time>2016-04-17T10:33:47Z</time>
      </trkpt>
      <trkpt lat="45.70105" lon="4.89085">
        <ele>190</ele>
        <time>2016-04-17T10:33:48Z</time>
      </trkpt>
      <trkpt lat="45.70099" lon="4.89085">
        <ele>190</ele>
        <time>2016-04-17T10:33:49Z</time>
      </trkpt>
      <trkpt lat="45.70093" lon="4.89085">
        <ele>190</ele>
        <time>2016-04-17T10:33:50Z</time>
      </trkpt>
      <trkpt lat="45.70081" lon="4.89085">
        <ele>190</ele>
        <time>2016-04-17T10:33:52Z</time>
      </trkpt>
      <trkpt lat="45.70075" lon="4.89086">
        <ele>190.7</ele>
        <time>2016-04-17T10:33:53Z</time>
      </trkpt>
      <trkpt lat="45.70068" lon="4.89087">
        <ele>191</ele>
        <time>2016-04-17T10:33:54Z</time>
      </trkpt>
      <trkpt lat="45.70061" lon="4.89088">
        <ele>191</ele>
        <time>2016-04-17T10:33:55Z</time>
      </trkpt>
      <trkpt lat="45.70054" lon="4.89088">
        <ele>191</ele>
        <time>2016-04-17T10:33:56Z</time>
      </trkpt>
      <trkpt lat="45.70047" lon="4.89088">
        <ele>191</ele>
        <time>2016-04-17T10:33:57Z</time>
      </trkpt>
      <trkpt lat="45.7004" lon="4.89088">
        <ele>191</ele>
        <time>2016-04-17T10:33:58Z</time>
      </trkpt>
      <trkpt lat="45.70033" lon="4.89088">
        <ele>191</ele>
        <time>2016-04-17T10:33:59Z</time>
      </trkpt>
      <trkpt lat="45.70025" lon="4.89089">
        <ele>191</ele>
        <time>2016-04-17T10:34:00Z</time>
      </trkpt>
      <trkpt lat="45.70018" lon="4.89089">
        <ele>191</ele>
        <time>2016-04-17T10:34:01Z</time>
      </trkpt>
      <trkpt lat="45.70011" lon="4.89089">
        <ele>191.7</ele>
        <time>2016-04-17T10:34:02Z</time>
      </trkpt>
      <trkpt lat="45.70003" lon="4.89089">
        <ele>192</ele>
        <time>2016-04-17T10:34:03Z</time>
      </trkpt>
      <trkpt lat="45.69996" lon="4.8909">
        <ele>192</ele>
        <time>2016-04-17T10:34:04Z</time>
      </trkpt>
      <trkpt lat="45.69989" lon="4.8909">
        <ele>192</ele>
        <time>2016-04-17T10:34:05Z</time>
      </trkpt>
      <trkpt lat="45.69982" lon="4.89091">
        <ele>192</ele>
        <time>2016-04-17T10:34:06Z</time>
      </trkpt>
      <trkpt lat="45.69975" lon="4.89091">
        <ele>192</ele>
        <time>2016-04-17T10:34:07Z</time>
      </trkpt>
      <trkpt lat="45.69967" lon="4.89091">
        <ele>192</ele>
        <time>2016-04-17T10:34:08Z</time>
      </trkpt>
      <trkpt lat="45.6996" lon="4.89091">
        <ele>192</ele>
        <time>2016-04-17T10:34:09Z</time>
      </trkpt>
      <trkpt lat="45.69952" lon="4.89092">
        <ele>192</ele>
        <time>2016-04-17T10:34:10Z</time>
      </trkpt>
      <trkpt lat="45.69945" lon="4.89092">
        <ele>192</ele>
        <time>2016-04-17T10:34:11Z</time>
      </trkpt>
      <trkpt lat="45.69937" lon="4.89092">
        <ele>192</ele>
        <time>2016-04-17T10:34:12Z</time>
      </trkpt>
      <trkpt lat="45.6993" lon="4.89093">
        <ele>192</ele>
        <time>2016-04-17T10:34:13Z</time>
      </trkpt>
      <trkpt lat="45.69922" lon="4.89093">
        <ele>192</ele>
        <time>2016-04-17T10:34:14Z</time>
      </trkpt>
      <trkpt lat="45.69914" lon="4.89093">
        <ele>192</ele>
        <time>2016-04-17T10:34:15Z</time>
      </trkpt>
      <trkpt lat="45.69906" lon="4.89094">
        <ele>192</ele>
        <time>2016-04-17T10:34:16Z</time>
      </trkpt>
      <trkpt lat="45.69899" lon="4.89094">
        <ele>192</ele>
        <time>2016-04-17T10:34:17Z</time>
      </trkpt>
      <trkpt lat="45.69891" lon="4.89094">
        <ele>192</ele>
        <time>2016-04-17T10:34:18Z</time>
      </trkpt>
      <trkpt lat="45.69883" lon="4.89094">
        <ele>192</ele>
        <time>2016-04-17T10:34:19Z</time>
      </trkpt>
      <trkpt lat="45.69875" lon="4.89094">
        <ele>192</ele>
        <time>2016-04-17T10:34:20Z</time>
      </trkpt>
      <trkpt lat="45.69868" lon="4.89094">
        <ele>192</ele>
        <time>2016-04-17T10:34:21Z</time>
      </trkpt>
      <trkpt lat="45.6986" lon="4.89095">
        <ele>192</ele>
        <time>2016-04-17T10:34:22Z</time>
      </trkpt>
      <trkpt lat="45.69853" lon="4.89095">
        <ele>192</ele>
        <time>2016-04-17T10:34:23Z</time>
      </trkpt>
      <trkpt lat="45.69845" lon="4.89095">
        <ele>192</ele>
        <time>2016-04-17T10:34:24Z</time>
      </trkpt>
      <trkpt lat="45.69837" lon="4.89096">
        <ele>192</ele>
        <time>2016-04-17T10:34:25Z</time>
      </trkpt>
      <trkpt lat="45.69823" lon="4.89096">
        <ele>192</ele>
        <time>2016-04-17T10:34:27Z</time>
      </trkpt>
      <trkpt lat="45.69815" lon="4.89096">
        <ele>192</ele>
        <time>2016-04-17T10:34:28Z</time>
      </trkpt>
      <trkpt lat="45.698" lon="4.89097">
        <ele>192</ele>
        <time>2016-04-17T10:34:30Z</time>
      </trkpt>
      <trkpt lat="45.69793" lon="4.89097">
        <ele>192</ele>
        <time>2016-04-17T10:34:31Z</time>
      </trkpt>
      <trkpt lat="45.69785" lon="4.89098">
        <ele>192</ele>
        <time>2016-04-17T10:34:32Z</time>
      </trkpt>
      <trkpt lat="45.6977" lon="4.89098">
        <ele>192</ele>
        <time>2016-04-17T10:34:34Z</time>
      </trkpt>
      <trkpt lat="45.69763" lon="4.89096">
        <ele>192</ele>
        <time>2016-04-17T10:34:35Z</time>
      </trkpt>
      <trkpt lat="45.69756" lon="4.89093">
        <ele>192</ele>
        <time>2016-04-17T10:34:36Z</time>
      </trkpt>
      <trkpt lat="45.69749" lon="4.89091">
        <ele>192</ele>
        <time>2016-04-17T10:34:37Z</time>
      </trkpt>
      <trkpt lat="45.69734" lon="4.89092">
        <ele>192</ele>
        <time>2016-04-17T10:34:39Z</time>
      </trkpt>
      <trkpt lat="45.69727" lon="4.89094">
        <ele>192</ele>
        <time>2016-04-17T10:34:40Z</time>
      </trkpt>
      <trkpt lat="45.69712" lon="4.89097">
        <ele>192</ele>
        <time>2016-04-17T10:34:42Z</time>
      </trkpt>
      <trkpt lat="45.69704" lon="4.89098">
        <ele>191.3</ele>
        <time>2016-04-17T10:34:43Z</time>
      </trkpt>
      <trkpt lat="45.69697" lon="4.89098">
        <ele>191</ele>
        <time>2016-04-17T10:34:44Z</time>
      </trkpt>
      <trkpt lat="45.69683" lon="4.89098">
        <ele>191</ele>
        <time>2016-04-17T10:34:46Z</time>
      </trkpt>
      <trkpt lat="45.69675" lon="4.89098">
        <ele>191</ele>
        <time>2016-04-17T10:34:47Z</time>
      </trkpt>
      <trkpt lat="45.69668" lon="4.89098">
        <ele>191</ele>
        <time>2016-04-17T10:34:48Z</time>
      </trkpt>
      <trkpt lat="45.69661" lon="4.89099">
        <ele>191</ele>
        <time>2016-04-17T10:34:49Z</time>
      </trkpt>
      <trkpt lat="45.69653" lon="4.89099">
        <ele>191</ele>
        <time>2016-04-17T10:34:50Z</time>
      </trkpt>
      <trkpt lat="45.69646" lon="4.89099">
        <ele>191</ele>
        <time>2016-04-17T10:34:51Z</time>
      </trkpt>
      <trkpt lat="45.69632" lon="4.891">
        <ele>192.5</ele>
        <time>2016-04-17T10:34:53Z</time>
      </trkpt>
      <trkpt lat="45.69618" lon="4.891">
        <ele>193</ele>
        <time>2016-04-17T10:34:55Z</time>
      </trkpt>
      <trkpt lat="45.69604" lon="4.89101">
        <ele>193</ele>
        <time>2016-04-17T10:34:57Z</time>
      </trkpt>
      <trkpt lat="45.69596" lon="4.89101">
        <ele>193</ele>
        <time>2016-04-17T10:34:58Z</time>
      </trkpt>
      <trkpt lat="45.69589" lon="4.89101">
        <ele>193</ele>
        <time>2016-04-17T10:34:59Z</time>
      </trkpt>
      <trkpt lat="45.69582" lon="4.89102">
        <ele>193</ele>
        <time>2016-04-17T10:35:00Z</time>
      </trkpt>
      <trkpt lat="45.69575" lon="4.89102">
        <ele>193</ele>
        <time>2016-04-17T10:35:01Z</time>
      </trkpt>
      <trkpt lat="45.69568" lon="4.89102">
        <ele>193.7</ele>
        <time>2016-04-17T10:35:02Z</time>
      </trkpt>
      <trkpt lat="45.69554" lon="4.89103">
        <ele>194</ele>
        <time>2016-04-17T10:35:04Z</time>
      </trkpt>
      <trkpt lat="45.69547" lon="4.89103">
        <ele>194</ele>
        <time>2016-04-17T10:35:05Z</time>
      </trkpt>
      <trkpt lat="45.69533" lon="4.89103">
        <ele>194</ele>
        <time>2016-04-17T10:35:07Z</time>
      </trkpt>
      <trkpt lat="45.69526" lon="4.89104">
        <ele>194</ele>
        <time>2016-04-17T10:35:08Z</time>
      </trkpt>
      <trkpt lat="45.69513" lon="4.89105">
        <ele>194</ele>
        <time>2016-04-17T10:35:10Z</time>
      </trkpt>
      <trkpt lat="45.69506" lon="4.89105">
        <ele>194</ele>
        <time>2016-04-17T10:35:11Z</time>
      </trkpt>
      <trkpt lat="45.695" lon="4.89105">
        <ele>194</ele>
        <time>2016-04-17T10:35:12Z</time>
      </trkpt>
      <trkpt lat="45.69493" lon="4.89104">
        <ele>194.6</ele>
        <time>2016-04-17T10:35:13Z</time>
      </trkpt>
      <trkpt lat="45.69485" lon="4.89091">
        <ele>195</ele>
        <time>2016-04-17T10:35:15Z</time>
      </trkpt>
      <trkpt lat="45.69484" lon="4.89083">
        <ele>195</ele>
        <time>2016-04-17T10:35:16Z</time>
      </trkpt>
      <trkpt lat="45.69483" lon="4.89074">
        <ele>195</ele>
        <time>2016-04-17T10:35:17Z</time>
      </trkpt>
      <trkpt lat="45.69484" lon="4.89065">
        <ele>195</ele>
        <time>2016-04-17T10:35:18Z</time>
      </trkpt>
      <trkpt lat="45.69483" lon="4.89055">
        <ele>195</ele>
        <time>2016-04-17T10:35:19Z</time>
      </trkpt>
      <trkpt lat="45.69483" lon="4.89046">
        <ele>195</ele>
        <time>2016-04-17T10:35:20Z</time>
      </trkpt>
      <trkpt lat="45.69483" lon="4.89037">
        <ele>195</ele>
        <time>2016-04-17T10:35:21Z</time>
      </trkpt>
      <trkpt lat="45.69482" lon="4.89028">
        <ele>195</ele>
        <time>2016-04-17T10:35:22Z</time>
      </trkpt>
      <trkpt lat="45.69481" lon="4.8902">
        <ele>195.6</ele>
        <time>2016-04-17T10:35:23Z</time>
      </trkpt>
      <trkpt lat="45.69481" lon="4.89011">
        <ele>196</ele>
        <time>2016-04-17T10:35:24Z</time>
      </trkpt>
      <trkpt lat="45.6948" lon="4.89003">
        <ele>196</ele>
        <time>2016-04-17T10:35:25Z</time>
      </trkpt>
      <trkpt lat="45.69479" lon="4.88997">
        <ele>196</ele>
        <time>2016-04-17T10:35:26Z</time>
      </trkpt>
      <trkpt lat="45.69478" lon="4.88989">
        <ele>196</ele>
        <time>2016-04-17T10:35:28Z</time>
      </trkpt>
      <trkpt lat="45.69477" lon="4.88985">
        <ele>196</ele>
        <time>2016-04-17T10:35:31Z</time>
      </trkpt>
      <trkpt lat="45.69476" lon="4.88979">
        <ele>197</ele>
        <time>2016-04-17T10:35:33Z</time>
      </trkpt>
      <trkpt lat="45.69476" lon="4.88973">
        <ele>197</ele>
        <time>2016-04-17T10:35:35Z</time>
      </trkpt>
      <trkpt lat="45.69478" lon="4.8897">
        <ele>197</ele>
        <time>2016-04-17T10:35:38Z</time>
      </trkpt>
      <trkpt lat="45.69476" lon="4.88963">
        <ele>197</ele>
        <time>2016-04-17T10:35:41Z</time>
      </trkpt>
      <trkpt lat="45.69472" lon="4.88962">
        <ele>197</ele>
        <time>2016-04-17T10:35:42Z</time>
      </trkpt>
      <trkpt lat="45.69468" lon="4.88961">
        <ele>196.3</ele>
        <time>2016-04-17T10:35:43Z</time>
      </trkpt>
      <trkpt lat="45.69463" lon="4.88962">
        <ele>196</ele>
        <time>2016-04-17T10:35:44Z</time>
      </trkpt>
      <trkpt lat="45.69457" lon="4.88963">
        <ele>196</ele>
        <time>2016-04-17T10:35:45Z</time>
      </trkpt>
      <trkpt lat="45.69446" lon="4.88966">
        <ele>196</ele>
        <time>2016-04-17T10:35:47Z</time>
      </trkpt>
      <trkpt lat="45.6944" lon="4.88968">
        <ele>196</ele>
        <time>2016-04-17T10:35:48Z</time>
      </trkpt>
      <trkpt lat="45.69434" lon="4.8897">
        <ele>196</ele>
        <time>2016-04-17T10:35:49Z</time>
      </trkpt>
      <trkpt lat="45.69428" lon="4.88972">
        <ele>196</ele>
        <time>2016-04-17T10:35:50Z</time>
      </trkpt>
      <trkpt lat="45.69422" lon="4.88974">
        <ele>196</ele>
        <time>2016-04-17T10:35:51Z</time>
      </trkpt>
      <trkpt lat="45.69417" lon="4.88977">
        <ele>196</ele>
        <time>2016-04-17T10:35:52Z</time>
      </trkpt>
      <trkpt lat="45.69411" lon="4.88981">
        <ele>196.7</ele>
        <time>2016-04-17T10:35:53Z</time>
      </trkpt>
      <trkpt lat="45.69405" lon="4.88984">
        <ele>197</ele>
        <time>2016-04-17T10:35:54Z</time>
      </trkpt>
      <trkpt lat="45.69399" lon="4.88986">
        <ele>197</ele>
        <time>2016-04-17T10:35:55Z</time>
      </trkpt>
      <trkpt lat="45.69393" lon="4.88989">
        <ele>197</ele>
        <time>2016-04-17T10:35:56Z</time>
      </trkpt>
      <trkpt lat="45.69386" lon="4.88991">
        <ele>197</ele>
        <time>2016-04-17T10:35:57Z</time>
      </trkpt>
      <trkpt lat="45.6938" lon="4.88993">
        <ele>197</ele>
        <time>2016-04-17T10:35:58Z</time>
      </trkpt>
      <trkpt lat="45.69373" lon="4.88995">
        <ele>197</ele>
        <time>2016-04-17T10:35:59Z</time>
      </trkpt>
      <trkpt lat="45.69367" lon="4.88997">
        <ele>197</ele>
        <time>2016-04-17T10:36:00Z</time>
      </trkpt>
      <trkpt lat="45.6936" lon="4.88998">
        <ele>197</ele>
        <time>2016-04-17T10:36:01Z</time>
      </trkpt>
      <trkpt lat="45.69354" lon="4.89">
        <ele>199.1</ele>
        <time>2016-04-17T10:36:02Z</time>
      </trkpt>
      <trkpt lat="45.69347" lon="4.89001">
        <ele>200</ele>
        <time>2016-04-17T10:36:03Z</time>
      </trkpt>
      <trkpt lat="45.6934" lon="4.89002">
        <ele>200</ele>
        <time>2016-04-17T10:36:04Z</time>
      </trkpt>
      <trkpt lat="45.69333" lon="4.89003">
        <ele>200</ele>
        <time>2016-04-17T10:36:05Z</time>
      </trkpt>
      <trkpt lat="45.69327" lon="4.89005">
        <ele>200</ele>
        <time>2016-04-17T10:36:06Z</time>
      </trkpt>
      <trkpt lat="45.6932" lon="4.89006">
        <ele>200</ele>
        <time>2016-04-17T10:36:07Z</time>
      </trkpt>
      <trkpt lat="45.69313" lon="4.89008">
        <ele>200</ele>
        <time>2016-04-17T10:36:08Z</time>
      </trkpt>
      <trkpt lat="45.69299" lon="4.89009">
        <ele>200</ele>
        <time>2016-04-17T10:36:10Z</time>
      </trkpt>
      <trkpt lat="45.69292" lon="4.89009">
        <ele>200</ele>
        <time>2016-04-17T10:36:11Z</time>
      </trkpt>
      <trkpt lat="45.69285" lon="4.89009">
        <ele>200</ele>
        <time>2016-04-17T10:36:12Z</time>
      </trkpt>
      <trkpt lat="45.69278" lon="4.89009">
        <ele>200.7</ele>
        <time>2016-04-17T10:36:13Z</time>
      </trkpt>
      <trkpt lat="45.69271" lon="4.8901">
        <ele>201</ele>
        <time>2016-04-17T10:36:14Z</time>
      </trkpt>
      <trkpt lat="45.69264" lon="4.8901">
        <ele>201</ele>
        <time>2016-04-17T10:36:15Z</time>
      </trkpt>
      <trkpt lat="45.69257" lon="4.89011">
        <ele>201</ele>
        <time>2016-04-17T10:36:16Z</time>
      </trkpt>
      <trkpt lat="45.6925" lon="4.89011">
        <ele>201</ele>
        <time>2016-04-17T10:36:17Z</time>
      </trkpt>
      <trkpt lat="45.69243" lon="4.89011">
        <ele>201</ele>
        <time>2016-04-17T10:36:18Z</time>
      </trkpt>
      <trkpt lat="45.69236" lon="4.89011">
        <ele>201</ele>
        <time>2016-04-17T10:36:19Z</time>
      </trkpt>
      <trkpt lat="45.69229" lon="4.89012">
        <ele>201</ele>
        <time>2016-04-17T10:36:20Z</time>
      </trkpt>
      <trkpt lat="45.69222" lon="4.89013">
        <ele>201</ele>
        <time>2016-04-17T10:36:21Z</time>
      </trkpt>
      <trkpt lat="45.69215" lon="4.89014">
        <ele>201</ele>
        <time>2016-04-17T10:36:22Z</time>
      </trkpt>
      <trkpt lat="45.69208" lon="4.89014">
        <ele>201</ele>
        <time>2016-04-17T10:36:23Z</time>
      </trkpt>
      <trkpt lat="45.69202" lon="4.89015">
        <ele>201</ele>
        <time>2016-04-17T10:36:24Z</time>
      </trkpt>
      <trkpt lat="45.69195" lon="4.89016">
        <ele>201</ele>
        <time>2016-04-17T10:36:25Z</time>
      </trkpt>
      <trkpt lat="45.69189" lon="4.89017">
        <ele>201</ele>
        <time>2016-04-17T10:36:26Z</time>
      </trkpt>
      <trkpt lat="45.69183" lon="4.89018">
        <ele>201</ele>
        <time>2016-04-17T10:36:27Z</time>
      </trkpt>
      <trkpt lat="45.69177" lon="4.89018">
        <ele>201</ele>
        <time>2016-04-17T10:36:28Z</time>
      </trkpt>
      <trkpt lat="45.69171" lon="4.8902">
        <ele>201</ele>
        <time>2016-04-17T10:36:29Z</time>
      </trkpt>
      <trkpt lat="45.69165" lon="4.89021">
        <ele>201</ele>
        <time>2016-04-17T10:36:30Z</time>
      </trkpt>
      <trkpt lat="45.69161" lon="4.89022">
        <ele>201</ele>
        <time>2016-04-17T10:36:31Z</time>
      </trkpt>
      <trkpt lat="45.69157" lon="4.89024">
        <ele>201</ele>
        <time>2016-04-17T10:36:32Z</time>
      </trkpt>
      <trkpt lat="45.6915" lon="4.89027">
        <ele>201</ele>
        <time>2016-04-17T10:36:34Z</time>
      </trkpt>
      <trkpt lat="45.69141" lon="4.89032">
        <ele>201</ele>
        <time>2016-04-17T10:36:36Z</time>
      </trkpt>
      <trkpt lat="45.6913" lon="4.89039">
        <ele>201</ele>
        <time>2016-04-17T10:36:38Z</time>
      </trkpt>
      <trkpt lat="45.69118" lon="4.89046">
        <ele>201</ele>
        <time>2016-04-17T10:36:40Z</time>
      </trkpt>
      <trkpt lat="45.69112" lon="4.8905">
        <ele>201</ele>
        <time>2016-04-17T10:36:41Z</time>
      </trkpt>
      <trkpt lat="45.69106" lon="4.89054">
        <ele>201</ele>
        <time>2016-04-17T10:36:42Z</time>
      </trkpt>
      <trkpt lat="45.691" lon="4.89059">
        <ele>201</ele>
        <time>2016-04-17T10:36:43Z</time>
      </trkpt>
      <trkpt lat="45.69093" lon="4.89063">
        <ele>201.8</ele>
        <time>2016-04-17T10:36:44Z</time>
      </trkpt>
      <trkpt lat="45.69087" lon="4.89067">
        <ele>202</ele>
        <time>2016-04-17T10:36:45Z</time>
      </trkpt>
      <trkpt lat="45.69081" lon="4.89072">
        <ele>202</ele>
        <time>2016-04-17T10:36:46Z</time>
      </trkpt>
      <trkpt lat="45.69074" lon="4.89076">
        <ele>202</ele>
        <time>2016-04-17T10:36:47Z</time>
      </trkpt>
      <trkpt lat="45.69068" lon="4.89081">
        <ele>202</ele>
        <time>2016-04-17T10:36:48Z</time>
      </trkpt>
      <trkpt lat="45.69054" lon="4.89089">
        <ele>202</ele>
        <time>2016-04-17T10:36:50Z</time>
      </trkpt>
      <trkpt lat="45.69047" lon="4.89092">
        <ele>202</ele>
        <time>2016-04-17T10:36:51Z</time>
      </trkpt>
      <trkpt lat="45.6904" lon="4.89094">
        <ele>202</ele>
        <time>2016-04-17T10:36:52Z</time>
      </trkpt>
      <trkpt lat="45.69033" lon="4.89096">
        <ele>202</ele>
        <time>2016-04-17T10:36:53Z</time>
      </trkpt>
      <trkpt lat="45.69026" lon="4.89098">
        <ele>202</ele>
        <time>2016-04-17T10:36:54Z</time>
      </trkpt>
      <trkpt lat="45.69011" lon="4.891">
        <ele>202</ele>
        <time>2016-04-17T10:36:56Z</time>
      </trkpt>
      <trkpt lat="45.69004" lon="4.89102">
        <ele>202</ele>
        <time>2016-04-17T10:36:57Z</time>
      </trkpt>
      <trkpt lat="45.68997" lon="4.89103">
        <ele>202</ele>
        <time>2016-04-17T10:36:58Z</time>
      </trkpt>
      <trkpt lat="45.68982" lon="4.89106">
        <ele>202</ele>
        <time>2016-04-17T10:37:00Z</time>
      </trkpt>
      <trkpt lat="45.68975" lon="4.89107">
        <ele>202</ele>
        <time>2016-04-17T10:37:01Z</time>
      </trkpt>
      <trkpt lat="45.68968" lon="4.89109">
        <ele>202.7</ele>
        <time>2016-04-17T10:37:02Z</time>
      </trkpt>
      <trkpt lat="45.68961" lon="4.8911">
        <ele>203</ele>
        <time>2016-04-17T10:37:03Z</time>
      </trkpt>
      <trkpt lat="45.68954" lon="4.89111">
        <ele>203</ele>
        <time>2016-04-17T10:37:04Z</time>
      </trkpt>
      <trkpt lat="45.68947" lon="4.89113">
        <ele>203</ele>
        <time>2016-04-17T10:37:05Z</time>
      </trkpt>
      <trkpt lat="45.6894" lon="4.89114">
        <ele>203</ele>
        <time>2016-04-17T10:37:06Z</time>
      </trkpt>
      <trkpt lat="45.68933" lon="4.89115">
        <ele>203</ele>
        <time>2016-04-17T10:37:07Z</time>
      </trkpt>
      <trkpt lat="45.68926" lon="4.89116">
        <ele>203</ele>
        <time>2016-04-17T10:37:08Z</time>
      </trkpt>
      <trkpt lat="45.68919" lon="4.89117">
        <ele>203</ele>
        <time>2016-04-17T10:37:09Z</time>
      </trkpt>
      <trkpt lat="45.68912" lon="4.89118">
        <ele>203</ele>
        <time>2016-04-17T10:37:10Z</time>
      </trkpt>
      <trkpt lat="45.68905" lon="4.89119">
        <ele>203</ele>
        <time>2016-04-17T10:37:11Z</time>
      </trkpt>
      <trkpt lat="45.68898" lon="4.8912">
        <ele>203</ele>
        <time>2016-04-17T10:37:12Z</time>
      </trkpt>
      <trkpt lat="45.68892" lon="4.89121">
        <ele>204.4</ele>
        <time>2016-04-17T10:37:13Z</time>
      </trkpt>
      <trkpt lat="45.68885" lon="4.89122">
        <ele>205</ele>
        <time>2016-04-17T10:37:14Z</time>
      </trkpt>
      <trkpt lat="45.68878" lon="4.89122">
        <ele>205</ele>
        <time>2016-04-17T10:37:15Z</time>
      </trkpt>
      <trkpt lat="45.68872" lon="4.89123">
        <ele>205</ele>
        <time>2016-04-17T10:37:16Z</time>
      </trkpt>
      <trkpt lat="45.68865" lon="4.89123">
        <ele>205</ele>
        <time>2016-04-17T10:37:17Z</time>
      </trkpt>
      <trkpt lat="45.68859" lon="4.89123">
        <ele>205</ele>
        <time>2016-04-17T10:37:18Z</time>
      </trkpt>
      <trkpt lat="45.68853" lon="4.89122">
        <ele>205</ele>
        <time>2016-04-17T10:37:19Z</time>
      </trkpt>
      <trkpt lat="45.68847" lon="4.89119">
        <ele>205</ele>
        <time>2016-04-17T10:37:20Z</time>
      </trkpt>
      <trkpt lat="45.68841" lon="4.89117">
        <ele>205</ele>
        <time>2016-04-17T10:37:21Z</time>
      </trkpt>
      <trkpt lat="45.68835" lon="4.89115">
        <ele>205</ele>
        <time>2016-04-17T10:37:22Z</time>
      </trkpt>
      <trkpt lat="45.68829" lon="4.89115">
        <ele>206.4</ele>
        <time>2016-04-17T10:37:23Z</time>
      </trkpt>
      <trkpt lat="45.68823" lon="4.89115">
        <ele>207</ele>
        <time>2016-04-17T10:37:24Z</time>
      </trkpt>
      <trkpt lat="45.68817" lon="4.89119">
        <ele>207</ele>
        <time>2016-04-17T10:37:25Z</time>
      </trkpt>
      <trkpt lat="45.68812" lon="4.89124">
        <ele>207</ele>
        <time>2016-04-17T10:37:26Z</time>
      </trkpt>
      <trkpt lat="45.68808" lon="4.8913">
        <ele>207</ele>
        <time>2016-04-17T10:37:27Z</time>
      </trkpt>
      <trkpt lat="45.68802" lon="4.89134">
        <ele>207</ele>
        <time>2016-04-17T10:37:28Z</time>
      </trkpt>
      <trkpt lat="45.68797" lon="4.89136">
        <ele>207</ele>
        <time>2016-04-17T10:37:29Z</time>
      </trkpt>
      <trkpt lat="45.68791" lon="4.89137">
        <ele>207</ele>
        <time>2016-04-17T10:37:30Z</time>
      </trkpt>
      <trkpt lat="45.68785" lon="4.89138">
        <ele>207</ele>
        <time>2016-04-17T10:37:31Z</time>
      </trkpt>
      <trkpt lat="45.68779" lon="4.89139">
        <ele>207</ele>
        <time>2016-04-17T10:37:32Z</time>
      </trkpt>
      <trkpt lat="45.68774" lon="4.8914">
        <ele>207.7</ele>
        <time>2016-04-17T10:37:33Z</time>
      </trkpt>
      <trkpt lat="45.68768" lon="4.89141">
        <ele>208</ele>
        <time>2016-04-17T10:37:34Z</time>
      </trkpt>
      <trkpt lat="45.68762" lon="4.89142">
        <ele>208</ele>
        <time>2016-04-17T10:37:35Z</time>
      </trkpt>
      <trkpt lat="45.68756" lon="4.89144">
        <ele>208</ele>
        <time>2016-04-17T10:37:36Z</time>
      </trkpt>
      <trkpt lat="45.6875" lon="4.89146">
        <ele>208</ele>
        <time>2016-04-17T10:37:37Z</time>
      </trkpt>
      <trkpt lat="45.68744" lon="4.89147">
        <ele>208</ele>
        <time>2016-04-17T10:37:38Z</time>
      </trkpt>
      <trkpt lat="45.68739" lon="4.89149">
        <ele>208</ele>
        <time>2016-04-17T10:37:39Z</time>
      </trkpt>
      <trkpt lat="45.68733" lon="4.89151">
        <ele>208</ele>
        <time>2016-04-17T10:37:40Z</time>
      </trkpt>
      <trkpt lat="45.68727" lon="4.89152">
        <ele>208</ele>
        <time>2016-04-17T10:37:41Z</time>
      </trkpt>
      <trkpt lat="45.68721" lon="4.89154">
        <ele>208</ele>
        <time>2016-04-17T10:37:42Z</time>
      </trkpt>
      <trkpt lat="45.68715" lon="4.89156">
        <ele>209.5</ele>
        <time>2016-04-17T10:37:43Z</time>
      </trkpt>
      <trkpt lat="45.6871" lon="4.89158">
        <ele>210</ele>
        <time>2016-04-17T10:37:44Z</time>
      </trkpt>
      <trkpt lat="45.68704" lon="4.8916">
        <ele>210</ele>
        <time>2016-04-17T10:37:45Z</time>
      </trkpt>
      <trkpt lat="45.68698" lon="4.89162">
        <ele>210</ele>
        <time>2016-04-17T10:37:46Z</time>
      </trkpt>
      <trkpt lat="45.68692" lon="4.89164">
        <ele>210</ele>
        <time>2016-04-17T10:37:47Z</time>
      </trkpt>
      <trkpt lat="45.68685" lon="4.89166">
        <ele>210</ele>
        <time>2016-04-17T10:37:48Z</time>
      </trkpt>
      <trkpt lat="45.6868" lon="4.89167">
        <ele>210</ele>
        <time>2016-04-17T10:37:49Z</time>
      </trkpt>
      <trkpt lat="45.68668" lon="4.8917">
        <ele>210</ele>
        <time>2016-04-17T10:37:51Z</time>
      </trkpt>
      <trkpt lat="45.68662" lon="4.89172">
        <ele>210</ele>
        <time>2016-04-17T10:37:52Z</time>
      </trkpt>
      <trkpt lat="45.68656" lon="4.89173">
        <ele>211.5</ele>
        <time>2016-04-17T10:37:53Z</time>
      </trkpt>
      <trkpt lat="45.6865" lon="4.89175">
        <ele>212</ele>
        <time>2016-04-17T10:37:54Z</time>
      </trkpt>
      <trkpt lat="45.68644" lon="4.89178">
        <ele>212</ele>
        <time>2016-04-17T10:37:55Z</time>
      </trkpt>
      <trkpt lat="45.68638" lon="4.89181">
        <ele>212</ele>
        <time>2016-04-17T10:37:56Z</time>
      </trkpt>
      <trkpt lat="45.68631" lon="4.89184">
        <ele>212</ele>
        <time>2016-04-17T10:37:57Z</time>
      </trkpt>
      <trkpt lat="45.68625" lon="4.89187">
        <ele>212</ele>
        <time>2016-04-17T10:37:58Z</time>
      </trkpt>
      <trkpt lat="45.68619" lon="4.89192">
        <ele>212</ele>
        <time>2016-04-17T10:37:59Z</time>
      </trkpt>
      <trkpt lat="45.68612" lon="4.89197">
        <ele>212</ele>
        <time>2016-04-17T10:38:00Z</time>
      </trkpt>
      <trkpt lat="45.68606" lon="4.89203">
        <ele>212</ele>
        <time>2016-04-17T10:38:01Z</time>
      </trkpt>
      <trkpt lat="45.68599" lon="4.8921">
        <ele>210.6</ele>
        <time>2016-04-17T10:38:02Z</time>
      </trkpt>
      <trkpt lat="45.68593" lon="4.89216">
        <ele>210</ele>
        <time>2016-04-17T10:38:03Z</time>
      </trkpt>
      <trkpt lat="45.68585" lon="4.89222">
        <ele>210</ele>
        <time>2016-04-17T10:38:04Z</time>
      </trkpt>
      <trkpt lat="45.68578" lon="4.89229">
        <ele>210</ele>
        <time>2016-04-17T10:38:05Z</time>
      </trkpt>
      <trkpt lat="45.6857" lon="4.89236">
        <ele>210</ele>
        <time>2016-04-17T10:38:06Z</time>
      </trkpt>
      <trkpt lat="45.68563" lon="4.89243">
        <ele>210</ele>
        <time>2016-04-17T10:38:07Z</time>
      </trkpt>
      <trkpt lat="45.68556" lon="4.89251">
        <ele>210</ele>
        <time>2016-04-17T10:38:08Z</time>
      </trkpt>
      <trkpt lat="45.68548" lon="4.89259">
        <ele>210</ele>
        <time>2016-04-17T10:38:09Z</time>
      </trkpt>
      <trkpt lat="45.6854" lon="4.89267">
        <ele>210</ele>
        <time>2016-04-17T10:38:10Z</time>
      </trkpt>
      <trkpt lat="45.68533" lon="4.89275">
        <ele>210</ele>
        <time>2016-04-17T10:38:11Z</time>
      </trkpt>
      <trkpt lat="45.68525" lon="4.89284">
        <ele>210</ele>
        <time>2016-04-17T10:38:12Z</time>
      </trkpt>
      <trkpt lat="45.68517" lon="4.89293">
        <ele>207.2</ele>
        <time>2016-04-17T10:38:13Z</time>
      </trkpt>
      <trkpt lat="45.6851" lon="4.89301">
        <ele>206</ele>
        <time>2016-04-17T10:38:14Z</time>
      </trkpt>
      <trkpt lat="45.68502" lon="4.89309">
        <ele>204.6</ele>
        <time>2016-04-17T10:38:15Z</time>
      </trkpt>
      <trkpt lat="45.68494" lon="4.89317">
        <ele>204</ele>
        <time>2016-04-17T10:38:16Z</time>
      </trkpt>
      <trkpt lat="45.68486" lon="4.89324">
        <ele>203.3</ele>
        <time>2016-04-17T10:38:17Z</time>
      </trkpt>
      <trkpt lat="45.68477" lon="4.89329">
        <ele>203</ele>
        <time>2016-04-17T10:38:18Z</time>
      </trkpt>
      <trkpt lat="45.68468" lon="4.89333">
        <ele>203</ele>
        <time>2016-04-17T10:38:19Z</time>
      </trkpt>
      <trkpt lat="45.68449" lon="4.89338">
        <ele>203</ele>
        <time>2016-04-17T10:38:21Z</time>
      </trkpt>
      <trkpt lat="45.6844" lon="4.8934">
        <ele>203</ele>
        <time>2016-04-17T10:38:22Z</time>
      </trkpt>
      <trkpt lat="45.68431" lon="4.89342">
        <ele>203</ele>
        <time>2016-04-17T10:38:23Z</time>
      </trkpt>
      <trkpt lat="45.68414" lon="4.89346">
        <ele>203</ele>
        <time>2016-04-17T10:38:25Z</time>
      </trkpt>
      <trkpt lat="45.68406" lon="4.89348">
        <ele>203</ele>
        <time>2016-04-17T10:38:26Z</time>
      </trkpt>
      <trkpt lat="45.68397" lon="4.8935">
        <ele>203</ele>
        <time>2016-04-17T10:38:27Z</time>
      </trkpt>
      <trkpt lat="45.68389" lon="4.89352">
        <ele>203</ele>
        <time>2016-04-17T10:38:28Z</time>
      </trkpt>
      <trkpt lat="45.6838" lon="4.89354">
        <ele>203</ele>
        <time>2016-04-17T10:38:29Z</time>
      </trkpt>
      <trkpt lat="45.68372" lon="4.89357">
        <ele>203</ele>
        <time>2016-04-17T10:38:30Z</time>
      </trkpt>
      <trkpt lat="45.68363" lon="4.89359">
        <ele>203</ele>
        <time>2016-04-17T10:38:31Z</time>
      </trkpt>
      <trkpt lat="45.68355" lon="4.89361">
        <ele>203</ele>
        <time>2016-04-17T10:38:32Z</time>
      </trkpt>
      <trkpt lat="45.68346" lon="4.89363">
        <ele>203</ele>
        <time>2016-04-17T10:38:33Z</time>
      </trkpt>
      <trkpt lat="45.68338" lon="4.89365">
        <ele>203.6</ele>
        <time>2016-04-17T10:38:34Z</time>
      </trkpt>
      <trkpt lat="45.68329" lon="4.89368">
        <ele>204</ele>
        <time>2016-04-17T10:38:35Z</time>
      </trkpt>
      <trkpt lat="45.68321" lon="4.8937">
        <ele>204</ele>
        <time>2016-04-17T10:38:36Z</time>
      </trkpt>
      <trkpt lat="45.68312" lon="4.89372">
        <ele>204</ele>
        <time>2016-04-17T10:38:37Z</time>
      </trkpt>
      <trkpt lat="45.68304" lon="4.89374">
        <ele>204</ele>
        <time>2016-04-17T10:38:38Z</time>
      </trkpt>
      <trkpt lat="45.68295" lon="4.89376">
        <ele>204</ele>
        <time>2016-04-17T10:38:39Z</time>
      </trkpt>
      <trkpt lat="45.68287" lon="4.89378">
        <ele>204</ele>
        <time>2016-04-17T10:38:40Z</time>
      </trkpt>
      <trkpt lat="45.68278" lon="4.89381">
        <ele>204</ele>
        <time>2016-04-17T10:38:41Z</time>
      </trkpt>
      <trkpt lat="45.6827" lon="4.89383">
        <ele>204</ele>
        <time>2016-04-17T10:38:42Z</time>
      </trkpt>
      <trkpt lat="45.68261" lon="4.89385">
        <ele>204</ele>
        <time>2016-04-17T10:38:43Z</time>
      </trkpt>
      <trkpt lat="45.68253" lon="4.89387">
        <ele>204</ele>
        <time>2016-04-17T10:38:44Z</time>
      </trkpt>
      <trkpt lat="45.68245" lon="4.89389">
        <ele>204</ele>
        <time>2016-04-17T10:38:45Z</time>
      </trkpt>
      <trkpt lat="45.68236" lon="4.89392">
        <ele>204</ele>
        <time>2016-04-17T10:38:46Z</time>
      </trkpt>
      <trkpt lat="45.68228" lon="4.89394">
        <ele>204</ele>
        <time>2016-04-17T10:38:47Z</time>
      </trkpt>
      <trkpt lat="45.68219" lon="4.89396">
        <ele>204</ele>
        <time>2016-04-17T10:38:48Z</time>
      </trkpt>
      <trkpt lat="45.68211" lon="4.89398">
        <ele>204</ele>
        <time>2016-04-17T10:38:49Z</time>
      </trkpt>
      <trkpt lat="45.68202" lon="4.894">
        <ele>204</ele>
        <time>2016-04-17T10:38:50Z</time>
      </trkpt>
      <trkpt lat="45.68194" lon="4.89402">
        <ele>204</ele>
        <time>2016-04-17T10:38:51Z</time>
      </trkpt>
      <trkpt lat="45.68185" lon="4.89404">
        <ele>204</ele>
        <time>2016-04-17T10:38:52Z</time>
      </trkpt>
      <trkpt lat="45.68177" lon="4.89407">
        <ele>204</ele>
        <time>2016-04-17T10:38:53Z</time>
      </trkpt>
      <trkpt lat="45.68169" lon="4.89409">
        <ele>203.4</ele>
        <time>2016-04-17T10:38:54Z</time>
      </trkpt>
      <trkpt lat="45.6816" lon="4.89411">
        <ele>203</ele>
        <time>2016-04-17T10:38:55Z</time>
      </trkpt>
      <trkpt lat="45.68152" lon="4.89414">
        <ele>203</ele>
        <time>2016-04-17T10:38:56Z</time>
      </trkpt>
      <trkpt lat="45.68144" lon="4.89416">
        <ele>203</ele>
        <time>2016-04-17T10:38:57Z</time>
      </trkpt>
      <trkpt lat="45.68135" lon="4.89419">
        <ele>203</ele>
        <time>2016-04-17T10:38:58Z</time>
      </trkpt>
      <trkpt lat="45.68127" lon="4.89421">
        <ele>203</ele>
        <time>2016-04-17T10:38:59Z</time>
      </trkpt>
      <trkpt lat="45.68118" lon="4.89423">
        <ele>203</ele>
        <time>2016-04-17T10:39:00Z</time>
      </trkpt>
      <trkpt lat="45.6811" lon="4.89425">
        <ele>203</ele>
        <time>2016-04-17T10:39:01Z</time>
      </trkpt>
      <trkpt lat="45.68102" lon="4.89427">
        <ele>203.6</ele>
        <time>2016-04-17T10:39:02Z</time>
      </trkpt>
      <trkpt lat="45.68094" lon="4.89429">
        <ele>204</ele>
        <time>2016-04-17T10:39:03Z</time>
      </trkpt>
      <trkpt lat="45.68085" lon="4.89431">
        <ele>204</ele>
        <time>2016-04-17T10:39:04Z</time>
      </trkpt>
      <trkpt lat="45.68077" lon="4.89434">
        <ele>204</ele>
        <time>2016-04-17T10:39:05Z</time>
      </trkpt>
      <trkpt lat="45.68069" lon="4.89436">
        <ele>204</ele>
        <time>2016-04-17T10:39:06Z</time>
      </trkpt>
      <trkpt lat="45.68061" lon="4.89438">
        <ele>204</ele>
        <time>2016-04-17T10:39:07Z</time>
      </trkpt>
      <trkpt lat="45.68053" lon="4.89441">
        <ele>204</ele>
        <time>2016-04-17T10:39:08Z</time>
      </trkpt>
      <trkpt lat="45.68045" lon="4.89443">
        <ele>204</ele>
        <time>2016-04-17T10:39:09Z</time>
      </trkpt>
      <trkpt lat="45.68037" lon="4.89446">
        <ele>204</ele>
        <time>2016-04-17T10:39:10Z</time>
      </trkpt>
      <trkpt lat="45.68029" lon="4.89449">
        <ele>204</ele>
        <time>2016-04-17T10:39:11Z</time>
      </trkpt>
      <trkpt lat="45.68022" lon="4.89452">
        <ele>204</ele>
        <time>2016-04-17T10:39:12Z</time>
      </trkpt>
      <trkpt lat="45.68014" lon="4.89455">
        <ele>204.6</ele>
        <time>2016-04-17T10:39:13Z</time>
      </trkpt>
      <trkpt lat="45.68007" lon="4.89458">
        <ele>205</ele>
        <time>2016-04-17T10:39:14Z</time>
      </trkpt>
      <trkpt lat="45.68" lon="4.8946">
        <ele>205</ele>
        <time>2016-04-17T10:39:15Z</time>
      </trkpt>
      <trkpt lat="45.67993" lon="4.89463">
        <ele>205</ele>
        <time>2016-04-17T10:39:16Z</time>
      </trkpt>
      <trkpt lat="45.67986" lon="4.89466">
        <ele>205</ele>
        <time>2016-04-17T10:39:17Z</time>
      </trkpt>
      <trkpt lat="45.67978" lon="4.89469">
        <ele>205</ele>
        <time>2016-04-17T10:39:18Z</time>
      </trkpt>
      <trkpt lat="45.67971" lon="4.89472">
        <ele>205</ele>
        <time>2016-04-17T10:39:19Z</time>
      </trkpt>
      <trkpt lat="45.67964" lon="4.89475">
        <ele>205</ele>
        <time>2016-04-17T10:39:20Z</time>
      </trkpt>
      <trkpt lat="45.67957" lon="4.89478">
        <ele>205</ele>
        <time>2016-04-17T10:39:21Z</time>
      </trkpt>
      <trkpt lat="45.67942" lon="4.89484">
        <ele>205</ele>
        <time>2016-04-17T10:39:23Z</time>
      </trkpt>
      <trkpt lat="45.67934" lon="4.89487">
        <ele>205</ele>
        <time>2016-04-17T10:39:24Z</time>
      </trkpt>
      <trkpt lat="45.67927" lon="4.89491">
        <ele>205</ele>
        <time>2016-04-17T10:39:25Z</time>
      </trkpt>
      <trkpt lat="45.67919" lon="4.89495">
        <ele>205</ele>
        <time>2016-04-17T10:39:26Z</time>
      </trkpt>
      <trkpt lat="45.67911" lon="4.89498">
        <ele>205</ele>
        <time>2016-04-17T10:39:27Z</time>
      </trkpt>
      <trkpt lat="45.67904" lon="4.89502">
        <ele>205</ele>
        <time>2016-04-17T10:39:28Z</time>
      </trkpt>
      <trkpt lat="45.67896" lon="4.89505">
        <ele>205</ele>
        <time>2016-04-17T10:39:29Z</time>
      </trkpt>
      <trkpt lat="45.67889" lon="4.89509">
        <ele>205</ele>
        <time>2016-04-17T10:39:30Z</time>
      </trkpt>
      <trkpt lat="45.67881" lon="4.89513">
        <ele>205</ele>
        <time>2016-04-17T10:39:31Z</time>
      </trkpt>
      <trkpt lat="45.67874" lon="4.89516">
        <ele>205</ele>
        <time>2016-04-17T10:39:32Z</time>
      </trkpt>
      <trkpt lat="45.67866" lon="4.8952">
        <ele>205</ele>
        <time>2016-04-17T10:39:33Z</time>
      </trkpt>
      <trkpt lat="45.67859" lon="4.89523">
        <ele>205</ele>
        <time>2016-04-17T10:39:34Z</time>
      </trkpt>
      <trkpt lat="45.67852" lon="4.89527">
        <ele>205</ele>
        <time>2016-04-17T10:39:35Z</time>
      </trkpt>
      <trkpt lat="45.67844" lon="4.8953">
        <ele>205</ele>
        <time>2016-04-17T10:39:36Z</time>
      </trkpt>
      <trkpt lat="45.67837" lon="4.89534">
        <ele>205</ele>
        <time>2016-04-17T10:39:37Z</time>
      </trkpt>
      <trkpt lat="45.67829" lon="4.89537">
        <ele>205</ele>
        <time>2016-04-17T10:39:38Z</time>
      </trkpt>
      <trkpt lat="45.67821" lon="4.8954">
        <ele>205</ele>
        <time>2016-04-17T10:39:39Z</time>
      </trkpt>
      <trkpt lat="45.67813" lon="4.89543">
        <ele>205</ele>
        <time>2016-04-17T10:39:40Z</time>
      </trkpt>
      <trkpt lat="45.67806" lon="4.89546">
        <ele>205</ele>
        <time>2016-04-17T10:39:41Z</time>
      </trkpt>
      <trkpt lat="45.67798" lon="4.89549">
        <ele>205</ele>
        <time>2016-04-17T10:39:42Z</time>
      </trkpt>
      <trkpt lat="45.6779" lon="4.89552">
        <ele>204.2</ele>
        <time>2016-04-17T10:39:43Z</time>
      </trkpt>
      <trkpt lat="45.67783" lon="4.89556">
        <ele>204</ele>
        <time>2016-04-17T10:39:44Z</time>
      </trkpt>
      <trkpt lat="45.67775" lon="4.89559">
        <ele>204</ele>
        <time>2016-04-17T10:39:45Z</time>
      </trkpt>
      <trkpt lat="45.67768" lon="4.89562">
        <ele>204</ele>
        <time>2016-04-17T10:39:46Z</time>
      </trkpt>
      <trkpt lat="45.67761" lon="4.89565">
        <ele>204</ele>
        <time>2016-04-17T10:39:47Z</time>
      </trkpt>
      <trkpt lat="45.67754" lon="4.89569">
        <ele>204</ele>
        <time>2016-04-17T10:39:48Z</time>
      </trkpt>
      <trkpt lat="45.67746" lon="4.89572">
        <ele>204</ele>
        <time>2016-04-17T10:39:49Z</time>
      </trkpt>
      <trkpt lat="45.67732" lon="4.89579">
        <ele>204</ele>
        <time>2016-04-17T10:39:51Z</time>
      </trkpt>
      <trkpt lat="45.67724" lon="4.89582">
        <ele>204</ele>
        <time>2016-04-17T10:39:52Z</time>
      </trkpt>
      <trkpt lat="45.67717" lon="4.89585">
        <ele>204</ele>
        <time>2016-04-17T10:39:53Z</time>
      </trkpt>
      <trkpt lat="45.67711" lon="4.89589">
        <ele>204</ele>
        <time>2016-04-17T10:39:54Z</time>
      </trkpt>
      <trkpt lat="45.67704" lon="4.89592">
        <ele>204</ele>
        <time>2016-04-17T10:39:55Z</time>
      </trkpt>
      <trkpt lat="45.67698" lon="4.89595">
        <ele>204</ele>
        <time>2016-04-17T10:39:56Z</time>
      </trkpt>
      <trkpt lat="45.67692" lon="4.89598">
        <ele>204</ele>
        <time>2016-04-17T10:39:57Z</time>
      </trkpt>
      <trkpt lat="45.67687" lon="4.896">
        <ele>204</ele>
        <time>2016-04-17T10:39:58Z</time>
      </trkpt>
      <trkpt lat="45.67684" lon="4.89602">
        <ele>204</ele>
        <time>2016-04-17T10:39:59Z</time>
      </trkpt>
      <trkpt lat="45.67677" lon="4.89606">
        <ele>204</ele>
        <time>2016-04-17T10:40:01Z</time>
      </trkpt>
      <trkpt lat="45.67674" lon="4.8961">
        <ele>204</ele>
        <time>2016-04-17T10:40:02Z</time>
      </trkpt>
      <trkpt lat="45.67671" lon="4.89615">
        <ele>204</ele>
        <time>2016-04-17T10:40:03Z</time>
      </trkpt>
      <trkpt lat="45.67669" lon="4.89621">
        <ele>204</ele>
        <time>2016-04-17T10:40:04Z</time>
      </trkpt>
      <trkpt lat="45.67668" lon="4.89628">
        <ele>204</ele>
        <time>2016-04-17T10:40:05Z</time>
      </trkpt>
      <trkpt lat="45.67667" lon="4.89636">
        <ele>204</ele>
        <time>2016-04-17T10:40:06Z</time>
      </trkpt>
      <trkpt lat="45.67666" lon="4.89644">
        <ele>204</ele>
        <time>2016-04-17T10:40:07Z</time>
      </trkpt>
      <trkpt lat="45.67665" lon="4.89653">
        <ele>204</ele>
        <time>2016-04-17T10:40:08Z</time>
      </trkpt>
      <trkpt lat="45.67664" lon="4.89662">
        <ele>204</ele>
        <time>2016-04-17T10:40:09Z</time>
      </trkpt>
      <trkpt lat="45.67662" lon="4.89679">
        <ele>204</ele>
        <time>2016-04-17T10:40:11Z</time>
      </trkpt>
      <trkpt lat="45.67661" lon="4.89688">
        <ele>204</ele>
        <time>2016-04-17T10:40:12Z</time>
      </trkpt>
      <trkpt lat="45.6766" lon="4.89697">
        <ele>204.7</ele>
        <time>2016-04-17T10:40:13Z</time>
      </trkpt>
      <trkpt lat="45.67658" lon="4.89705">
        <ele>205</ele>
        <time>2016-04-17T10:40:14Z</time>
      </trkpt>
      <trkpt lat="45.67655" lon="4.89713">
        <ele>205</ele>
        <time>2016-04-17T10:40:15Z</time>
      </trkpt>
      <trkpt lat="45.67652" lon="4.89721">
        <ele>205</ele>
        <time>2016-04-17T10:40:16Z</time>
      </trkpt>
      <trkpt lat="45.67648" lon="4.89729">
        <ele>205</ele>
        <time>2016-04-17T10:40:17Z</time>
      </trkpt>
      <trkpt lat="45.67644" lon="4.89736">
        <ele>205</ele>
        <time>2016-04-17T10:40:18Z</time>
      </trkpt>
      <trkpt lat="45.67639" lon="4.89743">
        <ele>205</ele>
        <time>2016-04-17T10:40:19Z</time>
      </trkpt>
      <trkpt lat="45.67635" lon="4.8975">
        <ele>205</ele>
        <time>2016-04-17T10:40:20Z</time>
      </trkpt>
      <trkpt lat="45.6763" lon="4.89757">
        <ele>205</ele>
        <time>2016-04-17T10:40:21Z</time>
      </trkpt>
      <trkpt lat="45.67626" lon="4.89765">
        <ele>205</ele>
        <time>2016-04-17T10:40:22Z</time>
      </trkpt>
      <trkpt lat="45.67621" lon="4.89772">
        <ele>206.6</ele>
        <time>2016-04-17T10:40:23Z</time>
      </trkpt>
      <trkpt lat="45.67617" lon="4.89779">
        <ele>207</ele>
        <time>2016-04-17T10:40:24Z</time>
      </trkpt>
      <trkpt lat="45.67612" lon="4.89786">
        <ele>207</ele>
        <time>2016-04-17T10:40:25Z</time>
      </trkpt>
      <trkpt lat="45.67608" lon="4.89793">
        <ele>207</ele>
        <time>2016-04-17T10:40:26Z</time>
      </trkpt>
      <trkpt lat="45.67604" lon="4.89801">
        <ele>207</ele>
        <time>2016-04-17T10:40:27Z</time>
      </trkpt>
      <trkpt lat="45.676" lon="4.89808">
        <ele>207</ele>
        <time>2016-04-17T10:40:28Z</time>
      </trkpt>
      <trkpt lat="45.67596" lon="4.89816">
        <ele>207</ele>
        <time>2016-04-17T10:40:29Z</time>
      </trkpt>
      <trkpt lat="45.67592" lon="4.89824">
        <ele>207</ele>
        <time>2016-04-17T10:40:30Z</time>
      </trkpt>
      <trkpt lat="45.67589" lon="4.89832">
        <ele>207</ele>
        <time>2016-04-17T10:40:31Z</time>
      </trkpt>
      <trkpt lat="45.67587" lon="4.89842">
        <ele>207</ele>
        <time>2016-04-17T10:40:32Z</time>
      </trkpt>
      <trkpt lat="45.67585" lon="4.89851">
        <ele>207</ele>
        <time>2016-04-17T10:40:33Z</time>
      </trkpt>
      <trkpt lat="45.67582" lon="4.8986">
        <ele>207</ele>
        <time>2016-04-17T10:40:34Z</time>
      </trkpt>
      <trkpt lat="45.67579" lon="4.89868">
        <ele>207</ele>
        <time>2016-04-17T10:40:35Z</time>
      </trkpt>
      <trkpt lat="45.67575" lon="4.89876">
        <ele>207</ele>
        <time>2016-04-17T10:40:36Z</time>
      </trkpt>
      <trkpt lat="45.67571" lon="4.89884">
        <ele>207</ele>
        <time>2016-04-17T10:40:37Z</time>
      </trkpt>
      <trkpt lat="45.67566" lon="4.89891">
        <ele>207</ele>
        <time>2016-04-17T10:40:38Z</time>
      </trkpt>
      <trkpt lat="45.6756" lon="4.89895">
        <ele>207</ele>
        <time>2016-04-17T10:40:39Z</time>
      </trkpt>
      <trkpt lat="45.67553" lon="4.89897">
        <ele>207</ele>
        <time>2016-04-17T10:40:40Z</time>
      </trkpt>
      <trkpt lat="45.67546" lon="4.89898">
        <ele>207</ele>
        <time>2016-04-17T10:40:41Z</time>
      </trkpt>
      <trkpt lat="45.67539" lon="4.89899">
        <ele>207</ele>
        <time>2016-04-17T10:40:42Z</time>
      </trkpt>
      <trkpt lat="45.67533" lon="4.89899">
        <ele>208.3</ele>
        <time>2016-04-17T10:40:43Z</time>
      </trkpt>
      <trkpt lat="45.67526" lon="4.89899">
        <ele>209</ele>
        <time>2016-04-17T10:40:44Z</time>
      </trkpt>
      <trkpt lat="45.67519" lon="4.89898">
        <ele>209</ele>
        <time>2016-04-17T10:40:45Z</time>
      </trkpt>
      <trkpt lat="45.67512" lon="4.89897">
        <ele>209</ele>
        <time>2016-04-17T10:40:46Z</time>
      </trkpt>
      <trkpt lat="45.67505" lon="4.89896">
        <ele>209</ele>
        <time>2016-04-17T10:40:47Z</time>
      </trkpt>
      <trkpt lat="45.67499" lon="4.89895">
        <ele>209</ele>
        <time>2016-04-17T10:40:48Z</time>
      </trkpt>
      <trkpt lat="45.67492" lon="4.89894">
        <ele>209</ele>
        <time>2016-04-17T10:40:49Z</time>
      </trkpt>
      <trkpt lat="45.67479" lon="4.89892">
        <ele>209</ele>
        <time>2016-04-17T10:40:51Z</time>
      </trkpt>
      <trkpt lat="45.67473" lon="4.8989">
        <ele>209</ele>
        <time>2016-04-17T10:40:52Z</time>
      </trkpt>
      <trkpt lat="45.67466" lon="4.89889">
        <ele>209.6</ele>
        <time>2016-04-17T10:40:53Z</time>
      </trkpt>
      <trkpt lat="45.6746" lon="4.89888">
        <ele>210</ele>
        <time>2016-04-17T10:40:54Z</time>
      </trkpt>
      <trkpt lat="45.67453" lon="4.89886">
        <ele>210</ele>
        <time>2016-04-17T10:40:55Z</time>
      </trkpt>
      <trkpt lat="45.67447" lon="4.89885">
        <ele>210</ele>
        <time>2016-04-17T10:40:56Z</time>
      </trkpt>
      <trkpt lat="45.6744" lon="4.89884">
        <ele>210</ele>
        <time>2016-04-17T10:40:57Z</time>
      </trkpt>
      <trkpt lat="45.67434" lon="4.89883">
        <ele>210</ele>
        <time>2016-04-17T10:40:58Z</time>
      </trkpt>
      <trkpt lat="45.67427" lon="4.89882">
        <ele>210</ele>
        <time>2016-04-17T10:40:59Z</time>
      </trkpt>
      <trkpt lat="45.67421" lon="4.8988">
        <ele>210</ele>
        <time>2016-04-17T10:41:00Z</time>
      </trkpt>
      <trkpt lat="45.67414" lon="4.89879">
        <ele>210</ele>
        <time>2016-04-17T10:41:01Z</time>
      </trkpt>
      <trkpt lat="45.67408" lon="4.89878">
        <ele>211.6</ele>
        <time>2016-04-17T10:41:02Z</time>
      </trkpt>
      <trkpt lat="45.67402" lon="4.89876">
        <ele>212</ele>
        <time>2016-04-17T10:41:03Z</time>
      </trkpt>
      <trkpt lat="45.67396" lon="4.89874">
        <ele>212</ele>
        <time>2016-04-17T10:41:04Z</time>
      </trkpt>
      <trkpt lat="45.6739" lon="4.89872">
        <ele>212</ele>
        <time>2016-04-17T10:41:05Z</time>
      </trkpt>
      <trkpt lat="45.67384" lon="4.89869">
        <ele>212</ele>
        <time>2016-04-17T10:41:06Z</time>
      </trkpt>
      <trkpt lat="45.67378" lon="4.89865">
        <ele>212</ele>
        <time>2016-04-17T10:41:07Z</time>
      </trkpt>
      <trkpt lat="45.67372" lon="4.89862">
        <ele>212</ele>
        <time>2016-04-17T10:41:08Z</time>
      </trkpt>
      <trkpt lat="45.67367" lon="4.89858">
        <ele>212</ele>
        <time>2016-04-17T10:41:09Z</time>
      </trkpt>
      <trkpt lat="45.67361" lon="4.89856">
        <ele>212</ele>
        <time>2016-04-17T10:41:10Z</time>
      </trkpt>
      <trkpt lat="45.67355" lon="4.89855">
        <ele>212</ele>
        <time>2016-04-17T10:41:11Z</time>
      </trkpt>
      <trkpt lat="45.67349" lon="4.89855">
        <ele>212</ele>
        <time>2016-04-17T10:41:12Z</time>
      </trkpt>
      <trkpt lat="45.67343" lon="4.89855">
        <ele>212.8</ele>
        <time>2016-04-17T10:41:13Z</time>
      </trkpt>
      <trkpt lat="45.67337" lon="4.89856">
        <ele>213</ele>
        <time>2016-04-17T10:41:14Z</time>
      </trkpt>
      <trkpt lat="45.6733" lon="4.89855">
        <ele>213</ele>
        <time>2016-04-17T10:41:15Z</time>
      </trkpt>
      <trkpt lat="45.67324" lon="4.89855">
        <ele>213</ele>
        <time>2016-04-17T10:41:16Z</time>
      </trkpt>
      <trkpt lat="45.6731" lon="4.89856">
        <ele>213</ele>
        <time>2016-04-17T10:41:18Z</time>
      </trkpt>
      <trkpt lat="45.67303" lon="4.89856">
        <ele>213</ele>
        <time>2016-04-17T10:41:19Z</time>
      </trkpt>
      <trkpt lat="45.67295" lon="4.89856">
        <ele>213</ele>
        <time>2016-04-17T10:41:20Z</time>
      </trkpt>
      <trkpt lat="45.67288" lon="4.89856">
        <ele>213</ele>
        <time>2016-04-17T10:41:21Z</time>
      </trkpt>
      <trkpt lat="45.6728" lon="4.89856">
        <ele>213</ele>
        <time>2016-04-17T10:41:22Z</time>
      </trkpt>
      <trkpt lat="45.67272" lon="4.89856">
        <ele>210.7</ele>
        <time>2016-04-17T10:41:23Z</time>
      </trkpt>
      <trkpt lat="45.67264" lon="4.89856">
        <ele>210</ele>
        <time>2016-04-17T10:41:24Z</time>
      </trkpt>
      <trkpt lat="45.67255" lon="4.89856">
        <ele>210</ele>
        <time>2016-04-17T10:41:25Z</time>
      </trkpt>
      <trkpt lat="45.67247" lon="4.89856">
        <ele>210</ele>
        <time>2016-04-17T10:41:26Z</time>
      </trkpt>
      <trkpt lat="45.67238" lon="4.89856">
        <ele>210</ele>
        <time>2016-04-17T10:41:27Z</time>
      </trkpt>
      <trkpt lat="45.67221" lon="4.89856">
        <ele>209</ele>
        <time>2016-04-17T10:41:29Z</time>
      </trkpt>
      <trkpt lat="45.67213" lon="4.89856">
        <ele>209</ele>
        <time>2016-04-17T10:41:30Z</time>
      </trkpt>
      <trkpt lat="45.67204" lon="4.89856">
        <ele>209</ele>
        <time>2016-04-17T10:41:31Z</time>
      </trkpt>
      <trkpt lat="45.67195" lon="4.89857">
        <ele>209</ele>
        <time>2016-04-17T10:41:32Z</time>
      </trkpt>
      <trkpt lat="45.67187" lon="4.89858">
        <ele>207.3</ele>
        <time>2016-04-17T10:41:33Z</time>
      </trkpt>
      <trkpt lat="45.67178" lon="4.89859">
        <ele>206</ele>
        <time>2016-04-17T10:41:34Z</time>
      </trkpt>
      <trkpt lat="45.6717" lon="4.89859">
        <ele>206</ele>
        <time>2016-04-17T10:41:35Z</time>
      </trkpt>
      <trkpt lat="45.67162" lon="4.8986">
        <ele>206</ele>
        <time>2016-04-17T10:41:36Z</time>
      </trkpt>
      <trkpt lat="45.67154" lon="4.8986">
        <ele>206</ele>
        <time>2016-04-17T10:41:37Z</time>
      </trkpt>
      <trkpt lat="45.67146" lon="4.89861">
        <ele>205.2</ele>
        <time>2016-04-17T10:41:38Z</time>
      </trkpt>
      <trkpt lat="45.67139" lon="4.89861">
        <ele>205</ele>
        <time>2016-04-17T10:41:39Z</time>
      </trkpt>
      <trkpt lat="45.67131" lon="4.89862">
        <ele>205</ele>
        <time>2016-04-17T10:41:40Z</time>
      </trkpt>
      <trkpt lat="45.67124" lon="4.89862">
        <ele>205</ele>
        <time>2016-04-17T10:41:41Z</time>
      </trkpt>
      <trkpt lat="45.67112" lon="4.89864">
        <ele>205</ele>
        <time>2016-04-17T10:41:43Z</time>
      </trkpt>
      <trkpt lat="45.67106" lon="4.89865">
        <ele>205</ele>
        <time>2016-04-17T10:41:44Z</time>
      </trkpt>
      <trkpt lat="45.67093" lon="4.89861">
        <ele>205</ele>
        <time>2016-04-17T10:41:46Z</time>
      </trkpt>
      <trkpt lat="45.67087" lon="4.89859">
        <ele>205</ele>
        <time>2016-04-17T10:41:47Z</time>
      </trkpt>
      <trkpt lat="45.6708" lon="4.89856">
        <ele>205</ele>
        <time>2016-04-17T10:41:48Z</time>
      </trkpt>
      <trkpt lat="45.67075" lon="4.89854">
        <ele>205</ele>
        <time>2016-04-17T10:41:49Z</time>
      </trkpt>
      <trkpt lat="45.67069" lon="4.89851">
        <ele>205</ele>
        <time>2016-04-17T10:41:50Z</time>
      </trkpt>
      <trkpt lat="45.67055" lon="4.89846">
        <ele>205</ele>
        <time>2016-04-17T10:41:52Z</time>
      </trkpt>
      <trkpt lat="45.67048" lon="4.89843">
        <ele>203.6</ele>
        <time>2016-04-17T10:41:53Z</time>
      </trkpt>
      <trkpt lat="45.67039" lon="4.89842">
        <ele>203</ele>
        <time>2016-04-17T10:41:54Z</time>
      </trkpt>
      <trkpt lat="45.67031" lon="4.89841">
        <ele>203</ele>
        <time>2016-04-17T10:41:55Z</time>
      </trkpt>
      <trkpt lat="45.67012" lon="4.89842">
        <ele>203</ele>
        <time>2016-04-17T10:41:57Z</time>
      </trkpt>
      <trkpt lat="45.67003" lon="4.89843">
        <ele>199.3</ele>
        <time>2016-04-17T10:41:58Z</time>
      </trkpt>
      <trkpt lat="45.66993" lon="4.89844">
        <ele>198</ele>
        <time>2016-04-17T10:41:59Z</time>
      </trkpt>
      <trkpt lat="45.66983" lon="4.89846">
        <ele>198</ele>
        <time>2016-04-17T10:42:00Z</time>
      </trkpt>
      <trkpt lat="45.66973" lon="4.89847">
        <ele>198</ele>
        <time>2016-04-17T10:42:01Z</time>
      </trkpt>
      <trkpt lat="45.66962" lon="4.89849">
        <ele>195.5</ele>
        <time>2016-04-17T10:42:02Z</time>
      </trkpt>
      <trkpt lat="45.66952" lon="4.8985">
        <ele>194</ele>
        <time>2016-04-17T10:42:03Z</time>
      </trkpt>
      <trkpt lat="45.66942" lon="4.89852">
        <ele>194</ele>
        <time>2016-04-17T10:42:04Z</time>
      </trkpt>
      <trkpt lat="45.66931" lon="4.89853">
        <ele>194</ele>
        <time>2016-04-17T10:42:05Z</time>
      </trkpt>
      <trkpt lat="45.66921" lon="4.89854">
        <ele>194</ele>
        <time>2016-04-17T10:42:06Z</time>
      </trkpt>
      <trkpt lat="45.6691" lon="4.89855">
        <ele>194</ele>
        <time>2016-04-17T10:42:07Z</time>
      </trkpt>
      <trkpt lat="45.6689" lon="4.89858">
        <ele>195</ele>
        <time>2016-04-17T10:42:09Z</time>
      </trkpt>
      <trkpt lat="45.6688" lon="4.89859">
        <ele>195</ele>
        <time>2016-04-17T10:42:10Z</time>
      </trkpt>
      <trkpt lat="45.66871" lon="4.8986">
        <ele>195</ele>
        <time>2016-04-17T10:42:11Z</time>
      </trkpt>
      <trkpt lat="45.66861" lon="4.89862">
        <ele>195.8</ele>
        <time>2016-04-17T10:42:12Z</time>
      </trkpt>
      <trkpt lat="45.66852" lon="4.89863">
        <ele>196</ele>
        <time>2016-04-17T10:42:13Z</time>
      </trkpt>
      <trkpt lat="45.66842" lon="4.89865">
        <ele>195.2</ele>
        <time>2016-04-17T10:42:14Z</time>
      </trkpt>
      <trkpt lat="45.66833" lon="4.89866">
        <ele>195</ele>
        <time>2016-04-17T10:42:15Z</time>
      </trkpt>
      <trkpt lat="45.66824" lon="4.89867">
        <ele>194.2</ele>
        <time>2016-04-17T10:42:16Z</time>
      </trkpt>
      <trkpt lat="45.66815" lon="4.89869">
        <ele>194</ele>
        <time>2016-04-17T10:42:17Z</time>
      </trkpt>
      <trkpt lat="45.66806" lon="4.8987">
        <ele>194</ele>
        <time>2016-04-17T10:42:18Z</time>
      </trkpt>
      <trkpt lat="45.66797" lon="4.89871">
        <ele>194</ele>
        <time>2016-04-17T10:42:19Z</time>
      </trkpt>
      <trkpt lat="45.66788" lon="4.89873">
        <ele>194</ele>
        <time>2016-04-17T10:42:20Z</time>
      </trkpt>
      <trkpt lat="45.6678" lon="4.89874">
        <ele>194</ele>
        <time>2016-04-17T10:42:21Z</time>
      </trkpt>
      <trkpt lat="45.66771" lon="4.89875">
        <ele>194</ele>
        <time>2016-04-17T10:42:22Z</time>
      </trkpt>
      <trkpt lat="45.66763" lon="4.89876">
        <ele>194</ele>
        <time>2016-04-17T10:42:23Z</time>
      </trkpt>
      <trkpt lat="45.66754" lon="4.89877">
        <ele>194</ele>
        <time>2016-04-17T10:42:24Z</time>
      </trkpt>
      <trkpt lat="45.66745" lon="4.89879">
        <ele>194</ele>
        <time>2016-04-17T10:42:25Z</time>
      </trkpt>
      <trkpt lat="45.66737" lon="4.8988">
        <ele>194</ele>
        <time>2016-04-17T10:42:26Z</time>
      </trkpt>
      <trkpt lat="45.66728" lon="4.89881">
        <ele>194</ele>
        <time>2016-04-17T10:42:27Z</time>
      </trkpt>
      <trkpt lat="45.6672" lon="4.89883">
        <ele>194</ele>
        <time>2016-04-17T10:42:28Z</time>
      </trkpt>
      <trkpt lat="45.66711" lon="4.89884">
        <ele>194</ele>
        <time>2016-04-17T10:42:29Z</time>
      </trkpt>
      <trkpt lat="45.66703" lon="4.89885">
        <ele>194</ele>
        <time>2016-04-17T10:42:30Z</time>
      </trkpt>
      <trkpt lat="45.66686" lon="4.89888">
        <ele>194</ele>
        <time>2016-04-17T10:42:32Z</time>
      </trkpt>
      <trkpt lat="45.66677" lon="4.89889">
        <ele>194</ele>
        <time>2016-04-17T10:42:33Z</time>
      </trkpt>
      <trkpt lat="45.66669" lon="4.89891">
        <ele>194</ele>
        <time>2016-04-17T10:42:34Z</time>
      </trkpt>
      <trkpt lat="45.66661" lon="4.89892">
        <ele>194</ele>
        <time>2016-04-17T10:42:35Z</time>
      </trkpt>
      <trkpt lat="45.66652" lon="4.89894">
        <ele>194</ele>
        <time>2016-04-17T10:42:36Z</time>
      </trkpt>
      <trkpt lat="45.66644" lon="4.89896">
        <ele>194</ele>
        <time>2016-04-17T10:42:37Z</time>
      </trkpt>
      <trkpt lat="45.66636" lon="4.89898">
        <ele>194</ele>
        <time>2016-04-17T10:42:38Z</time>
      </trkpt>
      <trkpt lat="45.66628" lon="4.899">
        <ele>192.6</ele>
        <time>2016-04-17T10:42:39Z</time>
      </trkpt>
      <trkpt lat="45.6662" lon="4.89903">
        <ele>192</ele>
        <time>2016-04-17T10:42:40Z</time>
      </trkpt>
      <trkpt lat="45.66612" lon="4.89905">
        <ele>192</ele>
        <time>2016-04-17T10:42:41Z</time>
      </trkpt>
      <trkpt lat="45.66604" lon="4.89907">
        <ele>192</ele>
        <time>2016-04-17T10:42:42Z</time>
      </trkpt>
      <trkpt lat="45.66596" lon="4.8991">
        <ele>192</ele>
        <time>2016-04-17T10:42:43Z</time>
      </trkpt>
      <trkpt lat="45.66589" lon="4.89912">
        <ele>192</ele>
        <time>2016-04-17T10:42:44Z</time>
      </trkpt>
      <trkpt lat="45.66581" lon="4.89915">
        <ele>192</ele>
        <time>2016-04-17T10:42:45Z</time>
      </trkpt>
      <trkpt lat="45.66574" lon="4.89918">
        <ele>192</ele>
        <time>2016-04-17T10:42:46Z</time>
      </trkpt>
      <trkpt lat="45.66566" lon="4.89922">
        <ele>192</ele>
        <time>2016-04-17T10:42:47Z</time>
      </trkpt>
      <trkpt lat="45.66558" lon="4.89925">
        <ele>192</ele>
        <time>2016-04-17T10:42:48Z</time>
      </trkpt>
      <trkpt lat="45.66551" lon="4.89928">
        <ele>192</ele>
        <time>2016-04-17T10:42:49Z</time>
      </trkpt>
      <trkpt lat="45.66543" lon="4.89932">
        <ele>192</ele>
        <time>2016-04-17T10:42:50Z</time>
      </trkpt>
      <trkpt lat="45.66536" lon="4.89935">
        <ele>192</ele>
        <time>2016-04-17T10:42:51Z</time>
      </trkpt>
      <trkpt lat="45.66529" lon="4.89939">
        <ele>192</ele>
        <time>2016-04-17T10:42:52Z</time>
      </trkpt>
      <trkpt lat="45.66522" lon="4.89943">
        <ele>192</ele>
        <time>2016-04-17T10:42:53Z</time>
      </trkpt>
      <trkpt lat="45.66515" lon="4.89947">
        <ele>192</ele>
        <time>2016-04-17T10:42:54Z</time>
      </trkpt>
      <trkpt lat="45.66508" lon="4.89951">
        <ele>192</ele>
        <time>2016-04-17T10:42:55Z</time>
      </trkpt>
      <trkpt lat="45.66494" lon="4.8996">
        <ele>192</ele>
        <time>2016-04-17T10:42:57Z</time>
      </trkpt>
      <trkpt lat="45.66487" lon="4.89964">
        <ele>192</ele>
        <time>2016-04-17T10:42:58Z</time>
      </trkpt>
      <trkpt lat="45.6648" lon="4.89969">
        <ele>192</ele>
        <time>2016-04-17T10:42:59Z</time>
      </trkpt>
      <trkpt lat="45.66473" lon="4.89973">
        <ele>192</ele>
        <time>2016-04-17T10:43:00Z</time>
      </trkpt>
      <trkpt lat="45.66466" lon="4.89978">
        <ele>192</ele>
        <time>2016-04-17T10:43:01Z</time>
      </trkpt>
      <trkpt lat="45.66459" lon="4.89982">
        <ele>192</ele>
        <time>2016-04-17T10:43:02Z</time>
      </trkpt>
      <trkpt lat="45.66452" lon="4.89986">
        <ele>192</ele>
        <time>2016-04-17T10:43:03Z</time>
      </trkpt>
      <trkpt lat="45.66445" lon="4.8999">
        <ele>192</ele>
        <time>2016-04-17T10:43:04Z</time>
      </trkpt>
      <trkpt lat="45.66437" lon="4.89994">
        <ele>192</ele>
        <time>2016-04-17T10:43:05Z</time>
      </trkpt>
      <trkpt lat="45.6643" lon="4.89998">
        <ele>192</ele>
        <time>2016-04-17T10:43:06Z</time>
      </trkpt>
      <trkpt lat="45.66423" lon="4.90001">
        <ele>192</ele>
        <time>2016-04-17T10:43:07Z</time>
      </trkpt>
      <trkpt lat="45.66415" lon="4.90004">
        <ele>192</ele>
        <time>2016-04-17T10:43:08Z</time>
      </trkpt>
      <trkpt lat="45.66407" lon="4.90006">
        <ele>192</ele>
        <time>2016-04-17T10:43:09Z</time>
      </trkpt>
      <trkpt lat="45.66399" lon="4.90007">
        <ele>192</ele>
        <time>2016-04-17T10:43:10Z</time>
      </trkpt>
      <trkpt lat="45.66391" lon="4.90008">
        <ele>192</ele>
        <time>2016-04-17T10:43:11Z</time>
      </trkpt>
      <trkpt lat="45.66383" lon="4.90009">
        <ele>192</ele>
        <time>2016-04-17T10:43:12Z</time>
      </trkpt>
      <trkpt lat="45.66375" lon="4.90009">
        <ele>192.6</ele>
        <time>2016-04-17T10:43:13Z</time>
      </trkpt>
      <trkpt lat="45.66367" lon="4.90009">
        <ele>193</ele>
        <time>2016-04-17T10:43:14Z</time>
      </trkpt>
      <trkpt lat="45.6636" lon="4.90008">
        <ele>193</ele>
        <time>2016-04-17T10:43:15Z</time>
      </trkpt>
      <trkpt lat="45.66352" lon="4.90007">
        <ele>193</ele>
        <time>2016-04-17T10:43:16Z</time>
      </trkpt>
      <trkpt lat="45.66344" lon="4.90006">
        <ele>193</ele>
        <time>2016-04-17T10:43:17Z</time>
      </trkpt>
      <trkpt lat="45.66336" lon="4.90006">
        <ele>193</ele>
        <time>2016-04-17T10:43:18Z</time>
      </trkpt>
      <trkpt lat="45.66328" lon="4.90005">
        <ele>193</ele>
        <time>2016-04-17T10:43:19Z</time>
      </trkpt>
      <trkpt lat="45.6632" lon="4.90004">
        <ele>193</ele>
        <time>2016-04-17T10:43:20Z</time>
      </trkpt>
      <trkpt lat="45.66312" lon="4.90004">
        <ele>193</ele>
        <time>2016-04-17T10:43:21Z</time>
      </trkpt>
      <trkpt lat="45.66304" lon="4.90003">
        <ele>193</ele>
        <time>2016-04-17T10:43:22Z</time>
      </trkpt>
      <trkpt lat="45.66297" lon="4.90004">
        <ele>192.4</ele>
        <time>2016-04-17T10:43:23Z</time>
      </trkpt>
      <trkpt lat="45.66289" lon="4.90006">
        <ele>192</ele>
        <time>2016-04-17T10:43:24Z</time>
      </trkpt>
      <trkpt lat="45.66281" lon="4.90008">
        <ele>192</ele>
        <time>2016-04-17T10:43:25Z</time>
      </trkpt>
      <trkpt lat="45.66274" lon="4.90011">
        <ele>192</ele>
        <time>2016-04-17T10:43:26Z</time>
      </trkpt>
      <trkpt lat="45.66266" lon="4.90013">
        <ele>192</ele>
        <time>2016-04-17T10:43:27Z</time>
      </trkpt>
      <trkpt lat="45.66259" lon="4.90017">
        <ele>192</ele>
        <time>2016-04-17T10:43:28Z</time>
      </trkpt>
      <trkpt lat="45.66252" lon="4.9002">
        <ele>192</ele>
        <time>2016-04-17T10:43:29Z</time>
      </trkpt>
      <trkpt lat="45.66244" lon="4.90024">
        <ele>192</ele>
        <time>2016-04-17T10:43:30Z</time>
      </trkpt>
      <trkpt lat="45.66237" lon="4.90027">
        <ele>192</ele>
        <time>2016-04-17T10:43:31Z</time>
      </trkpt>
      <trkpt lat="45.66229" lon="4.9003">
        <ele>192</ele>
        <time>2016-04-17T10:43:32Z</time>
      </trkpt>
      <trkpt lat="45.66222" lon="4.90033">
        <ele>192.6</ele>
        <time>2016-04-17T10:43:33Z</time>
      </trkpt>
      <trkpt lat="45.66214" lon="4.90037">
        <ele>193</ele>
        <time>2016-04-17T10:43:34Z</time>
      </trkpt>
      <trkpt lat="45.66207" lon="4.9004">
        <ele>193</ele>
        <time>2016-04-17T10:43:35Z</time>
      </trkpt>
      <trkpt lat="45.66199" lon="4.90042">
        <ele>193</ele>
        <time>2016-04-17T10:43:36Z</time>
      </trkpt>
      <trkpt lat="45.66192" lon="4.90045">
        <ele>193</ele>
        <time>2016-04-17T10:43:37Z</time>
      </trkpt>
      <trkpt lat="45.66184" lon="4.90048">
        <ele>193</ele>
        <time>2016-04-17T10:43:38Z</time>
      </trkpt>
      <trkpt lat="45.66177" lon="4.9005">
        <ele>193</ele>
        <time>2016-04-17T10:43:39Z</time>
      </trkpt>
      <trkpt lat="45.66169" lon="4.90053">
        <ele>193</ele>
        <time>2016-04-17T10:43:40Z</time>
      </trkpt>
      <trkpt lat="45.66161" lon="4.90055">
        <ele>193</ele>
        <time>2016-04-17T10:43:41Z</time>
      </trkpt>
      <trkpt lat="45.66145" lon="4.90058">
        <ele>193</ele>
        <time>2016-04-17T10:43:43Z</time>
      </trkpt>
      <trkpt lat="45.66137" lon="4.9006">
        <ele>193</ele>
        <time>2016-04-17T10:43:44Z</time>
      </trkpt>
      <trkpt lat="45.66129" lon="4.90062">
        <ele>193</ele>
        <time>2016-04-17T10:43:45Z</time>
      </trkpt>
      <trkpt lat="45.66121" lon="4.90065">
        <ele>193</ele>
        <time>2016-04-17T10:43:46Z</time>
      </trkpt>
      <trkpt lat="45.66113" lon="4.90066">
        <ele>193</ele>
        <time>2016-04-17T10:43:47Z</time>
      </trkpt>
      <trkpt lat="45.66105" lon="4.90068">
        <ele>193</ele>
        <time>2016-04-17T10:43:48Z</time>
      </trkpt>
      <trkpt lat="45.66097" lon="4.90068">
        <ele>193</ele>
        <time>2016-04-17T10:43:49Z</time>
      </trkpt>
      <trkpt lat="45.6609" lon="4.90068">
        <ele>193</ele>
        <time>2016-04-17T10:43:50Z</time>
      </trkpt>
      <trkpt lat="45.66082" lon="4.90068">
        <ele>193</ele>
        <time>2016-04-17T10:43:51Z</time>
      </trkpt>
      <trkpt lat="45.66074" lon="4.90068">
        <ele>193</ele>
        <time>2016-04-17T10:43:52Z</time>
      </trkpt>
      <trkpt lat="45.66066" lon="4.90067">
        <ele>193</ele>
        <time>2016-04-17T10:43:53Z</time>
      </trkpt>
      <trkpt lat="45.66059" lon="4.90067">
        <ele>193</ele>
        <time>2016-04-17T10:43:54Z</time>
      </trkpt>
      <trkpt lat="45.66051" lon="4.90067">
        <ele>193</ele>
        <time>2016-04-17T10:43:55Z</time>
      </trkpt>
      <trkpt lat="45.66044" lon="4.90067">
        <ele>193</ele>
        <time>2016-04-17T10:43:56Z</time>
      </trkpt>
      <trkpt lat="45.66037" lon="4.90066">
        <ele>193</ele>
        <time>2016-04-17T10:43:57Z</time>
      </trkpt>
      <trkpt lat="45.66029" lon="4.90066">
        <ele>193</ele>
        <time>2016-04-17T10:43:58Z</time>
      </trkpt>
      <trkpt lat="45.66022" lon="4.90066">
        <ele>193</ele>
        <time>2016-04-17T10:43:59Z</time>
      </trkpt>
      <trkpt lat="45.66015" lon="4.90066">
        <ele>193</ele>
        <time>2016-04-17T10:44:00Z</time>
      </trkpt>
      <trkpt lat="45.66008" lon="4.90066">
        <ele>193</ele>
        <time>2016-04-17T10:44:01Z</time>
      </trkpt>
      <trkpt lat="45.66001" lon="4.90065">
        <ele>193</ele>
        <time>2016-04-17T10:44:02Z</time>
      </trkpt>
      <trkpt lat="45.65994" lon="4.90065">
        <ele>193</ele>
        <time>2016-04-17T10:44:03Z</time>
      </trkpt>
      <trkpt lat="45.65988" lon="4.90064">
        <ele>193</ele>
        <time>2016-04-17T10:44:04Z</time>
      </trkpt>
      <trkpt lat="45.65981" lon="4.90064">
        <ele>193</ele>
        <time>2016-04-17T10:44:05Z</time>
      </trkpt>
      <trkpt lat="45.65975" lon="4.90064">
        <ele>193</ele>
        <time>2016-04-17T10:44:06Z</time>
      </trkpt>
      <trkpt lat="45.65969" lon="4.90065">
        <ele>193</ele>
        <time>2016-04-17T10:44:07Z</time>
      </trkpt>
      <trkpt lat="45.65963" lon="4.90065">
        <ele>193</ele>
        <time>2016-04-17T10:44:08Z</time>
      </trkpt>
      <trkpt lat="45.65958" lon="4.90065">
        <ele>193</ele>
        <time>2016-04-17T10:44:09Z</time>
      </trkpt>
      <trkpt lat="45.65952" lon="4.90064">
        <ele>193</ele>
        <time>2016-04-17T10:44:10Z</time>
      </trkpt>
      <trkpt lat="45.65947" lon="4.90064">
        <ele>193</ele>
        <time>2016-04-17T10:44:11Z</time>
      </trkpt>
      <trkpt lat="45.65942" lon="4.90062">
        <ele>193</ele>
        <time>2016-04-17T10:44:12Z</time>
      </trkpt>
      <trkpt lat="45.65937" lon="4.90061">
        <ele>191.6</ele>
        <time>2016-04-17T10:44:13Z</time>
      </trkpt>
      <trkpt lat="45.65931" lon="4.90059">
        <ele>191</ele>
        <time>2016-04-17T10:44:14Z</time>
      </trkpt>
      <trkpt lat="45.65926" lon="4.90057">
        <ele>191</ele>
        <time>2016-04-17T10:44:15Z</time>
      </trkpt>
      <trkpt lat="45.6592" lon="4.90055">
        <ele>191</ele>
        <time>2016-04-17T10:44:16Z</time>
      </trkpt>
      <trkpt lat="45.65913" lon="4.90054">
        <ele>191</ele>
        <time>2016-04-17T10:44:17Z</time>
      </trkpt>
      <trkpt lat="45.65907" lon="4.90052">
        <ele>191</ele>
        <time>2016-04-17T10:44:18Z</time>
      </trkpt>
      <trkpt lat="45.659" lon="4.9005">
        <ele>191</ele>
        <time>2016-04-17T10:44:19Z</time>
      </trkpt>
      <trkpt lat="45.65893" lon="4.90048">
        <ele>191</ele>
        <time>2016-04-17T10:44:20Z</time>
      </trkpt>
      <trkpt lat="45.65886" lon="4.90046">
        <ele>191</ele>
        <time>2016-04-17T10:44:21Z</time>
      </trkpt>
      <trkpt lat="45.65879" lon="4.90045">
        <ele>191</ele>
        <time>2016-04-17T10:44:22Z</time>
      </trkpt>
      <trkpt lat="45.65872" lon="4.90043">
        <ele>191</ele>
        <time>2016-04-17T10:44:23Z</time>
      </trkpt>
      <trkpt lat="45.65865" lon="4.90041">
        <ele>191</ele>
        <time>2016-04-17T10:44:24Z</time>
      </trkpt>
      <trkpt lat="45.65858" lon="4.90039">
        <ele>191</ele>
        <time>2016-04-17T10:44:25Z</time>
      </trkpt>
      <trkpt lat="45.65851" lon="4.90037">
        <ele>191</ele>
        <time>2016-04-17T10:44:26Z</time>
      </trkpt>
      <trkpt lat="45.65843" lon="4.90035">
        <ele>191</ele>
        <time>2016-04-17T10:44:27Z</time>
      </trkpt>
      <trkpt lat="45.65836" lon="4.90033">
        <ele>191</ele>
        <time>2016-04-17T10:44:28Z</time>
      </trkpt>
      <trkpt lat="45.65829" lon="4.90032">
        <ele>191</ele>
        <time>2016-04-17T10:44:29Z</time>
      </trkpt>
      <trkpt lat="45.65822" lon="4.9003">
        <ele>191</ele>
        <time>2016-04-17T10:44:30Z</time>
      </trkpt>
      <trkpt lat="45.65814" lon="4.90029">
        <ele>191</ele>
        <time>2016-04-17T10:44:31Z</time>
      </trkpt>
      <trkpt lat="45.65807" lon="4.90027">
        <ele>191</ele>
        <time>2016-04-17T10:44:32Z</time>
      </trkpt>
      <trkpt lat="45.65792" lon="4.90024">
        <ele>191</ele>
        <time>2016-04-17T10:44:34Z</time>
      </trkpt>
      <trkpt lat="45.65785" lon="4.90023">
        <ele>191</ele>
        <time>2016-04-17T10:44:35Z</time>
      </trkpt>
      <trkpt lat="45.65777" lon="4.90022">
        <ele>191</ele>
        <time>2016-04-17T10:44:36Z</time>
      </trkpt>
      <trkpt lat="45.6577" lon="4.90021">
        <ele>191</ele>
        <time>2016-04-17T10:44:37Z</time>
      </trkpt>
      <trkpt lat="45.65762" lon="4.90021">
        <ele>191</ele>
        <time>2016-04-17T10:44:38Z</time>
      </trkpt>
      <trkpt lat="45.65754" lon="4.9002">
        <ele>191</ele>
        <time>2016-04-17T10:44:39Z</time>
      </trkpt>
      <trkpt lat="45.65747" lon="4.90021">
        <ele>191</ele>
        <time>2016-04-17T10:44:40Z</time>
      </trkpt>
      <trkpt lat="45.65739" lon="4.90021">
        <ele>191</ele>
        <time>2016-04-17T10:44:41Z</time>
      </trkpt>
      <trkpt lat="45.65732" lon="4.90021">
        <ele>191</ele>
        <time>2016-04-17T10:44:42Z</time>
      </trkpt>
      <trkpt lat="45.65724" lon="4.90021">
        <ele>191</ele>
        <time>2016-04-17T10:44:43Z</time>
      </trkpt>
      <trkpt lat="45.65717" lon="4.90021">
        <ele>191</ele>
        <time>2016-04-17T10:44:44Z</time>
      </trkpt>
      <trkpt lat="45.65709" lon="4.90022">
        <ele>191</ele>
        <time>2016-04-17T10:44:45Z</time>
      </trkpt>
      <trkpt lat="45.65702" lon="4.90022">
        <ele>191</ele>
        <time>2016-04-17T10:44:46Z</time>
      </trkpt>
      <trkpt lat="45.65695" lon="4.90022">
        <ele>191</ele>
        <time>2016-04-17T10:44:47Z</time>
      </trkpt>
      <trkpt lat="45.65687" lon="4.90022">
        <ele>191</ele>
        <time>2016-04-17T10:44:48Z</time>
      </trkpt>
      <trkpt lat="45.6568" lon="4.90023">
        <ele>191</ele>
        <time>2016-04-17T10:44:49Z</time>
      </trkpt>
      <trkpt lat="45.65672" lon="4.90023">
        <ele>191</ele>
        <time>2016-04-17T10:44:50Z</time>
      </trkpt>
      <trkpt lat="45.65664" lon="4.90023">
        <ele>191</ele>
        <time>2016-04-17T10:44:51Z</time>
      </trkpt>
      <trkpt lat="45.65657" lon="4.90023">
        <ele>191</ele>
        <time>2016-04-17T10:44:52Z</time>
      </trkpt>
      <trkpt lat="45.65649" lon="4.90024">
        <ele>191</ele>
        <time>2016-04-17T10:44:53Z</time>
      </trkpt>
      <trkpt lat="45.65641" lon="4.90024">
        <ele>191</ele>
        <time>2016-04-17T10:44:54Z</time>
      </trkpt>
      <trkpt lat="45.65634" lon="4.90024">
        <ele>191</ele>
        <time>2016-04-17T10:44:55Z</time>
      </trkpt>
      <trkpt lat="45.65626" lon="4.90025">
        <ele>191</ele>
        <time>2016-04-17T10:44:56Z</time>
      </trkpt>
      <trkpt lat="45.65619" lon="4.90025">
        <ele>191</ele>
        <time>2016-04-17T10:44:57Z</time>
      </trkpt>
      <trkpt lat="45.65611" lon="4.90025">
        <ele>191</ele>
        <time>2016-04-17T10:44:58Z</time>
      </trkpt>
      <trkpt lat="45.65603" lon="4.90026">
        <ele>191</ele>
        <time>2016-04-17T10:44:59Z</time>
      </trkpt>
      <trkpt lat="45.65596" lon="4.90026">
        <ele>191</ele>
        <time>2016-04-17T10:45:00Z</time>
      </trkpt>
      <trkpt lat="45.65588" lon="4.90026">
        <ele>191</ele>
        <time>2016-04-17T10:45:01Z</time>
      </trkpt>
      <trkpt lat="45.65581" lon="4.90027">
        <ele>190.4</ele>
        <time>2016-04-17T10:45:02Z</time>
      </trkpt>
      <trkpt lat="45.65574" lon="4.90027">
        <ele>190</ele>
        <time>2016-04-17T10:45:03Z</time>
      </trkpt>
      <trkpt lat="45.65569" lon="4.90027">
        <ele>190</ele>
        <time>2016-04-17T10:45:04Z</time>
      </trkpt>
      <trkpt lat="45.65565" lon="4.90027">
        <ele>190</ele>
        <time>2016-04-17T10:45:05Z</time>
      </trkpt>
      <trkpt lat="45.65556" lon="4.90028">
        <ele>190</ele>
        <time>2016-04-17T10:45:07Z</time>
      </trkpt>
      <trkpt lat="45.65545" lon="4.90027">
        <ele>190</ele>
        <time>2016-04-17T10:45:09Z</time>
      </trkpt>
      <trkpt lat="45.65539" lon="4.90027">
        <ele>190</ele>
        <time>2016-04-17T10:45:10Z</time>
      </trkpt>
      <trkpt lat="45.65533" lon="4.90027">
        <ele>190</ele>
        <time>2016-04-17T10:45:11Z</time>
      </trkpt>
      <trkpt lat="45.65527" lon="4.90027">
        <ele>190</ele>
        <time>2016-04-17T10:45:12Z</time>
      </trkpt>
      <trkpt lat="45.65513" lon="4.90028">
        <ele>191</ele>
        <time>2016-04-17T10:45:14Z</time>
      </trkpt>
      <trkpt lat="45.65507" lon="4.90028">
        <ele>191</ele>
        <time>2016-04-17T10:45:15Z</time>
      </trkpt>
      <trkpt lat="45.655" lon="4.90029">
        <ele>191</ele>
        <time>2016-04-17T10:45:16Z</time>
      </trkpt>
      <trkpt lat="45.65493" lon="4.90029">
        <ele>191</ele>
        <time>2016-04-17T10:45:17Z</time>
      </trkpt>
      <trkpt lat="45.65486" lon="4.90029">
        <ele>191</ele>
        <time>2016-04-17T10:45:18Z</time>
      </trkpt>
      <trkpt lat="45.65479" lon="4.90029">
        <ele>191</ele>
        <time>2016-04-17T10:45:19Z</time>
      </trkpt>
      <trkpt lat="45.65472" lon="4.9003">
        <ele>191</ele>
        <time>2016-04-17T10:45:20Z</time>
      </trkpt>
      <trkpt lat="45.65464" lon="4.9003">
        <ele>191</ele>
        <time>2016-04-17T10:45:21Z</time>
      </trkpt>
      <trkpt lat="45.65457" lon="4.9003">
        <ele>191</ele>
        <time>2016-04-17T10:45:22Z</time>
      </trkpt>
      <trkpt lat="45.6545" lon="4.9003">
        <ele>191</ele>
        <time>2016-04-17T10:45:23Z</time>
      </trkpt>
      <trkpt lat="45.65442" lon="4.90031">
        <ele>191</ele>
        <time>2016-04-17T10:45:24Z</time>
      </trkpt>
      <trkpt lat="45.65435" lon="4.90031">
        <ele>191</ele>
        <time>2016-04-17T10:45:25Z</time>
      </trkpt>
      <trkpt lat="45.65428" lon="4.90031">
        <ele>191</ele>
        <time>2016-04-17T10:45:26Z</time>
      </trkpt>
      <trkpt lat="45.65421" lon="4.90031">
        <ele>191</ele>
        <time>2016-04-17T10:45:27Z</time>
      </trkpt>
      <trkpt lat="45.65413" lon="4.90031">
        <ele>191</ele>
        <time>2016-04-17T10:45:28Z</time>
      </trkpt>
      <trkpt lat="45.65406" lon="4.90031">
        <ele>191</ele>
        <time>2016-04-17T10:45:29Z</time>
      </trkpt>
      <trkpt lat="45.65399" lon="4.90031">
        <ele>191</ele>
        <time>2016-04-17T10:45:30Z</time>
      </trkpt>
      <trkpt lat="45.65391" lon="4.90031">
        <ele>191</ele>
        <time>2016-04-17T10:45:31Z</time>
      </trkpt>
      <trkpt lat="45.65384" lon="4.90032">
        <ele>191</ele>
        <time>2016-04-17T10:45:32Z</time>
      </trkpt>
      <trkpt lat="45.65377" lon="4.90032">
        <ele>191</ele>
        <time>2016-04-17T10:45:33Z</time>
      </trkpt>
      <trkpt lat="45.65369" lon="4.90032">
        <ele>191</ele>
        <time>2016-04-17T10:45:34Z</time>
      </trkpt>
      <trkpt lat="45.65355" lon="4.90032">
        <ele>191</ele>
        <time>2016-04-17T10:45:36Z</time>
      </trkpt>
      <trkpt lat="45.65347" lon="4.90032">
        <ele>191</ele>
        <time>2016-04-17T10:45:37Z</time>
      </trkpt>
      <trkpt lat="45.6534" lon="4.90032">
        <ele>191</ele>
        <time>2016-04-17T10:45:38Z</time>
      </trkpt>
      <trkpt lat="45.65333" lon="4.90033">
        <ele>191</ele>
        <time>2016-04-17T10:45:39Z</time>
      </trkpt>
      <trkpt lat="45.65326" lon="4.90033">
        <ele>191</ele>
        <time>2016-04-17T10:45:40Z</time>
      </trkpt>
      <trkpt lat="45.65318" lon="4.90034">
        <ele>191</ele>
        <time>2016-04-17T10:45:41Z</time>
      </trkpt>
      <trkpt lat="45.65311" lon="4.90034">
        <ele>191</ele>
        <time>2016-04-17T10:45:42Z</time>
      </trkpt>
      <trkpt lat="45.65304" lon="4.90035">
        <ele>191.6</ele>
        <time>2016-04-17T10:45:43Z</time>
      </trkpt>
      <trkpt lat="45.65297" lon="4.90036">
        <ele>192</ele>
        <time>2016-04-17T10:45:44Z</time>
      </trkpt>
      <trkpt lat="45.65289" lon="4.90037">
        <ele>192</ele>
        <time>2016-04-17T10:45:45Z</time>
      </trkpt>
      <trkpt lat="45.65282" lon="4.90037">
        <ele>192</ele>
        <time>2016-04-17T10:45:46Z</time>
      </trkpt>
      <trkpt lat="45.65274" lon="4.90037">
        <ele>192</ele>
        <time>2016-04-17T10:45:47Z</time>
      </trkpt>
      <trkpt lat="45.65267" lon="4.90036">
        <ele>192</ele>
        <time>2016-04-17T10:45:48Z</time>
      </trkpt>
      <trkpt lat="45.65259" lon="4.90036">
        <ele>192</ele>
        <time>2016-04-17T10:45:49Z</time>
      </trkpt>
      <trkpt lat="45.65252" lon="4.90035">
        <ele>192</ele>
        <time>2016-04-17T10:45:50Z</time>
      </trkpt>
      <trkpt lat="45.65245" lon="4.90033">
        <ele>192</ele>
        <time>2016-04-17T10:45:51Z</time>
      </trkpt>
      <trkpt lat="45.65237" lon="4.90032">
        <ele>192</ele>
        <time>2016-04-17T10:45:52Z</time>
      </trkpt>
      <trkpt lat="45.6523" lon="4.90031">
        <ele>192.6</ele>
        <time>2016-04-17T10:45:53Z</time>
      </trkpt>
      <trkpt lat="45.65222" lon="4.90029">
        <ele>193</ele>
        <time>2016-04-17T10:45:54Z</time>
      </trkpt>
      <trkpt lat="45.65215" lon="4.90028">
        <ele>193</ele>
        <time>2016-04-17T10:45:55Z</time>
      </trkpt>
      <trkpt lat="45.65207" lon="4.90027">
        <ele>193</ele>
        <time>2016-04-17T10:45:56Z</time>
      </trkpt>
      <trkpt lat="45.65192" lon="4.90025">
        <ele>193</ele>
        <time>2016-04-17T10:45:58Z</time>
      </trkpt>
      <trkpt lat="45.65184" lon="4.90024">
        <ele>193</ele>
        <time>2016-04-17T10:45:59Z</time>
      </trkpt>
      <trkpt lat="45.65176" lon="4.90024">
        <ele>193</ele>
        <time>2016-04-17T10:46:00Z</time>
      </trkpt>
      <trkpt lat="45.65168" lon="4.90024">
        <ele>193</ele>
        <time>2016-04-17T10:46:01Z</time>
      </trkpt>
      <trkpt lat="45.6516" lon="4.90024">
        <ele>193</ele>
        <time>2016-04-17T10:46:02Z</time>
      </trkpt>
      <trkpt lat="45.65152" lon="4.90024">
        <ele>193</ele>
        <time>2016-04-17T10:46:03Z</time>
      </trkpt>
      <trkpt lat="45.65145" lon="4.90024">
        <ele>193</ele>
        <time>2016-04-17T10:46:04Z</time>
      </trkpt>
      <trkpt lat="45.65129" lon="4.90025">
        <ele>193</ele>
        <time>2016-04-17T10:46:06Z</time>
      </trkpt>
      <trkpt lat="45.65122" lon="4.90025">
        <ele>193</ele>
        <time>2016-04-17T10:46:07Z</time>
      </trkpt>
      <trkpt lat="45.65114" lon="4.90025">
        <ele>193</ele>
        <time>2016-04-17T10:46:08Z</time>
      </trkpt>
      <trkpt lat="45.65106" lon="4.90025">
        <ele>193</ele>
        <time>2016-04-17T10:46:09Z</time>
      </trkpt>
      <trkpt lat="45.65099" lon="4.90025">
        <ele>193</ele>
        <time>2016-04-17T10:46:10Z</time>
      </trkpt>
      <trkpt lat="45.65091" lon="4.90025">
        <ele>193</ele>
        <time>2016-04-17T10:46:11Z</time>
      </trkpt>
      <trkpt lat="45.65083" lon="4.90025">
        <ele>193</ele>
        <time>2016-04-17T10:46:12Z</time>
      </trkpt>
      <trkpt lat="45.65076" lon="4.90025">
        <ele>192.3</ele>
        <time>2016-04-17T10:46:13Z</time>
      </trkpt>
      <trkpt lat="45.65068" lon="4.90026">
        <ele>192</ele>
        <time>2016-04-17T10:46:14Z</time>
      </trkpt>
      <trkpt lat="45.65061" lon="4.90026">
        <ele>192</ele>
        <time>2016-04-17T10:46:15Z</time>
      </trkpt>
      <trkpt lat="45.65053" lon="4.90026">
        <ele>192</ele>
        <time>2016-04-17T10:46:16Z</time>
      </trkpt>
      <trkpt lat="45.65045" lon="4.90026">
        <ele>192</ele>
        <time>2016-04-17T10:46:17Z</time>
      </trkpt>
      <trkpt lat="45.65038" lon="4.90026">
        <ele>192</ele>
        <time>2016-04-17T10:46:18Z</time>
      </trkpt>
      <trkpt lat="45.6503" lon="4.90026">
        <ele>192</ele>
        <time>2016-04-17T10:46:19Z</time>
      </trkpt>
      <trkpt lat="45.65022" lon="4.90026">
        <ele>192</ele>
        <time>2016-04-17T10:46:20Z</time>
      </trkpt>
      <trkpt lat="45.65015" lon="4.90026">
        <ele>192</ele>
        <time>2016-04-17T10:46:21Z</time>
      </trkpt>
      <trkpt lat="45.65007" lon="4.90026">
        <ele>192</ele>
        <time>2016-04-17T10:46:22Z</time>
      </trkpt>
      <trkpt lat="45.65" lon="4.90026">
        <ele>192</ele>
        <time>2016-04-17T10:46:23Z</time>
      </trkpt>
      <trkpt lat="45.64992" lon="4.90026">
        <ele>192</ele>
        <time>2016-04-17T10:46:24Z</time>
      </trkpt>
      <trkpt lat="45.64984" lon="4.90026">
        <ele>192</ele>
        <time>2016-04-17T10:46:25Z</time>
      </trkpt>
      <trkpt lat="45.64977" lon="4.90025">
        <ele>192</ele>
        <time>2016-04-17T10:46:26Z</time>
      </trkpt>
      <trkpt lat="45.64969" lon="4.90024">
        <ele>192</ele>
        <time>2016-04-17T10:46:27Z</time>
      </trkpt>
      <trkpt lat="45.64962" lon="4.90023">
        <ele>192</ele>
        <time>2016-04-17T10:46:28Z</time>
      </trkpt>
      <trkpt lat="45.64954" lon="4.90022">
        <ele>192</ele>
        <time>2016-04-17T10:46:29Z</time>
      </trkpt>
      <trkpt lat="45.64947" lon="4.90021">
        <ele>192</ele>
        <time>2016-04-17T10:46:30Z</time>
      </trkpt>
      <trkpt lat="45.64939" lon="4.90021">
        <ele>192</ele>
        <time>2016-04-17T10:46:31Z</time>
      </trkpt>
      <trkpt lat="45.64931" lon="4.9002">
        <ele>192</ele>
        <time>2016-04-17T10:46:32Z</time>
      </trkpt>
      <trkpt lat="45.64924" lon="4.90019">
        <ele>192</ele>
        <time>2016-04-17T10:46:33Z</time>
      </trkpt>
      <trkpt lat="45.64916" lon="4.90018">
        <ele>192</ele>
        <time>2016-04-17T10:46:34Z</time>
      </trkpt>
      <trkpt lat="45.64909" lon="4.90017">
        <ele>192</ele>
        <time>2016-04-17T10:46:35Z</time>
      </trkpt>
      <trkpt lat="45.64901" lon="4.90016">
        <ele>192</ele>
        <time>2016-04-17T10:46:36Z</time>
      </trkpt>
      <trkpt lat="45.64894" lon="4.90015">
        <ele>192</ele>
        <time>2016-04-17T10:46:37Z</time>
      </trkpt>
      <trkpt lat="45.64886" lon="4.90014">
        <ele>192</ele>
        <time>2016-04-17T10:46:38Z</time>
      </trkpt>
      <trkpt lat="45.64879" lon="4.90013">
        <ele>192</ele>
        <time>2016-04-17T10:46:39Z</time>
      </trkpt>
      <trkpt lat="45.64871" lon="4.90012">
        <ele>192</ele>
        <time>2016-04-17T10:46:40Z</time>
      </trkpt>
      <trkpt lat="45.64864" lon="4.90012">
        <ele>192</ele>
        <time>2016-04-17T10:46:41Z</time>
      </trkpt>
      <trkpt lat="45.64856" lon="4.90011">
        <ele>192</ele>
        <time>2016-04-17T10:46:42Z</time>
      </trkpt>
      <trkpt lat="45.64848" lon="4.9001">
        <ele>192</ele>
        <time>2016-04-17T10:46:43Z</time>
      </trkpt>
      <trkpt lat="45.64841" lon="4.90009">
        <ele>192</ele>
        <time>2016-04-17T10:46:44Z</time>
      </trkpt>
      <trkpt lat="45.64833" lon="4.90008">
        <ele>192</ele>
        <time>2016-04-17T10:46:45Z</time>
      </trkpt>
      <trkpt lat="45.64825" lon="4.90007">
        <ele>192</ele>
        <time>2016-04-17T10:46:46Z</time>
      </trkpt>
      <trkpt lat="45.64818" lon="4.90006">
        <ele>192</ele>
        <time>2016-04-17T10:46:47Z</time>
      </trkpt>
      <trkpt lat="45.6481" lon="4.90005">
        <ele>192</ele>
        <time>2016-04-17T10:46:48Z</time>
      </trkpt>
      <trkpt lat="45.64802" lon="4.90004">
        <ele>192</ele>
        <time>2016-04-17T10:46:49Z</time>
      </trkpt>
      <trkpt lat="45.64795" lon="4.90003">
        <ele>192</ele>
        <time>2016-04-17T10:46:50Z</time>
      </trkpt>
      <trkpt lat="45.64779" lon="4.90002">
        <ele>192</ele>
        <time>2016-04-17T10:46:52Z</time>
      </trkpt>
      <trkpt lat="45.64772" lon="4.90001">
        <ele>192</ele>
        <time>2016-04-17T10:46:53Z</time>
      </trkpt>
      <trkpt lat="45.64764" lon="4.9">
        <ele>192</ele>
        <time>2016-04-17T10:46:54Z</time>
      </trkpt>
      <trkpt lat="45.64756" lon="4.89999">
        <ele>192</ele>
        <time>2016-04-17T10:46:55Z</time>
      </trkpt>
      <trkpt lat="45.64749" lon="4.89998">
        <ele>192</ele>
        <time>2016-04-17T10:46:56Z</time>
      </trkpt>
      <trkpt lat="45.64741" lon="4.89998">
        <ele>192</ele>
        <time>2016-04-17T10:46:57Z</time>
      </trkpt>
      <trkpt lat="45.64734" lon="4.89997">
        <ele>192</ele>
        <time>2016-04-17T10:46:58Z</time>
      </trkpt>
      <trkpt lat="45.64726" lon="4.89996">
        <ele>192</ele>
        <time>2016-04-17T10:46:59Z</time>
      </trkpt>
      <trkpt lat="45.64718" lon="4.89995">
        <ele>192</ele>
        <time>2016-04-17T10:47:00Z</time>
      </trkpt>
      <trkpt lat="45.64711" lon="4.89995">
        <ele>192</ele>
        <time>2016-04-17T10:47:01Z</time>
      </trkpt>
      <trkpt lat="45.64703" lon="4.89994">
        <ele>192</ele>
        <time>2016-04-17T10:47:02Z</time>
      </trkpt>
      <trkpt lat="45.64695" lon="4.89994">
        <ele>192</ele>
        <time>2016-04-17T10:47:03Z</time>
      </trkpt>
      <trkpt lat="45.64688" lon="4.89993">
        <ele>192</ele>
        <time>2016-04-17T10:47:04Z</time>
      </trkpt>
      <trkpt lat="45.6468" lon="4.89992">
        <ele>192</ele>
        <time>2016-04-17T10:47:05Z</time>
      </trkpt>
      <trkpt lat="45.64672" lon="4.89991">
        <ele>192</ele>
        <time>2016-04-17T10:47:06Z</time>
      </trkpt>
      <trkpt lat="45.64664" lon="4.89989">
        <ele>192</ele>
        <time>2016-04-17T10:47:07Z</time>
      </trkpt>
      <trkpt lat="45.64656" lon="4.89988">
        <ele>192</ele>
        <time>2016-04-17T10:47:08Z</time>
      </trkpt>
      <trkpt lat="45.64648" lon="4.89987">
        <ele>192</ele>
        <time>2016-04-17T10:47:09Z</time>
      </trkpt>
      <trkpt lat="45.64641" lon="4.89986">
        <ele>192</ele>
        <time>2016-04-17T10:47:10Z</time>
      </trkpt>
      <trkpt lat="45.64633" lon="4.89985">
        <ele>192</ele>
        <time>2016-04-17T10:47:11Z</time>
      </trkpt>
      <trkpt lat="45.64625" lon="4.89984">
        <ele>192</ele>
        <time>2016-04-17T10:47:12Z</time>
      </trkpt>
      <trkpt lat="45.64617" lon="4.89984">
        <ele>191.2</ele>
        <time>2016-04-17T10:47:13Z</time>
      </trkpt>
      <trkpt lat="45.64609" lon="4.89983">
        <ele>191</ele>
        <time>2016-04-17T10:47:14Z</time>
      </trkpt>
      <trkpt lat="45.64601" lon="4.89982">
        <ele>191</ele>
        <time>2016-04-17T10:47:15Z</time>
      </trkpt>
      <trkpt lat="45.64593" lon="4.89981">
        <ele>191</ele>
        <time>2016-04-17T10:47:16Z</time>
      </trkpt>
      <trkpt lat="45.64586" lon="4.8998">
        <ele>191</ele>
        <time>2016-04-17T10:47:17Z</time>
      </trkpt>
      <trkpt lat="45.64578" lon="4.8998">
        <ele>191</ele>
        <time>2016-04-17T10:47:18Z</time>
      </trkpt>
      <trkpt lat="45.6457" lon="4.89979">
        <ele>191</ele>
        <time>2016-04-17T10:47:19Z</time>
      </trkpt>
      <trkpt lat="45.64562" lon="4.89978">
        <ele>191</ele>
        <time>2016-04-17T10:47:20Z</time>
      </trkpt>
      <trkpt lat="45.64555" lon="4.89978">
        <ele>191</ele>
        <time>2016-04-17T10:47:21Z</time>
      </trkpt>
      <trkpt lat="45.64547" lon="4.89977">
        <ele>191</ele>
        <time>2016-04-17T10:47:22Z</time>
      </trkpt>
      <trkpt lat="45.6454" lon="4.89977">
        <ele>191</ele>
        <time>2016-04-17T10:47:23Z</time>
      </trkpt>
      <trkpt lat="45.64532" lon="4.89976">
        <ele>191</ele>
        <time>2016-04-17T10:47:24Z</time>
      </trkpt>
      <trkpt lat="45.64525" lon="4.89975">
        <ele>191</ele>
        <time>2016-04-17T10:47:25Z</time>
      </trkpt>
      <trkpt lat="45.64518" lon="4.89975">
        <ele>191</ele>
        <time>2016-04-17T10:47:26Z</time>
      </trkpt>
      <trkpt lat="45.6451" lon="4.89974">
        <ele>191</ele>
        <time>2016-04-17T10:47:27Z</time>
      </trkpt>
      <trkpt lat="45.64503" lon="4.89974">
        <ele>191</ele>
        <time>2016-04-17T10:47:28Z</time>
      </trkpt>
      <trkpt lat="45.64496" lon="4.89973">
        <ele>191</ele>
        <time>2016-04-17T10:47:29Z</time>
      </trkpt>
      <trkpt lat="45.64488" lon="4.89973">
        <ele>191</ele>
        <time>2016-04-17T10:47:30Z</time>
      </trkpt>
      <trkpt lat="45.64481" lon="4.89972">
        <ele>191</ele>
        <time>2016-04-17T10:47:31Z</time>
      </trkpt>
      <trkpt lat="45.64473" lon="4.89972">
        <ele>191</ele>
        <time>2016-04-17T10:47:32Z</time>
      </trkpt>
      <trkpt lat="45.64466" lon="4.89971">
        <ele>191</ele>
        <time>2016-04-17T10:47:33Z</time>
      </trkpt>
      <trkpt lat="45.64459" lon="4.89971">
        <ele>191</ele>
        <time>2016-04-17T10:47:34Z</time>
      </trkpt>
      <trkpt lat="45.64451" lon="4.8997">
        <ele>191</ele>
        <time>2016-04-17T10:47:35Z</time>
      </trkpt>
      <trkpt lat="45.64444" lon="4.8997">
        <ele>191</ele>
        <time>2016-04-17T10:47:36Z</time>
      </trkpt>
      <trkpt lat="45.64437" lon="4.89969">
        <ele>191</ele>
        <time>2016-04-17T10:47:37Z</time>
      </trkpt>
      <trkpt lat="45.6443" lon="4.89969">
        <ele>191</ele>
        <time>2016-04-17T10:47:38Z</time>
      </trkpt>
      <trkpt lat="45.64423" lon="4.8997">
        <ele>191</ele>
        <time>2016-04-17T10:47:39Z</time>
      </trkpt>
      <trkpt lat="45.64416" lon="4.89973">
        <ele>191</ele>
        <time>2016-04-17T10:47:40Z</time>
      </trkpt>
      <trkpt lat="45.6441" lon="4.89976">
        <ele>191</ele>
        <time>2016-04-17T10:47:41Z</time>
      </trkpt>
      <trkpt lat="45.64405" lon="4.89981">
        <ele>191</ele>
        <time>2016-04-17T10:47:42Z</time>
      </trkpt>
      <trkpt lat="45.644" lon="4.89986">
        <ele>191</ele>
        <time>2016-04-17T10:47:43Z</time>
      </trkpt>
      <trkpt lat="45.64396" lon="4.89991">
        <ele>191</ele>
        <time>2016-04-17T10:47:44Z</time>
      </trkpt>
      <trkpt lat="45.64392" lon="4.89996">
        <ele>191</ele>
        <time>2016-04-17T10:47:45Z</time>
      </trkpt>
      <trkpt lat="45.64388" lon="4.89999">
        <ele>191</ele>
        <time>2016-04-17T10:47:46Z</time>
      </trkpt>
      <trkpt lat="45.64384" lon="4.90002">
        <ele>191</ele>
        <time>2016-04-17T10:47:48Z</time>
      </trkpt>
      <trkpt lat="45.64381" lon="4.90005">
        <ele>190.3</ele>
        <time>2016-04-17T10:47:52Z</time>
      </trkpt>
      <trkpt lat="45.64375" lon="4.90008">
        <ele>190</ele>
        <time>2016-04-17T10:47:55Z</time>
      </trkpt>
      <trkpt lat="45.64371" lon="4.90011">
        <ele>190</ele>
        <time>2016-04-17T10:47:56Z</time>
      </trkpt>
      <trkpt lat="45.64366" lon="4.90014">
        <ele>190</ele>
        <time>2016-04-17T10:47:57Z</time>
      </trkpt>
      <trkpt lat="45.64357" lon="4.90021">
        <ele>190</ele>
        <time>2016-04-17T10:47:59Z</time>
      </trkpt>
      <trkpt lat="45.64351" lon="4.90024">
        <ele>190</ele>
        <time>2016-04-17T10:48:00Z</time>
      </trkpt>
      <trkpt lat="45.6434" lon="4.90026">
        <ele>190.7</ele>
        <time>2016-04-17T10:48:02Z</time>
      </trkpt>
      <trkpt lat="45.6433" lon="4.90021">
        <ele>191</ele>
        <time>2016-04-17T10:48:04Z</time>
      </trkpt>
      <trkpt lat="45.6432" lon="4.90013">
        <ele>191</ele>
        <time>2016-04-17T10:48:06Z</time>
      </trkpt>
      <trkpt lat="45.64316" lon="4.90007">
        <ele>191</ele>
        <time>2016-04-17T10:48:07Z</time>
      </trkpt>
      <trkpt lat="45.64313" lon="4.9">
        <ele>191</ele>
        <time>2016-04-17T10:48:08Z</time>
      </trkpt>
      <trkpt lat="45.64309" lon="4.89994">
        <ele>191</ele>
        <time>2016-04-17T10:48:09Z</time>
      </trkpt>
      <trkpt lat="45.64305" lon="4.89987">
        <ele>191</ele>
        <time>2016-04-17T10:48:10Z</time>
      </trkpt>
      <trkpt lat="45.64302" lon="4.89979">
        <ele>191</ele>
        <time>2016-04-17T10:48:11Z</time>
      </trkpt>
      <trkpt lat="45.64295" lon="4.89965">
        <ele>192.4</ele>
        <time>2016-04-17T10:48:13Z</time>
      </trkpt>
      <trkpt lat="45.64292" lon="4.89958">
        <ele>193</ele>
        <time>2016-04-17T10:48:14Z</time>
      </trkpt>
      <trkpt lat="45.64287" lon="4.89952">
        <ele>193</ele>
        <time>2016-04-17T10:48:15Z</time>
      </trkpt>
      <trkpt lat="45.64283" lon="4.89946">
        <ele>193</ele>
        <time>2016-04-17T10:48:16Z</time>
      </trkpt>
      <trkpt lat="45.64278" lon="4.89941">
        <ele>193</ele>
        <time>2016-04-17T10:48:17Z</time>
      </trkpt>
      <trkpt lat="45.64267" lon="4.89933">
        <ele>193</ele>
        <time>2016-04-17T10:48:19Z</time>
      </trkpt>
      <trkpt lat="45.64261" lon="4.8993">
        <ele>193</ele>
        <time>2016-04-17T10:48:20Z</time>
      </trkpt>
      <trkpt lat="45.64255" lon="4.89928">
        <ele>193</ele>
        <time>2016-04-17T10:48:21Z</time>
      </trkpt>
      <trkpt lat="45.64249" lon="4.89927">
        <ele>193</ele>
        <time>2016-04-17T10:48:22Z</time>
      </trkpt>
      <trkpt lat="45.64243" lon="4.89927">
        <ele>194.4</ele>
        <time>2016-04-17T10:48:23Z</time>
      </trkpt>
      <trkpt lat="45.64236" lon="4.89928">
        <ele>195</ele>
        <time>2016-04-17T10:48:24Z</time>
      </trkpt>
      <trkpt lat="45.6423" lon="4.89929">
        <ele>195</ele>
        <time>2016-04-17T10:48:25Z</time>
      </trkpt>
      <trkpt lat="45.64223" lon="4.89931">
        <ele>195</ele>
        <time>2016-04-17T10:48:26Z</time>
      </trkpt>
      <trkpt lat="45.6421" lon="4.89933">
        <ele>196.4</ele>
        <time>2016-04-17T10:48:28Z</time>
      </trkpt>
      <trkpt lat="45.64197" lon="4.89934">
        <ele>197</ele>
        <time>2016-04-17T10:48:30Z</time>
      </trkpt>
      <trkpt lat="45.6419" lon="4.89935">
        <ele>197</ele>
        <time>2016-04-17T10:48:31Z</time>
      </trkpt>
      <trkpt lat="45.64184" lon="4.89936">
        <ele>197</ele>
        <time>2016-04-17T10:48:32Z</time>
      </trkpt>
      <trkpt lat="45.64177" lon="4.89937">
        <ele>197</ele>
        <time>2016-04-17T10:48:33Z</time>
      </trkpt>
      <trkpt lat="45.6417" lon="4.89938">
        <ele>197</ele>
        <time>2016-04-17T10:48:34Z</time>
      </trkpt>
      <trkpt lat="45.64163" lon="4.89938">
        <ele>197</ele>
        <time>2016-04-17T10:48:35Z</time>
      </trkpt>
      <trkpt lat="45.64149" lon="4.89941">
        <ele>197</ele>
        <time>2016-04-17T10:48:37Z</time>
      </trkpt>
      <trkpt lat="45.64141" lon="4.89942">
        <ele>197</ele>
        <time>2016-04-17T10:48:38Z</time>
      </trkpt>
      <trkpt lat="45.64134" lon="4.89943">
        <ele>197</ele>
        <time>2016-04-17T10:48:39Z</time>
      </trkpt>
      <trkpt lat="45.64126" lon="4.89944">
        <ele>197</ele>
        <time>2016-04-17T10:48:40Z</time>
      </trkpt>
      <trkpt lat="45.64118" lon="4.89945">
        <ele>197</ele>
        <time>2016-04-17T10:48:41Z</time>
      </trkpt>
      <trkpt lat="45.6411" lon="4.89946">
        <ele>196</ele>
        <time>2016-04-17T10:48:42Z</time>
      </trkpt>
      <trkpt lat="45.64102" lon="4.89947">
        <ele>195</ele>
        <time>2016-04-17T10:48:43Z</time>
      </trkpt>
      <trkpt lat="45.64085" lon="4.89948">
        <ele>195</ele>
        <time>2016-04-17T10:48:45Z</time>
      </trkpt>
      <trkpt lat="45.64076" lon="4.89948">
        <ele>195</ele>
        <time>2016-04-17T10:48:46Z</time>
      </trkpt>
      <trkpt lat="45.64067" lon="4.89947">
        <ele>195</ele>
        <time>2016-04-17T10:48:47Z</time>
      </trkpt>
      <trkpt lat="45.64058" lon="4.89945">
        <ele>195</ele>
        <time>2016-04-17T10:48:48Z</time>
      </trkpt>
      <trkpt lat="45.64048" lon="4.89943">
        <ele>195</ele>
        <time>2016-04-17T10:48:49Z</time>
      </trkpt>
      <trkpt lat="45.64039" lon="4.89941">
        <ele>195</ele>
        <time>2016-04-17T10:48:50Z</time>
      </trkpt>
      <trkpt lat="45.64029" lon="4.89938">
        <ele>195</ele>
        <time>2016-04-17T10:48:51Z</time>
      </trkpt>
      <trkpt lat="45.6402" lon="4.89934">
        <ele>195</ele>
        <time>2016-04-17T10:48:52Z</time>
      </trkpt>
      <trkpt lat="45.64011" lon="4.8993">
        <ele>192.6</ele>
        <time>2016-04-17T10:48:53Z</time>
      </trkpt>
      <trkpt lat="45.64001" lon="4.89926">
        <ele>191</ele>
        <time>2016-04-17T10:48:54Z</time>
      </trkpt>
      <trkpt lat="45.63992" lon="4.89922">
        <ele>189.2</ele>
        <time>2016-04-17T10:48:55Z</time>
      </trkpt>
      <trkpt lat="45.63982" lon="4.89917">
        <ele>188</ele>
        <time>2016-04-17T10:48:56Z</time>
      </trkpt>
      <trkpt lat="45.63973" lon="4.89913">
        <ele>188</ele>
        <time>2016-04-17T10:48:57Z</time>
      </trkpt>
      <trkpt lat="45.63964" lon="4.89909">
        <ele>188</ele>
        <time>2016-04-17T10:48:58Z</time>
      </trkpt>
      <trkpt lat="45.63954" lon="4.89906">
        <ele>188</ele>
        <time>2016-04-17T10:48:59Z</time>
      </trkpt>
      <trkpt lat="45.63945" lon="4.89904">
        <ele>188</ele>
        <time>2016-04-17T10:49:00Z</time>
      </trkpt>
      <trkpt lat="45.63935" lon="4.89902">
        <ele>188</ele>
        <time>2016-04-17T10:49:01Z</time>
      </trkpt>
      <trkpt lat="45.63926" lon="4.899">
        <ele>188</ele>
        <time>2016-04-17T10:49:02Z</time>
      </trkpt>
      <trkpt lat="45.63917" lon="4.89897">
        <ele>188</ele>
        <time>2016-04-17T10:49:03Z</time>
      </trkpt>
      <trkpt lat="45.63908" lon="4.89895">
        <ele>188</ele>
        <time>2016-04-17T10:49:04Z</time>
      </trkpt>
      <trkpt lat="45.63899" lon="4.89893">
        <ele>188</ele>
        <time>2016-04-17T10:49:05Z</time>
      </trkpt>
      <trkpt lat="45.6389" lon="4.8989">
        <ele>188</ele>
        <time>2016-04-17T10:49:06Z</time>
      </trkpt>
      <trkpt lat="45.63881" lon="4.89888">
        <ele>188</ele>
        <time>2016-04-17T10:49:07Z</time>
      </trkpt>
      <trkpt lat="45.63872" lon="4.89886">
        <ele>188</ele>
        <time>2016-04-17T10:49:08Z</time>
      </trkpt>
      <trkpt lat="45.63864" lon="4.89883">
        <ele>188</ele>
        <time>2016-04-17T10:49:09Z</time>
      </trkpt>
      <trkpt lat="45.63855" lon="4.89881">
        <ele>188</ele>
        <time>2016-04-17T10:49:10Z</time>
      </trkpt>
      <trkpt lat="45.63846" lon="4.89879">
        <ele>188</ele>
        <time>2016-04-17T10:49:11Z</time>
      </trkpt>
      <trkpt lat="45.63837" lon="4.89876">
        <ele>188</ele>
        <time>2016-04-17T10:49:12Z</time>
      </trkpt>
      <trkpt lat="45.6382" lon="4.89872">
        <ele>187.4</ele>
        <time>2016-04-17T10:49:14Z</time>
      </trkpt>
      <trkpt lat="45.63803" lon="4.89867">
        <ele>187</ele>
        <time>2016-04-17T10:49:16Z</time>
      </trkpt>
      <trkpt lat="45.63795" lon="4.89865">
        <ele>187</ele>
        <time>2016-04-17T10:49:17Z</time>
      </trkpt>
      <trkpt lat="45.63787" lon="4.89863">
        <ele>187</ele>
        <time>2016-04-17T10:49:18Z</time>
      </trkpt>
      <trkpt lat="45.63778" lon="4.89861">
        <ele>187</ele>
        <time>2016-04-17T10:49:19Z</time>
      </trkpt>
      <trkpt lat="45.6377" lon="4.89859">
        <ele>187</ele>
        <time>2016-04-17T10:49:20Z</time>
      </trkpt>
      <trkpt lat="45.63762" lon="4.89857">
        <ele>187</ele>
        <time>2016-04-17T10:49:21Z</time>
      </trkpt>
      <trkpt lat="45.63753" lon="4.89855">
        <ele>187</ele>
        <time>2016-04-17T10:49:22Z</time>
      </trkpt>
      <trkpt lat="45.63745" lon="4.89853">
        <ele>187</ele>
        <time>2016-04-17T10:49:23Z</time>
      </trkpt>
      <trkpt lat="45.63737" lon="4.89851">
        <ele>187.6</ele>
        <time>2016-04-17T10:49:24Z</time>
      </trkpt>
      <trkpt lat="45.63729" lon="4.89848">
        <ele>188</ele>
        <time>2016-04-17T10:49:25Z</time>
      </trkpt>
      <trkpt lat="45.6372" lon="4.89846">
        <ele>188</ele>
        <time>2016-04-17T10:49:26Z</time>
      </trkpt>
      <trkpt lat="45.63712" lon="4.89844">
        <ele>188</ele>
        <time>2016-04-17T10:49:27Z</time>
      </trkpt>
      <trkpt lat="45.63704" lon="4.89842">
        <ele>188</ele>
        <time>2016-04-17T10:49:28Z</time>
      </trkpt>
      <trkpt lat="45.63696" lon="4.8984">
        <ele>188</ele>
        <time>2016-04-17T10:49:29Z</time>
      </trkpt>
      <trkpt lat="45.63688" lon="4.89838">
        <ele>188</ele>
        <time>2016-04-17T10:49:30Z</time>
      </trkpt>
      <trkpt lat="45.6368" lon="4.89835">
        <ele>188</ele>
        <time>2016-04-17T10:49:31Z</time>
      </trkpt>
      <trkpt lat="45.63672" lon="4.89833">
        <ele>188</ele>
        <time>2016-04-17T10:49:32Z</time>
      </trkpt>
      <trkpt lat="45.63664" lon="4.89831">
        <ele>188</ele>
        <time>2016-04-17T10:49:33Z</time>
      </trkpt>
      <trkpt lat="45.63656" lon="4.89828">
        <ele>188.7</ele>
        <time>2016-04-17T10:49:34Z</time>
      </trkpt>
      <trkpt lat="45.63648" lon="4.89826">
        <ele>189</ele>
        <time>2016-04-17T10:49:35Z</time>
      </trkpt>
      <trkpt lat="45.6364" lon="4.89824">
        <ele>189</ele>
        <time>2016-04-17T10:49:36Z</time>
      </trkpt>
      <trkpt lat="45.63633" lon="4.89821">
        <ele>189</ele>
        <time>2016-04-17T10:49:37Z</time>
      </trkpt>
      <trkpt lat="45.63625" lon="4.89819">
        <ele>189</ele>
        <time>2016-04-17T10:49:38Z</time>
      </trkpt>
      <trkpt lat="45.63617" lon="4.89817">
        <ele>189</ele>
        <time>2016-04-17T10:49:39Z</time>
      </trkpt>
      <trkpt lat="45.63609" lon="4.89814">
        <ele>189</ele>
        <time>2016-04-17T10:49:40Z</time>
      </trkpt>
      <trkpt lat="45.63601" lon="4.89812">
        <ele>189</ele>
        <time>2016-04-17T10:49:41Z</time>
      </trkpt>
      <trkpt lat="45.63594" lon="4.8981">
        <ele>189</ele>
        <time>2016-04-17T10:49:42Z</time>
      </trkpt>
      <trkpt lat="45.63586" lon="4.89808">
        <ele>189</ele>
        <time>2016-04-17T10:49:43Z</time>
      </trkpt>
      <trkpt lat="45.63578" lon="4.89805">
        <ele>189</ele>
        <time>2016-04-17T10:49:44Z</time>
      </trkpt>
      <trkpt lat="45.63571" lon="4.89803">
        <ele>189</ele>
        <time>2016-04-17T10:49:45Z</time>
      </trkpt>
      <trkpt lat="45.63563" lon="4.89801">
        <ele>189</ele>
        <time>2016-04-17T10:49:46Z</time>
      </trkpt>
      <trkpt lat="45.63556" lon="4.89799">
        <ele>189</ele>
        <time>2016-04-17T10:49:47Z</time>
      </trkpt>
      <trkpt lat="45.63549" lon="4.89796">
        <ele>189</ele>
        <time>2016-04-17T10:49:48Z</time>
      </trkpt>
      <trkpt lat="45.63542" lon="4.89794">
        <ele>189</ele>
        <time>2016-04-17T10:49:49Z</time>
      </trkpt>
      <trkpt lat="45.63535" lon="4.89791">
        <ele>189</ele>
        <time>2016-04-17T10:49:50Z</time>
      </trkpt>
      <trkpt lat="45.63527" lon="4.89789">
        <ele>189</ele>
        <time>2016-04-17T10:49:51Z</time>
      </trkpt>
      <trkpt lat="45.63519" lon="4.89786">
        <ele>189</ele>
        <time>2016-04-17T10:49:52Z</time>
      </trkpt>
      <trkpt lat="45.63512" lon="4.89784">
        <ele>189</ele>
        <time>2016-04-17T10:49:53Z</time>
      </trkpt>
      <trkpt lat="45.63504" lon="4.89782">
        <ele>188.4</ele>
        <time>2016-04-17T10:49:54Z</time>
      </trkpt>
      <trkpt lat="45.63496" lon="4.89779">
        <ele>188</ele>
        <time>2016-04-17T10:49:55Z</time>
      </trkpt>
      <trkpt lat="45.63481" lon="4.89774">
        <ele>188</ele>
        <time>2016-04-17T10:49:57Z</time>
      </trkpt>
      <trkpt lat="45.63473" lon="4.89772">
        <ele>188</ele>
        <time>2016-04-17T10:49:58Z</time>
      </trkpt>
      <trkpt lat="45.63465" lon="4.8977">
        <ele>188</ele>
        <time>2016-04-17T10:49:59Z</time>
      </trkpt>
      <trkpt lat="45.63458" lon="4.89767">
        <ele>188</ele>
        <time>2016-04-17T10:50:00Z</time>
      </trkpt>
      <trkpt lat="45.6345" lon="4.89765">
        <ele>188</ele>
        <time>2016-04-17T10:50:01Z</time>
      </trkpt>
      <trkpt lat="45.63442" lon="4.89762">
        <ele>188</ele>
        <time>2016-04-17T10:50:02Z</time>
      </trkpt>
      <trkpt lat="45.63435" lon="4.8976">
        <ele>188</ele>
        <time>2016-04-17T10:50:03Z</time>
      </trkpt>
      <trkpt lat="45.63427" lon="4.89758">
        <ele>188</ele>
        <time>2016-04-17T10:50:04Z</time>
      </trkpt>
      <trkpt lat="45.63419" lon="4.89755">
        <ele>188</ele>
        <time>2016-04-17T10:50:05Z</time>
      </trkpt>
      <trkpt lat="45.63411" lon="4.89753">
        <ele>188</ele>
        <time>2016-04-17T10:50:06Z</time>
      </trkpt>
      <trkpt lat="45.63395" lon="4.89748">
        <ele>188</ele>
        <time>2016-04-17T10:50:08Z</time>
      </trkpt>
      <trkpt lat="45.63387" lon="4.89746">
        <ele>188</ele>
        <time>2016-04-17T10:50:09Z</time>
      </trkpt>
      <trkpt lat="45.63379" lon="4.89743">
        <ele>188</ele>
        <time>2016-04-17T10:50:10Z</time>
      </trkpt>
      <trkpt lat="45.63371" lon="4.89741">
        <ele>188</ele>
        <time>2016-04-17T10:50:11Z</time>
      </trkpt>
      <trkpt lat="45.63363" lon="4.89739">
        <ele>188</ele>
        <time>2016-04-17T10:50:12Z</time>
      </trkpt>
      <trkpt lat="45.63356" lon="4.89737">
        <ele>188</ele>
        <time>2016-04-17T10:50:13Z</time>
      </trkpt>
      <trkpt lat="45.63348" lon="4.89736">
        <ele>188</ele>
        <time>2016-04-17T10:50:14Z</time>
      </trkpt>
      <trkpt lat="45.6334" lon="4.89737">
        <ele>188</ele>
        <time>2016-04-17T10:50:15Z</time>
      </trkpt>
      <trkpt lat="45.63325" lon="4.89744">
        <ele>188</ele>
        <time>2016-04-17T10:50:17Z</time>
      </trkpt>
      <trkpt lat="45.63318" lon="4.8975">
        <ele>188</ele>
        <time>2016-04-17T10:50:18Z</time>
      </trkpt>
      <trkpt lat="45.63312" lon="4.89757">
        <ele>188</ele>
        <time>2016-04-17T10:50:19Z</time>
      </trkpt>
      <trkpt lat="45.63306" lon="4.89764">
        <ele>188</ele>
        <time>2016-04-17T10:50:20Z</time>
      </trkpt>
      <trkpt lat="45.63299" lon="4.89771">
        <ele>188</ele>
        <time>2016-04-17T10:50:21Z</time>
      </trkpt>
      <trkpt lat="45.63293" lon="4.89778">
        <ele>188</ele>
        <time>2016-04-17T10:50:22Z</time>
      </trkpt>
      <trkpt lat="45.63285" lon="4.89784">
        <ele>188</ele>
        <time>2016-04-17T10:50:23Z</time>
      </trkpt>
      <trkpt lat="45.63278" lon="4.89788">
        <ele>188</ele>
        <time>2016-04-17T10:50:24Z</time>
      </trkpt>
      <trkpt lat="45.63262" lon="4.89795">
        <ele>188</ele>
        <time>2016-04-17T10:50:26Z</time>
      </trkpt>
      <trkpt lat="45.63254" lon="4.89798">
        <ele>188</ele>
        <time>2016-04-17T10:50:27Z</time>
      </trkpt>
      <trkpt lat="45.63246" lon="4.898">
        <ele>188</ele>
        <time>2016-04-17T10:50:28Z</time>
      </trkpt>
      <trkpt lat="45.63238" lon="4.89801">
        <ele>188</ele>
        <time>2016-04-17T10:50:29Z</time>
      </trkpt>
      <trkpt lat="45.6323" lon="4.89803">
        <ele>188</ele>
        <time>2016-04-17T10:50:30Z</time>
      </trkpt>
      <trkpt lat="45.63222" lon="4.89805">
        <ele>188</ele>
        <time>2016-04-17T10:50:31Z</time>
      </trkpt>
      <trkpt lat="45.63214" lon="4.89807">
        <ele>188</ele>
        <time>2016-04-17T10:50:32Z</time>
      </trkpt>
      <trkpt lat="45.63206" lon="4.89809">
        <ele>188</ele>
        <time>2016-04-17T10:50:33Z</time>
      </trkpt>
      <trkpt lat="45.63191" lon="4.89812">
        <ele>188</ele>
        <time>2016-04-17T10:50:35Z</time>
      </trkpt>
      <trkpt lat="45.63183" lon="4.89814">
        <ele>188</ele>
        <time>2016-04-17T10:50:36Z</time>
      </trkpt>
      <trkpt lat="45.63175" lon="4.89816">
        <ele>188</ele>
        <time>2016-04-17T10:50:37Z</time>
      </trkpt>
      <trkpt lat="45.63167" lon="4.89818">
        <ele>188</ele>
        <time>2016-04-17T10:50:38Z</time>
      </trkpt>
      <trkpt lat="45.63159" lon="4.8982">
        <ele>188</ele>
        <time>2016-04-17T10:50:39Z</time>
      </trkpt>
      <trkpt lat="45.63151" lon="4.89822">
        <ele>188</ele>
        <time>2016-04-17T10:50:40Z</time>
      </trkpt>
      <trkpt lat="45.63143" lon="4.89825">
        <ele>188</ele>
        <time>2016-04-17T10:50:41Z</time>
      </trkpt>
      <trkpt lat="45.63135" lon="4.89827">
        <ele>188</ele>
        <time>2016-04-17T10:50:42Z</time>
      </trkpt>
      <trkpt lat="45.63128" lon="4.8983">
        <ele>187.3</ele>
        <time>2016-04-17T10:50:43Z</time>
      </trkpt>
      <trkpt lat="45.6312" lon="4.89833">
        <ele>187</ele>
        <time>2016-04-17T10:50:44Z</time>
      </trkpt>
      <trkpt lat="45.63112" lon="4.89836">
        <ele>187</ele>
        <time>2016-04-17T10:50:45Z</time>
      </trkpt>
      <trkpt lat="45.63104" lon="4.89839">
        <ele>187</ele>
        <time>2016-04-17T10:50:46Z</time>
      </trkpt>
      <trkpt lat="45.63097" lon="4.89842">
        <ele>187</ele>
        <time>2016-04-17T10:50:47Z</time>
      </trkpt>
      <trkpt lat="45.63089" lon="4.89845">
        <ele>187</ele>
        <time>2016-04-17T10:50:48Z</time>
      </trkpt>
      <trkpt lat="45.63081" lon="4.89848">
        <ele>187</ele>
        <time>2016-04-17T10:50:49Z</time>
      </trkpt>
      <trkpt lat="45.63074" lon="4.89851">
        <ele>187</ele>
        <time>2016-04-17T10:50:50Z</time>
      </trkpt>
      <trkpt lat="45.63066" lon="4.89854">
        <ele>187</ele>
        <time>2016-04-17T10:50:51Z</time>
      </trkpt>
      <trkpt lat="45.63058" lon="4.89857">
        <ele>187</ele>
        <time>2016-04-17T10:50:52Z</time>
      </trkpt>
      <trkpt lat="45.63051" lon="4.89861">
        <ele>187</ele>
        <time>2016-04-17T10:50:53Z</time>
      </trkpt>
      <trkpt lat="45.63043" lon="4.89863">
        <ele>187</ele>
        <time>2016-04-17T10:50:54Z</time>
      </trkpt>
      <trkpt lat="45.63035" lon="4.89866">
        <ele>187</ele>
        <time>2016-04-17T10:50:55Z</time>
      </trkpt>
      <trkpt lat="45.63027" lon="4.8987">
        <ele>187</ele>
        <time>2016-04-17T10:50:56Z</time>
      </trkpt>
      <trkpt lat="45.6302" lon="4.89873">
        <ele>187</ele>
        <time>2016-04-17T10:50:57Z</time>
      </trkpt>
      <trkpt lat="45.63012" lon="4.89876">
        <ele>187</ele>
        <time>2016-04-17T10:50:58Z</time>
      </trkpt>
      <trkpt lat="45.63005" lon="4.89881">
        <ele>187</ele>
        <time>2016-04-17T10:50:59Z</time>
      </trkpt>
      <trkpt lat="45.62998" lon="4.89885">
        <ele>187</ele>
        <time>2016-04-17T10:51:00Z</time>
      </trkpt>
      <trkpt lat="45.62991" lon="4.89891">
        <ele>187</ele>
        <time>2016-04-17T10:51:01Z</time>
      </trkpt>
      <trkpt lat="45.62984" lon="4.89896">
        <ele>187</ele>
        <time>2016-04-17T10:51:02Z</time>
      </trkpt>
      <trkpt lat="45.62977" lon="4.89902">
        <ele>187</ele>
        <time>2016-04-17T10:51:03Z</time>
      </trkpt>
      <trkpt lat="45.6297" lon="4.89908">
        <ele>187</ele>
        <time>2016-04-17T10:51:04Z</time>
      </trkpt>
      <trkpt lat="45.62963" lon="4.89914">
        <ele>187</ele>
        <time>2016-04-17T10:51:05Z</time>
      </trkpt>
      <trkpt lat="45.62956" lon="4.8992">
        <ele>187</ele>
        <time>2016-04-17T10:51:06Z</time>
      </trkpt>
      <trkpt lat="45.62949" lon="4.89925">
        <ele>187</ele>
        <time>2016-04-17T10:51:07Z</time>
      </trkpt>
      <trkpt lat="45.62942" lon="4.89931">
        <ele>187</ele>
        <time>2016-04-17T10:51:08Z</time>
      </trkpt>
      <trkpt lat="45.62936" lon="4.89937">
        <ele>187</ele>
        <time>2016-04-17T10:51:09Z</time>
      </trkpt>
      <trkpt lat="45.62929" lon="4.89943">
        <ele>187</ele>
        <time>2016-04-17T10:51:10Z</time>
      </trkpt>
      <trkpt lat="45.62923" lon="4.89949">
        <ele>187</ele>
        <time>2016-04-17T10:51:11Z</time>
      </trkpt>
      <trkpt lat="45.62916" lon="4.89955">
        <ele>187</ele>
        <time>2016-04-17T10:51:12Z</time>
      </trkpt>
      <trkpt lat="45.6291" lon="4.89962">
        <ele>187</ele>
        <time>2016-04-17T10:51:13Z</time>
      </trkpt>
      <trkpt lat="45.62898" lon="4.89975">
        <ele>187</ele>
        <time>2016-04-17T10:51:15Z</time>
      </trkpt>
      <trkpt lat="45.62892" lon="4.89982">
        <ele>187</ele>
        <time>2016-04-17T10:51:16Z</time>
      </trkpt>
      <trkpt lat="45.62886" lon="4.89989">
        <ele>187</ele>
        <time>2016-04-17T10:51:17Z</time>
      </trkpt>
      <trkpt lat="45.6288" lon="4.89996">
        <ele>187</ele>
        <time>2016-04-17T10:51:18Z</time>
      </trkpt>
      <trkpt lat="45.62874" lon="4.90003">
        <ele>187</ele>
        <time>2016-04-17T10:51:19Z</time>
      </trkpt>
      <trkpt lat="45.62868" lon="4.9001">
        <ele>187</ele>
        <time>2016-04-17T10:51:20Z</time>
      </trkpt>
      <trkpt lat="45.62863" lon="4.90018">
        <ele>187</ele>
        <time>2016-04-17T10:51:21Z</time>
      </trkpt>
      <trkpt lat="45.62858" lon="4.90027">
        <ele>187</ele>
        <time>2016-04-17T10:51:22Z</time>
      </trkpt>
      <trkpt lat="45.62852" lon="4.90035">
        <ele>187.8</ele>
        <time>2016-04-17T10:51:23Z</time>
      </trkpt>
      <trkpt lat="45.62847" lon="4.90043">
        <ele>188</ele>
        <time>2016-04-17T10:51:24Z</time>
      </trkpt>
      <trkpt lat="45.62842" lon="4.90051">
        <ele>188</ele>
        <time>2016-04-17T10:51:25Z</time>
      </trkpt>
      <trkpt lat="45.62836" lon="4.90058">
        <ele>188</ele>
        <time>2016-04-17T10:51:26Z</time>
      </trkpt>
      <trkpt lat="45.62831" lon="4.90065">
        <ele>188</ele>
        <time>2016-04-17T10:51:27Z</time>
      </trkpt>
      <trkpt lat="45.62825" lon="4.90072">
        <ele>188</ele>
        <time>2016-04-17T10:51:28Z</time>
      </trkpt>
      <trkpt lat="45.62818" lon="4.90078">
        <ele>188</ele>
        <time>2016-04-17T10:51:29Z</time>
      </trkpt>
      <trkpt lat="45.62812" lon="4.90083">
        <ele>188</ele>
        <time>2016-04-17T10:51:30Z</time>
      </trkpt>
      <trkpt lat="45.62805" lon="4.90088">
        <ele>188</ele>
        <time>2016-04-17T10:51:31Z</time>
      </trkpt>
      <trkpt lat="45.62798" lon="4.90092">
        <ele>188</ele>
        <time>2016-04-17T10:51:32Z</time>
      </trkpt>
      <trkpt lat="45.62792" lon="4.90096">
        <ele>188</ele>
        <time>2016-04-17T10:51:33Z</time>
      </trkpt>
      <trkpt lat="45.62785" lon="4.901">
        <ele>188</ele>
        <time>2016-04-17T10:51:34Z</time>
      </trkpt>
      <trkpt lat="45.62778" lon="4.90104">
        <ele>188</ele>
        <time>2016-04-17T10:51:35Z</time>
      </trkpt>
      <trkpt lat="45.62771" lon="4.90107">
        <ele>188</ele>
        <time>2016-04-17T10:51:36Z</time>
      </trkpt>
      <trkpt lat="45.62764" lon="4.9011">
        <ele>188</ele>
        <time>2016-04-17T10:51:37Z</time>
      </trkpt>
      <trkpt lat="45.62757" lon="4.90113">
        <ele>188</ele>
        <time>2016-04-17T10:51:38Z</time>
      </trkpt>
      <trkpt lat="45.62751" lon="4.90116">
        <ele>188</ele>
        <time>2016-04-17T10:51:39Z</time>
      </trkpt>
      <trkpt lat="45.62744" lon="4.90119">
        <ele>188</ele>
        <time>2016-04-17T10:51:40Z</time>
      </trkpt>
      <trkpt lat="45.62731" lon="4.90125">
        <ele>187.2</ele>
        <time>2016-04-17T10:51:42Z</time>
      </trkpt>
      <trkpt lat="45.62724" lon="4.90128">
        <ele>187</ele>
        <time>2016-04-17T10:51:43Z</time>
      </trkpt>
      <trkpt lat="45.62718" lon="4.90132">
        <ele>187</ele>
        <time>2016-04-17T10:51:44Z</time>
      </trkpt>
      <trkpt lat="45.62711" lon="4.90135">
        <ele>187</ele>
        <time>2016-04-17T10:51:45Z</time>
      </trkpt>
      <trkpt lat="45.62704" lon="4.90139">
        <ele>187</ele>
        <time>2016-04-17T10:51:46Z</time>
      </trkpt>
      <trkpt lat="45.62698" lon="4.90142">
        <ele>187</ele>
        <time>2016-04-17T10:51:47Z</time>
      </trkpt>
      <trkpt lat="45.62691" lon="4.90145">
        <ele>187</ele>
        <time>2016-04-17T10:51:48Z</time>
      </trkpt>
      <trkpt lat="45.62685" lon="4.90147">
        <ele>187</ele>
        <time>2016-04-17T10:51:49Z</time>
      </trkpt>
      <trkpt lat="45.62678" lon="4.9015">
        <ele>187</ele>
        <time>2016-04-17T10:51:50Z</time>
      </trkpt>
      <trkpt lat="45.62672" lon="4.90153">
        <ele>187</ele>
        <time>2016-04-17T10:51:51Z</time>
      </trkpt>
      <trkpt lat="45.62665" lon="4.90156">
        <ele>187.6</ele>
        <time>2016-04-17T10:51:52Z</time>
      </trkpt>
      <trkpt lat="45.62658" lon="4.90158">
        <ele>188</ele>
        <time>2016-04-17T10:51:53Z</time>
      </trkpt>
      <trkpt lat="45.62652" lon="4.90161">
        <ele>188</ele>
        <time>2016-04-17T10:51:54Z</time>
      </trkpt>
      <trkpt lat="45.62639" lon="4.90168">
        <ele>188</ele>
        <time>2016-04-17T10:51:56Z</time>
      </trkpt>
      <trkpt lat="45.62633" lon="4.90172">
        <ele>188</ele>
        <time>2016-04-17T10:51:57Z</time>
      </trkpt>
      <trkpt lat="45.62627" lon="4.90178">
        <ele>188</ele>
        <time>2016-04-17T10:51:58Z</time>
      </trkpt>
      <trkpt lat="45.62623" lon="4.90185">
        <ele>188</ele>
        <time>2016-04-17T10:51:59Z</time>
      </trkpt>
      <trkpt lat="45.6262" lon="4.90194">
        <ele>188</ele>
        <time>2016-04-17T10:52:00Z</time>
      </trkpt>
      <trkpt lat="45.62618" lon="4.90204">
        <ele>188</ele>
        <time>2016-04-17T10:52:01Z</time>
      </trkpt>
      <trkpt lat="45.62615" lon="4.90213">
        <ele>188</ele>
        <time>2016-04-17T10:52:02Z</time>
      </trkpt>
      <trkpt lat="45.62613" lon="4.90223">
        <ele>188</ele>
        <time>2016-04-17T10:52:03Z</time>
      </trkpt>
      <trkpt lat="45.6261" lon="4.90232">
        <ele>188</ele>
        <time>2016-04-17T10:52:04Z</time>
      </trkpt>
      <trkpt lat="45.62608" lon="4.90241">
        <ele>188</ele>
        <time>2016-04-17T10:52:05Z</time>
      </trkpt>
      <trkpt lat="45.62606" lon="4.90251">
        <ele>188</ele>
        <time>2016-04-17T10:52:06Z</time>
      </trkpt>
      <trkpt lat="45.62604" lon="4.9026">
        <ele>188</ele>
        <time>2016-04-17T10:52:07Z</time>
      </trkpt>
      <trkpt lat="45.62602" lon="4.90269">
        <ele>188</ele>
        <time>2016-04-17T10:52:08Z</time>
      </trkpt>
      <trkpt lat="45.626" lon="4.90279">
        <ele>188</ele>
        <time>2016-04-17T10:52:09Z</time>
      </trkpt>
      <trkpt lat="45.62597" lon="4.90288">
        <ele>188</ele>
        <time>2016-04-17T10:52:10Z</time>
      </trkpt>
      <trkpt lat="45.62595" lon="4.90297">
        <ele>188</ele>
        <time>2016-04-17T10:52:11Z</time>
      </trkpt>
      <trkpt lat="45.62593" lon="4.90306">
        <ele>188</ele>
        <time>2016-04-17T10:52:12Z</time>
      </trkpt>
      <trkpt lat="45.62591" lon="4.90316">
        <ele>188</ele>
        <time>2016-04-17T10:52:13Z</time>
      </trkpt>
      <trkpt lat="45.6259" lon="4.90325">
        <ele>188</ele>
        <time>2016-04-17T10:52:14Z</time>
      </trkpt>
      <trkpt lat="45.62588" lon="4.90334">
        <ele>188</ele>
        <time>2016-04-17T10:52:15Z</time>
      </trkpt>
      <trkpt lat="45.62587" lon="4.90344">
        <ele>188</ele>
        <time>2016-04-17T10:52:16Z</time>
      </trkpt>
      <trkpt lat="45.62586" lon="4.90353">
        <ele>188</ele>
        <time>2016-04-17T10:52:17Z</time>
      </trkpt>
      <trkpt lat="45.62585" lon="4.90363">
        <ele>188</ele>
        <time>2016-04-17T10:52:18Z</time>
      </trkpt>
      <trkpt lat="45.62584" lon="4.90372">
        <ele>188</ele>
        <time>2016-04-17T10:52:19Z</time>
      </trkpt>
      <trkpt lat="45.62583" lon="4.90382">
        <ele>188</ele>
        <time>2016-04-17T10:52:20Z</time>
      </trkpt>
      <trkpt lat="45.62582" lon="4.90391">
        <ele>188</ele>
        <time>2016-04-17T10:52:21Z</time>
      </trkpt>
      <trkpt lat="45.62581" lon="4.90401">
        <ele>188</ele>
        <time>2016-04-17T10:52:22Z</time>
      </trkpt>
      <trkpt lat="45.6258" lon="4.9041">
        <ele>189.2</ele>
        <time>2016-04-17T10:52:23Z</time>
      </trkpt>
      <trkpt lat="45.62579" lon="4.9042">
        <ele>190</ele>
        <time>2016-04-17T10:52:24Z</time>
      </trkpt>
      <trkpt lat="45.62578" lon="4.90429">
        <ele>190</ele>
        <time>2016-04-17T10:52:25Z</time>
      </trkpt>
      <trkpt lat="45.62576" lon="4.90438">
        <ele>190</ele>
        <time>2016-04-17T10:52:26Z</time>
      </trkpt>
      <trkpt lat="45.62574" lon="4.90448">
        <ele>190</ele>
        <time>2016-04-17T10:52:27Z</time>
      </trkpt>
      <trkpt lat="45.62572" lon="4.90457">
        <ele>190</ele>
        <time>2016-04-17T10:52:28Z</time>
      </trkpt>
      <trkpt lat="45.62569" lon="4.90465">
        <ele>190</ele>
        <time>2016-04-17T10:52:29Z</time>
      </trkpt>
      <trkpt lat="45.62562" lon="4.90482">
        <ele>190</ele>
        <time>2016-04-17T10:52:31Z</time>
      </trkpt>
      <trkpt lat="45.62557" lon="4.90488">
        <ele>190</ele>
        <time>2016-04-17T10:52:32Z</time>
      </trkpt>
      <trkpt lat="45.62551" lon="4.9049">
        <ele>190</ele>
        <time>2016-04-17T10:52:33Z</time>
      </trkpt>
      <trkpt lat="45.62538" lon="4.90486">
        <ele>190</ele>
        <time>2016-04-17T10:52:35Z</time>
      </trkpt>
      <trkpt lat="45.62524" lon="4.90482">
        <ele>190</ele>
        <time>2016-04-17T10:52:37Z</time>
      </trkpt>
      <trkpt lat="45.6251" lon="4.90479">
        <ele>190</ele>
        <time>2016-04-17T10:52:39Z</time>
      </trkpt>
      <trkpt lat="45.62502" lon="4.90478">
        <ele>190</ele>
        <time>2016-04-17T10:52:40Z</time>
      </trkpt>
      <trkpt lat="45.62495" lon="4.90477">
        <ele>190</ele>
        <time>2016-04-17T10:52:41Z</time>
      </trkpt>
      <trkpt lat="45.62488" lon="4.90476">
        <ele>190</ele>
        <time>2016-04-17T10:52:42Z</time>
      </trkpt>
      <trkpt lat="45.62481" lon="4.90475">
        <ele>190.6</ele>
        <time>2016-04-17T10:52:43Z</time>
      </trkpt>
      <trkpt lat="45.62473" lon="4.90474">
        <ele>191</ele>
        <time>2016-04-17T10:52:44Z</time>
      </trkpt>
      <trkpt lat="45.62466" lon="4.90473">
        <ele>191</ele>
        <time>2016-04-17T10:52:45Z</time>
      </trkpt>
      <trkpt lat="45.62459" lon="4.90473">
        <ele>191</ele>
        <time>2016-04-17T10:52:46Z</time>
      </trkpt>
      <trkpt lat="45.62452" lon="4.90472">
        <ele>191</ele>
        <time>2016-04-17T10:52:47Z</time>
      </trkpt>
      <trkpt lat="45.62445" lon="4.90471">
        <ele>191</ele>
        <time>2016-04-17T10:52:48Z</time>
      </trkpt>
      <trkpt lat="45.62438" lon="4.9047">
        <ele>191</ele>
        <time>2016-04-17T10:52:49Z</time>
      </trkpt>
      <trkpt lat="45.62431" lon="4.90469">
        <ele>191</ele>
        <time>2016-04-17T10:52:50Z</time>
      </trkpt>
      <trkpt lat="45.62417" lon="4.90466">
        <ele>191</ele>
        <time>2016-04-17T10:52:52Z</time>
      </trkpt>
      <trkpt lat="45.6241" lon="4.90464">
        <ele>191.8</ele>
        <time>2016-04-17T10:52:53Z</time>
      </trkpt>
      <trkpt lat="45.62403" lon="4.90462">
        <ele>192</ele>
        <time>2016-04-17T10:52:54Z</time>
      </trkpt>
      <trkpt lat="45.62397" lon="4.90459">
        <ele>192</ele>
        <time>2016-04-17T10:52:55Z</time>
      </trkpt>
      <trkpt lat="45.6239" lon="4.90457">
        <ele>192</ele>
        <time>2016-04-17T10:52:56Z</time>
      </trkpt>
      <trkpt lat="45.62383" lon="4.90454">
        <ele>192</ele>
        <time>2016-04-17T10:52:57Z</time>
      </trkpt>
      <trkpt lat="45.62376" lon="4.90452">
        <ele>192</ele>
        <time>2016-04-17T10:52:58Z</time>
      </trkpt>
      <trkpt lat="45.6237" lon="4.9045">
        <ele>192</ele>
        <time>2016-04-17T10:52:59Z</time>
      </trkpt>
      <trkpt lat="45.62363" lon="4.90449">
        <ele>192</ele>
        <time>2016-04-17T10:53:00Z</time>
      </trkpt>
      <trkpt lat="45.62356" lon="4.90449">
        <ele>192</ele>
        <time>2016-04-17T10:53:01Z</time>
      </trkpt>
      <trkpt lat="45.62349" lon="4.90451">
        <ele>192</ele>
        <time>2016-04-17T10:53:02Z</time>
      </trkpt>
      <trkpt lat="45.62342" lon="4.90454">
        <ele>192</ele>
        <time>2016-04-17T10:53:03Z</time>
      </trkpt>
      <trkpt lat="45.62336" lon="4.90457">
        <ele>192</ele>
        <time>2016-04-17T10:53:04Z</time>
      </trkpt>
      <trkpt lat="45.62329" lon="4.90461">
        <ele>192</ele>
        <time>2016-04-17T10:53:05Z</time>
      </trkpt>
      <trkpt lat="45.62323" lon="4.90465">
        <ele>192</ele>
        <time>2016-04-17T10:53:06Z</time>
      </trkpt>
      <trkpt lat="45.62317" lon="4.90468">
        <ele>192</ele>
        <time>2016-04-17T10:53:07Z</time>
      </trkpt>
      <trkpt lat="45.6231" lon="4.90472">
        <ele>192</ele>
        <time>2016-04-17T10:53:08Z</time>
      </trkpt>
      <trkpt lat="45.62304" lon="4.90476">
        <ele>192</ele>
        <time>2016-04-17T10:53:09Z</time>
      </trkpt>
      <trkpt lat="45.62298" lon="4.90479">
        <ele>192</ele>
        <time>2016-04-17T10:53:10Z</time>
      </trkpt>
      <trkpt lat="45.62292" lon="4.90483">
        <ele>192</ele>
        <time>2016-04-17T10:53:11Z</time>
      </trkpt>
      <trkpt lat="45.62286" lon="4.90487">
        <ele>192</ele>
        <time>2016-04-17T10:53:12Z</time>
      </trkpt>
      <trkpt lat="45.62279" lon="4.90491">
        <ele>193.6</ele>
        <time>2016-04-17T10:53:13Z</time>
      </trkpt>
      <trkpt lat="45.62273" lon="4.90495">
        <ele>194</ele>
        <time>2016-04-17T10:53:14Z</time>
      </trkpt>
      <trkpt lat="45.62267" lon="4.90498">
        <ele>194</ele>
        <time>2016-04-17T10:53:15Z</time>
      </trkpt>
      <trkpt lat="45.62254" lon="4.90504">
        <ele>194</ele>
        <time>2016-04-17T10:53:17Z</time>
      </trkpt>
      <trkpt lat="45.62248" lon="4.90507">
        <ele>194</ele>
        <time>2016-04-17T10:53:18Z</time>
      </trkpt>
      <trkpt lat="45.62242" lon="4.90511">
        <ele>194</ele>
        <time>2016-04-17T10:53:19Z</time>
      </trkpt>
      <trkpt lat="45.62236" lon="4.90514">
        <ele>194</ele>
        <time>2016-04-17T10:53:20Z</time>
      </trkpt>
      <trkpt lat="45.6223" lon="4.90518">
        <ele>194</ele>
        <time>2016-04-17T10:53:21Z</time>
      </trkpt>
      <trkpt lat="45.62224" lon="4.90521">
        <ele>194</ele>
        <time>2016-04-17T10:53:22Z</time>
      </trkpt>
      <trkpt lat="45.62219" lon="4.90524">
        <ele>195.6</ele>
        <time>2016-04-17T10:53:23Z</time>
      </trkpt>
      <trkpt lat="45.62213" lon="4.90527">
        <ele>196</ele>
        <time>2016-04-17T10:53:24Z</time>
      </trkpt>
      <trkpt lat="45.62207" lon="4.9053">
        <ele>196</ele>
        <time>2016-04-17T10:53:25Z</time>
      </trkpt>
      <trkpt lat="45.62201" lon="4.90532">
        <ele>196</ele>
        <time>2016-04-17T10:53:26Z</time>
      </trkpt>
      <trkpt lat="45.62195" lon="4.90535">
        <ele>196</ele>
        <time>2016-04-17T10:53:27Z</time>
      </trkpt>
      <trkpt lat="45.62189" lon="4.90537">
        <ele>196.8</ele>
        <time>2016-04-17T10:53:28Z</time>
      </trkpt>
      <trkpt lat="45.62183" lon="4.9054">
        <ele>197</ele>
        <time>2016-04-17T10:53:29Z</time>
      </trkpt>
      <trkpt lat="45.62177" lon="4.90542">
        <ele>197</ele>
        <time>2016-04-17T10:53:30Z</time>
      </trkpt>
      <trkpt lat="45.62172" lon="4.90544">
        <ele>197</ele>
        <time>2016-04-17T10:53:31Z</time>
      </trkpt>
      <trkpt lat="45.62166" lon="4.90547">
        <ele>197</ele>
        <time>2016-04-17T10:53:32Z</time>
      </trkpt>
      <trkpt lat="45.6216" lon="4.90549">
        <ele>197.8</ele>
        <time>2016-04-17T10:53:33Z</time>
      </trkpt>
      <trkpt lat="45.62154" lon="4.90551">
        <ele>198</ele>
        <time>2016-04-17T10:53:34Z</time>
      </trkpt>
      <trkpt lat="45.62149" lon="4.90553">
        <ele>198</ele>
        <time>2016-04-17T10:53:35Z</time>
      </trkpt>
      <trkpt lat="45.62143" lon="4.90555">
        <ele>198</ele>
        <time>2016-04-17T10:53:36Z</time>
      </trkpt>
      <trkpt lat="45.62138" lon="4.90557">
        <ele>198</ele>
        <time>2016-04-17T10:53:37Z</time>
      </trkpt>
      <trkpt lat="45.62132" lon="4.90559">
        <ele>198</ele>
        <time>2016-04-17T10:53:38Z</time>
      </trkpt>
      <trkpt lat="45.62127" lon="4.90561">
        <ele>198</ele>
        <time>2016-04-17T10:53:39Z</time>
      </trkpt>
      <trkpt lat="45.62121" lon="4.90563">
        <ele>198</ele>
        <time>2016-04-17T10:53:40Z</time>
      </trkpt>
      <trkpt lat="45.62116" lon="4.90565">
        <ele>198</ele>
        <time>2016-04-17T10:53:41Z</time>
      </trkpt>
      <trkpt lat="45.6211" lon="4.90567">
        <ele>198</ele>
        <time>2016-04-17T10:53:42Z</time>
      </trkpt>
      <trkpt lat="45.62105" lon="4.90569">
        <ele>199.6</ele>
        <time>2016-04-17T10:53:43Z</time>
      </trkpt>
      <trkpt lat="45.621" lon="4.90571">
        <ele>200</ele>
        <time>2016-04-17T10:53:44Z</time>
      </trkpt>
      <trkpt lat="45.62094" lon="4.90573">
        <ele>200</ele>
        <time>2016-04-17T10:53:45Z</time>
      </trkpt>
      <trkpt lat="45.62089" lon="4.90575">
        <ele>200</ele>
        <time>2016-04-17T10:53:46Z</time>
      </trkpt>
      <trkpt lat="45.62083" lon="4.90577">
        <ele>200</ele>
        <time>2016-04-17T10:53:47Z</time>
      </trkpt>
      <trkpt lat="45.62073" lon="4.90581">
        <ele>200</ele>
        <time>2016-04-17T10:53:49Z</time>
      </trkpt>
      <trkpt lat="45.62067" lon="4.90583">
        <ele>200</ele>
        <time>2016-04-17T10:53:50Z</time>
      </trkpt>
      <trkpt lat="45.62062" lon="4.90584">
        <ele>200</ele>
        <time>2016-04-17T10:53:51Z</time>
      </trkpt>
      <trkpt lat="45.62057" lon="4.90585">
        <ele>200</ele>
        <time>2016-04-17T10:53:52Z</time>
      </trkpt>
      <trkpt lat="45.62052" lon="4.90587">
        <ele>201.5</ele>
        <time>2016-04-17T10:53:53Z</time>
      </trkpt>
      <trkpt lat="45.62046" lon="4.90588">
        <ele>202</ele>
        <time>2016-04-17T10:53:54Z</time>
      </trkpt>
      <trkpt lat="45.62041" lon="4.90589">
        <ele>202</ele>
        <time>2016-04-17T10:53:55Z</time>
      </trkpt>
      <trkpt lat="45.62035" lon="4.9059">
        <ele>202</ele>
        <time>2016-04-17T10:53:56Z</time>
      </trkpt>
      <trkpt lat="45.6203" lon="4.90591">
        <ele>202</ele>
        <time>2016-04-17T10:53:57Z</time>
      </trkpt>
      <trkpt lat="45.62024" lon="4.90592">
        <ele>202.8</ele>
        <time>2016-04-17T10:53:58Z</time>
      </trkpt>
      <trkpt lat="45.62019" lon="4.90592">
        <ele>203</ele>
        <time>2016-04-17T10:53:59Z</time>
      </trkpt>
      <trkpt lat="45.62013" lon="4.90592">
        <ele>203</ele>
        <time>2016-04-17T10:54:00Z</time>
      </trkpt>
      <trkpt lat="45.62008" lon="4.90592">
        <ele>203</ele>
        <time>2016-04-17T10:54:01Z</time>
      </trkpt>
      <trkpt lat="45.62003" lon="4.90592">
        <ele>203.8</ele>
        <time>2016-04-17T10:54:02Z</time>
      </trkpt>
      <trkpt lat="45.61997" lon="4.90593">
        <ele>204</ele>
        <time>2016-04-17T10:54:03Z</time>
      </trkpt>
      <trkpt lat="45.61992" lon="4.90593">
        <ele>204</ele>
        <time>2016-04-17T10:54:04Z</time>
      </trkpt>
      <trkpt lat="45.61986" lon="4.90593">
        <ele>204</ele>
        <time>2016-04-17T10:54:05Z</time>
      </trkpt>
      <trkpt lat="45.61981" lon="4.90593">
        <ele>204</ele>
        <time>2016-04-17T10:54:06Z</time>
      </trkpt>
      <trkpt lat="45.61975" lon="4.90593">
        <ele>204</ele>
        <time>2016-04-17T10:54:07Z</time>
      </trkpt>
      <trkpt lat="45.6197" lon="4.90593">
        <ele>204.8</ele>
        <time>2016-04-17T10:54:08Z</time>
      </trkpt>
      <trkpt lat="45.61964" lon="4.90593">
        <ele>205</ele>
        <time>2016-04-17T10:54:09Z</time>
      </trkpt>
      <trkpt lat="45.61959" lon="4.90593">
        <ele>205</ele>
        <time>2016-04-17T10:54:10Z</time>
      </trkpt>
      <trkpt lat="45.61953" lon="4.90594">
        <ele>205</ele>
        <time>2016-04-17T10:54:11Z</time>
      </trkpt>
      <trkpt lat="45.61943" lon="4.90596">
        <ele>206.4</ele>
        <time>2016-04-17T10:54:13Z</time>
      </trkpt>
      <trkpt lat="45.61937" lon="4.90597">
        <ele>207</ele>
        <time>2016-04-17T10:54:14Z</time>
      </trkpt>
      <trkpt lat="45.61932" lon="4.90598">
        <ele>207</ele>
        <time>2016-04-17T10:54:15Z</time>
      </trkpt>
      <trkpt lat="45.61927" lon="4.90599">
        <ele>207</ele>
        <time>2016-04-17T10:54:16Z</time>
      </trkpt>
      <trkpt lat="45.61922" lon="4.906">
        <ele>207</ele>
        <time>2016-04-17T10:54:17Z</time>
      </trkpt>
      <trkpt lat="45.61913" lon="4.90602">
        <ele>207</ele>
        <time>2016-04-17T10:54:19Z</time>
      </trkpt>
      <trkpt lat="45.61905" lon="4.90597">
        <ele>207</ele>
        <time>2016-04-17T10:54:21Z</time>
      </trkpt>
      <trkpt lat="45.61902" lon="4.90591">
        <ele>207</ele>
        <time>2016-04-17T10:54:22Z</time>
      </trkpt>
      <trkpt lat="45.61901" lon="4.90583">
        <ele>207</ele>
        <time>2016-04-17T10:54:23Z</time>
      </trkpt>
      <trkpt lat="45.61899" lon="4.90575">
        <ele>207</ele>
        <time>2016-04-17T10:54:24Z</time>
      </trkpt>
      <trkpt lat="45.61897" lon="4.90567">
        <ele>207</ele>
        <time>2016-04-17T10:54:25Z</time>
      </trkpt>
      <trkpt lat="45.61895" lon="4.90558">
        <ele>207</ele>
        <time>2016-04-17T10:54:26Z</time>
      </trkpt>
      <trkpt lat="45.61892" lon="4.90548">
        <ele>207</ele>
        <time>2016-04-17T10:54:27Z</time>
      </trkpt>
      <trkpt lat="45.6189" lon="4.90539">
        <ele>207</ele>
        <time>2016-04-17T10:54:28Z</time>
      </trkpt>
      <trkpt lat="45.61887" lon="4.9053">
        <ele>207</ele>
        <time>2016-04-17T10:54:29Z</time>
      </trkpt>
      <trkpt lat="45.61884" lon="4.9052">
        <ele>207</ele>
        <time>2016-04-17T10:54:30Z</time>
      </trkpt>
      <trkpt lat="45.61882" lon="4.9051">
        <ele>207</ele>
        <time>2016-04-17T10:54:31Z</time>
      </trkpt>
      <trkpt lat="45.61879" lon="4.905">
        <ele>207</ele>
        <time>2016-04-17T10:54:32Z</time>
      </trkpt>
      <trkpt lat="45.61876" lon="4.9049">
        <ele>207</ele>
        <time>2016-04-17T10:54:33Z</time>
      </trkpt>
      <trkpt lat="45.61873" lon="4.9048">
        <ele>207</ele>
        <time>2016-04-17T10:54:34Z</time>
      </trkpt>
      <trkpt lat="45.61869" lon="4.9047">
        <ele>207</ele>
        <time>2016-04-17T10:54:35Z</time>
      </trkpt>
      <trkpt lat="45.61866" lon="4.9046">
        <ele>207</ele>
        <time>2016-04-17T10:54:36Z</time>
      </trkpt>
      <trkpt lat="45.61862" lon="4.9045">
        <ele>207</ele>
        <time>2016-04-17T10:54:37Z</time>
      </trkpt>
      <trkpt lat="45.61858" lon="4.9044">
        <ele>206.3</ele>
        <time>2016-04-17T10:54:38Z</time>
      </trkpt>
      <trkpt lat="45.61854" lon="4.90429">
        <ele>206</ele>
        <time>2016-04-17T10:54:39Z</time>
      </trkpt>
      <trkpt lat="45.6185" lon="4.90419">
        <ele>206</ele>
        <time>2016-04-17T10:54:40Z</time>
      </trkpt>
      <trkpt lat="45.61845" lon="4.90409">
        <ele>206</ele>
        <time>2016-04-17T10:54:41Z</time>
      </trkpt>
      <trkpt lat="45.61841" lon="4.90398">
        <ele>206</ele>
        <time>2016-04-17T10:54:42Z</time>
      </trkpt>
      <trkpt lat="45.61837" lon="4.90388">
        <ele>206</ele>
        <time>2016-04-17T10:54:43Z</time>
      </trkpt>
      <trkpt lat="45.61833" lon="4.90377">
        <ele>206</ele>
        <time>2016-04-17T10:54:44Z</time>
      </trkpt>
      <trkpt lat="45.6183" lon="4.90366">
        <ele>206</ele>
        <time>2016-04-17T10:54:45Z</time>
      </trkpt>
      <trkpt lat="45.61826" lon="4.90355">
        <ele>206</ele>
        <time>2016-04-17T10:54:46Z</time>
      </trkpt>
      <trkpt lat="45.61822" lon="4.90344">
        <ele>206</ele>
        <time>2016-04-17T10:54:47Z</time>
      </trkpt>
      <trkpt lat="45.61819" lon="4.90333">
        <ele>204.6</ele>
        <time>2016-04-17T10:54:48Z</time>
      </trkpt>
      <trkpt lat="45.61815" lon="4.90322">
        <ele>204</ele>
        <time>2016-04-17T10:54:49Z</time>
      </trkpt>
      <trkpt lat="45.61812" lon="4.90311">
        <ele>204</ele>
        <time>2016-04-17T10:54:50Z</time>
      </trkpt>
      <trkpt lat="45.61809" lon="4.903">
        <ele>204</ele>
        <time>2016-04-17T10:54:51Z</time>
      </trkpt>
      <trkpt lat="45.61806" lon="4.90288">
        <ele>204</ele>
        <time>2016-04-17T10:54:52Z</time>
      </trkpt>
      <trkpt lat="45.61803" lon="4.90277">
        <ele>204</ele>
        <time>2016-04-17T10:54:53Z</time>
      </trkpt>
      <trkpt lat="45.618" lon="4.90265">
        <ele>204</ele>
        <time>2016-04-17T10:54:54Z</time>
      </trkpt>
      <trkpt lat="45.61796" lon="4.90241">
        <ele>204</ele>
        <time>2016-04-17T10:54:56Z</time>
      </trkpt>
      <trkpt lat="45.61794" lon="4.90229">
        <ele>204</ele>
        <time>2016-04-17T10:54:57Z</time>
      </trkpt>
      <trkpt lat="45.61792" lon="4.90217">
        <ele>203.3</ele>
        <time>2016-04-17T10:54:58Z</time>
      </trkpt>
      <trkpt lat="45.61791" lon="4.90205">
        <ele>203</ele>
        <time>2016-04-17T10:54:59Z</time>
      </trkpt>
      <trkpt lat="45.61791" lon="4.90193">
        <ele>203</ele>
        <time>2016-04-17T10:55:00Z</time>
      </trkpt>
      <trkpt lat="45.61791" lon="4.90181">
        <ele>203</ele>
        <time>2016-04-17T10:55:01Z</time>
      </trkpt>
      <trkpt lat="45.61792" lon="4.90169">
        <ele>202.3</ele>
        <time>2016-04-17T10:55:02Z</time>
      </trkpt>
      <trkpt lat="45.61794" lon="4.90157">
        <ele>202</ele>
        <time>2016-04-17T10:55:03Z</time>
      </trkpt>
      <trkpt lat="45.61795" lon="4.90145">
        <ele>202</ele>
        <time>2016-04-17T10:55:04Z</time>
      </trkpt>
      <trkpt lat="45.61797" lon="4.90133">
        <ele>202</ele>
        <time>2016-04-17T10:55:05Z</time>
      </trkpt>
      <trkpt lat="45.61799" lon="4.90122">
        <ele>202</ele>
        <time>2016-04-17T10:55:06Z</time>
      </trkpt>
      <trkpt lat="45.61802" lon="4.9011">
        <ele>202</ele>
        <time>2016-04-17T10:55:07Z</time>
      </trkpt>
      <trkpt lat="45.61804" lon="4.90098">
        <ele>202</ele>
        <time>2016-04-17T10:55:08Z</time>
      </trkpt>
      <trkpt lat="45.61806" lon="4.90086">
        <ele>202</ele>
        <time>2016-04-17T10:55:09Z</time>
      </trkpt>
      <trkpt lat="45.61808" lon="4.90074">
        <ele>202</ele>
        <time>2016-04-17T10:55:10Z</time>
      </trkpt>
      <trkpt lat="45.61809" lon="4.90062">
        <ele>202</ele>
        <time>2016-04-17T10:55:11Z</time>
      </trkpt>
      <trkpt lat="45.61811" lon="4.9005">
        <ele>202</ele>
        <time>2016-04-17T10:55:12Z</time>
      </trkpt>
      <trkpt lat="45.61812" lon="4.90038">
        <ele>201.4</ele>
        <time>2016-04-17T10:55:13Z</time>
      </trkpt>
      <trkpt lat="45.61813" lon="4.90025">
        <ele>201</ele>
        <time>2016-04-17T10:55:14Z</time>
      </trkpt>
      <trkpt lat="45.61813" lon="4.90013">
        <ele>201</ele>
        <time>2016-04-17T10:55:15Z</time>
      </trkpt>
      <trkpt lat="45.61813" lon="4.90001">
        <ele>201</ele>
        <time>2016-04-17T10:55:16Z</time>
      </trkpt>
      <trkpt lat="45.61813" lon="4.89988">
        <ele>201</ele>
        <time>2016-04-17T10:55:17Z</time>
      </trkpt>
      <trkpt lat="45.61813" lon="4.89976">
        <ele>201</ele>
        <time>2016-04-17T10:55:18Z</time>
      </trkpt>
      <trkpt lat="45.61813" lon="4.89963">
        <ele>201</ele>
        <time>2016-04-17T10:55:19Z</time>
      </trkpt>
      <trkpt lat="45.61813" lon="4.89951">
        <ele>201</ele>
        <time>2016-04-17T10:55:20Z</time>
      </trkpt>
      <trkpt lat="45.61813" lon="4.89939">
        <ele>201</ele>
        <time>2016-04-17T10:55:21Z</time>
      </trkpt>
      <trkpt lat="45.61813" lon="4.89926">
        <ele>201</ele>
        <time>2016-04-17T10:55:22Z</time>
      </trkpt>
      <trkpt lat="45.61813" lon="4.89914">
        <ele>201</ele>
        <time>2016-04-17T10:55:23Z</time>
      </trkpt>
      <trkpt lat="45.61813" lon="4.89902">
        <ele>201</ele>
        <time>2016-04-17T10:55:24Z</time>
      </trkpt>
      <trkpt lat="45.61813" lon="4.8989">
        <ele>201</ele>
        <time>2016-04-17T10:55:25Z</time>
      </trkpt>
      <trkpt lat="45.61813" lon="4.89878">
        <ele>201</ele>
        <time>2016-04-17T10:55:26Z</time>
      </trkpt>
      <trkpt lat="45.61812" lon="4.89867">
        <ele>201</ele>
        <time>2016-04-17T10:55:27Z</time>
      </trkpt>
      <trkpt lat="45.61812" lon="4.89855">
        <ele>201</ele>
        <time>2016-04-17T10:55:28Z</time>
      </trkpt>
      <trkpt lat="45.61812" lon="4.89843">
        <ele>201</ele>
        <time>2016-04-17T10:55:29Z</time>
      </trkpt>
      <trkpt lat="45.61812" lon="4.89831">
        <ele>201</ele>
        <time>2016-04-17T10:55:30Z</time>
      </trkpt>
      <trkpt lat="45.61811" lon="4.8982">
        <ele>201</ele>
        <time>2016-04-17T10:55:31Z</time>
      </trkpt>
      <trkpt lat="45.61811" lon="4.89808">
        <ele>201</ele>
        <time>2016-04-17T10:55:32Z</time>
      </trkpt>
      <trkpt lat="45.61811" lon="4.89796">
        <ele>201.7</ele>
        <time>2016-04-17T10:55:33Z</time>
      </trkpt>
      <trkpt lat="45.6181" lon="4.89784">
        <ele>202</ele>
        <time>2016-04-17T10:55:34Z</time>
      </trkpt>
      <trkpt lat="45.6181" lon="4.89772">
        <ele>202</ele>
        <time>2016-04-17T10:55:35Z</time>
      </trkpt>
      <trkpt lat="45.61809" lon="4.89759">
        <ele>202</ele>
        <time>2016-04-17T10:55:36Z</time>
      </trkpt>
      <trkpt lat="45.61809" lon="4.89747">
        <ele>202</ele>
        <time>2016-04-17T10:55:37Z</time>
      </trkpt>
      <trkpt lat="45.61809" lon="4.89735">
        <ele>202</ele>
        <time>2016-04-17T10:55:38Z</time>
      </trkpt>
      <trkpt lat="45.61808" lon="4.89723">
        <ele>202</ele>
        <time>2016-04-17T10:55:39Z</time>
      </trkpt>
      <trkpt lat="45.61808" lon="4.89711">
        <ele>202</ele>
        <time>2016-04-17T10:55:40Z</time>
      </trkpt>
      <trkpt lat="45.61808" lon="4.89699">
        <ele>202</ele>
        <time>2016-04-17T10:55:41Z</time>
      </trkpt>
      <trkpt lat="45.61808" lon="4.89686">
        <ele>202</ele>
        <time>2016-04-17T10:55:42Z</time>
      </trkpt>
      <trkpt lat="45.61809" lon="4.89674">
        <ele>200.6</ele>
        <time>2016-04-17T10:55:43Z</time>
      </trkpt>
      <trkpt lat="45.61809" lon="4.89662">
        <ele>200</ele>
        <time>2016-04-17T10:55:44Z</time>
      </trkpt>
      <trkpt lat="45.61808" lon="4.89649">
        <ele>200</ele>
        <time>2016-04-17T10:55:45Z</time>
      </trkpt>
      <trkpt lat="45.61807" lon="4.89637">
        <ele>200</ele>
        <time>2016-04-17T10:55:46Z</time>
      </trkpt>
      <trkpt lat="45.61803" lon="4.89612">
        <ele>200</ele>
        <time>2016-04-17T10:55:48Z</time>
      </trkpt>
      <trkpt lat="45.618" lon="4.89601">
        <ele>200</ele>
        <time>2016-04-17T10:55:49Z</time>
      </trkpt>
      <trkpt lat="45.61797" lon="4.89589">
        <ele>200</ele>
        <time>2016-04-17T10:55:50Z</time>
      </trkpt>
      <trkpt lat="45.61794" lon="4.89578">
        <ele>200</ele>
        <time>2016-04-17T10:55:51Z</time>
      </trkpt>
      <trkpt lat="45.6179" lon="4.89567">
        <ele>200</ele>
        <time>2016-04-17T10:55:52Z</time>
      </trkpt>
      <trkpt lat="45.61787" lon="4.89557">
        <ele>200</ele>
        <time>2016-04-17T10:55:53Z</time>
      </trkpt>
      <trkpt lat="45.61783" lon="4.89546">
        <ele>200</ele>
        <time>2016-04-17T10:55:54Z</time>
      </trkpt>
      <trkpt lat="45.61779" lon="4.89536">
        <ele>200</ele>
        <time>2016-04-17T10:55:55Z</time>
      </trkpt>
      <trkpt lat="45.61775" lon="4.89525">
        <ele>200</ele>
        <time>2016-04-17T10:55:56Z</time>
      </trkpt>
      <trkpt lat="45.61771" lon="4.89515">
        <ele>200.7</ele>
        <time>2016-04-17T10:55:57Z</time>
      </trkpt>
      <trkpt lat="45.61768" lon="4.89504">
        <ele>201</ele>
        <time>2016-04-17T10:55:58Z</time>
      </trkpt>
      <trkpt lat="45.61764" lon="4.89494">
        <ele>201</ele>
        <time>2016-04-17T10:55:59Z</time>
      </trkpt>
      <trkpt lat="45.6176" lon="4.89484">
        <ele>201</ele>
        <time>2016-04-17T10:56:00Z</time>
      </trkpt>
      <trkpt lat="45.61755" lon="4.89474">
        <ele>201</ele>
        <time>2016-04-17T10:56:01Z</time>
      </trkpt>
      <trkpt lat="45.61751" lon="4.89464">
        <ele>201.6</ele>
        <time>2016-04-17T10:56:02Z</time>
      </trkpt>
      <trkpt lat="45.61746" lon="4.89454">
        <ele>202</ele>
        <time>2016-04-17T10:56:03Z</time>
      </trkpt>
      <trkpt lat="45.61742" lon="4.89445">
        <ele>202</ele>
        <time>2016-04-17T10:56:04Z</time>
      </trkpt>
      <trkpt lat="45.61738" lon="4.89435">
        <ele>202</ele>
        <time>2016-04-17T10:56:05Z</time>
      </trkpt>
      <trkpt lat="45.61733" lon="4.89425">
        <ele>202</ele>
        <time>2016-04-17T10:56:06Z</time>
      </trkpt>
      <trkpt lat="45.61729" lon="4.89416">
        <ele>202</ele>
        <time>2016-04-17T10:56:07Z</time>
      </trkpt>
      <trkpt lat="45.61725" lon="4.89406">
        <ele>202</ele>
        <time>2016-04-17T10:56:08Z</time>
      </trkpt>
      <trkpt lat="45.61721" lon="4.89397">
        <ele>202</ele>
        <time>2016-04-17T10:56:09Z</time>
      </trkpt>
      <trkpt lat="45.61717" lon="4.89388">
        <ele>202</ele>
        <time>2016-04-17T10:56:10Z</time>
      </trkpt>
      <trkpt lat="45.61713" lon="4.89378">
        <ele>202</ele>
        <time>2016-04-17T10:56:11Z</time>
      </trkpt>
      <trkpt lat="45.61704" lon="4.89359">
        <ele>202</ele>
        <time>2016-04-17T10:56:13Z</time>
      </trkpt>
      <trkpt lat="45.617" lon="4.8935">
        <ele>202</ele>
        <time>2016-04-17T10:56:14Z</time>
      </trkpt>
      <trkpt lat="45.61696" lon="4.8934">
        <ele>202</ele>
        <time>2016-04-17T10:56:15Z</time>
      </trkpt>
      <trkpt lat="45.61692" lon="4.8933">
        <ele>202</ele>
        <time>2016-04-17T10:56:16Z</time>
      </trkpt>
      <trkpt lat="45.61688" lon="4.8932">
        <ele>202</ele>
        <time>2016-04-17T10:56:17Z</time>
      </trkpt>
      <trkpt lat="45.61684" lon="4.89309">
        <ele>202</ele>
        <time>2016-04-17T10:56:18Z</time>
      </trkpt>
      <trkpt lat="45.61681" lon="4.89299">
        <ele>202</ele>
        <time>2016-04-17T10:56:19Z</time>
      </trkpt>
      <trkpt lat="45.61677" lon="4.89288">
        <ele>202</ele>
        <time>2016-04-17T10:56:20Z</time>
      </trkpt>
      <trkpt lat="45.61674" lon="4.89276">
        <ele>202</ele>
        <time>2016-04-17T10:56:21Z</time>
      </trkpt>
      <trkpt lat="45.61671" lon="4.89265">
        <ele>202</ele>
        <time>2016-04-17T10:56:22Z</time>
      </trkpt>
      <trkpt lat="45.61667" lon="4.89254">
        <ele>201.4</ele>
        <time>2016-04-17T10:56:23Z</time>
      </trkpt>
      <trkpt lat="45.61664" lon="4.89243">
        <ele>201</ele>
        <time>2016-04-17T10:56:24Z</time>
      </trkpt>
      <trkpt lat="45.6166" lon="4.89232">
        <ele>201</ele>
        <time>2016-04-17T10:56:25Z</time>
      </trkpt>
      <trkpt lat="45.61656" lon="4.89221">
        <ele>201</ele>
        <time>2016-04-17T10:56:26Z</time>
      </trkpt>
      <trkpt lat="45.61652" lon="4.8921">
        <ele>201</ele>
        <time>2016-04-17T10:56:27Z</time>
      </trkpt>
      <trkpt lat="45.61648" lon="4.89199">
        <ele>201</ele>
        <time>2016-04-17T10:56:28Z</time>
      </trkpt>
      <trkpt lat="45.61644" lon="4.89188">
        <ele>201</ele>
        <time>2016-04-17T10:56:29Z</time>
      </trkpt>
      <trkpt lat="45.6164" lon="4.89177">
        <ele>201</ele>
        <time>2016-04-17T10:56:30Z</time>
      </trkpt>
      <trkpt lat="45.61631" lon="4.89156">
        <ele>201</ele>
        <time>2016-04-17T10:56:32Z</time>
      </trkpt>
      <trkpt lat="45.61627" lon="4.89145">
        <ele>200.3</ele>
        <time>2016-04-17T10:56:33Z</time>
      </trkpt>
      <trkpt lat="45.61622" lon="4.89135">
        <ele>200</ele>
        <time>2016-04-17T10:56:34Z</time>
      </trkpt>
      <trkpt lat="45.61618" lon="4.89124">
        <ele>200</ele>
        <time>2016-04-17T10:56:35Z</time>
      </trkpt>
      <trkpt lat="45.61613" lon="4.89114">
        <ele>200</ele>
        <time>2016-04-17T10:56:36Z</time>
      </trkpt>
      <trkpt lat="45.61608" lon="4.89105">
        <ele>200</ele>
        <time>2016-04-17T10:56:37Z</time>
      </trkpt>
      <trkpt lat="45.61603" lon="4.89095">
        <ele>200</ele>
        <time>2016-04-17T10:56:38Z</time>
      </trkpt>
      <trkpt lat="45.61598" lon="4.89087">
        <ele>200</ele>
        <time>2016-04-17T10:56:39Z</time>
      </trkpt>
      <trkpt lat="45.61593" lon="4.89078">
        <ele>200</ele>
        <time>2016-04-17T10:56:40Z</time>
      </trkpt>
      <trkpt lat="45.61588" lon="4.8907">
        <ele>200</ele>
        <time>2016-04-17T10:56:41Z</time>
      </trkpt>
      <trkpt lat="45.61583" lon="4.89062">
        <ele>200</ele>
        <time>2016-04-17T10:56:42Z</time>
      </trkpt>
      <trkpt lat="45.61577" lon="4.89054">
        <ele>200.7</ele>
        <time>2016-04-17T10:56:43Z</time>
      </trkpt>
      <trkpt lat="45.61572" lon="4.89046">
        <ele>201</ele>
        <time>2016-04-17T10:56:44Z</time>
      </trkpt>
      <trkpt lat="45.61567" lon="4.89038">
        <ele>201</ele>
        <time>2016-04-17T10:56:45Z</time>
      </trkpt>
      <trkpt lat="45.61562" lon="4.8903">
        <ele>201</ele>
        <time>2016-04-17T10:56:46Z</time>
      </trkpt>
      <trkpt lat="45.61557" lon="4.89022">
        <ele>201</ele>
        <time>2016-04-17T10:56:47Z</time>
      </trkpt>
      <trkpt lat="45.61552" lon="4.89014">
        <ele>201</ele>
        <time>2016-04-17T10:56:48Z</time>
      </trkpt>
      <trkpt lat="45.61547" lon="4.89006">
        <ele>201</ele>
        <time>2016-04-17T10:56:49Z</time>
      </trkpt>
      <trkpt lat="45.61542" lon="4.88999">
        <ele>201</ele>
        <time>2016-04-17T10:56:50Z</time>
      </trkpt>
      <trkpt lat="45.61537" lon="4.88991">
        <ele>201</ele>
        <time>2016-04-17T10:56:51Z</time>
      </trkpt>
      <trkpt lat="45.61532" lon="4.88984">
        <ele>201</ele>
        <time>2016-04-17T10:56:52Z</time>
      </trkpt>
      <trkpt lat="45.61527" lon="4.88976">
        <ele>202.2</ele>
        <time>2016-04-17T10:56:53Z</time>
      </trkpt>
      <trkpt lat="45.61523" lon="4.88969">
        <ele>203</ele>
        <time>2016-04-17T10:56:54Z</time>
      </trkpt>
      <trkpt lat="45.61518" lon="4.88961">
        <ele>203</ele>
        <time>2016-04-17T10:56:55Z</time>
      </trkpt>
      <trkpt lat="45.61513" lon="4.88954">
        <ele>203</ele>
        <time>2016-04-17T10:56:56Z</time>
      </trkpt>
      <trkpt lat="45.61509" lon="4.88947">
        <ele>203</ele>
        <time>2016-04-17T10:56:57Z</time>
      </trkpt>
      <trkpt lat="45.615" lon="4.88932">
        <ele>205</ele>
        <time>2016-04-17T10:56:59Z</time>
      </trkpt>
      <trkpt lat="45.61495" lon="4.88925">
        <ele>205</ele>
        <time>2016-04-17T10:57:00Z</time>
      </trkpt>
      <trkpt lat="45.61491" lon="4.88919">
        <ele>205</ele>
        <time>2016-04-17T10:57:01Z</time>
      </trkpt>
      <trkpt lat="45.61486" lon="4.88912">
        <ele>205</ele>
        <time>2016-04-17T10:57:02Z</time>
      </trkpt>
      <trkpt lat="45.61482" lon="4.88905">
        <ele>205</ele>
        <time>2016-04-17T10:57:03Z</time>
      </trkpt>
      <trkpt lat="45.61477" lon="4.88898">
        <ele>205</ele>
        <time>2016-04-17T10:57:04Z</time>
      </trkpt>
      <trkpt lat="45.61473" lon="4.88891">
        <ele>205</ele>
        <time>2016-04-17T10:57:05Z</time>
      </trkpt>
      <trkpt lat="45.61468" lon="4.88885">
        <ele>205</ele>
        <time>2016-04-17T10:57:06Z</time>
      </trkpt>
      <trkpt lat="45.61464" lon="4.88878">
        <ele>205</ele>
        <time>2016-04-17T10:57:07Z</time>
      </trkpt>
      <trkpt lat="45.6146" lon="4.88872">
        <ele>206.4</ele>
        <time>2016-04-17T10:57:08Z</time>
      </trkpt>
      <trkpt lat="45.61451" lon="4.88859">
        <ele>207</ele>
        <time>2016-04-17T10:57:10Z</time>
      </trkpt>
      <trkpt lat="45.61447" lon="4.88853">
        <ele>207</ele>
        <time>2016-04-17T10:57:11Z</time>
      </trkpt>
      <trkpt lat="45.61443" lon="4.88846">
        <ele>207.8</ele>
        <time>2016-04-17T10:57:12Z</time>
      </trkpt>
      <trkpt lat="45.6144" lon="4.88839">
        <ele>208</ele>
        <time>2016-04-17T10:57:13Z</time>
      </trkpt>
      <trkpt lat="45.61436" lon="4.88833">
        <ele>208</ele>
        <time>2016-04-17T10:57:14Z</time>
      </trkpt>
      <trkpt lat="45.61432" lon="4.88826">
        <ele>208</ele>
        <time>2016-04-17T10:57:15Z</time>
      </trkpt>
      <trkpt lat="45.61429" lon="4.88819">
        <ele>208</ele>
        <time>2016-04-17T10:57:16Z</time>
      </trkpt>
      <trkpt lat="45.61425" lon="4.88812">
        <ele>208</ele>
        <time>2016-04-17T10:57:17Z</time>
      </trkpt>
      <trkpt lat="45.61422" lon="4.88806">
        <ele>208.6</ele>
        <time>2016-04-17T10:57:18Z</time>
      </trkpt>
      <trkpt lat="45.61419" lon="4.88798">
        <ele>209</ele>
        <time>2016-04-17T10:57:19Z</time>
      </trkpt>
      <trkpt lat="45.61415" lon="4.88791">
        <ele>209</ele>
        <time>2016-04-17T10:57:20Z</time>
      </trkpt>
      <trkpt lat="45.61412" lon="4.88784">
        <ele>209</ele>
        <time>2016-04-17T10:57:21Z</time>
      </trkpt>
      <trkpt lat="45.61409" lon="4.88777">
        <ele>209</ele>
        <time>2016-04-17T10:57:22Z</time>
      </trkpt>
      <trkpt lat="45.61407" lon="4.88769">
        <ele>210.3</ele>
        <time>2016-04-17T10:57:23Z</time>
      </trkpt>
      <trkpt lat="45.61404" lon="4.88762">
        <ele>211</ele>
        <time>2016-04-17T10:57:24Z</time>
      </trkpt>
      <trkpt lat="45.61401" lon="4.88754">
        <ele>211</ele>
        <time>2016-04-17T10:57:25Z</time>
      </trkpt>
      <trkpt lat="45.61399" lon="4.88747">
        <ele>211</ele>
        <time>2016-04-17T10:57:26Z</time>
      </trkpt>
      <trkpt lat="45.61396" lon="4.88739">
        <ele>211</ele>
        <time>2016-04-17T10:57:27Z</time>
      </trkpt>
      <trkpt lat="45.61394" lon="4.88732">
        <ele>211.6</ele>
        <time>2016-04-17T10:57:28Z</time>
      </trkpt>
      <trkpt lat="45.6139" lon="4.88716">
        <ele>212</ele>
        <time>2016-04-17T10:57:30Z</time>
      </trkpt>
      <trkpt lat="45.61388" lon="4.88709">
        <ele>212</ele>
        <time>2016-04-17T10:57:31Z</time>
      </trkpt>
      <trkpt lat="45.61386" lon="4.88702">
        <ele>212</ele>
        <time>2016-04-17T10:57:32Z</time>
      </trkpt>
      <trkpt lat="45.61384" lon="4.88694">
        <ele>213.2</ele>
        <time>2016-04-17T10:57:33Z</time>
      </trkpt>
      <trkpt lat="45.61382" lon="4.88687">
        <ele>214</ele>
        <time>2016-04-17T10:57:34Z</time>
      </trkpt>
      <trkpt lat="45.61379" lon="4.8868">
        <ele>214</ele>
        <time>2016-04-17T10:57:35Z</time>
      </trkpt>
      <trkpt lat="45.61375" lon="4.88675">
        <ele>214</ele>
        <time>2016-04-17T10:57:36Z</time>
      </trkpt>
      <trkpt lat="45.61371" lon="4.88672">
        <ele>214</ele>
        <time>2016-04-17T10:57:37Z</time>
      </trkpt>
      <trkpt lat="45.61366" lon="4.88671">
        <ele>214.6</ele>
        <time>2016-04-17T10:57:38Z</time>
      </trkpt>
      <trkpt lat="45.61356" lon="4.88675">
        <ele>215</ele>
        <time>2016-04-17T10:57:40Z</time>
      </trkpt>
      <trkpt lat="45.61351" lon="4.88677">
        <ele>215</ele>
        <time>2016-04-17T10:57:41Z</time>
      </trkpt>
      <trkpt lat="45.61346" lon="4.8868">
        <ele>215</ele>
        <time>2016-04-17T10:57:42Z</time>
      </trkpt>
      <trkpt lat="45.61341" lon="4.88683">
        <ele>215</ele>
        <time>2016-04-17T10:57:43Z</time>
      </trkpt>
      <trkpt lat="45.61337" lon="4.88686">
        <ele>215</ele>
        <time>2016-04-17T10:57:44Z</time>
      </trkpt>
      <trkpt lat="45.61332" lon="4.88689">
        <ele>215</ele>
        <time>2016-04-17T10:57:45Z</time>
      </trkpt>
      <trkpt lat="45.61328" lon="4.88691">
        <ele>215</ele>
        <time>2016-04-17T10:57:46Z</time>
      </trkpt>
      <trkpt lat="45.6132" lon="4.88696">
        <ele>215.7</ele>
        <time>2016-04-17T10:57:48Z</time>
      </trkpt>
      <trkpt lat="45.61316" lon="4.88699">
        <ele>216</ele>
        <time>2016-04-17T10:57:49Z</time>
      </trkpt>
      <trkpt lat="45.61312" lon="4.88701">
        <ele>216</ele>
        <time>2016-04-17T10:57:50Z</time>
      </trkpt>
      <trkpt lat="45.61308" lon="4.88703">
        <ele>216</ele>
        <time>2016-04-17T10:57:51Z</time>
      </trkpt>
      <trkpt lat="45.61304" lon="4.88705">
        <ele>216</ele>
        <time>2016-04-17T10:57:52Z</time>
      </trkpt>
      <trkpt lat="45.61299" lon="4.88707">
        <ele>216</ele>
        <time>2016-04-17T10:57:53Z</time>
      </trkpt>
      <trkpt lat="45.61295" lon="4.88709">
        <ele>216</ele>
        <time>2016-04-17T10:57:54Z</time>
      </trkpt>
      <trkpt lat="45.61288" lon="4.88712">
        <ele>216</ele>
        <time>2016-04-17T10:57:56Z</time>
      </trkpt>
      <trkpt lat="45.61279" lon="4.88714">
        <ele>218.1</ele>
        <time>2016-04-17T10:57:58Z</time>
      </trkpt>
      <trkpt lat="45.61275" lon="4.88715">
        <ele>219</ele>
        <time>2016-04-17T10:57:59Z</time>
      </trkpt>
      <trkpt lat="45.61271" lon="4.88715">
        <ele>219</ele>
        <time>2016-04-17T10:58:00Z</time>
      </trkpt>
      <trkpt lat="45.61267" lon="4.88715">
        <ele>219.7</ele>
        <time>2016-04-17T10:58:01Z</time>
      </trkpt>
      <trkpt lat="45.61263" lon="4.88715">
        <ele>220</ele>
        <time>2016-04-17T10:58:02Z</time>
      </trkpt>
      <trkpt lat="45.61258" lon="4.88715">
        <ele>220</ele>
        <time>2016-04-17T10:58:03Z</time>
      </trkpt>
      <trkpt lat="45.61254" lon="4.88715">
        <ele>220</ele>
        <time>2016-04-17T10:58:04Z</time>
      </trkpt>
      <trkpt lat="45.6125" lon="4.88714">
        <ele>220</ele>
        <time>2016-04-17T10:58:05Z</time>
      </trkpt>
      <trkpt lat="45.61245" lon="4.88714">
        <ele>220</ele>
        <time>2016-04-17T10:58:06Z</time>
      </trkpt>
      <trkpt lat="45.61241" lon="4.88714">
        <ele>221.5</ele>
        <time>2016-04-17T10:58:07Z</time>
      </trkpt>
      <trkpt lat="45.61237" lon="4.88714">
        <ele>222</ele>
        <time>2016-04-17T10:58:08Z</time>
      </trkpt>
      <trkpt lat="45.61233" lon="4.88713">
        <ele>222</ele>
        <time>2016-04-17T10:58:09Z</time>
      </trkpt>
      <trkpt lat="45.61229" lon="4.88712">
        <ele>222</ele>
        <time>2016-04-17T10:58:10Z</time>
      </trkpt>
      <trkpt lat="45.61224" lon="4.88711">
        <ele>222</ele>
        <time>2016-04-17T10:58:11Z</time>
      </trkpt>
      <trkpt lat="45.6122" lon="4.8871">
        <ele>222.7</ele>
        <time>2016-04-17T10:58:12Z</time>
      </trkpt>
      <trkpt lat="45.61212" lon="4.88709">
        <ele>223</ele>
        <time>2016-04-17T10:58:14Z</time>
      </trkpt>
      <trkpt lat="45.61208" lon="4.88708">
        <ele>223</ele>
        <time>2016-04-17T10:58:15Z</time>
      </trkpt>
      <trkpt lat="45.61204" lon="4.88706">
        <ele>223</ele>
        <time>2016-04-17T10:58:16Z</time>
      </trkpt>
      <trkpt lat="45.612" lon="4.88705">
        <ele>223.7</ele>
        <time>2016-04-17T10:58:17Z</time>
      </trkpt>
      <trkpt lat="45.61196" lon="4.88704">
        <ele>224</ele>
        <time>2016-04-17T10:58:18Z</time>
      </trkpt>
      <trkpt lat="45.61192" lon="4.88703">
        <ele>224</ele>
        <time>2016-04-17T10:58:19Z</time>
      </trkpt>
      <trkpt lat="45.61188" lon="4.88702">
        <ele>224</ele>
        <time>2016-04-17T10:58:20Z</time>
      </trkpt>
      <trkpt lat="45.61185" lon="4.88701">
        <ele>224</ele>
        <time>2016-04-17T10:58:21Z</time>
      </trkpt>
      <trkpt lat="45.61177" lon="4.887">
        <ele>226</ele>
        <time>2016-04-17T10:58:23Z</time>
      </trkpt>
      <trkpt lat="45.61173" lon="4.88699">
        <ele>226</ele>
        <time>2016-04-17T10:58:24Z</time>
      </trkpt>
      <trkpt lat="45.61169" lon="4.88698">
        <ele>226</ele>
        <time>2016-04-17T10:58:25Z</time>
      </trkpt>
      <trkpt lat="45.61165" lon="4.88697">
        <ele>226</ele>
        <time>2016-04-17T10:58:26Z</time>
      </trkpt>
      <trkpt lat="45.61161" lon="4.88696">
        <ele>227.4</ele>
        <time>2016-04-17T10:58:27Z</time>
      </trkpt>
      <trkpt lat="45.61157" lon="4.88695">
        <ele>228</ele>
        <time>2016-04-17T10:58:28Z</time>
      </trkpt>
      <trkpt lat="45.61154" lon="4.88694">
        <ele>228</ele>
        <time>2016-04-17T10:58:29Z</time>
      </trkpt>
      <trkpt lat="45.61146" lon="4.88694">
        <ele>228.6</ele>
        <time>2016-04-17T10:58:31Z</time>
      </trkpt>
      <trkpt lat="45.61139" lon="4.88692">
        <ele>229</ele>
        <time>2016-04-17T10:58:33Z</time>
      </trkpt>
      <trkpt lat="45.61133" lon="4.88689">
        <ele>229</ele>
        <time>2016-04-17T10:58:35Z</time>
      </trkpt>
      <trkpt lat="45.61126" lon="4.88685">
        <ele>230.3</ele>
        <time>2016-04-17T10:58:37Z</time>
      </trkpt>
      <trkpt lat="45.6112" lon="4.88681">
        <ele>231.6</ele>
        <time>2016-04-17T10:58:39Z</time>
      </trkpt>
      <trkpt lat="45.61114" lon="4.88675">
        <ele>233</ele>
        <time>2016-04-17T10:58:41Z</time>
      </trkpt>
      <trkpt lat="45.61108" lon="4.88669">
        <ele>233</ele>
        <time>2016-04-17T10:58:43Z</time>
      </trkpt>
      <trkpt lat="45.61102" lon="4.88665">
        <ele>233.7</ele>
        <time>2016-04-17T10:58:45Z</time>
      </trkpt>
      <trkpt lat="45.61095" lon="4.88662">
        <ele>234</ele>
        <time>2016-04-17T10:58:47Z</time>
      </trkpt>
      <trkpt lat="45.61088" lon="4.8866">
        <ele>234</ele>
        <time>2016-04-17T10:58:49Z</time>
      </trkpt>
      <trkpt lat="45.61081" lon="4.88658">
        <ele>234</ele>
        <time>2016-04-17T10:58:51Z</time>
      </trkpt>
      <trkpt lat="45.61077" lon="4.88657">
        <ele>234</ele>
        <time>2016-04-17T10:58:52Z</time>
      </trkpt>
      <trkpt lat="45.61074" lon="4.88657">
        <ele>234.8</ele>
        <time>2016-04-17T10:58:53Z</time>
      </trkpt>
      <trkpt lat="45.6107" lon="4.88657">
        <ele>235</ele>
        <time>2016-04-17T10:58:54Z</time>
      </trkpt>
      <trkpt lat="45.61067" lon="4.88657">
        <ele>235</ele>
        <time>2016-04-17T10:58:55Z</time>
      </trkpt>
      <trkpt lat="45.61063" lon="4.88657">
        <ele>235</ele>
        <time>2016-04-17T10:58:56Z</time>
      </trkpt>
      <trkpt lat="45.6106" lon="4.88657">
        <ele>235</ele>
        <time>2016-04-17T10:58:57Z</time>
      </trkpt>
      <trkpt lat="45.61056" lon="4.88657">
        <ele>236.4</ele>
        <time>2016-04-17T10:58:58Z</time>
      </trkpt>
      <trkpt lat="45.61053" lon="4.88657">
        <ele>237</ele>
        <time>2016-04-17T10:58:59Z</time>
      </trkpt>
      <trkpt lat="45.61046" lon="4.88657">
        <ele>237</ele>
        <time>2016-04-17T10:59:01Z</time>
      </trkpt>
      <trkpt lat="45.61043" lon="4.88657">
        <ele>238.4</ele>
        <time>2016-04-17T10:59:02Z</time>
      </trkpt>
      <trkpt lat="45.61039" lon="4.88657">
        <ele>239</ele>
        <time>2016-04-17T10:59:03Z</time>
      </trkpt>
      <trkpt lat="45.61036" lon="4.88657">
        <ele>239</ele>
        <time>2016-04-17T10:59:04Z</time>
      </trkpt>
      <trkpt lat="45.61032" lon="4.88657">
        <ele>239</ele>
        <time>2016-04-17T10:59:05Z</time>
      </trkpt>
      <trkpt lat="45.61029" lon="4.88657">
        <ele>239</ele>
        <time>2016-04-17T10:59:06Z</time>
      </trkpt>
      <trkpt lat="45.61026" lon="4.88656">
        <ele>239</ele>
        <time>2016-04-17T10:59:07Z</time>
      </trkpt>
      <trkpt lat="45.61022" lon="4.88656">
        <ele>239.7</ele>
        <time>2016-04-17T10:59:08Z</time>
      </trkpt>
      <trkpt lat="45.61018" lon="4.88656">
        <ele>240</ele>
        <time>2016-04-17T10:59:09Z</time>
      </trkpt>
      <trkpt lat="45.61011" lon="4.88656">
        <ele>240</ele>
        <time>2016-04-17T10:59:11Z</time>
      </trkpt>
      <trkpt lat="45.61008" lon="4.88656">
        <ele>240</ele>
        <time>2016-04-17T10:59:12Z</time>
      </trkpt>
      <trkpt lat="45.61004" lon="4.88656">
        <ele>241.3</ele>
        <time>2016-04-17T10:59:13Z</time>
      </trkpt>
      <trkpt lat="45.61001" lon="4.88656">
        <ele>242</ele>
        <time>2016-04-17T10:59:14Z</time>
      </trkpt>
      <trkpt lat="45.60997" lon="4.88656">
        <ele>242</ele>
        <time>2016-04-17T10:59:15Z</time>
      </trkpt>
      <trkpt lat="45.60994" lon="4.88655">
        <ele>242</ele>
        <time>2016-04-17T10:59:16Z</time>
      </trkpt>
      <trkpt lat="45.6099" lon="4.88655">
        <ele>242</ele>
        <time>2016-04-17T10:59:17Z</time>
      </trkpt>
      <trkpt lat="45.60987" lon="4.88655">
        <ele>243.9</ele>
        <time>2016-04-17T10:59:18Z</time>
      </trkpt>
      <trkpt lat="45.60983" lon="4.88654">
        <ele>245</ele>
        <time>2016-04-17T10:59:19Z</time>
      </trkpt>
      <trkpt lat="45.6098" lon="4.88654">
        <ele>245</ele>
        <time>2016-04-17T10:59:20Z</time>
      </trkpt>
      <trkpt lat="45.60977" lon="4.88654">
        <ele>245</ele>
        <time>2016-04-17T10:59:21Z</time>
      </trkpt>
      <trkpt lat="45.60973" lon="4.88654">
        <ele>245.6</ele>
        <time>2016-04-17T10:59:22Z</time>
      </trkpt>
      <trkpt lat="45.6097" lon="4.88654">
        <ele>246</ele>
        <time>2016-04-17T10:59:23Z</time>
      </trkpt>
      <trkpt lat="45.60967" lon="4.88654">
        <ele>246</ele>
        <time>2016-04-17T10:59:24Z</time>
      </trkpt>
      <trkpt lat="45.6096" lon="4.88654">
        <ele>246</ele>
        <time>2016-04-17T10:59:26Z</time>
      </trkpt>
      <trkpt lat="45.60953" lon="4.88654">
        <ele>246.7</ele>
        <time>2016-04-17T10:59:28Z</time>
      </trkpt>
      <trkpt lat="45.60947" lon="4.88653">
        <ele>247</ele>
        <time>2016-04-17T10:59:30Z</time>
      </trkpt>
      <trkpt lat="45.60944" lon="4.88653">
        <ele>247</ele>
        <time>2016-04-17T10:59:31Z</time>
      </trkpt>
      <trkpt lat="45.60941" lon="4.88653">
        <ele>247</ele>
        <time>2016-04-17T10:59:32Z</time>
      </trkpt>
      <trkpt lat="45.60937" lon="4.88653">
        <ele>248.4</ele>
        <time>2016-04-17T10:59:33Z</time>
      </trkpt>
      <trkpt lat="45.60934" lon="4.88653">
        <ele>249</ele>
        <time>2016-04-17T10:59:34Z</time>
      </trkpt>
      <trkpt lat="45.60928" lon="4.88653">
        <ele>249</ele>
        <time>2016-04-17T10:59:36Z</time>
      </trkpt>
      <trkpt lat="45.60922" lon="4.88653">
        <ele>250.4</ele>
        <time>2016-04-17T10:59:38Z</time>
      </trkpt>
      <trkpt lat="45.60916" lon="4.88655">
        <ele>251</ele>
        <time>2016-04-17T10:59:40Z</time>
      </trkpt>
      <trkpt lat="45.60909" lon="4.88656">
        <ele>251</ele>
        <time>2016-04-17T10:59:42Z</time>
      </trkpt>
      <trkpt lat="45.60906" lon="4.88657">
        <ele>251.7</ele>
        <time>2016-04-17T10:59:43Z</time>
      </trkpt>
      <trkpt lat="45.609" lon="4.88658">
        <ele>252</ele>
        <time>2016-04-17T10:59:45Z</time>
      </trkpt>
      <trkpt lat="45.60894" lon="4.8866">
        <ele>252</ele>
        <time>2016-04-17T10:59:47Z</time>
      </trkpt>
      <trkpt lat="45.60888" lon="4.88661">
        <ele>253</ele>
        <time>2016-04-17T10:59:49Z</time>
      </trkpt>
      <trkpt lat="45.60882" lon="4.88662">
        <ele>253</ele>
        <time>2016-04-17T10:59:51Z</time>
      </trkpt>
      <trkpt lat="45.60876" lon="4.88664">
        <ele>254.4</ele>
        <time>2016-04-17T10:59:53Z</time>
      </trkpt>
      <trkpt lat="45.6087" lon="4.88666">
        <ele>255</ele>
        <time>2016-04-17T10:59:55Z</time>
      </trkpt>
      <trkpt lat="45.60864" lon="4.88668">
        <ele>255</ele>
        <time>2016-04-17T10:59:57Z</time>
      </trkpt>
      <trkpt lat="45.60858" lon="4.88669">
        <ele>257</ele>
        <time>2016-04-17T10:59:59Z</time>
      </trkpt>
      <trkpt lat="45.60852" lon="4.88671">
        <ele>257</ele>
        <time>2016-04-17T11:00:01Z</time>
      </trkpt>
      <trkpt lat="45.60843" lon="4.88673">
        <ele>258</ele>
        <time>2016-04-17T11:00:04Z</time>
      </trkpt>
      <trkpt lat="45.60837" lon="4.88675">
        <ele>258</ele>
        <time>2016-04-17T11:00:06Z</time>
      </trkpt>
      <trkpt lat="45.60832" lon="4.88676">
        <ele>258.7</ele>
        <time>2016-04-17T11:00:08Z</time>
      </trkpt>
      <trkpt lat="45.60826" lon="4.88678">
        <ele>259</ele>
        <time>2016-04-17T11:00:10Z</time>
      </trkpt>
      <trkpt lat="45.60821" lon="4.88681">
        <ele>259</ele>
        <time>2016-04-17T11:00:12Z</time>
      </trkpt>
      <trkpt lat="45.60816" lon="4.88682">
        <ele>262</ele>
        <time>2016-04-17T11:00:14Z</time>
      </trkpt>
      <trkpt lat="45.60811" lon="4.88683">
        <ele>262</ele>
        <time>2016-04-17T11:00:16Z</time>
      </trkpt>
      <trkpt lat="45.60805" lon="4.88685">
        <ele>263.4</ele>
        <time>2016-04-17T11:00:18Z</time>
      </trkpt>
      <trkpt lat="45.608" lon="4.88687">
        <ele>264</ele>
        <time>2016-04-17T11:00:20Z</time>
      </trkpt>
      <trkpt lat="45.60795" lon="4.88689">
        <ele>264</ele>
        <time>2016-04-17T11:00:22Z</time>
      </trkpt>
      <trkpt lat="45.6079" lon="4.8869">
        <ele>265</ele>
        <time>2016-04-17T11:00:24Z</time>
      </trkpt>
      <trkpt lat="45.60785" lon="4.88692">
        <ele>265</ele>
        <time>2016-04-17T11:00:26Z</time>
      </trkpt>
      <trkpt lat="45.6078" lon="4.88693">
        <ele>266.4</ele>
        <time>2016-04-17T11:00:28Z</time>
      </trkpt>
      <trkpt lat="45.60776" lon="4.88693">
        <ele>267</ele>
        <time>2016-04-17T11:00:30Z</time>
      </trkpt>
      <trkpt lat="45.6077" lon="4.88696">
        <ele>267</ele>
        <time>2016-04-17T11:00:32Z</time>
      </trkpt>
      <trkpt lat="45.60764" lon="4.88697">
        <ele>269</ele>
        <time>2016-04-17T11:00:35Z</time>
      </trkpt>
      <trkpt lat="45.60759" lon="4.88699">
        <ele>269</ele>
        <time>2016-04-17T11:00:37Z</time>
      </trkpt>
      <trkpt lat="45.60754" lon="4.88701">
        <ele>271</ele>
        <time>2016-04-17T11:00:39Z</time>
      </trkpt>
      <trkpt lat="45.60749" lon="4.88704">
        <ele>271</ele>
        <time>2016-04-17T11:00:41Z</time>
      </trkpt>
      <trkpt lat="45.60745" lon="4.88706">
        <ele>273.2</ele>
        <time>2016-04-17T11:00:43Z</time>
      </trkpt>
      <trkpt lat="45.6074" lon="4.88707">
        <ele>274</ele>
        <time>2016-04-17T11:00:45Z</time>
      </trkpt>
      <trkpt lat="45.60736" lon="4.88709">
        <ele>274</ele>
        <time>2016-04-17T11:00:47Z</time>
      </trkpt>
      <trkpt lat="45.60731" lon="4.88711">
        <ele>276</ele>
        <time>2016-04-17T11:00:49Z</time>
      </trkpt>
      <trkpt lat="45.60727" lon="4.88713">
        <ele>276</ele>
        <time>2016-04-17T11:00:51Z</time>
      </trkpt>
      <trkpt lat="45.60722" lon="4.88715">
        <ele>276.8</ele>
        <time>2016-04-17T11:00:53Z</time>
      </trkpt>
      <trkpt lat="45.60718" lon="4.88717">
        <ele>277</ele>
        <time>2016-04-17T11:00:55Z</time>
      </trkpt>
      <trkpt lat="45.60714" lon="4.88719">
        <ele>277</ele>
        <time>2016-04-17T11:00:57Z</time>
      </trkpt>
      <trkpt lat="45.6071" lon="4.88721">
        <ele>278</ele>
        <time>2016-04-17T11:00:59Z</time>
      </trkpt>
      <trkpt lat="45.60705" lon="4.88723">
        <ele>278</ele>
        <time>2016-04-17T11:01:01Z</time>
      </trkpt>
      <trkpt lat="45.60701" lon="4.88725">
        <ele>279</ele>
        <time>2016-04-17T11:01:03Z</time>
      </trkpt>
      <trkpt lat="45.60696" lon="4.88727">
        <ele>279</ele>
        <time>2016-04-17T11:01:05Z</time>
      </trkpt>
      <trkpt lat="45.60692" lon="4.88728">
        <ele>279</ele>
        <time>2016-04-17T11:01:07Z</time>
      </trkpt>
      <trkpt lat="45.60687" lon="4.8873">
        <ele>281</ele>
        <time>2016-04-17T11:01:09Z</time>
      </trkpt>
      <trkpt lat="45.60682" lon="4.88731">
        <ele>281</ele>
        <time>2016-04-17T11:01:11Z</time>
      </trkpt>
      <trkpt lat="45.60678" lon="4.88733">
        <ele>282.3</ele>
        <time>2016-04-17T11:01:13Z</time>
      </trkpt>
      <trkpt lat="45.60673" lon="4.88734">
        <ele>283</ele>
        <time>2016-04-17T11:01:15Z</time>
      </trkpt>
      <trkpt lat="45.60668" lon="4.88735">
        <ele>283.6</ele>
        <time>2016-04-17T11:01:17Z</time>
      </trkpt>
      <trkpt lat="45.60664" lon="4.88736">
        <ele>284</ele>
        <time>2016-04-17T11:01:19Z</time>
      </trkpt>
      <trkpt lat="45.60659" lon="4.88739">
        <ele>284</ele>
        <time>2016-04-17T11:01:21Z</time>
      </trkpt>
      <trkpt lat="45.60654" lon="4.8874">
        <ele>286.3</ele>
        <time>2016-04-17T11:01:23Z</time>
      </trkpt>
      <trkpt lat="45.6065" lon="4.88742">
        <ele>287.7</ele>
        <time>2016-04-17T11:01:25Z</time>
      </trkpt>
      <trkpt lat="45.60646" lon="4.88744">
        <ele>288</ele>
        <time>2016-04-17T11:01:27Z</time>
      </trkpt>
      <trkpt lat="45.60641" lon="4.88745">
        <ele>289</ele>
        <time>2016-04-17T11:01:29Z</time>
      </trkpt>
      <trkpt lat="45.60636" lon="4.88747">
        <ele>289</ele>
        <time>2016-04-17T11:01:31Z</time>
      </trkpt>
      <trkpt lat="45.60629" lon="4.88749">
        <ele>290</ele>
        <time>2016-04-17T11:01:35Z</time>
      </trkpt>
      <trkpt lat="45.60622" lon="4.88748">
        <ele>290</ele>
        <time>2016-04-17T11:01:38Z</time>
      </trkpt>
      <trkpt lat="45.60617" lon="4.88746">
        <ele>291.3</ele>
        <time>2016-04-17T11:01:40Z</time>
      </trkpt>
      <trkpt lat="45.6061" lon="4.88743">
        <ele>292</ele>
        <time>2016-04-17T11:01:43Z</time>
      </trkpt>
      <trkpt lat="45.60606" lon="4.8874">
        <ele>294</ele>
        <time>2016-04-17T11:01:45Z</time>
      </trkpt>
      <trkpt lat="45.60601" lon="4.88733">
        <ele>295</ele>
        <time>2016-04-17T11:01:48Z</time>
      </trkpt>
      <trkpt lat="45.60597" lon="4.88729">
        <ele>295.7</ele>
        <time>2016-04-17T11:01:50Z</time>
      </trkpt>
      <trkpt lat="45.60593" lon="4.88725">
        <ele>296</ele>
        <time>2016-04-17T11:01:52Z</time>
      </trkpt>
      <trkpt lat="45.6059" lon="4.8872">
        <ele>296</ele>
        <time>2016-04-17T11:01:54Z</time>
      </trkpt>
      <trkpt lat="45.60584" lon="4.88715">
        <ele>298</ele>
        <time>2016-04-17T11:01:57Z</time>
      </trkpt>
      <trkpt lat="45.60581" lon="4.88713">
        <ele>298</ele>
        <time>2016-04-17T11:01:59Z</time>
      </trkpt>
      <trkpt lat="45.60576" lon="4.88712">
        <ele>300</ele>
        <time>2016-04-17T11:02:01Z</time>
      </trkpt>
      <trkpt lat="45.60572" lon="4.8871">
        <ele>301</ele>
        <time>2016-04-17T11:02:03Z</time>
      </trkpt>
      <trkpt lat="45.60563" lon="4.88708">
        <ele>301</ele>
        <time>2016-04-17T11:02:07Z</time>
      </trkpt>
      <trkpt lat="45.60559" lon="4.88708">
        <ele>303</ele>
        <time>2016-04-17T11:02:09Z</time>
      </trkpt>
      <trkpt lat="45.60555" lon="4.88708">
        <ele>304</ele>
        <time>2016-04-17T11:02:11Z</time>
      </trkpt>
      <trkpt lat="45.60548" lon="4.88708">
        <ele>305</ele>
        <time>2016-04-17T11:02:14Z</time>
      </trkpt>
      <trkpt lat="45.60543" lon="4.88708">
        <ele>305.7</ele>
        <time>2016-04-17T11:02:16Z</time>
      </trkpt>
      <trkpt lat="45.60539" lon="4.88708">
        <ele>306.8</ele>
        <time>2016-04-17T11:02:18Z</time>
      </trkpt>
      <trkpt lat="45.60534" lon="4.88708">
        <ele>307</ele>
        <time>2016-04-17T11:02:20Z</time>
      </trkpt>
      <trkpt lat="45.6053" lon="4.88708">
        <ele>307</ele>
        <time>2016-04-17T11:02:22Z</time>
      </trkpt>
      <trkpt lat="45.60526" lon="4.88708">
        <ele>307.7</ele>
        <time>2016-04-17T11:02:24Z</time>
      </trkpt>
      <trkpt lat="45.60519" lon="4.88708">
        <ele>308</ele>
        <time>2016-04-17T11:02:27Z</time>
      </trkpt>
      <trkpt lat="45.60512" lon="4.88708">
        <ele>311</ele>
        <time>2016-04-17T11:02:30Z</time>
      </trkpt>
      <trkpt lat="45.60508" lon="4.88708">
        <ele>311</ele>
        <time>2016-04-17T11:02:32Z</time>
      </trkpt>
      <trkpt lat="45.60504" lon="4.88708">
        <ele>312.5</ele>
        <time>2016-04-17T11:02:34Z</time>
      </trkpt>
      <trkpt lat="45.605" lon="4.88707">
        <ele>313</ele>
        <time>2016-04-17T11:02:36Z</time>
      </trkpt>
      <trkpt lat="45.60496" lon="4.88707">
        <ele>313</ele>
        <time>2016-04-17T11:02:38Z</time>
      </trkpt>
      <trkpt lat="45.6049" lon="4.88705">
        <ele>313</ele>
        <time>2016-04-17T11:02:41Z</time>
      </trkpt>
      <trkpt lat="45.60482" lon="4.88703">
        <ele>315</ele>
        <time>2016-04-17T11:02:45Z</time>
      </trkpt>
      <trkpt lat="45.60475" lon="4.88699">
        <ele>315.7</ele>
        <time>2016-04-17T11:02:49Z</time>
      </trkpt>
      <trkpt lat="45.60471" lon="4.88693">
        <ele>316</ele>
        <time>2016-04-17T11:02:52Z</time>
      </trkpt>
      <trkpt lat="45.60469" lon="4.88688">
        <ele>316.7</ele>
        <time>2016-04-17T11:02:54Z</time>
      </trkpt>
      <trkpt lat="45.60468" lon="4.88682">
        <ele>317</ele>
        <time>2016-04-17T11:02:56Z</time>
      </trkpt>
      <trkpt lat="45.60468" lon="4.88674">
        <ele>317</ele>
        <time>2016-04-17T11:02:58Z</time>
      </trkpt>
      <trkpt lat="45.60469" lon="4.88663">
        <ele>317</ele>
        <time>2016-04-17T11:03:00Z</time>
      </trkpt>
      <trkpt lat="45.60469" lon="4.88648">
        <ele>315.2</ele>
        <time>2016-04-17T11:03:02Z</time>
      </trkpt>
      <trkpt lat="45.60468" lon="4.88629">
        <ele>314</ele>
        <time>2016-04-17T11:03:04Z</time>
      </trkpt>
      <trkpt lat="45.60466" lon="4.88618">
        <ele>314</ele>
        <time>2016-04-17T11:03:05Z</time>
      </trkpt>
      <trkpt lat="45.60465" lon="4.88606">
        <ele>314</ele>
        <time>2016-04-17T11:03:06Z</time>
      </trkpt>
      <trkpt lat="45.60463" lon="4.88594">
        <ele>314</ele>
        <time>2016-04-17T11:03:07Z</time>
      </trkpt>
      <trkpt lat="45.60461" lon="4.88583">
        <ele>314</ele>
        <time>2016-04-17T11:03:08Z</time>
      </trkpt>
      <trkpt lat="45.60458" lon="4.88571">
        <ele>314</ele>
        <time>2016-04-17T11:03:09Z</time>
      </trkpt>
      <trkpt lat="45.60455" lon="4.8856">
        <ele>314</ele>
        <time>2016-04-17T11:03:10Z</time>
      </trkpt>
      <trkpt lat="45.60451" lon="4.88549">
        <ele>314</ele>
        <time>2016-04-17T11:03:11Z</time>
      </trkpt>
      <trkpt lat="45.60447" lon="4.88539">
        <ele>314</ele>
        <time>2016-04-17T11:03:12Z</time>
      </trkpt>
      <trkpt lat="45.60444" lon="4.88528">
        <ele>312.2</ele>
        <time>2016-04-17T11:03:13Z</time>
      </trkpt>
      <trkpt lat="45.60441" lon="4.88516">
        <ele>311</ele>
        <time>2016-04-17T11:03:14Z</time>
      </trkpt>
      <trkpt lat="45.60438" lon="4.88505">
        <ele>308.2</ele>
        <time>2016-04-17T11:03:15Z</time>
      </trkpt>
      <trkpt lat="45.60436" lon="4.88494">
        <ele>307</ele>
        <time>2016-04-17T11:03:16Z</time>
      </trkpt>
      <trkpt lat="45.60434" lon="4.88482">
        <ele>307</ele>
        <time>2016-04-17T11:03:17Z</time>
      </trkpt>
      <trkpt lat="45.60432" lon="4.88471">
        <ele>307</ele>
        <time>2016-04-17T11:03:18Z</time>
      </trkpt>
      <trkpt lat="45.60431" lon="4.8846">
        <ele>307</ele>
        <time>2016-04-17T11:03:19Z</time>
      </trkpt>
      <trkpt lat="45.6043" lon="4.88448">
        <ele>307</ele>
        <time>2016-04-17T11:03:20Z</time>
      </trkpt>
      <trkpt lat="45.60429" lon="4.88436">
        <ele>306.4</ele>
        <time>2016-04-17T11:03:21Z</time>
      </trkpt>
      <trkpt lat="45.60428" lon="4.88423">
        <ele>306</ele>
        <time>2016-04-17T11:03:22Z</time>
      </trkpt>
      <trkpt lat="45.60427" lon="4.8841">
        <ele>304.7</ele>
        <time>2016-04-17T11:03:23Z</time>
      </trkpt>
      <trkpt lat="45.60426" lon="4.88398">
        <ele>304</ele>
        <time>2016-04-17T11:03:24Z</time>
      </trkpt>
      <trkpt lat="45.60425" lon="4.88384">
        <ele>303.4</ele>
        <time>2016-04-17T11:03:25Z</time>
      </trkpt>
      <trkpt lat="45.60425" lon="4.88371">
        <ele>303</ele>
        <time>2016-04-17T11:03:26Z</time>
      </trkpt>
      <trkpt lat="45.60424" lon="4.88358">
        <ele>303</ele>
        <time>2016-04-17T11:03:27Z</time>
      </trkpt>
      <trkpt lat="45.60423" lon="4.88346">
        <ele>303</ele>
        <time>2016-04-17T11:03:28Z</time>
      </trkpt>
      <trkpt lat="45.60423" lon="4.88333">
        <ele>303</ele>
        <time>2016-04-17T11:03:29Z</time>
      </trkpt>
      <trkpt lat="45.60423" lon="4.88321">
        <ele>303</ele>
        <time>2016-04-17T11:03:30Z</time>
      </trkpt>
      <trkpt lat="45.60422" lon="4.88309">
        <ele>302.4</ele>
        <time>2016-04-17T11:03:31Z</time>
      </trkpt>
      <trkpt lat="45.60422" lon="4.88297">
        <ele>302</ele>
        <time>2016-04-17T11:03:32Z</time>
      </trkpt>
      <trkpt lat="45.60422" lon="4.88286">
        <ele>303.2</ele>
        <time>2016-04-17T11:03:33Z</time>
      </trkpt>
      <trkpt lat="45.60422" lon="4.88275">
        <ele>304</ele>
        <time>2016-04-17T11:03:34Z</time>
      </trkpt>
      <trkpt lat="45.60422" lon="4.88264">
        <ele>304</ele>
        <time>2016-04-17T11:03:35Z</time>
      </trkpt>
      <trkpt lat="45.60422" lon="4.88254">
        <ele>304</ele>
        <time>2016-04-17T11:03:36Z</time>
      </trkpt>
      <trkpt lat="45.60422" lon="4.88244">
        <ele>304</ele>
        <time>2016-04-17T11:03:37Z</time>
      </trkpt>
      <trkpt lat="45.60422" lon="4.88234">
        <ele>304</ele>
        <time>2016-04-17T11:03:38Z</time>
      </trkpt>
      <trkpt lat="45.60423" lon="4.88225">
        <ele>304</ele>
        <time>2016-04-17T11:03:39Z</time>
      </trkpt>
      <trkpt lat="45.60424" lon="4.88215">
        <ele>304</ele>
        <time>2016-04-17T11:03:40Z</time>
      </trkpt>
      <trkpt lat="45.60426" lon="4.88206">
        <ele>304</ele>
        <time>2016-04-17T11:03:41Z</time>
      </trkpt>
      <trkpt lat="45.60427" lon="4.88197">
        <ele>304</ele>
        <time>2016-04-17T11:03:42Z</time>
      </trkpt>
      <trkpt lat="45.60429" lon="4.88188">
        <ele>304</ele>
        <time>2016-04-17T11:03:43Z</time>
      </trkpt>
      <trkpt lat="45.6043" lon="4.88179">
        <ele>305.7</ele>
        <time>2016-04-17T11:03:44Z</time>
      </trkpt>
      <trkpt lat="45.60432" lon="4.8817">
        <ele>307</ele>
        <time>2016-04-17T11:03:45Z</time>
      </trkpt>
      <trkpt lat="45.60433" lon="4.88161">
        <ele>307</ele>
        <time>2016-04-17T11:03:46Z</time>
      </trkpt>
      <trkpt lat="45.60436" lon="4.88144">
        <ele>307</ele>
        <time>2016-04-17T11:03:48Z</time>
      </trkpt>
      <trkpt lat="45.60437" lon="4.88136">
        <ele>307.8</ele>
        <time>2016-04-17T11:03:49Z</time>
      </trkpt>
      <trkpt lat="45.60438" lon="4.88127">
        <ele>308</ele>
        <time>2016-04-17T11:03:50Z</time>
      </trkpt>
      <trkpt lat="45.60439" lon="4.88119">
        <ele>308</ele>
        <time>2016-04-17T11:03:51Z</time>
      </trkpt>
      <trkpt lat="45.60441" lon="4.88112">
        <ele>308</ele>
        <time>2016-04-17T11:03:52Z</time>
      </trkpt>
      <trkpt lat="45.60442" lon="4.88104">
        <ele>308</ele>
        <time>2016-04-17T11:03:53Z</time>
      </trkpt>
      <trkpt lat="45.60443" lon="4.88096">
        <ele>307.2</ele>
        <time>2016-04-17T11:03:54Z</time>
      </trkpt>
      <trkpt lat="45.60445" lon="4.88089">
        <ele>307</ele>
        <time>2016-04-17T11:03:55Z</time>
      </trkpt>
      <trkpt lat="45.60449" lon="4.88082">
        <ele>307</ele>
        <time>2016-04-17T11:03:56Z</time>
      </trkpt>
      <trkpt lat="45.60461" lon="4.88073">
        <ele>307</ele>
        <time>2016-04-17T11:03:58Z</time>
      </trkpt>
      <trkpt lat="45.60469" lon="4.88068">
        <ele>307</ele>
        <time>2016-04-17T11:03:59Z</time>
      </trkpt>
      <trkpt lat="45.60476" lon="4.88063">
        <ele>307</ele>
        <time>2016-04-17T11:04:00Z</time>
      </trkpt>
      <trkpt lat="45.60484" lon="4.88057">
        <ele>307</ele>
        <time>2016-04-17T11:04:01Z</time>
      </trkpt>
      <trkpt lat="45.60493" lon="4.88051">
        <ele>301.2</ele>
        <time>2016-04-17T11:04:02Z</time>
      </trkpt>
      <trkpt lat="45.60502" lon="4.88045">
        <ele>298</ele>
        <time>2016-04-17T11:04:03Z</time>
      </trkpt>
      <trkpt lat="45.60511" lon="4.88039">
        <ele>298</ele>
        <time>2016-04-17T11:04:04Z</time>
      </trkpt>
      <trkpt lat="45.60521" lon="4.88033">
        <ele>298</ele>
        <time>2016-04-17T11:04:05Z</time>
      </trkpt>
      <trkpt lat="45.6053" lon="4.88027">
        <ele>298</ele>
        <time>2016-04-17T11:04:06Z</time>
      </trkpt>
      <trkpt lat="45.6054" lon="4.8802">
        <ele>298</ele>
        <time>2016-04-17T11:04:07Z</time>
      </trkpt>
      <trkpt lat="45.6055" lon="4.88014">
        <ele>298</ele>
        <time>2016-04-17T11:04:08Z</time>
      </trkpt>
      <trkpt lat="45.60567" lon="4.88002">
        <ele>298</ele>
        <time>2016-04-17T11:04:10Z</time>
      </trkpt>
      <trkpt lat="45.60574" lon="4.87996">
        <ele>298</ele>
        <time>2016-04-17T11:04:11Z</time>
      </trkpt>
      <trkpt lat="45.60579" lon="4.87989">
        <ele>298</ele>
        <time>2016-04-17T11:04:12Z</time>
      </trkpt>
      <trkpt lat="45.60582" lon="4.87979">
        <ele>290.1</ele>
        <time>2016-04-17T11:04:13Z</time>
      </trkpt>
      <trkpt lat="45.60582" lon="4.87958">
        <ele>283.3</ele>
        <time>2016-04-17T11:04:15Z</time>
      </trkpt>
      <trkpt lat="45.60582" lon="4.87947">
        <ele>282</ele>
        <time>2016-04-17T11:04:16Z</time>
      </trkpt>
      <trkpt lat="45.60582" lon="4.87935">
        <ele>282.6</ele>
        <time>2016-04-17T11:04:17Z</time>
      </trkpt>
      <trkpt lat="45.60582" lon="4.87923">
        <ele>283</ele>
        <time>2016-04-17T11:04:18Z</time>
      </trkpt>
      <trkpt lat="45.60583" lon="4.8791">
        <ele>282.4</ele>
        <time>2016-04-17T11:04:19Z</time>
      </trkpt>
      <trkpt lat="45.60584" lon="4.87898">
        <ele>282</ele>
        <time>2016-04-17T11:04:20Z</time>
      </trkpt>
      <trkpt lat="45.60588" lon="4.87887">
        <ele>281.4</ele>
        <time>2016-04-17T11:04:21Z</time>
      </trkpt>
      <trkpt lat="45.60593" lon="4.87876">
        <ele>281</ele>
        <time>2016-04-17T11:04:22Z</time>
      </trkpt>
      <trkpt lat="45.606" lon="4.87866">
        <ele>278.4</ele>
        <time>2016-04-17T11:04:23Z</time>
      </trkpt>
      <trkpt lat="45.60607" lon="4.87855">
        <ele>277</ele>
        <time>2016-04-17T11:04:24Z</time>
      </trkpt>
      <trkpt lat="45.60614" lon="4.87844">
        <ele>274.9</ele>
        <time>2016-04-17T11:04:25Z</time>
      </trkpt>
      <trkpt lat="45.60621" lon="4.87834">
        <ele>274</ele>
        <time>2016-04-17T11:04:26Z</time>
      </trkpt>
      <trkpt lat="45.6063" lon="4.87826">
        <ele>271.1</ele>
        <time>2016-04-17T11:04:27Z</time>
      </trkpt>
      <trkpt lat="45.60639" lon="4.87818">
        <ele>270</ele>
        <time>2016-04-17T11:04:28Z</time>
      </trkpt>
      <trkpt lat="45.60648" lon="4.8781">
        <ele>268.5</ele>
        <time>2016-04-17T11:04:29Z</time>
      </trkpt>
      <trkpt lat="45.60658" lon="4.87803">
        <ele>268</ele>
        <time>2016-04-17T11:04:30Z</time>
      </trkpt>
      <trkpt lat="45.60667" lon="4.87796">
        <ele>265.1</ele>
        <time>2016-04-17T11:04:31Z</time>
      </trkpt>
      <trkpt lat="45.60677" lon="4.87788">
        <ele>264</ele>
        <time>2016-04-17T11:04:32Z</time>
      </trkpt>
      <trkpt lat="45.60686" lon="4.87781">
        <ele>261.1</ele>
        <time>2016-04-17T11:04:33Z</time>
      </trkpt>
      <trkpt lat="45.60696" lon="4.87774">
        <ele>260</ele>
        <time>2016-04-17T11:04:34Z</time>
      </trkpt>
      <trkpt lat="45.60705" lon="4.87768">
        <ele>257.7</ele>
        <time>2016-04-17T11:04:35Z</time>
      </trkpt>
      <trkpt lat="45.60713" lon="4.87762">
        <ele>257</ele>
        <time>2016-04-17T11:04:36Z</time>
      </trkpt>
      <trkpt lat="45.60721" lon="4.87756">
        <ele>254.9</ele>
        <time>2016-04-17T11:04:37Z</time>
      </trkpt>
      <trkpt lat="45.60734" lon="4.87731">
        <ele>252</ele>
        <time>2016-04-17T11:04:40Z</time>
      </trkpt>
      <trkpt lat="45.60736" lon="4.87707">
        <ele>252</ele>
        <time>2016-04-17T11:04:42Z</time>
      </trkpt>
      <trkpt lat="45.60736" lon="4.87694">
        <ele>250.4</ele>
        <time>2016-04-17T11:04:43Z</time>
      </trkpt>
      <trkpt lat="45.60735" lon="4.87681">
        <ele>250</ele>
        <time>2016-04-17T11:04:44Z</time>
      </trkpt>
      <trkpt lat="45.60735" lon="4.87668">
        <ele>247.7</ele>
        <time>2016-04-17T11:04:45Z</time>
      </trkpt>
      <trkpt lat="45.60734" lon="4.87656">
        <ele>247</ele>
        <time>2016-04-17T11:04:46Z</time>
      </trkpt>
      <trkpt lat="45.60734" lon="4.87643">
        <ele>245.8</ele>
        <time>2016-04-17T11:04:47Z</time>
      </trkpt>
      <trkpt lat="45.6074" lon="4.87619">
        <ele>243.8</ele>
        <time>2016-04-17T11:04:49Z</time>
      </trkpt>
      <trkpt lat="45.60747" lon="4.87611">
        <ele>243</ele>
        <time>2016-04-17T11:04:50Z</time>
      </trkpt>
      <trkpt lat="45.60754" lon="4.87604">
        <ele>241.2</ele>
        <time>2016-04-17T11:04:51Z</time>
      </trkpt>
      <trkpt lat="45.60763" lon="4.87598">
        <ele>240</ele>
        <time>2016-04-17T11:04:52Z</time>
      </trkpt>
      <trkpt lat="45.60772" lon="4.87592">
        <ele>240</ele>
        <time>2016-04-17T11:04:53Z</time>
      </trkpt>
      <trkpt lat="45.6078" lon="4.87586">
        <ele>240</ele>
        <time>2016-04-17T11:04:54Z</time>
      </trkpt>
      <trkpt lat="45.60789" lon="4.8758">
        <ele>239.4</ele>
        <time>2016-04-17T11:04:55Z</time>
      </trkpt>
      <trkpt lat="45.60798" lon="4.87575">
        <ele>239</ele>
        <time>2016-04-17T11:04:56Z</time>
      </trkpt>
      <trkpt lat="45.60807" lon="4.87569">
        <ele>239</ele>
        <time>2016-04-17T11:04:57Z</time>
      </trkpt>
      <trkpt lat="45.60815" lon="4.87564">
        <ele>239</ele>
        <time>2016-04-17T11:04:58Z</time>
      </trkpt>
      <trkpt lat="45.60824" lon="4.87558">
        <ele>238.4</ele>
        <time>2016-04-17T11:04:59Z</time>
      </trkpt>
      <trkpt lat="45.60833" lon="4.87552">
        <ele>238</ele>
        <time>2016-04-17T11:05:00Z</time>
      </trkpt>
      <trkpt lat="45.60842" lon="4.87546">
        <ele>235.6</ele>
        <time>2016-04-17T11:05:01Z</time>
      </trkpt>
      <trkpt lat="45.60852" lon="4.87541">
        <ele>234</ele>
        <time>2016-04-17T11:05:02Z</time>
      </trkpt>
      <trkpt lat="45.60862" lon="4.87535">
        <ele>234</ele>
        <time>2016-04-17T11:05:03Z</time>
      </trkpt>
      <trkpt lat="45.60872" lon="4.87529">
        <ele>234</ele>
        <time>2016-04-17T11:05:04Z</time>
      </trkpt>
      <trkpt lat="45.60883" lon="4.87523">
        <ele>232.8</ele>
        <time>2016-04-17T11:05:05Z</time>
      </trkpt>
      <trkpt lat="45.60893" lon="4.87517">
        <ele>232</ele>
        <time>2016-04-17T11:05:06Z</time>
      </trkpt>
      <trkpt lat="45.60904" lon="4.87511">
        <ele>230.8</ele>
        <time>2016-04-17T11:05:07Z</time>
      </trkpt>
      <trkpt lat="45.60914" lon="4.87505">
        <ele>230</ele>
        <time>2016-04-17T11:05:08Z</time>
      </trkpt>
      <trkpt lat="45.60925" lon="4.87499">
        <ele>229.4</ele>
        <time>2016-04-17T11:05:09Z</time>
      </trkpt>
      <trkpt lat="45.60936" lon="4.87496">
        <ele>229</ele>
        <time>2016-04-17T11:05:10Z</time>
      </trkpt>
      <trkpt lat="45.60947" lon="4.87494">
        <ele>228.4</ele>
        <time>2016-04-17T11:05:11Z</time>
      </trkpt>
      <trkpt lat="45.60957" lon="4.87492">
        <ele>228</ele>
        <time>2016-04-17T11:05:12Z</time>
      </trkpt>
      <trkpt lat="45.60967" lon="4.87489">
        <ele>227.4</ele>
        <time>2016-04-17T11:05:13Z</time>
      </trkpt>
      <trkpt lat="45.60977" lon="4.87484">
        <ele>227</ele>
        <time>2016-04-17T11:05:14Z</time>
      </trkpt>
      <trkpt lat="45.60987" lon="4.87478">
        <ele>226.4</ele>
        <time>2016-04-17T11:05:15Z</time>
      </trkpt>
      <trkpt lat="45.60995" lon="4.87471">
        <ele>226</ele>
        <time>2016-04-17T11:05:16Z</time>
      </trkpt>
      <trkpt lat="45.61004" lon="4.87462">
        <ele>225.4</ele>
        <time>2016-04-17T11:05:17Z</time>
      </trkpt>
      <trkpt lat="45.61011" lon="4.87453">
        <ele>225</ele>
        <time>2016-04-17T11:05:18Z</time>
      </trkpt>
      <trkpt lat="45.61019" lon="4.87444">
        <ele>223.2</ele>
        <time>2016-04-17T11:05:19Z</time>
      </trkpt>
      <trkpt lat="45.61026" lon="4.87434">
        <ele>222</ele>
        <time>2016-04-17T11:05:20Z</time>
      </trkpt>
      <trkpt lat="45.61032" lon="4.87424">
        <ele>222</ele>
        <time>2016-04-17T11:05:21Z</time>
      </trkpt>
      <trkpt lat="45.61039" lon="4.87414">
        <ele>222</ele>
        <time>2016-04-17T11:05:22Z</time>
      </trkpt>
      <trkpt lat="45.61046" lon="4.87404">
        <ele>222</ele>
        <time>2016-04-17T11:05:23Z</time>
      </trkpt>
      <trkpt lat="45.61052" lon="4.87394">
        <ele>222</ele>
        <time>2016-04-17T11:05:24Z</time>
      </trkpt>
      <trkpt lat="45.61059" lon="4.87385">
        <ele>222</ele>
        <time>2016-04-17T11:05:25Z</time>
      </trkpt>
      <trkpt lat="45.61066" lon="4.87376">
        <ele>222</ele>
        <time>2016-04-17T11:05:26Z</time>
      </trkpt>
      <trkpt lat="45.61073" lon="4.87368">
        <ele>222</ele>
        <time>2016-04-17T11:05:27Z</time>
      </trkpt>
      <trkpt lat="45.61079" lon="4.87361">
        <ele>222</ele>
        <time>2016-04-17T11:05:28Z</time>
      </trkpt>
      <trkpt lat="45.61086" lon="4.87355">
        <ele>221.2</ele>
        <time>2016-04-17T11:05:29Z</time>
      </trkpt>
      <trkpt lat="45.61091" lon="4.87351">
        <ele>221</ele>
        <time>2016-04-17T11:05:30Z</time>
      </trkpt>
      <trkpt lat="45.61096" lon="4.87348">
        <ele>221</ele>
        <time>2016-04-17T11:05:31Z</time>
      </trkpt>
      <trkpt lat="45.61099" lon="4.87347">
        <ele>221</ele>
        <time>2016-04-17T11:05:32Z</time>
      </trkpt>
      <trkpt lat="45.61103" lon="4.87343">
        <ele>221</ele>
        <time>2016-04-17T11:05:34Z</time>
      </trkpt>
      <trkpt lat="45.61105" lon="4.8734">
        <ele>221</ele>
        <time>2016-04-17T11:05:35Z</time>
      </trkpt>
      <trkpt lat="45.61106" lon="4.87335">
        <ele>221</ele>
        <time>2016-04-17T11:05:36Z</time>
      </trkpt>
      <trkpt lat="45.61104" lon="4.87322">
        <ele>221</ele>
        <time>2016-04-17T11:05:38Z</time>
      </trkpt>
      <trkpt lat="45.61102" lon="4.87314">
        <ele>221</ele>
        <time>2016-04-17T11:05:39Z</time>
      </trkpt>
      <trkpt lat="45.61099" lon="4.87307">
        <ele>221</ele>
        <time>2016-04-17T11:05:40Z</time>
      </trkpt>
      <trkpt lat="45.61096" lon="4.87298">
        <ele>221</ele>
        <time>2016-04-17T11:05:41Z</time>
      </trkpt>
      <trkpt lat="45.61092" lon="4.8729">
        <ele>221</ele>
        <time>2016-04-17T11:05:42Z</time>
      </trkpt>
      <trkpt lat="45.61089" lon="4.87281">
        <ele>221</ele>
        <time>2016-04-17T11:05:43Z</time>
      </trkpt>
      <trkpt lat="45.61085" lon="4.87273">
        <ele>220.3</ele>
        <time>2016-04-17T11:05:44Z</time>
      </trkpt>
      <trkpt lat="45.61081" lon="4.87263">
        <ele>220</ele>
        <time>2016-04-17T11:05:45Z</time>
      </trkpt>
      <trkpt lat="45.61077" lon="4.87254">
        <ele>220</ele>
        <time>2016-04-17T11:05:46Z</time>
      </trkpt>
      <trkpt lat="45.61073" lon="4.87245">
        <ele>220</ele>
        <time>2016-04-17T11:05:47Z</time>
      </trkpt>
      <trkpt lat="45.61069" lon="4.87235">
        <ele>220</ele>
        <time>2016-04-17T11:05:48Z</time>
      </trkpt>
      <trkpt lat="45.61065" lon="4.87226">
        <ele>220</ele>
        <time>2016-04-17T11:05:49Z</time>
      </trkpt>
      <trkpt lat="45.6106" lon="4.87216">
        <ele>220</ele>
        <time>2016-04-17T11:05:50Z</time>
      </trkpt>
      <trkpt lat="45.61051" lon="4.87198">
        <ele>220</ele>
        <time>2016-04-17T11:05:52Z</time>
      </trkpt>
      <trkpt lat="45.61046" lon="4.87189">
        <ele>220</ele>
        <time>2016-04-17T11:05:53Z</time>
      </trkpt>
      <trkpt lat="45.61041" lon="4.8718">
        <ele>220</ele>
        <time>2016-04-17T11:05:54Z</time>
      </trkpt>
      <trkpt lat="45.61035" lon="4.87172">
        <ele>220</ele>
        <time>2016-04-17T11:05:55Z</time>
      </trkpt>
      <trkpt lat="45.61029" lon="4.87164">
        <ele>220</ele>
        <time>2016-04-17T11:05:56Z</time>
      </trkpt>
      <trkpt lat="45.61022" lon="4.87156">
        <ele>220</ele>
        <time>2016-04-17T11:05:57Z</time>
      </trkpt>
      <trkpt lat="45.61016" lon="4.87148">
        <ele>220</ele>
        <time>2016-04-17T11:05:58Z</time>
      </trkpt>
      <trkpt lat="45.61009" lon="4.87141">
        <ele>220</ele>
        <time>2016-04-17T11:05:59Z</time>
      </trkpt>
      <trkpt lat="45.61001" lon="4.87135">
        <ele>220</ele>
        <time>2016-04-17T11:06:00Z</time>
      </trkpt>
      <trkpt lat="45.60994" lon="4.87129">
        <ele>220</ele>
        <time>2016-04-17T11:06:01Z</time>
      </trkpt>
      <trkpt lat="45.60986" lon="4.87124">
        <ele>219.3</ele>
        <time>2016-04-17T11:06:02Z</time>
      </trkpt>
      <trkpt lat="45.60978" lon="4.8712">
        <ele>219</ele>
        <time>2016-04-17T11:06:03Z</time>
      </trkpt>
      <trkpt lat="45.6097" lon="4.87117">
        <ele>219</ele>
        <time>2016-04-17T11:06:04Z</time>
      </trkpt>
      <trkpt lat="45.60962" lon="4.87113">
        <ele>219</ele>
        <time>2016-04-17T11:06:05Z</time>
      </trkpt>
      <trkpt lat="45.60954" lon="4.87109">
        <ele>219</ele>
        <time>2016-04-17T11:06:06Z</time>
      </trkpt>
      <trkpt lat="45.60946" lon="4.87106">
        <ele>219</ele>
        <time>2016-04-17T11:06:07Z</time>
      </trkpt>
      <trkpt lat="45.60939" lon="4.87103">
        <ele>219</ele>
        <time>2016-04-17T11:06:08Z</time>
      </trkpt>
      <trkpt lat="45.60923" lon="4.87096">
        <ele>219</ele>
        <time>2016-04-17T11:06:10Z</time>
      </trkpt>
      <trkpt lat="45.60916" lon="4.87092">
        <ele>219</ele>
        <time>2016-04-17T11:06:11Z</time>
      </trkpt>
      <trkpt lat="45.60908" lon="4.87088">
        <ele>220.6</ele>
        <time>2016-04-17T11:06:12Z</time>
      </trkpt>
      <trkpt lat="45.60901" lon="4.87084">
        <ele>221</ele>
        <time>2016-04-17T11:06:13Z</time>
      </trkpt>
      <trkpt lat="45.60894" lon="4.87078">
        <ele>221</ele>
        <time>2016-04-17T11:06:14Z</time>
      </trkpt>
      <trkpt lat="45.60887" lon="4.87072">
        <ele>221</ele>
        <time>2016-04-17T11:06:15Z</time>
      </trkpt>
      <trkpt lat="45.60881" lon="4.87066">
        <ele>221</ele>
        <time>2016-04-17T11:06:16Z</time>
      </trkpt>
      <trkpt lat="45.60875" lon="4.87058">
        <ele>221</ele>
        <time>2016-04-17T11:06:17Z</time>
      </trkpt>
      <trkpt lat="45.6087" lon="4.87049">
        <ele>221</ele>
        <time>2016-04-17T11:06:18Z</time>
      </trkpt>
      <trkpt lat="45.60865" lon="4.8704">
        <ele>221</ele>
        <time>2016-04-17T11:06:19Z</time>
      </trkpt>
      <trkpt lat="45.60861" lon="4.87029">
        <ele>221</ele>
        <time>2016-04-17T11:06:20Z</time>
      </trkpt>
      <trkpt lat="45.60858" lon="4.87018">
        <ele>221</ele>
        <time>2016-04-17T11:06:21Z</time>
      </trkpt>
      <trkpt lat="45.60855" lon="4.87007">
        <ele>221</ele>
        <time>2016-04-17T11:06:22Z</time>
      </trkpt>
      <trkpt lat="45.60853" lon="4.86995">
        <ele>221</ele>
        <time>2016-04-17T11:06:23Z</time>
      </trkpt>
      <trkpt lat="45.60851" lon="4.86983">
        <ele>221</ele>
        <time>2016-04-17T11:06:24Z</time>
      </trkpt>
      <trkpt lat="45.60848" lon="4.86971">
        <ele>221</ele>
        <time>2016-04-17T11:06:25Z</time>
      </trkpt>
      <trkpt lat="45.60846" lon="4.8696">
        <ele>221</ele>
        <time>2016-04-17T11:06:26Z</time>
      </trkpt>
      <trkpt lat="45.60844" lon="4.86949">
        <ele>221</ele>
        <time>2016-04-17T11:06:27Z</time>
      </trkpt>
      <trkpt lat="45.60842" lon="4.86937">
        <ele>221</ele>
        <time>2016-04-17T11:06:28Z</time>
      </trkpt>
      <trkpt lat="45.6084" lon="4.86926">
        <ele>221</ele>
        <time>2016-04-17T11:06:29Z</time>
      </trkpt>
      <trkpt lat="45.60838" lon="4.86915">
        <ele>221</ele>
        <time>2016-04-17T11:06:30Z</time>
      </trkpt>
      <trkpt lat="45.60836" lon="4.86904">
        <ele>221</ele>
        <time>2016-04-17T11:06:31Z</time>
      </trkpt>
      <trkpt lat="45.60834" lon="4.86894">
        <ele>221</ele>
        <time>2016-04-17T11:06:32Z</time>
      </trkpt>
      <trkpt lat="45.60832" lon="4.86883">
        <ele>221</ele>
        <time>2016-04-17T11:06:33Z</time>
      </trkpt>
      <trkpt lat="45.6083" lon="4.86872">
        <ele>221</ele>
        <time>2016-04-17T11:06:34Z</time>
      </trkpt>
      <trkpt lat="45.60828" lon="4.86862">
        <ele>221</ele>
        <time>2016-04-17T11:06:35Z</time>
      </trkpt>
      <trkpt lat="45.60827" lon="4.86851">
        <ele>221</ele>
        <time>2016-04-17T11:06:36Z</time>
      </trkpt>
      <trkpt lat="45.60825" lon="4.86841">
        <ele>221</ele>
        <time>2016-04-17T11:06:37Z</time>
      </trkpt>
      <trkpt lat="45.60823" lon="4.8683">
        <ele>221</ele>
        <time>2016-04-17T11:06:38Z</time>
      </trkpt>
      <trkpt lat="45.60822" lon="4.8682">
        <ele>221</ele>
        <time>2016-04-17T11:06:39Z</time>
      </trkpt>
      <trkpt lat="45.60821" lon="4.8681">
        <ele>221</ele>
        <time>2016-04-17T11:06:40Z</time>
      </trkpt>
      <trkpt lat="45.6082" lon="4.86799">
        <ele>221</ele>
        <time>2016-04-17T11:06:41Z</time>
      </trkpt>
      <trkpt lat="45.60819" lon="4.86789">
        <ele>222.6</ele>
        <time>2016-04-17T11:06:42Z</time>
      </trkpt>
      <trkpt lat="45.60818" lon="4.86779">
        <ele>223</ele>
        <time>2016-04-17T11:06:43Z</time>
      </trkpt>
      <trkpt lat="45.60817" lon="4.86769">
        <ele>223</ele>
        <time>2016-04-17T11:06:44Z</time>
      </trkpt>
      <trkpt lat="45.60817" lon="4.86759">
        <ele>223</ele>
        <time>2016-04-17T11:06:45Z</time>
      </trkpt>
      <trkpt lat="45.60816" lon="4.86749">
        <ele>223</ele>
        <time>2016-04-17T11:06:46Z</time>
      </trkpt>
      <trkpt lat="45.60816" lon="4.86739">
        <ele>223.8</ele>
        <time>2016-04-17T11:06:47Z</time>
      </trkpt>
      <trkpt lat="45.60815" lon="4.86729">
        <ele>224</ele>
        <time>2016-04-17T11:06:48Z</time>
      </trkpt>
      <trkpt lat="45.60815" lon="4.86718">
        <ele>224</ele>
        <time>2016-04-17T11:06:49Z</time>
      </trkpt>
      <trkpt lat="45.60814" lon="4.86708">
        <ele>224</ele>
        <time>2016-04-17T11:06:50Z</time>
      </trkpt>
      <trkpt lat="45.60814" lon="4.86698">
        <ele>224</ele>
        <time>2016-04-17T11:06:51Z</time>
      </trkpt>
      <trkpt lat="45.60813" lon="4.86688">
        <ele>224</ele>
        <time>2016-04-17T11:06:52Z</time>
      </trkpt>
      <trkpt lat="45.60812" lon="4.86678">
        <ele>224</ele>
        <time>2016-04-17T11:06:53Z</time>
      </trkpt>
      <trkpt lat="45.60812" lon="4.86668">
        <ele>224</ele>
        <time>2016-04-17T11:06:54Z</time>
      </trkpt>
      <trkpt lat="45.60811" lon="4.86658">
        <ele>224</ele>
        <time>2016-04-17T11:06:55Z</time>
      </trkpt>
      <trkpt lat="45.6081" lon="4.86648">
        <ele>224</ele>
        <time>2016-04-17T11:06:56Z</time>
      </trkpt>
      <trkpt lat="45.6081" lon="4.86638">
        <ele>224</ele>
        <time>2016-04-17T11:06:57Z</time>
      </trkpt>
      <trkpt lat="45.60809" lon="4.86629">
        <ele>224</ele>
        <time>2016-04-17T11:06:58Z</time>
      </trkpt>
      <trkpt lat="45.60809" lon="4.86619">
        <ele>224</ele>
        <time>2016-04-17T11:06:59Z</time>
      </trkpt>
      <trkpt lat="45.60808" lon="4.86609">
        <ele>224</ele>
        <time>2016-04-17T11:07:00Z</time>
      </trkpt>
      <trkpt lat="45.60808" lon="4.86599">
        <ele>224.8</ele>
        <time>2016-04-17T11:07:01Z</time>
      </trkpt>
      <trkpt lat="45.60807" lon="4.8659">
        <ele>225</ele>
        <time>2016-04-17T11:07:02Z</time>
      </trkpt>
      <trkpt lat="45.60807" lon="4.8658">
        <ele>225</ele>
        <time>2016-04-17T11:07:03Z</time>
      </trkpt>
      <trkpt lat="45.60806" lon="4.8657">
        <ele>225</ele>
        <time>2016-04-17T11:07:04Z</time>
      </trkpt>
      <trkpt lat="45.60806" lon="4.8656">
        <ele>225</ele>
        <time>2016-04-17T11:07:05Z</time>
      </trkpt>
      <trkpt lat="45.60806" lon="4.86551">
        <ele>225</ele>
        <time>2016-04-17T11:07:06Z</time>
      </trkpt>
      <trkpt lat="45.60805" lon="4.86541">
        <ele>225</ele>
        <time>2016-04-17T11:07:07Z</time>
      </trkpt>
      <trkpt lat="45.60805" lon="4.86531">
        <ele>225</ele>
        <time>2016-04-17T11:07:08Z</time>
      </trkpt>
      <trkpt lat="45.60805" lon="4.86522">
        <ele>225</ele>
        <time>2016-04-17T11:07:09Z</time>
      </trkpt>
      <trkpt lat="45.60804" lon="4.86512">
        <ele>225</ele>
        <time>2016-04-17T11:07:10Z</time>
      </trkpt>
      <trkpt lat="45.60804" lon="4.86502">
        <ele>225.8</ele>
        <time>2016-04-17T11:07:11Z</time>
      </trkpt>
      <trkpt lat="45.60803" lon="4.86493">
        <ele>226</ele>
        <time>2016-04-17T11:07:12Z</time>
      </trkpt>
      <trkpt lat="45.60803" lon="4.86483">
        <ele>226</ele>
        <time>2016-04-17T11:07:13Z</time>
      </trkpt>
      <trkpt lat="45.60803" lon="4.86473">
        <ele>226</ele>
        <time>2016-04-17T11:07:14Z</time>
      </trkpt>
      <trkpt lat="45.60802" lon="4.86463">
        <ele>226</ele>
        <time>2016-04-17T11:07:15Z</time>
      </trkpt>
      <trkpt lat="45.60802" lon="4.86454">
        <ele>226</ele>
        <time>2016-04-17T11:07:16Z</time>
      </trkpt>
      <trkpt lat="45.60802" lon="4.86444">
        <ele>226</ele>
        <time>2016-04-17T11:07:17Z</time>
      </trkpt>
      <trkpt lat="45.60801" lon="4.86434">
        <ele>226</ele>
        <time>2016-04-17T11:07:18Z</time>
      </trkpt>
      <trkpt lat="45.60801" lon="4.86424">
        <ele>226</ele>
        <time>2016-04-17T11:07:19Z</time>
      </trkpt>
      <trkpt lat="45.608" lon="4.86414">
        <ele>226</ele>
        <time>2016-04-17T11:07:20Z</time>
      </trkpt>
      <trkpt lat="45.608" lon="4.86405">
        <ele>226.8</ele>
        <time>2016-04-17T11:07:21Z</time>
      </trkpt>
      <trkpt lat="45.60799" lon="4.86385">
        <ele>227</ele>
        <time>2016-04-17T11:07:23Z</time>
      </trkpt>
      <trkpt lat="45.60799" lon="4.86375">
        <ele>227</ele>
        <time>2016-04-17T11:07:24Z</time>
      </trkpt>
      <trkpt lat="45.60799" lon="4.86366">
        <ele>227</ele>
        <time>2016-04-17T11:07:25Z</time>
      </trkpt>
      <trkpt lat="45.60799" lon="4.86356">
        <ele>227</ele>
        <time>2016-04-17T11:07:26Z</time>
      </trkpt>
      <trkpt lat="45.60798" lon="4.86346">
        <ele>227</ele>
        <time>2016-04-17T11:07:27Z</time>
      </trkpt>
      <trkpt lat="45.60798" lon="4.86337">
        <ele>227</ele>
        <time>2016-04-17T11:07:28Z</time>
      </trkpt>
      <trkpt lat="45.60798" lon="4.86327">
        <ele>227</ele>
        <time>2016-04-17T11:07:29Z</time>
      </trkpt>
      <trkpt lat="45.60798" lon="4.86317">
        <ele>227</ele>
        <time>2016-04-17T11:07:30Z</time>
      </trkpt>
      <trkpt lat="45.60798" lon="4.86308">
        <ele>227.8</ele>
        <time>2016-04-17T11:07:31Z</time>
      </trkpt>
      <trkpt lat="45.60798" lon="4.86298">
        <ele>228</ele>
        <time>2016-04-17T11:07:32Z</time>
      </trkpt>
      <trkpt lat="45.60798" lon="4.86288">
        <ele>228</ele>
        <time>2016-04-17T11:07:33Z</time>
      </trkpt>
      <trkpt lat="45.60798" lon="4.86279">
        <ele>228</ele>
        <time>2016-04-17T11:07:34Z</time>
      </trkpt>
      <trkpt lat="45.60798" lon="4.86269">
        <ele>228</ele>
        <time>2016-04-17T11:07:35Z</time>
      </trkpt>
      <trkpt lat="45.60798" lon="4.86259">
        <ele>228</ele>
        <time>2016-04-17T11:07:36Z</time>
      </trkpt>
      <trkpt lat="45.60798" lon="4.8625">
        <ele>228</ele>
        <time>2016-04-17T11:07:37Z</time>
      </trkpt>
      <trkpt lat="45.60799" lon="4.8624">
        <ele>228</ele>
        <time>2016-04-17T11:07:38Z</time>
      </trkpt>
      <trkpt lat="45.60799" lon="4.8623">
        <ele>228</ele>
        <time>2016-04-17T11:07:39Z</time>
      </trkpt>
      <trkpt lat="45.60799" lon="4.86221">
        <ele>228</ele>
        <time>2016-04-17T11:07:40Z</time>
      </trkpt>
      <trkpt lat="45.60799" lon="4.86211">
        <ele>228.8</ele>
        <time>2016-04-17T11:07:41Z</time>
      </trkpt>
      <trkpt lat="45.60799" lon="4.86201">
        <ele>229</ele>
        <time>2016-04-17T11:07:42Z</time>
      </trkpt>
      <trkpt lat="45.60799" lon="4.86191">
        <ele>229</ele>
        <time>2016-04-17T11:07:43Z</time>
      </trkpt>
      <trkpt lat="45.608" lon="4.86181">
        <ele>229</ele>
        <time>2016-04-17T11:07:44Z</time>
      </trkpt>
      <trkpt lat="45.608" lon="4.86171">
        <ele>229</ele>
        <time>2016-04-17T11:07:45Z</time>
      </trkpt>
      <trkpt lat="45.608" lon="4.86161">
        <ele>229</ele>
        <time>2016-04-17T11:07:46Z</time>
      </trkpt>
      <trkpt lat="45.60799" lon="4.8615">
        <ele>229</ele>
        <time>2016-04-17T11:07:47Z</time>
      </trkpt>
      <trkpt lat="45.60798" lon="4.8614">
        <ele>229</ele>
        <time>2016-04-17T11:07:48Z</time>
      </trkpt>
      <trkpt lat="45.60797" lon="4.86129">
        <ele>229</ele>
        <time>2016-04-17T11:07:49Z</time>
      </trkpt>
      <trkpt lat="45.60796" lon="4.86118">
        <ele>229</ele>
        <time>2016-04-17T11:07:50Z</time>
      </trkpt>
      <trkpt lat="45.60794" lon="4.86108">
        <ele>229</ele>
        <time>2016-04-17T11:07:51Z</time>
      </trkpt>
      <trkpt lat="45.60792" lon="4.86097">
        <ele>229</ele>
        <time>2016-04-17T11:07:52Z</time>
      </trkpt>
      <trkpt lat="45.60789" lon="4.86086">
        <ele>229</ele>
        <time>2016-04-17T11:07:53Z</time>
      </trkpt>
      <trkpt lat="45.60786" lon="4.86075">
        <ele>229</ele>
        <time>2016-04-17T11:07:54Z</time>
      </trkpt>
      <trkpt lat="45.60782" lon="4.86064">
        <ele>229</ele>
        <time>2016-04-17T11:07:55Z</time>
      </trkpt>
      <trkpt lat="45.60778" lon="4.86053">
        <ele>229</ele>
        <time>2016-04-17T11:07:56Z</time>
      </trkpt>
      <trkpt lat="45.60773" lon="4.86043">
        <ele>229</ele>
        <time>2016-04-17T11:07:57Z</time>
      </trkpt>
      <trkpt lat="45.60768" lon="4.86032">
        <ele>229</ele>
        <time>2016-04-17T11:07:58Z</time>
      </trkpt>
      <trkpt lat="45.60762" lon="4.86022">
        <ele>229</ele>
        <time>2016-04-17T11:07:59Z</time>
      </trkpt>
      <trkpt lat="45.60756" lon="4.86012">
        <ele>229</ele>
        <time>2016-04-17T11:08:00Z</time>
      </trkpt>
      <trkpt lat="45.6075" lon="4.86002">
        <ele>226.6</ele>
        <time>2016-04-17T11:08:01Z</time>
      </trkpt>
      <trkpt lat="45.60743" lon="4.85993">
        <ele>226</ele>
        <time>2016-04-17T11:08:02Z</time>
      </trkpt>
      <trkpt lat="45.60736" lon="4.85983">
        <ele>226</ele>
        <time>2016-04-17T11:08:03Z</time>
      </trkpt>
      <trkpt lat="45.60729" lon="4.85973">
        <ele>226</ele>
        <time>2016-04-17T11:08:04Z</time>
      </trkpt>
      <trkpt lat="45.60722" lon="4.85963">
        <ele>226</ele>
        <time>2016-04-17T11:08:05Z</time>
      </trkpt>
      <trkpt lat="45.60716" lon="4.85953">
        <ele>225.2</ele>
        <time>2016-04-17T11:08:06Z</time>
      </trkpt>
      <trkpt lat="45.60709" lon="4.85942">
        <ele>225</ele>
        <time>2016-04-17T11:08:07Z</time>
      </trkpt>
      <trkpt lat="45.60703" lon="4.85932">
        <ele>225</ele>
        <time>2016-04-17T11:08:08Z</time>
      </trkpt>
      <trkpt lat="45.60697" lon="4.8592">
        <ele>225</ele>
        <time>2016-04-17T11:08:09Z</time>
      </trkpt>
      <trkpt lat="45.60692" lon="4.85908">
        <ele>225</ele>
        <time>2016-04-17T11:08:10Z</time>
      </trkpt>
      <trkpt lat="45.60687" lon="4.85896">
        <ele>221.8</ele>
        <time>2016-04-17T11:08:11Z</time>
      </trkpt>
      <trkpt lat="45.60682" lon="4.85884">
        <ele>221</ele>
        <time>2016-04-17T11:08:12Z</time>
      </trkpt>
      <trkpt lat="45.60679" lon="4.85871">
        <ele>221</ele>
        <time>2016-04-17T11:08:13Z</time>
      </trkpt>
      <trkpt lat="45.60675" lon="4.85858">
        <ele>221</ele>
        <time>2016-04-17T11:08:14Z</time>
      </trkpt>
      <trkpt lat="45.60673" lon="4.85845">
        <ele>221</ele>
        <time>2016-04-17T11:08:15Z</time>
      </trkpt>
      <trkpt lat="45.6067" lon="4.85831">
        <ele>219.4</ele>
        <time>2016-04-17T11:08:16Z</time>
      </trkpt>
      <trkpt lat="45.60668" lon="4.85818">
        <ele>219</ele>
        <time>2016-04-17T11:08:17Z</time>
      </trkpt>
      <trkpt lat="45.60666" lon="4.85804">
        <ele>219</ele>
        <time>2016-04-17T11:08:18Z</time>
      </trkpt>
      <trkpt lat="45.60664" lon="4.85791">
        <ele>219</ele>
        <time>2016-04-17T11:08:19Z</time>
      </trkpt>
      <trkpt lat="45.60662" lon="4.85778">
        <ele>219</ele>
        <time>2016-04-17T11:08:20Z</time>
      </trkpt>
      <trkpt lat="45.6066" lon="4.85765">
        <ele>218.2</ele>
        <time>2016-04-17T11:08:21Z</time>
      </trkpt>
      <trkpt lat="45.60659" lon="4.85753">
        <ele>218</ele>
        <time>2016-04-17T11:08:22Z</time>
      </trkpt>
      <trkpt lat="45.60657" lon="4.8574">
        <ele>218</ele>
        <time>2016-04-17T11:08:23Z</time>
      </trkpt>
      <trkpt lat="45.60655" lon="4.85727">
        <ele>218</ele>
        <time>2016-04-17T11:08:24Z</time>
      </trkpt>
      <trkpt lat="45.60653" lon="4.85714">
        <ele>218</ele>
        <time>2016-04-17T11:08:25Z</time>
      </trkpt>
      <trkpt lat="45.60652" lon="4.85702">
        <ele>218.8</ele>
        <time>2016-04-17T11:08:26Z</time>
      </trkpt>
      <trkpt lat="45.6065" lon="4.85689">
        <ele>219</ele>
        <time>2016-04-17T11:08:27Z</time>
      </trkpt>
      <trkpt lat="45.60648" lon="4.85677">
        <ele>219</ele>
        <time>2016-04-17T11:08:28Z</time>
      </trkpt>
      <trkpt lat="45.60646" lon="4.85665">
        <ele>219</ele>
        <time>2016-04-17T11:08:29Z</time>
      </trkpt>
      <trkpt lat="45.60644" lon="4.85653">
        <ele>219</ele>
        <time>2016-04-17T11:08:30Z</time>
      </trkpt>
      <trkpt lat="45.60643" lon="4.85641">
        <ele>219</ele>
        <time>2016-04-17T11:08:31Z</time>
      </trkpt>
      <trkpt lat="45.60641" lon="4.85629">
        <ele>219</ele>
        <time>2016-04-17T11:08:32Z</time>
      </trkpt>
      <trkpt lat="45.60639" lon="4.85617">
        <ele>219</ele>
        <time>2016-04-17T11:08:33Z</time>
      </trkpt>
      <trkpt lat="45.60637" lon="4.85605">
        <ele>219</ele>
        <time>2016-04-17T11:08:34Z</time>
      </trkpt>
      <trkpt lat="45.60635" lon="4.85593">
        <ele>219</ele>
        <time>2016-04-17T11:08:35Z</time>
      </trkpt>
      <trkpt lat="45.60633" lon="4.85581">
        <ele>219</ele>
        <time>2016-04-17T11:08:36Z</time>
      </trkpt>
      <trkpt lat="45.60631" lon="4.85569">
        <ele>219</ele>
        <time>2016-04-17T11:08:37Z</time>
      </trkpt>
      <trkpt lat="45.60629" lon="4.85557">
        <ele>219</ele>
        <time>2016-04-17T11:08:38Z</time>
      </trkpt>
      <trkpt lat="45.60627" lon="4.85546">
        <ele>219</ele>
        <time>2016-04-17T11:08:39Z</time>
      </trkpt>
      <trkpt lat="45.60625" lon="4.85534">
        <ele>219</ele>
        <time>2016-04-17T11:08:40Z</time>
      </trkpt>
      <trkpt lat="45.60624" lon="4.85523">
        <ele>219</ele>
        <time>2016-04-17T11:08:41Z</time>
      </trkpt>
      <trkpt lat="45.60622" lon="4.85511">
        <ele>219</ele>
        <time>2016-04-17T11:08:42Z</time>
      </trkpt>
      <trkpt lat="45.6062" lon="4.855">
        <ele>219</ele>
        <time>2016-04-17T11:08:43Z</time>
      </trkpt>
      <trkpt lat="45.60618" lon="4.85488">
        <ele>219</ele>
        <time>2016-04-17T11:08:44Z</time>
      </trkpt>
      <trkpt lat="45.60617" lon="4.85477">
        <ele>219</ele>
        <time>2016-04-17T11:08:45Z</time>
      </trkpt>
      <trkpt lat="45.60615" lon="4.85466">
        <ele>219</ele>
        <time>2016-04-17T11:08:46Z</time>
      </trkpt>
      <trkpt lat="45.60613" lon="4.85455">
        <ele>219</ele>
        <time>2016-04-17T11:08:47Z</time>
      </trkpt>
      <trkpt lat="45.60611" lon="4.85444">
        <ele>219</ele>
        <time>2016-04-17T11:08:48Z</time>
      </trkpt>
      <trkpt lat="45.6061" lon="4.85433">
        <ele>219</ele>
        <time>2016-04-17T11:08:49Z</time>
      </trkpt>
      <trkpt lat="45.60608" lon="4.85423">
        <ele>219</ele>
        <time>2016-04-17T11:08:50Z</time>
      </trkpt>
      <trkpt lat="45.60605" lon="4.85413">
        <ele>219</ele>
        <time>2016-04-17T11:08:51Z</time>
      </trkpt>
      <trkpt lat="45.60603" lon="4.85404">
        <ele>219</ele>
        <time>2016-04-17T11:08:52Z</time>
      </trkpt>
      <trkpt lat="45.60599" lon="4.85396">
        <ele>219</ele>
        <time>2016-04-17T11:08:53Z</time>
      </trkpt>
      <trkpt lat="45.60596" lon="4.85387">
        <ele>219</ele>
        <time>2016-04-17T11:08:54Z</time>
      </trkpt>
      <trkpt lat="45.60593" lon="4.85379">
        <ele>219</ele>
        <time>2016-04-17T11:08:55Z</time>
      </trkpt>
      <trkpt lat="45.60591" lon="4.8537">
        <ele>219</ele>
        <time>2016-04-17T11:08:56Z</time>
      </trkpt>
      <trkpt lat="45.60589" lon="4.85361">
        <ele>219</ele>
        <time>2016-04-17T11:08:57Z</time>
      </trkpt>
      <trkpt lat="45.60589" lon="4.85352">
        <ele>219</ele>
        <time>2016-04-17T11:08:58Z</time>
      </trkpt>
      <trkpt lat="45.60589" lon="4.85343">
        <ele>219</ele>
        <time>2016-04-17T11:08:59Z</time>
      </trkpt>
      <trkpt lat="45.60589" lon="4.85334">
        <ele>219</ele>
        <time>2016-04-17T11:09:00Z</time>
      </trkpt>
      <trkpt lat="45.60587" lon="4.85325">
        <ele>220.6</ele>
        <time>2016-04-17T11:09:01Z</time>
      </trkpt>
      <trkpt lat="45.60585" lon="4.85316">
        <ele>221</ele>
        <time>2016-04-17T11:09:02Z</time>
      </trkpt>
      <trkpt lat="45.60581" lon="4.85307">
        <ele>221</ele>
        <time>2016-04-17T11:09:03Z</time>
      </trkpt>
      <trkpt lat="45.60578" lon="4.85298">
        <ele>221</ele>
        <time>2016-04-17T11:09:04Z</time>
      </trkpt>
      <trkpt lat="45.60576" lon="4.85288">
        <ele>221</ele>
        <time>2016-04-17T11:09:05Z</time>
      </trkpt>
      <trkpt lat="45.60576" lon="4.85278">
        <ele>221</ele>
        <time>2016-04-17T11:09:06Z</time>
      </trkpt>
      <trkpt lat="45.60577" lon="4.85267">
        <ele>221</ele>
        <time>2016-04-17T11:09:07Z</time>
      </trkpt>
      <trkpt lat="45.60579" lon="4.85256">
        <ele>221</ele>
        <time>2016-04-17T11:09:08Z</time>
      </trkpt>
      <trkpt lat="45.60581" lon="4.85246">
        <ele>221</ele>
        <time>2016-04-17T11:09:09Z</time>
      </trkpt>
      <trkpt lat="45.60583" lon="4.85235">
        <ele>221</ele>
        <time>2016-04-17T11:09:10Z</time>
      </trkpt>
      <trkpt lat="45.60586" lon="4.85225">
        <ele>221</ele>
        <time>2016-04-17T11:09:11Z</time>
      </trkpt>
      <trkpt lat="45.60588" lon="4.85215">
        <ele>221</ele>
        <time>2016-04-17T11:09:12Z</time>
      </trkpt>
      <trkpt lat="45.6059" lon="4.85204">
        <ele>221</ele>
        <time>2016-04-17T11:09:13Z</time>
      </trkpt>
      <trkpt lat="45.60591" lon="4.85193">
        <ele>221</ele>
        <time>2016-04-17T11:09:14Z</time>
      </trkpt>
      <trkpt lat="45.60591" lon="4.85181">
        <ele>221</ele>
        <time>2016-04-17T11:09:15Z</time>
      </trkpt>
      <trkpt lat="45.6059" lon="4.8517">
        <ele>221</ele>
        <time>2016-04-17T11:09:16Z</time>
      </trkpt>
      <trkpt lat="45.6059" lon="4.85158">
        <ele>221</ele>
        <time>2016-04-17T11:09:17Z</time>
      </trkpt>
      <trkpt lat="45.60589" lon="4.85147">
        <ele>221</ele>
        <time>2016-04-17T11:09:18Z</time>
      </trkpt>
      <trkpt lat="45.60588" lon="4.85136">
        <ele>221</ele>
        <time>2016-04-17T11:09:19Z</time>
      </trkpt>
      <trkpt lat="45.60588" lon="4.85124">
        <ele>221</ele>
        <time>2016-04-17T11:09:20Z</time>
      </trkpt>
      <trkpt lat="45.60587" lon="4.85113">
        <ele>220.2</ele>
        <time>2016-04-17T11:09:21Z</time>
      </trkpt>
      <trkpt lat="45.60586" lon="4.85102">
        <ele>220</ele>
        <time>2016-04-17T11:09:22Z</time>
      </trkpt>
      <trkpt lat="45.60586" lon="4.85091">
        <ele>220</ele>
        <time>2016-04-17T11:09:23Z</time>
      </trkpt>
      <trkpt lat="45.60585" lon="4.8508">
        <ele>220</ele>
        <time>2016-04-17T11:09:24Z</time>
      </trkpt>
      <trkpt lat="45.60584" lon="4.85069">
        <ele>220</ele>
        <time>2016-04-17T11:09:25Z</time>
      </trkpt>
      <trkpt lat="45.60584" lon="4.85058">
        <ele>220</ele>
        <time>2016-04-17T11:09:26Z</time>
      </trkpt>
      <trkpt lat="45.60583" lon="4.85048">
        <ele>220</ele>
        <time>2016-04-17T11:09:27Z</time>
      </trkpt>
      <trkpt lat="45.60582" lon="4.85037">
        <ele>220</ele>
        <time>2016-04-17T11:09:28Z</time>
      </trkpt>
      <trkpt lat="45.60582" lon="4.85026">
        <ele>220</ele>
        <time>2016-04-17T11:09:29Z</time>
      </trkpt>
      <trkpt lat="45.60581" lon="4.85016">
        <ele>220</ele>
        <time>2016-04-17T11:09:30Z</time>
      </trkpt>
      <trkpt lat="45.60581" lon="4.85005">
        <ele>220.8</ele>
        <time>2016-04-17T11:09:31Z</time>
      </trkpt>
      <trkpt lat="45.60581" lon="4.84995">
        <ele>221</ele>
        <time>2016-04-17T11:09:32Z</time>
      </trkpt>
      <trkpt lat="45.60581" lon="4.84984">
        <ele>221</ele>
        <time>2016-04-17T11:09:33Z</time>
      </trkpt>
      <trkpt lat="45.60581" lon="4.84974">
        <ele>221</ele>
        <time>2016-04-17T11:09:34Z</time>
      </trkpt>
      <trkpt lat="45.60581" lon="4.84964">
        <ele>221</ele>
        <time>2016-04-17T11:09:35Z</time>
      </trkpt>
      <trkpt lat="45.60581" lon="4.84953">
        <ele>221</ele>
        <time>2016-04-17T11:09:36Z</time>
      </trkpt>
      <trkpt lat="45.60582" lon="4.84943">
        <ele>221</ele>
        <time>2016-04-17T11:09:37Z</time>
      </trkpt>
      <trkpt lat="45.60582" lon="4.84933">
        <ele>221</ele>
        <time>2016-04-17T11:09:38Z</time>
      </trkpt>
      <trkpt lat="45.60583" lon="4.84923">
        <ele>221</ele>
        <time>2016-04-17T11:09:39Z</time>
      </trkpt>
      <trkpt lat="45.60583" lon="4.84912">
        <ele>221</ele>
        <time>2016-04-17T11:09:40Z</time>
      </trkpt>
      <trkpt lat="45.60584" lon="4.84902">
        <ele>221</ele>
        <time>2016-04-17T11:09:41Z</time>
      </trkpt>
      <trkpt lat="45.60585" lon="4.84892">
        <ele>221</ele>
        <time>2016-04-17T11:09:42Z</time>
      </trkpt>
      <trkpt lat="45.60586" lon="4.84882">
        <ele>221</ele>
        <time>2016-04-17T11:09:43Z</time>
      </trkpt>
      <trkpt lat="45.60587" lon="4.84872">
        <ele>221</ele>
        <time>2016-04-17T11:09:44Z</time>
      </trkpt>
      <trkpt lat="45.60588" lon="4.84862">
        <ele>221</ele>
        <time>2016-04-17T11:09:45Z</time>
      </trkpt>
      <trkpt lat="45.60589" lon="4.84852">
        <ele>221</ele>
        <time>2016-04-17T11:09:46Z</time>
      </trkpt>
      <trkpt lat="45.60591" lon="4.84842">
        <ele>221</ele>
        <time>2016-04-17T11:09:47Z</time>
      </trkpt>
      <trkpt lat="45.60592" lon="4.84832">
        <ele>221</ele>
        <time>2016-04-17T11:09:48Z</time>
      </trkpt>
      <trkpt lat="45.60593" lon="4.84823">
        <ele>221</ele>
        <time>2016-04-17T11:09:49Z</time>
      </trkpt>
      <trkpt lat="45.60594" lon="4.84813">
        <ele>221</ele>
        <time>2016-04-17T11:09:50Z</time>
      </trkpt>
      <trkpt lat="45.60595" lon="4.84803">
        <ele>221</ele>
        <time>2016-04-17T11:09:51Z</time>
      </trkpt>
      <trkpt lat="45.60596" lon="4.84793">
        <ele>221</ele>
        <time>2016-04-17T11:09:52Z</time>
      </trkpt>
      <trkpt lat="45.60597" lon="4.84783">
        <ele>221</ele>
        <time>2016-04-17T11:09:53Z</time>
      </trkpt>
      <trkpt lat="45.60598" lon="4.84774">
        <ele>221</ele>
        <time>2016-04-17T11:09:54Z</time>
      </trkpt>
      <trkpt lat="45.60599" lon="4.84764">
        <ele>221</ele>
        <time>2016-04-17T11:09:55Z</time>
      </trkpt>
      <trkpt lat="45.60601" lon="4.84755">
        <ele>221</ele>
        <time>2016-04-17T11:09:56Z</time>
      </trkpt>
      <trkpt lat="45.60602" lon="4.84746">
        <ele>221</ele>
        <time>2016-04-17T11:09:57Z</time>
      </trkpt>
      <trkpt lat="45.60603" lon="4.84737">
        <ele>221</ele>
        <time>2016-04-17T11:09:58Z</time>
      </trkpt>
      <trkpt lat="45.60604" lon="4.84727">
        <ele>221</ele>
        <time>2016-04-17T11:09:59Z</time>
      </trkpt>
      <trkpt lat="45.60605" lon="4.84718">
        <ele>221</ele>
        <time>2016-04-17T11:10:00Z</time>
      </trkpt>
      <trkpt lat="45.60606" lon="4.84709">
        <ele>222.6</ele>
        <time>2016-04-17T11:10:01Z</time>
      </trkpt>
      <trkpt lat="45.60607" lon="4.84699">
        <ele>223</ele>
        <time>2016-04-17T11:10:02Z</time>
      </trkpt>
      <trkpt lat="45.60608" lon="4.8469">
        <ele>223</ele>
        <time>2016-04-17T11:10:03Z</time>
      </trkpt>
      <trkpt lat="45.6061" lon="4.84672">
        <ele>223</ele>
        <time>2016-04-17T11:10:05Z</time>
      </trkpt>
      <trkpt lat="45.60611" lon="4.84662">
        <ele>223</ele>
        <time>2016-04-17T11:10:06Z</time>
      </trkpt>
      <trkpt lat="45.60612" lon="4.84653">
        <ele>223</ele>
        <time>2016-04-17T11:10:07Z</time>
      </trkpt>
      <trkpt lat="45.60612" lon="4.84644">
        <ele>223</ele>
        <time>2016-04-17T11:10:08Z</time>
      </trkpt>
      <trkpt lat="45.60613" lon="4.84635">
        <ele>223</ele>
        <time>2016-04-17T11:10:09Z</time>
      </trkpt>
      <trkpt lat="45.60614" lon="4.84626">
        <ele>223</ele>
        <time>2016-04-17T11:10:10Z</time>
      </trkpt>
      <trkpt lat="45.60614" lon="4.84616">
        <ele>224.6</ele>
        <time>2016-04-17T11:10:11Z</time>
      </trkpt>
      <trkpt lat="45.60614" lon="4.84607">
        <ele>225</ele>
        <time>2016-04-17T11:10:12Z</time>
      </trkpt>
      <trkpt lat="45.60614" lon="4.84598">
        <ele>225</ele>
        <time>2016-04-17T11:10:13Z</time>
      </trkpt>
      <trkpt lat="45.60614" lon="4.84589">
        <ele>225</ele>
        <time>2016-04-17T11:10:14Z</time>
      </trkpt>
      <trkpt lat="45.60614" lon="4.84579">
        <ele>225</ele>
        <time>2016-04-17T11:10:15Z</time>
      </trkpt>
      <trkpt lat="45.60614" lon="4.8457">
        <ele>225</ele>
        <time>2016-04-17T11:10:16Z</time>
      </trkpt>
      <trkpt lat="45.60613" lon="4.84561">
        <ele>225</ele>
        <time>2016-04-17T11:10:17Z</time>
      </trkpt>
      <trkpt lat="45.60613" lon="4.84552">
        <ele>225</ele>
        <time>2016-04-17T11:10:18Z</time>
      </trkpt>
      <trkpt lat="45.60612" lon="4.84543">
        <ele>225</ele>
        <time>2016-04-17T11:10:19Z</time>
      </trkpt>
      <trkpt lat="45.60611" lon="4.84533">
        <ele>225</ele>
        <time>2016-04-17T11:10:20Z</time>
      </trkpt>
      <trkpt lat="45.60609" lon="4.84524">
        <ele>225.8</ele>
        <time>2016-04-17T11:10:21Z</time>
      </trkpt>
      <trkpt lat="45.60608" lon="4.84515">
        <ele>226</ele>
        <time>2016-04-17T11:10:22Z</time>
      </trkpt>
      <trkpt lat="45.60607" lon="4.84506">
        <ele>226</ele>
        <time>2016-04-17T11:10:23Z</time>
      </trkpt>
      <trkpt lat="45.60605" lon="4.84497">
        <ele>226</ele>
        <time>2016-04-17T11:10:24Z</time>
      </trkpt>
      <trkpt lat="45.60604" lon="4.84487">
        <ele>226</ele>
        <time>2016-04-17T11:10:25Z</time>
      </trkpt>
      <trkpt lat="45.60603" lon="4.84478">
        <ele>226</ele>
        <time>2016-04-17T11:10:26Z</time>
      </trkpt>
      <trkpt lat="45.60602" lon="4.84469">
        <ele>226</ele>
        <time>2016-04-17T11:10:27Z</time>
      </trkpt>
      <trkpt lat="45.60602" lon="4.84459">
        <ele>226</ele>
        <time>2016-04-17T11:10:28Z</time>
      </trkpt>
      <trkpt lat="45.60601" lon="4.84449">
        <ele>226</ele>
        <time>2016-04-17T11:10:29Z</time>
      </trkpt>
      <trkpt lat="45.60601" lon="4.8444">
        <ele>226</ele>
        <time>2016-04-17T11:10:30Z</time>
      </trkpt>
      <trkpt lat="45.606" lon="4.84431">
        <ele>226</ele>
        <time>2016-04-17T11:10:31Z</time>
      </trkpt>
      <trkpt lat="45.606" lon="4.84421">
        <ele>226</ele>
        <time>2016-04-17T11:10:32Z</time>
      </trkpt>
      <trkpt lat="45.60599" lon="4.84412">
        <ele>226</ele>
        <time>2016-04-17T11:10:33Z</time>
      </trkpt>
      <trkpt lat="45.60598" lon="4.84403">
        <ele>226</ele>
        <time>2016-04-17T11:10:34Z</time>
      </trkpt>
      <trkpt lat="45.60596" lon="4.84393">
        <ele>226</ele>
        <time>2016-04-17T11:10:35Z</time>
      </trkpt>
      <trkpt lat="45.60595" lon="4.84384">
        <ele>226</ele>
        <time>2016-04-17T11:10:36Z</time>
      </trkpt>
      <trkpt lat="45.60594" lon="4.84375">
        <ele>226</ele>
        <time>2016-04-17T11:10:37Z</time>
      </trkpt>
      <trkpt lat="45.60593" lon="4.84365">
        <ele>226</ele>
        <time>2016-04-17T11:10:38Z</time>
      </trkpt>
      <trkpt lat="45.60592" lon="4.84356">
        <ele>226</ele>
        <time>2016-04-17T11:10:39Z</time>
      </trkpt>
      <trkpt lat="45.60591" lon="4.84346">
        <ele>226</ele>
        <time>2016-04-17T11:10:40Z</time>
      </trkpt>
      <trkpt lat="45.6059" lon="4.84337">
        <ele>226</ele>
        <time>2016-04-17T11:10:41Z</time>
      </trkpt>
      <trkpt lat="45.60589" lon="4.84327">
        <ele>226</ele>
        <time>2016-04-17T11:10:42Z</time>
      </trkpt>
      <trkpt lat="45.60588" lon="4.84317">
        <ele>226</ele>
        <time>2016-04-17T11:10:43Z</time>
      </trkpt>
      <trkpt lat="45.60587" lon="4.84308">
        <ele>226</ele>
        <time>2016-04-17T11:10:44Z</time>
      </trkpt>
      <trkpt lat="45.60585" lon="4.84298">
        <ele>226</ele>
        <time>2016-04-17T11:10:45Z</time>
      </trkpt>
      <trkpt lat="45.60584" lon="4.84288">
        <ele>226</ele>
        <time>2016-04-17T11:10:46Z</time>
      </trkpt>
      <trkpt lat="45.60582" lon="4.84279">
        <ele>226</ele>
        <time>2016-04-17T11:10:47Z</time>
      </trkpt>
      <trkpt lat="45.6058" lon="4.84269">
        <ele>226</ele>
        <time>2016-04-17T11:10:48Z</time>
      </trkpt>
      <trkpt lat="45.60579" lon="4.8426">
        <ele>226</ele>
        <time>2016-04-17T11:10:49Z</time>
      </trkpt>
      <trkpt lat="45.60576" lon="4.8425">
        <ele>226</ele>
        <time>2016-04-17T11:10:50Z</time>
      </trkpt>
      <trkpt lat="45.60574" lon="4.8424">
        <ele>226</ele>
        <time>2016-04-17T11:10:51Z</time>
      </trkpt>
      <trkpt lat="45.60572" lon="4.8423">
        <ele>226</ele>
        <time>2016-04-17T11:10:52Z</time>
      </trkpt>
      <trkpt lat="45.60571" lon="4.84221">
        <ele>226</ele>
        <time>2016-04-17T11:10:53Z</time>
      </trkpt>
      <trkpt lat="45.60569" lon="4.84211">
        <ele>226</ele>
        <time>2016-04-17T11:10:54Z</time>
      </trkpt>
      <trkpt lat="45.60568" lon="4.84201">
        <ele>226</ele>
        <time>2016-04-17T11:10:55Z</time>
      </trkpt>
      <trkpt lat="45.60566" lon="4.84191">
        <ele>226</ele>
        <time>2016-04-17T11:10:56Z</time>
      </trkpt>
      <trkpt lat="45.60565" lon="4.84182">
        <ele>226</ele>
        <time>2016-04-17T11:10:57Z</time>
      </trkpt>
      <trkpt lat="45.60564" lon="4.84172">
        <ele>226</ele>
        <time>2016-04-17T11:10:58Z</time>
      </trkpt>
      <trkpt lat="45.60562" lon="4.84162">
        <ele>226</ele>
        <time>2016-04-17T11:10:59Z</time>
      </trkpt>
      <trkpt lat="45.60561" lon="4.84153">
        <ele>226</ele>
        <time>2016-04-17T11:11:00Z</time>
      </trkpt>
      <trkpt lat="45.60559" lon="4.84143">
        <ele>226</ele>
        <time>2016-04-17T11:11:01Z</time>
      </trkpt>
      <trkpt lat="45.60557" lon="4.84134">
        <ele>226</ele>
        <time>2016-04-17T11:11:02Z</time>
      </trkpt>
      <trkpt lat="45.60556" lon="4.84125">
        <ele>226</ele>
        <time>2016-04-17T11:11:03Z</time>
      </trkpt>
      <trkpt lat="45.60554" lon="4.84116">
        <ele>226</ele>
        <time>2016-04-17T11:11:04Z</time>
      </trkpt>
      <trkpt lat="45.60552" lon="4.84107">
        <ele>226</ele>
        <time>2016-04-17T11:11:05Z</time>
      </trkpt>
      <trkpt lat="45.60551" lon="4.84099">
        <ele>226</ele>
        <time>2016-04-17T11:11:06Z</time>
      </trkpt>
      <trkpt lat="45.60551" lon="4.84091">
        <ele>226</ele>
        <time>2016-04-17T11:11:07Z</time>
      </trkpt>
      <trkpt lat="45.60553" lon="4.84083">
        <ele>226</ele>
        <time>2016-04-17T11:11:08Z</time>
      </trkpt>
      <trkpt lat="45.60558" lon="4.84078">
        <ele>226</ele>
        <time>2016-04-17T11:11:09Z</time>
      </trkpt>
      <trkpt lat="45.60563" lon="4.84075">
        <ele>226</ele>
        <time>2016-04-17T11:11:10Z</time>
      </trkpt>
      <trkpt lat="45.60568" lon="4.84071">
        <ele>226.8</ele>
        <time>2016-04-17T11:11:11Z</time>
      </trkpt>
      <trkpt lat="45.60574" lon="4.84067">
        <ele>227</ele>
        <time>2016-04-17T11:11:12Z</time>
      </trkpt>
      <trkpt lat="45.60579" lon="4.84062">
        <ele>227</ele>
        <time>2016-04-17T11:11:13Z</time>
      </trkpt>
      <trkpt lat="45.60584" lon="4.84057">
        <ele>227</ele>
        <time>2016-04-17T11:11:14Z</time>
      </trkpt>
      <trkpt lat="45.60589" lon="4.84052">
        <ele>227</ele>
        <time>2016-04-17T11:11:15Z</time>
      </trkpt>
      <trkpt lat="45.60594" lon="4.84047">
        <ele>227</ele>
        <time>2016-04-17T11:11:16Z</time>
      </trkpt>
      <trkpt lat="45.60599" lon="4.84041">
        <ele>227</ele>
        <time>2016-04-17T11:11:17Z</time>
      </trkpt>
      <trkpt lat="45.60603" lon="4.84035">
        <ele>227</ele>
        <time>2016-04-17T11:11:18Z</time>
      </trkpt>
      <trkpt lat="45.60607" lon="4.84028">
        <ele>227</ele>
        <time>2016-04-17T11:11:19Z</time>
      </trkpt>
      <trkpt lat="45.60611" lon="4.84022">
        <ele>227</ele>
        <time>2016-04-17T11:11:20Z</time>
      </trkpt>
      <trkpt lat="45.60616" lon="4.84016">
        <ele>228.4</ele>
        <time>2016-04-17T11:11:21Z</time>
      </trkpt>
      <trkpt lat="45.6062" lon="4.84011">
        <ele>229</ele>
        <time>2016-04-17T11:11:22Z</time>
      </trkpt>
      <trkpt lat="45.60624" lon="4.84006">
        <ele>229</ele>
        <time>2016-04-17T11:11:23Z</time>
      </trkpt>
    </trkseg>
  </trk>
</gpx>